<?xml version="1.0" encoding="UTF-8" standalone="no" ?>
<gpx xmlns="http://www.topografix.com/GPX/1/1" xmlns:xsi="http://www.w3.org/2001/XMLSchema-instance" xsi:schemaLocation="http://www.topografix.com/GPX/1/1 http://www.topografix.com/GPX/1/1/gpx.xsd" version="1.1" creator="VisuGPX - https://www.visugpx.com">
  <metadata>
    <name>Brevet Randonneur 200 km _2022</name>
    <desc><![CDATA[Brevet randonneur 200 km du 4 juin 2022

Départ de 7 à 8 heures
Local du CTH 6 rue de la Guerche
85500 Les Herbiers

inscriptions avant le 28 mai
renseignements:
daniel.bousseau@orange.fr
0612548005
]]></desc>
  </metadata>
  <trk>
    <name><![CDATA[13808521-B200 Venise Verte 2022]]></name>
    <trkseg>
      <trkpt lat="46.86354" lon="-1.00592">
        <ele>120</ele>
        <time>2022-05-14T05:04:01Z</time>
      </trkpt>
      <trkpt lat="46.86335" lon="-1.00614">
        <ele>119</ele>
        <time>2022-05-14T05:04:05Z</time>
      </trkpt>
      <trkpt lat="46.86315" lon="-1.00632">
        <ele>119</ele>
        <time>2022-05-14T05:04:09Z</time>
      </trkpt>
      <trkpt lat="46.8627" lon="-1.00662">
        <ele>118</ele>
        <time>2022-05-14T05:04:18Z</time>
      </trkpt>
      <trkpt lat="46.86234" lon="-1.00681">
        <ele>117</ele>
        <time>2022-05-14T05:04:25Z</time>
      </trkpt>
      <trkpt lat="46.86182" lon="-1.00705">
        <ele>116</ele>
        <time>2022-05-14T05:04:35Z</time>
      </trkpt>
      <trkpt lat="46.86138" lon="-1.00732">
        <ele>116</ele>
        <time>2022-05-14T05:04:43Z</time>
      </trkpt>
      <trkpt lat="46.86094" lon="-1.00769">
        <ele>115</ele>
        <time>2022-05-14T05:04:52Z</time>
      </trkpt>
      <trkpt lat="46.86055" lon="-1.00815">
        <ele>114</ele>
        <time>2022-05-14T05:05:01Z</time>
      </trkpt>
      <trkpt lat="46.85999" lon="-1.00892">
        <ele>112</ele>
        <time>2022-05-14T05:05:15Z</time>
      </trkpt>
      <trkpt lat="46.85963" lon="-1.00951">
        <ele>113</ele>
        <time>2022-05-14T05:05:25Z</time>
      </trkpt>
      <trkpt lat="46.85957" lon="-1.00972">
        <ele>113</ele>
        <time>2022-05-14T05:05:27Z</time>
      </trkpt>
      <trkpt lat="46.85958" lon="-1.00977">
        <ele>113</ele>
        <time>2022-05-14T05:05:28Z</time>
      </trkpt>
      <trkpt lat="46.85957" lon="-1.00982">
        <ele>113</ele>
        <time>2022-05-14T05:05:29Z</time>
      </trkpt>
      <trkpt lat="46.85954" lon="-1.00985">
        <ele>113</ele>
        <time>2022-05-14T05:05:29Z</time>
      </trkpt>
      <trkpt lat="46.8595" lon="-1.00985">
        <ele>113</ele>
        <time>2022-05-14T05:05:30Z</time>
      </trkpt>
      <trkpt lat="46.85946" lon="-1.00979">
        <ele>113</ele>
        <time>2022-05-14T05:05:31Z</time>
      </trkpt>
      <trkpt lat="46.85931" lon="-1.00971">
        <ele>113</ele>
        <time>2022-05-14T05:05:34Z</time>
      </trkpt>
      <trkpt lat="46.85879" lon="-1.00946">
        <ele>113</ele>
        <time>2022-05-14T05:05:44Z</time>
      </trkpt>
      <trkpt lat="46.85858" lon="-1.00941">
        <ele>113</ele>
        <time>2022-05-14T05:05:47Z</time>
      </trkpt>
      <trkpt lat="46.85854" lon="-1.00943">
        <ele>113</ele>
        <time>2022-05-14T05:05:48Z</time>
      </trkpt>
      <trkpt lat="46.85846" lon="-1.00942">
        <ele>113</ele>
        <time>2022-05-14T05:05:49Z</time>
      </trkpt>
      <trkpt lat="46.85839" lon="-1.00934">
        <ele>113</ele>
        <time>2022-05-14T05:05:51Z</time>
      </trkpt>
      <trkpt lat="46.85837" lon="-1.00923">
        <ele>113</ele>
        <time>2022-05-14T05:05:52Z</time>
      </trkpt>
      <trkpt lat="46.85838" lon="-1.00917">
        <ele>113</ele>
        <time>2022-05-14T05:05:53Z</time>
      </trkpt>
      <trkpt lat="46.85689" lon="-1.0083">
        <ele>112</ele>
        <time>2022-05-14T05:06:22Z</time>
      </trkpt>
      <trkpt lat="46.85562" lon="-1.00711">
        <ele>108</ele>
        <time>2022-05-14T05:06:49Z</time>
      </trkpt>
      <trkpt lat="46.85539" lon="-1.00693">
        <ele>108</ele>
        <time>2022-05-14T05:06:53Z</time>
      </trkpt>
      <trkpt lat="46.85483" lon="-1.00655">
        <ele>108</ele>
        <time>2022-05-14T05:07:04Z</time>
      </trkpt>
      <trkpt lat="46.85442" lon="-1.00633">
        <ele>108</ele>
        <time>2022-05-14T05:07:12Z</time>
      </trkpt>
      <trkpt lat="46.8534" lon="-1.00587">
        <ele>109</ele>
        <time>2022-05-14T05:07:31Z</time>
      </trkpt>
      <trkpt lat="46.85285" lon="-1.00572">
        <ele>110</ele>
        <time>2022-05-14T05:07:41Z</time>
      </trkpt>
      <trkpt lat="46.85261" lon="-1.00556">
        <ele>110</ele>
        <time>2022-05-14T05:07:46Z</time>
      </trkpt>
      <trkpt lat="46.85102" lon="-1.0044">
        <ele>110</ele>
        <time>2022-05-14T05:08:17Z</time>
      </trkpt>
      <trkpt lat="46.85042" lon="-1.00404">
        <ele>112</ele>
        <time>2022-05-14T05:08:29Z</time>
      </trkpt>
      <trkpt lat="46.84987" lon="-1.00387">
        <ele>113</ele>
        <time>2022-05-14T05:08:39Z</time>
      </trkpt>
      <trkpt lat="46.84956" lon="-1.00381">
        <ele>113</ele>
        <time>2022-05-14T05:08:44Z</time>
      </trkpt>
      <trkpt lat="46.84918" lon="-1.00379">
        <ele>114</ele>
        <time>2022-05-14T05:08:51Z</time>
      </trkpt>
      <trkpt lat="46.84873" lon="-1.0038">
        <ele>114</ele>
        <time>2022-05-14T05:08:59Z</time>
      </trkpt>
      <trkpt lat="46.84828" lon="-1.0039">
        <ele>115</ele>
        <time>2022-05-14T05:09:07Z</time>
      </trkpt>
      <trkpt lat="46.84792" lon="-1.004">
        <ele>115</ele>
        <time>2022-05-14T05:09:14Z</time>
      </trkpt>
      <trkpt lat="46.84793" lon="-1.00407">
        <ele>115</ele>
        <time>2022-05-14T05:09:15Z</time>
      </trkpt>
      <trkpt lat="46.84782" lon="-1.00414">
        <ele>116</ele>
        <time>2022-05-14T05:09:17Z</time>
      </trkpt>
      <trkpt lat="46.8478" lon="-1.00418">
        <ele>116</ele>
        <time>2022-05-14T05:09:17Z</time>
      </trkpt>
      <trkpt lat="46.84765" lon="-1.00426">
        <ele>116</ele>
        <time>2022-05-14T05:09:20Z</time>
      </trkpt>
      <trkpt lat="46.8475" lon="-1.0043">
        <ele>116</ele>
        <time>2022-05-14T05:09:23Z</time>
      </trkpt>
      <trkpt lat="46.84695" lon="-1.00451">
        <ele>114</ele>
        <time>2022-05-14T05:09:33Z</time>
      </trkpt>
      <trkpt lat="46.84623" lon="-1.00474">
        <ele>112</ele>
        <time>2022-05-14T05:09:46Z</time>
      </trkpt>
      <trkpt lat="46.8455" lon="-1.00485">
        <ele>111</ele>
        <time>2022-05-14T05:09:59Z</time>
      </trkpt>
      <trkpt lat="46.84531" lon="-1.00484">
        <ele>111</ele>
        <time>2022-05-14T05:10:03Z</time>
      </trkpt>
      <trkpt lat="46.84522" lon="-1.00487">
        <ele>111</ele>
        <time>2022-05-14T05:10:04Z</time>
      </trkpt>
      <trkpt lat="46.84505" lon="-1.005">
        <ele>111</ele>
        <time>2022-05-14T05:10:08Z</time>
      </trkpt>
      <trkpt lat="46.84496" lon="-1.00512">
        <ele>111</ele>
        <time>2022-05-14T05:10:10Z</time>
      </trkpt>
      <trkpt lat="46.84486" lon="-1.00515">
        <ele>111</ele>
        <time>2022-05-14T05:10:12Z</time>
      </trkpt>
      <trkpt lat="46.84479" lon="-1.00513">
        <ele>112</ele>
        <time>2022-05-14T05:10:13Z</time>
      </trkpt>
      <trkpt lat="46.84453" lon="-1.00495">
        <ele>112</ele>
        <time>2022-05-14T05:10:18Z</time>
      </trkpt>
      <trkpt lat="46.84435" lon="-1.0048">
        <ele>113</ele>
        <time>2022-05-14T05:10:22Z</time>
      </trkpt>
      <trkpt lat="46.83875" lon="-1.00435">
        <ele>125</ele>
        <time>2022-05-14T05:12:01Z</time>
      </trkpt>
      <trkpt lat="46.83871" lon="-1.00422">
        <ele>126</ele>
        <time>2022-05-14T05:12:03Z</time>
      </trkpt>
      <trkpt lat="46.83613" lon="-1.00403">
        <ele>129</ele>
        <time>2022-05-14T05:12:49Z</time>
      </trkpt>
      <trkpt lat="46.83506" lon="-1.00398">
        <ele>127</ele>
        <time>2022-05-14T05:13:08Z</time>
      </trkpt>
      <trkpt lat="46.83326" lon="-1.00377">
        <ele>126</ele>
        <time>2022-05-14T05:13:40Z</time>
      </trkpt>
      <trkpt lat="46.83152" lon="-1.00367">
        <ele>121</ele>
        <time>2022-05-14T05:14:11Z</time>
      </trkpt>
      <trkpt lat="46.82971" lon="-1.00352">
        <ele>114</ele>
        <time>2022-05-14T05:14:44Z</time>
      </trkpt>
      <trkpt lat="46.82942" lon="-1.00346">
        <ele>113</ele>
        <time>2022-05-14T05:14:49Z</time>
      </trkpt>
      <trkpt lat="46.82918" lon="-1.00337">
        <ele>112</ele>
        <time>2022-05-14T05:14:53Z</time>
      </trkpt>
      <trkpt lat="46.82896" lon="-1.00326">
        <ele>112</ele>
        <time>2022-05-14T05:14:57Z</time>
      </trkpt>
      <trkpt lat="46.8288" lon="-1.00315">
        <ele>112</ele>
        <time>2022-05-14T05:15:01Z</time>
      </trkpt>
      <trkpt lat="46.82843" lon="-1.00277">
        <ele>111</ele>
        <time>2022-05-14T05:15:09Z</time>
      </trkpt>
      <trkpt lat="46.82826" lon="-1.00254">
        <ele>110</ele>
        <time>2022-05-14T05:15:13Z</time>
      </trkpt>
      <trkpt lat="46.82796" lon="-1.00194">
        <ele>109</ele>
        <time>2022-05-14T05:15:22Z</time>
      </trkpt>
      <trkpt lat="46.82784" lon="-1.00163">
        <ele>109</ele>
        <time>2022-05-14T05:15:26Z</time>
      </trkpt>
      <trkpt lat="46.82675" lon="-0.99834">
        <ele>99</ele>
        <time>2022-05-14T05:16:11Z</time>
      </trkpt>
      <trkpt lat="46.82637" lon="-0.99724">
        <ele>95</ele>
        <time>2022-05-14T05:16:26Z</time>
      </trkpt>
      <trkpt lat="46.82619" lon="-0.9969">
        <ele>94</ele>
        <time>2022-05-14T05:16:31Z</time>
      </trkpt>
      <trkpt lat="46.826" lon="-0.99666">
        <ele>92</ele>
        <time>2022-05-14T05:16:35Z</time>
      </trkpt>
      <trkpt lat="46.8258" lon="-0.99653">
        <ele>91</ele>
        <time>2022-05-14T05:16:39Z</time>
      </trkpt>
      <trkpt lat="46.82566" lon="-0.99646">
        <ele>92</ele>
        <time>2022-05-14T05:16:42Z</time>
      </trkpt>
      <trkpt lat="46.82551" lon="-0.99642">
        <ele>92</ele>
        <time>2022-05-14T05:16:44Z</time>
      </trkpt>
      <trkpt lat="46.82422" lon="-0.99623">
        <ele>98</ele>
        <time>2022-05-14T05:17:08Z</time>
      </trkpt>
      <trkpt lat="46.82392" lon="-0.99616">
        <ele>99</ele>
        <time>2022-05-14T05:17:13Z</time>
      </trkpt>
      <trkpt lat="46.82369" lon="-0.99601">
        <ele>101</ele>
        <time>2022-05-14T05:17:17Z</time>
      </trkpt>
      <trkpt lat="46.82358" lon="-0.99589">
        <ele>103</ele>
        <time>2022-05-14T05:17:20Z</time>
      </trkpt>
      <trkpt lat="46.82347" lon="-0.99571">
        <ele>104</ele>
        <time>2022-05-14T05:17:23Z</time>
      </trkpt>
      <trkpt lat="46.82339" lon="-0.99555">
        <ele>106</ele>
        <time>2022-05-14T05:17:25Z</time>
      </trkpt>
      <trkpt lat="46.82317" lon="-0.99495">
        <ele>109</ele>
        <time>2022-05-14T05:17:34Z</time>
      </trkpt>
      <trkpt lat="46.82311" lon="-0.99486">
        <ele>109</ele>
        <time>2022-05-14T05:17:35Z</time>
      </trkpt>
      <trkpt lat="46.82303" lon="-0.99478">
        <ele>109</ele>
        <time>2022-05-14T05:17:37Z</time>
      </trkpt>
      <trkpt lat="46.82273" lon="-0.9946">
        <ele>109</ele>
        <time>2022-05-14T05:17:43Z</time>
      </trkpt>
      <trkpt lat="46.82259" lon="-0.99448">
        <ele>110</ele>
        <time>2022-05-14T05:17:45Z</time>
      </trkpt>
      <trkpt lat="46.8226" lon="-0.99367">
        <ele>113</ele>
        <time>2022-05-14T05:17:55Z</time>
      </trkpt>
      <trkpt lat="46.82254" lon="-0.99322">
        <ele>114</ele>
        <time>2022-05-14T05:18:01Z</time>
      </trkpt>
      <trkpt lat="46.8224" lon="-0.99256">
        <ele>117</ele>
        <time>2022-05-14T05:18:09Z</time>
      </trkpt>
      <trkpt lat="46.82208" lon="-0.99087">
        <ele>117</ele>
        <time>2022-05-14T05:18:31Z</time>
      </trkpt>
      <trkpt lat="46.82199" lon="-0.9907">
        <ele>116</ele>
        <time>2022-05-14T05:18:33Z</time>
      </trkpt>
      <trkpt lat="46.82189" lon="-0.99054">
        <ele>116</ele>
        <time>2022-05-14T05:18:36Z</time>
      </trkpt>
      <trkpt lat="46.82169" lon="-0.99033">
        <ele>114</ele>
        <time>2022-05-14T05:18:40Z</time>
      </trkpt>
      <trkpt lat="46.82155" lon="-0.99021">
        <ele>113</ele>
        <time>2022-05-14T05:18:43Z</time>
      </trkpt>
      <trkpt lat="46.82115" lon="-0.98994">
        <ele>111</ele>
        <time>2022-05-14T05:18:51Z</time>
      </trkpt>
      <trkpt lat="46.82035" lon="-0.98948">
        <ele>108</ele>
        <time>2022-05-14T05:19:06Z</time>
      </trkpt>
      <trkpt lat="46.81974" lon="-0.98906">
        <ele>106</ele>
        <time>2022-05-14T05:19:18Z</time>
      </trkpt>
      <trkpt lat="46.81762" lon="-0.98767">
        <ele>113</ele>
        <time>2022-05-14T05:20:00Z</time>
      </trkpt>
      <trkpt lat="46.81728" lon="-0.9875">
        <ele>113</ele>
        <time>2022-05-14T05:20:06Z</time>
      </trkpt>
      <trkpt lat="46.81029" lon="-0.98519">
        <ele>105</ele>
        <time>2022-05-14T05:22:14Z</time>
      </trkpt>
      <trkpt lat="46.80976" lon="-0.985">
        <ele>107</ele>
        <time>2022-05-14T05:22:23Z</time>
      </trkpt>
      <trkpt lat="46.80931" lon="-0.9849">
        <ele>110</ele>
        <time>2022-05-14T05:22:31Z</time>
      </trkpt>
      <trkpt lat="46.8091" lon="-0.9849">
        <ele>111</ele>
        <time>2022-05-14T05:22:35Z</time>
      </trkpt>
      <trkpt lat="46.80887" lon="-0.98494">
        <ele>111</ele>
        <time>2022-05-14T05:22:39Z</time>
      </trkpt>
      <trkpt lat="46.80414" lon="-0.98636">
        <ele>105</ele>
        <time>2022-05-14T05:24:05Z</time>
      </trkpt>
      <trkpt lat="46.80372" lon="-0.9865">
        <ele>106</ele>
        <time>2022-05-14T05:24:13Z</time>
      </trkpt>
      <trkpt lat="46.80354" lon="-0.98653">
        <ele>106</ele>
        <time>2022-05-14T05:24:16Z</time>
      </trkpt>
      <trkpt lat="46.80338" lon="-0.98653">
        <ele>106</ele>
        <time>2022-05-14T05:24:19Z</time>
      </trkpt>
      <trkpt lat="46.8032" lon="-0.98647">
        <ele>107</ele>
        <time>2022-05-14T05:24:22Z</time>
      </trkpt>
      <trkpt lat="46.80019" lon="-0.98481">
        <ele>102</ele>
        <time>2022-05-14T05:25:19Z</time>
      </trkpt>
      <trkpt lat="46.79995" lon="-0.98465">
        <ele>101</ele>
        <time>2022-05-14T05:25:24Z</time>
      </trkpt>
      <trkpt lat="46.79973" lon="-0.98443">
        <ele>100</ele>
        <time>2022-05-14T05:25:29Z</time>
      </trkpt>
      <trkpt lat="46.79952" lon="-0.98418">
        <ele>99</ele>
        <time>2022-05-14T05:25:34Z</time>
      </trkpt>
      <trkpt lat="46.79935" lon="-0.98393">
        <ele>99</ele>
        <time>2022-05-14T05:25:38Z</time>
      </trkpt>
      <trkpt lat="46.79919" lon="-0.98374">
        <ele>99</ele>
        <time>2022-05-14T05:25:42Z</time>
      </trkpt>
      <trkpt lat="46.79896" lon="-0.98357">
        <ele>97</ele>
        <time>2022-05-14T05:25:46Z</time>
      </trkpt>
      <trkpt lat="46.79871" lon="-0.9835">
        <ele>96</ele>
        <time>2022-05-14T05:25:51Z</time>
      </trkpt>
      <trkpt lat="46.79857" lon="-0.9835">
        <ele>95</ele>
        <time>2022-05-14T05:25:53Z</time>
      </trkpt>
      <trkpt lat="46.79843" lon="-0.98353">
        <ele>95</ele>
        <time>2022-05-14T05:25:56Z</time>
      </trkpt>
      <trkpt lat="46.79806" lon="-0.98366">
        <ele>94</ele>
        <time>2022-05-14T05:26:03Z</time>
      </trkpt>
      <trkpt lat="46.79779" lon="-0.9837">
        <ele>94</ele>
        <time>2022-05-14T05:26:07Z</time>
      </trkpt>
      <trkpt lat="46.79758" lon="-0.98369">
        <ele>94</ele>
        <time>2022-05-14T05:26:11Z</time>
      </trkpt>
      <trkpt lat="46.7972" lon="-0.98354">
        <ele>94</ele>
        <time>2022-05-14T05:26:18Z</time>
      </trkpt>
      <trkpt lat="46.79679" lon="-0.98329">
        <ele>96</ele>
        <time>2022-05-14T05:26:26Z</time>
      </trkpt>
      <trkpt lat="46.79661" lon="-0.98314">
        <ele>97</ele>
        <time>2022-05-14T05:26:30Z</time>
      </trkpt>
      <trkpt lat="46.7964" lon="-0.98287">
        <ele>100</ele>
        <time>2022-05-14T05:26:35Z</time>
      </trkpt>
      <trkpt lat="46.79628" lon="-0.9827">
        <ele>101</ele>
        <time>2022-05-14T05:26:38Z</time>
      </trkpt>
      <trkpt lat="46.79606" lon="-0.98229">
        <ele>103</ele>
        <time>2022-05-14T05:26:44Z</time>
      </trkpt>
      <trkpt lat="46.7957" lon="-0.98156">
        <ele>106</ele>
        <time>2022-05-14T05:26:55Z</time>
      </trkpt>
      <trkpt lat="46.79557" lon="-0.98136">
        <ele>106</ele>
        <time>2022-05-14T05:26:58Z</time>
      </trkpt>
      <trkpt lat="46.79528" lon="-0.98102">
        <ele>107</ele>
        <time>2022-05-14T05:27:05Z</time>
      </trkpt>
      <trkpt lat="46.79472" lon="-0.98045">
        <ele>109</ele>
        <time>2022-05-14T05:27:17Z</time>
      </trkpt>
      <trkpt lat="46.79449" lon="-0.98012">
        <ele>110</ele>
        <time>2022-05-14T05:27:23Z</time>
      </trkpt>
      <trkpt lat="46.79412" lon="-0.97942">
        <ele>111</ele>
        <time>2022-05-14T05:27:34Z</time>
      </trkpt>
      <trkpt lat="46.79397" lon="-0.97902">
        <ele>111</ele>
        <time>2022-05-14T05:27:39Z</time>
      </trkpt>
      <trkpt lat="46.79384" lon="-0.97862">
        <ele>112</ele>
        <time>2022-05-14T05:27:45Z</time>
      </trkpt>
      <trkpt lat="46.79369" lon="-0.97808">
        <ele>113</ele>
        <time>2022-05-14T05:27:52Z</time>
      </trkpt>
      <trkpt lat="46.79362" lon="-0.97766">
        <ele>113</ele>
        <time>2022-05-14T05:27:57Z</time>
      </trkpt>
      <trkpt lat="46.79356" lon="-0.97672">
        <ele>113</ele>
        <time>2022-05-14T05:28:08Z</time>
      </trkpt>
      <trkpt lat="46.79349" lon="-0.97628">
        <ele>113</ele>
        <time>2022-05-14T05:28:14Z</time>
      </trkpt>
      <trkpt lat="46.79341" lon="-0.97595">
        <ele>113</ele>
        <time>2022-05-14T05:28:18Z</time>
      </trkpt>
      <trkpt lat="46.79314" lon="-0.9753">
        <ele>111</ele>
        <time>2022-05-14T05:28:27Z</time>
      </trkpt>
      <trkpt lat="46.79274" lon="-0.97455">
        <ele>110</ele>
        <time>2022-05-14T05:28:39Z</time>
      </trkpt>
      <trkpt lat="46.79255" lon="-0.97424">
        <ele>109</ele>
        <time>2022-05-14T05:28:44Z</time>
      </trkpt>
      <trkpt lat="46.79214" lon="-0.97365">
        <ele>109</ele>
        <time>2022-05-14T05:28:54Z</time>
      </trkpt>
      <trkpt lat="46.79163" lon="-0.97304">
        <ele>108</ele>
        <time>2022-05-14T05:29:06Z</time>
      </trkpt>
      <trkpt lat="46.79092" lon="-0.97225">
        <ele>105</ele>
        <time>2022-05-14T05:29:22Z</time>
      </trkpt>
      <trkpt lat="46.79046" lon="-0.97182">
        <ele>104</ele>
        <time>2022-05-14T05:29:32Z</time>
      </trkpt>
      <trkpt lat="46.79015" lon="-0.97156">
        <ele>105</ele>
        <time>2022-05-14T05:29:38Z</time>
      </trkpt>
      <trkpt lat="46.78917" lon="-0.97084">
        <ele>107</ele>
        <time>2022-05-14T05:29:58Z</time>
      </trkpt>
      <trkpt lat="46.78851" lon="-0.97046">
        <ele>108</ele>
        <time>2022-05-14T05:30:10Z</time>
      </trkpt>
      <trkpt lat="46.78772" lon="-0.97009">
        <ele>110</ele>
        <time>2022-05-14T05:30:25Z</time>
      </trkpt>
      <trkpt lat="46.78665" lon="-0.9697">
        <ele>117</ele>
        <time>2022-05-14T05:30:45Z</time>
      </trkpt>
      <trkpt lat="46.78612" lon="-0.96948">
        <ele>121</ele>
        <time>2022-05-14T05:30:54Z</time>
      </trkpt>
      <trkpt lat="46.78357" lon="-0.96774">
        <ele>121</ele>
        <time>2022-05-14T05:31:44Z</time>
      </trkpt>
      <trkpt lat="46.78338" lon="-0.96767">
        <ele>120</ele>
        <time>2022-05-14T05:31:48Z</time>
      </trkpt>
      <trkpt lat="46.78319" lon="-0.96764">
        <ele>120</ele>
        <time>2022-05-14T05:31:51Z</time>
      </trkpt>
      <trkpt lat="46.7823" lon="-0.96753">
        <ele>120</ele>
        <time>2022-05-14T05:32:07Z</time>
      </trkpt>
      <trkpt lat="46.78188" lon="-0.96734">
        <ele>121</ele>
        <time>2022-05-14T05:32:15Z</time>
      </trkpt>
      <trkpt lat="46.78104" lon="-0.96682">
        <ele>122</ele>
        <time>2022-05-14T05:32:31Z</time>
      </trkpt>
      <trkpt lat="46.78025" lon="-0.96653">
        <ele>124</ele>
        <time>2022-05-14T05:32:46Z</time>
      </trkpt>
      <trkpt lat="46.77879" lon="-0.96606">
        <ele>127</ele>
        <time>2022-05-14T05:33:12Z</time>
      </trkpt>
      <trkpt lat="46.77834" lon="-0.96582">
        <ele>127</ele>
        <time>2022-05-14T05:33:21Z</time>
      </trkpt>
      <trkpt lat="46.77793" lon="-0.96557">
        <ele>130</ele>
        <time>2022-05-14T05:33:29Z</time>
      </trkpt>
      <trkpt lat="46.77663" lon="-0.9644">
        <ele>134</ele>
        <time>2022-05-14T05:33:56Z</time>
      </trkpt>
      <trkpt lat="46.7761" lon="-0.96377">
        <ele>133</ele>
        <time>2022-05-14T05:34:08Z</time>
      </trkpt>
      <trkpt lat="46.7759" lon="-0.96355">
        <ele>132</ele>
        <time>2022-05-14T05:34:13Z</time>
      </trkpt>
      <trkpt lat="46.77576" lon="-0.96346">
        <ele>131</ele>
        <time>2022-05-14T05:34:15Z</time>
      </trkpt>
      <trkpt lat="46.77558" lon="-0.96337">
        <ele>131</ele>
        <time>2022-05-14T05:34:19Z</time>
      </trkpt>
      <trkpt lat="46.77527" lon="-0.96334">
        <ele>130</ele>
        <time>2022-05-14T05:34:24Z</time>
      </trkpt>
      <trkpt lat="46.775" lon="-0.96334">
        <ele>130</ele>
        <time>2022-05-14T05:34:29Z</time>
      </trkpt>
      <trkpt lat="46.77446" lon="-0.96343">
        <ele>129</ele>
        <time>2022-05-14T05:34:39Z</time>
      </trkpt>
      <trkpt lat="46.7735" lon="-0.96372">
        <ele>128</ele>
        <time>2022-05-14T05:34:56Z</time>
      </trkpt>
      <trkpt lat="46.77263" lon="-0.96389">
        <ele>124</ele>
        <time>2022-05-14T05:35:12Z</time>
      </trkpt>
      <trkpt lat="46.77234" lon="-0.9639">
        <ele>124</ele>
        <time>2022-05-14T05:35:17Z</time>
      </trkpt>
      <trkpt lat="46.77214" lon="-0.96386">
        <ele>124</ele>
        <time>2022-05-14T05:35:20Z</time>
      </trkpt>
      <trkpt lat="46.77197" lon="-0.96375">
        <ele>124</ele>
        <time>2022-05-14T05:35:24Z</time>
      </trkpt>
      <trkpt lat="46.77138" lon="-0.96322">
        <ele>120</ele>
        <time>2022-05-14T05:35:36Z</time>
      </trkpt>
      <trkpt lat="46.77111" lon="-0.96294">
        <ele>119</ele>
        <time>2022-05-14T05:35:42Z</time>
      </trkpt>
      <trkpt lat="46.76985" lon="-0.96149">
        <ele>111</ele>
        <time>2022-05-14T05:36:11Z</time>
      </trkpt>
      <trkpt lat="46.76953" lon="-0.96116">
        <ele>108</ele>
        <time>2022-05-14T05:36:18Z</time>
      </trkpt>
      <trkpt lat="46.76925" lon="-0.96091">
        <ele>107</ele>
        <time>2022-05-14T05:36:23Z</time>
      </trkpt>
      <trkpt lat="46.76907" lon="-0.96081">
        <ele>106</ele>
        <time>2022-05-14T05:36:27Z</time>
      </trkpt>
      <trkpt lat="46.76886" lon="-0.96075">
        <ele>107</ele>
        <time>2022-05-14T05:36:31Z</time>
      </trkpt>
      <trkpt lat="46.76863" lon="-0.96073">
        <ele>107</ele>
        <time>2022-05-14T05:36:35Z</time>
      </trkpt>
      <trkpt lat="46.76742" lon="-0.96075">
        <ele>110</ele>
        <time>2022-05-14T05:36:56Z</time>
      </trkpt>
      <trkpt lat="46.76697" lon="-0.96071">
        <ele>110</ele>
        <time>2022-05-14T05:37:04Z</time>
      </trkpt>
      <trkpt lat="46.76632" lon="-0.96059">
        <ele>110</ele>
        <time>2022-05-14T05:37:16Z</time>
      </trkpt>
      <trkpt lat="46.76596" lon="-0.96046">
        <ele>110</ele>
        <time>2022-05-14T05:37:23Z</time>
      </trkpt>
      <trkpt lat="46.76573" lon="-0.96028">
        <ele>110</ele>
        <time>2022-05-14T05:37:27Z</time>
      </trkpt>
      <trkpt lat="46.76509" lon="-0.9596">
        <ele>110</ele>
        <time>2022-05-14T05:37:41Z</time>
      </trkpt>
      <trkpt lat="46.76487" lon="-0.95941">
        <ele>110</ele>
        <time>2022-05-14T05:37:46Z</time>
      </trkpt>
      <trkpt lat="46.76465" lon="-0.95927">
        <ele>110</ele>
        <time>2022-05-14T05:37:50Z</time>
      </trkpt>
      <trkpt lat="46.76367" lon="-0.95882">
        <ele>110</ele>
        <time>2022-05-14T05:38:08Z</time>
      </trkpt>
      <trkpt lat="46.76326" lon="-0.95868">
        <ele>109</ele>
        <time>2022-05-14T05:38:16Z</time>
      </trkpt>
      <trkpt lat="46.76226" lon="-0.95845">
        <ele>107</ele>
        <time>2022-05-14T05:38:34Z</time>
      </trkpt>
      <trkpt lat="46.76221" lon="-0.95838">
        <ele>107</ele>
        <time>2022-05-14T05:38:35Z</time>
      </trkpt>
      <trkpt lat="46.76102" lon="-0.95957">
        <ele>103</ele>
        <time>2022-05-14T05:39:01Z</time>
      </trkpt>
      <trkpt lat="46.76082" lon="-0.95983">
        <ele>104</ele>
        <time>2022-05-14T05:39:05Z</time>
      </trkpt>
      <trkpt lat="46.76063" lon="-0.9602">
        <ele>105</ele>
        <time>2022-05-14T05:39:11Z</time>
      </trkpt>
      <trkpt lat="46.7607" lon="-0.9603">
        <ele>105</ele>
        <time>2022-05-14T05:39:13Z</time>
      </trkpt>
      <trkpt lat="46.76071" lon="-0.96044">
        <ele>105</ele>
        <time>2022-05-14T05:39:15Z</time>
      </trkpt>
      <trkpt lat="46.76069" lon="-0.96051">
        <ele>105</ele>
        <time>2022-05-14T05:39:16Z</time>
      </trkpt>
      <trkpt lat="46.76063" lon="-0.96059">
        <ele>105</ele>
        <time>2022-05-14T05:39:17Z</time>
      </trkpt>
      <trkpt lat="46.76055" lon="-0.96062">
        <ele>105</ele>
        <time>2022-05-14T05:39:18Z</time>
      </trkpt>
      <trkpt lat="46.76047" lon="-0.96057">
        <ele>105</ele>
        <time>2022-05-14T05:39:20Z</time>
      </trkpt>
      <trkpt lat="46.76042" lon="-0.96047">
        <ele>105</ele>
        <time>2022-05-14T05:39:21Z</time>
      </trkpt>
      <trkpt lat="46.75997" lon="-0.96096">
        <ele>107</ele>
        <time>2022-05-14T05:39:31Z</time>
      </trkpt>
      <trkpt lat="46.7598" lon="-0.96108">
        <ele>108</ele>
        <time>2022-05-14T05:39:35Z</time>
      </trkpt>
      <trkpt lat="46.75961" lon="-0.96118">
        <ele>108</ele>
        <time>2022-05-14T05:39:38Z</time>
      </trkpt>
      <trkpt lat="46.75937" lon="-0.96124">
        <ele>109</ele>
        <time>2022-05-14T05:39:43Z</time>
      </trkpt>
      <trkpt lat="46.75902" lon="-0.96127">
        <ele>110</ele>
        <time>2022-05-14T05:39:49Z</time>
      </trkpt>
      <trkpt lat="46.75885" lon="-0.96131">
        <ele>110</ele>
        <time>2022-05-14T05:39:52Z</time>
      </trkpt>
      <trkpt lat="46.75799" lon="-0.96166">
        <ele>111</ele>
        <time>2022-05-14T05:40:08Z</time>
      </trkpt>
      <trkpt lat="46.75786" lon="-0.96174">
        <ele>110</ele>
        <time>2022-05-14T05:40:10Z</time>
      </trkpt>
      <trkpt lat="46.75755" lon="-0.96199">
        <ele>109</ele>
        <time>2022-05-14T05:40:17Z</time>
      </trkpt>
      <trkpt lat="46.75669" lon="-0.96287">
        <ele>108</ele>
        <time>2022-05-14T05:40:35Z</time>
      </trkpt>
      <trkpt lat="46.75647" lon="-0.96302">
        <ele>107</ele>
        <time>2022-05-14T05:40:40Z</time>
      </trkpt>
      <trkpt lat="46.75563" lon="-0.96079">
        <ele>103</ele>
        <time>2022-05-14T05:41:11Z</time>
      </trkpt>
      <trkpt lat="46.75548" lon="-0.96044">
        <ele>103</ele>
        <time>2022-05-14T05:41:16Z</time>
      </trkpt>
      <trkpt lat="46.75529" lon="-0.96004">
        <ele>102</ele>
        <time>2022-05-14T05:41:22Z</time>
      </trkpt>
      <trkpt lat="46.7552" lon="-0.9598">
        <ele>102</ele>
        <time>2022-05-14T05:41:25Z</time>
      </trkpt>
      <trkpt lat="46.75507" lon="-0.95967">
        <ele>102</ele>
        <time>2022-05-14T05:41:28Z</time>
      </trkpt>
      <trkpt lat="46.75412" lon="-0.95891">
        <ele>99</ele>
        <time>2022-05-14T05:41:47Z</time>
      </trkpt>
      <trkpt lat="46.75388" lon="-0.95867">
        <ele>99</ele>
        <time>2022-05-14T05:41:52Z</time>
      </trkpt>
      <trkpt lat="46.75357" lon="-0.95816">
        <ele>98</ele>
        <time>2022-05-14T05:42:01Z</time>
      </trkpt>
      <trkpt lat="46.7535" lon="-0.95808">
        <ele>98</ele>
        <time>2022-05-14T05:42:02Z</time>
      </trkpt>
      <trkpt lat="46.75342" lon="-0.95811">
        <ele>97</ele>
        <time>2022-05-14T05:42:04Z</time>
      </trkpt>
      <trkpt lat="46.75338" lon="-0.9581">
        <ele>97</ele>
        <time>2022-05-14T05:42:04Z</time>
      </trkpt>
      <trkpt lat="46.75331" lon="-0.95802">
        <ele>97</ele>
        <time>2022-05-14T05:42:06Z</time>
      </trkpt>
      <trkpt lat="46.7533" lon="-0.95797">
        <ele>97</ele>
        <time>2022-05-14T05:42:07Z</time>
      </trkpt>
      <trkpt lat="46.7533" lon="-0.95786">
        <ele>97</ele>
        <time>2022-05-14T05:42:08Z</time>
      </trkpt>
      <trkpt lat="46.75336" lon="-0.95775">
        <ele>97</ele>
        <time>2022-05-14T05:42:10Z</time>
      </trkpt>
      <trkpt lat="46.75325" lon="-0.95755">
        <ele>97</ele>
        <time>2022-05-14T05:42:13Z</time>
      </trkpt>
      <trkpt lat="46.75288" lon="-0.95675">
        <ele>91</ele>
        <time>2022-05-14T05:42:25Z</time>
      </trkpt>
      <trkpt lat="46.75263" lon="-0.95631">
        <ele>88</ele>
        <time>2022-05-14T05:42:32Z</time>
      </trkpt>
      <trkpt lat="46.75248" lon="-0.9561">
        <ele>87</ele>
        <time>2022-05-14T05:42:35Z</time>
      </trkpt>
      <trkpt lat="46.75222" lon="-0.95582">
        <ele>85</ele>
        <time>2022-05-14T05:42:41Z</time>
      </trkpt>
      <trkpt lat="46.75172" lon="-0.95544">
        <ele>82</ele>
        <time>2022-05-14T05:42:51Z</time>
      </trkpt>
      <trkpt lat="46.75139" lon="-0.95505">
        <ele>82</ele>
        <time>2022-05-14T05:42:59Z</time>
      </trkpt>
      <trkpt lat="46.75113" lon="-0.95467">
        <ele>80</ele>
        <time>2022-05-14T05:43:05Z</time>
      </trkpt>
      <trkpt lat="46.75096" lon="-0.9543">
        <ele>78</ele>
        <time>2022-05-14T05:43:11Z</time>
      </trkpt>
      <trkpt lat="46.75089" lon="-0.95405">
        <ele>76</ele>
        <time>2022-05-14T05:43:14Z</time>
      </trkpt>
      <trkpt lat="46.75076" lon="-0.95307">
        <ele>75</ele>
        <time>2022-05-14T05:43:26Z</time>
      </trkpt>
      <trkpt lat="46.75071" lon="-0.95278">
        <ele>73</ele>
        <time>2022-05-14T05:43:30Z</time>
      </trkpt>
      <trkpt lat="46.75064" lon="-0.95252">
        <ele>71</ele>
        <time>2022-05-14T05:43:33Z</time>
      </trkpt>
      <trkpt lat="46.75049" lon="-0.95215">
        <ele>68</ele>
        <time>2022-05-14T05:43:38Z</time>
      </trkpt>
      <trkpt lat="46.75035" lon="-0.95191">
        <ele>66</ele>
        <time>2022-05-14T05:43:42Z</time>
      </trkpt>
      <trkpt lat="46.75014" lon="-0.95168">
        <ele>64</ele>
        <time>2022-05-14T05:43:47Z</time>
      </trkpt>
      <trkpt lat="46.74999" lon="-0.95155">
        <ele>64</ele>
        <time>2022-05-14T05:43:50Z</time>
      </trkpt>
      <trkpt lat="46.74968" lon="-0.95137">
        <ele>67</ele>
        <time>2022-05-14T05:43:56Z</time>
      </trkpt>
      <trkpt lat="46.74942" lon="-0.95132">
        <ele>70</ele>
        <time>2022-05-14T05:44:01Z</time>
      </trkpt>
      <trkpt lat="46.74932" lon="-0.95132">
        <ele>70</ele>
        <time>2022-05-14T05:44:02Z</time>
      </trkpt>
      <trkpt lat="46.74919" lon="-0.95136">
        <ele>71</ele>
        <time>2022-05-14T05:44:05Z</time>
      </trkpt>
      <trkpt lat="46.74888" lon="-0.95152">
        <ele>70</ele>
        <time>2022-05-14T05:44:11Z</time>
      </trkpt>
      <trkpt lat="46.7487" lon="-0.95157">
        <ele>71</ele>
        <time>2022-05-14T05:44:14Z</time>
      </trkpt>
      <trkpt lat="46.74855" lon="-0.95156">
        <ele>72</ele>
        <time>2022-05-14T05:44:16Z</time>
      </trkpt>
      <trkpt lat="46.74823" lon="-0.95148">
        <ele>74</ele>
        <time>2022-05-14T05:44:22Z</time>
      </trkpt>
      <trkpt lat="46.74812" lon="-0.9515">
        <ele>74</ele>
        <time>2022-05-14T05:44:24Z</time>
      </trkpt>
      <trkpt lat="46.74797" lon="-0.95157">
        <ele>74</ele>
        <time>2022-05-14T05:44:27Z</time>
      </trkpt>
      <trkpt lat="46.74774" lon="-0.95173">
        <ele>75</ele>
        <time>2022-05-14T05:44:32Z</time>
      </trkpt>
      <trkpt lat="46.7476" lon="-0.95177">
        <ele>76</ele>
        <time>2022-05-14T05:44:34Z</time>
      </trkpt>
      <trkpt lat="46.74747" lon="-0.95177">
        <ele>77</ele>
        <time>2022-05-14T05:44:36Z</time>
      </trkpt>
      <trkpt lat="46.74735" lon="-0.95171">
        <ele>78</ele>
        <time>2022-05-14T05:44:39Z</time>
      </trkpt>
      <trkpt lat="46.74726" lon="-0.95163">
        <ele>80</ele>
        <time>2022-05-14T05:44:41Z</time>
      </trkpt>
      <trkpt lat="46.74689" lon="-0.95116">
        <ele>83</ele>
        <time>2022-05-14T05:44:49Z</time>
      </trkpt>
      <trkpt lat="46.74675" lon="-0.95106">
        <ele>84</ele>
        <time>2022-05-14T05:44:52Z</time>
      </trkpt>
      <trkpt lat="46.74669" lon="-0.95102">
        <ele>85</ele>
        <time>2022-05-14T05:44:53Z</time>
      </trkpt>
      <trkpt lat="46.74616" lon="-0.95087">
        <ele>88</ele>
        <time>2022-05-14T05:45:03Z</time>
      </trkpt>
      <trkpt lat="46.74584" lon="-0.95069">
        <ele>90</ele>
        <time>2022-05-14T05:45:09Z</time>
      </trkpt>
      <trkpt lat="46.74563" lon="-0.95053">
        <ele>91</ele>
        <time>2022-05-14T05:45:13Z</time>
      </trkpt>
      <trkpt lat="46.74538" lon="-0.95017">
        <ele>92</ele>
        <time>2022-05-14T05:45:19Z</time>
      </trkpt>
      <trkpt lat="46.74518" lon="-0.94984">
        <ele>94</ele>
        <time>2022-05-14T05:45:25Z</time>
      </trkpt>
      <trkpt lat="46.7451" lon="-0.94958">
        <ele>95</ele>
        <time>2022-05-14T05:45:28Z</time>
      </trkpt>
      <trkpt lat="46.74505" lon="-0.94949">
        <ele>96</ele>
        <time>2022-05-14T05:45:30Z</time>
      </trkpt>
      <trkpt lat="46.74498" lon="-0.94945">
        <ele>97</ele>
        <time>2022-05-14T05:45:31Z</time>
      </trkpt>
      <trkpt lat="46.74492" lon="-0.94952">
        <ele>96</ele>
        <time>2022-05-14T05:45:32Z</time>
      </trkpt>
      <trkpt lat="46.74484" lon="-0.94953">
        <ele>97</ele>
        <time>2022-05-14T05:45:34Z</time>
      </trkpt>
      <trkpt lat="46.74475" lon="-0.94934">
        <ele>98</ele>
        <time>2022-05-14T05:45:37Z</time>
      </trkpt>
      <trkpt lat="46.74475" lon="-0.94923">
        <ele>98</ele>
        <time>2022-05-14T05:45:38Z</time>
      </trkpt>
      <trkpt lat="46.74454" lon="-0.94901">
        <ele>99</ele>
        <time>2022-05-14T05:45:43Z</time>
      </trkpt>
      <trkpt lat="46.74448" lon="-0.94899">
        <ele>99</ele>
        <time>2022-05-14T05:45:44Z</time>
      </trkpt>
      <trkpt lat="46.74437" lon="-0.949">
        <ele>99</ele>
        <time>2022-05-14T05:45:46Z</time>
      </trkpt>
      <trkpt lat="46.74422" lon="-0.94908">
        <ele>99</ele>
        <time>2022-05-14T05:45:48Z</time>
      </trkpt>
      <trkpt lat="46.74396" lon="-0.94916">
        <ele>100</ele>
        <time>2022-05-14T05:45:53Z</time>
      </trkpt>
      <trkpt lat="46.74385" lon="-0.94918">
        <ele>100</ele>
        <time>2022-05-14T05:45:55Z</time>
      </trkpt>
      <trkpt lat="46.74354" lon="-0.94915">
        <ele>102</ele>
        <time>2022-05-14T05:46:01Z</time>
      </trkpt>
      <trkpt lat="46.74291" lon="-0.94909">
        <ele>105</ele>
        <time>2022-05-14T05:46:12Z</time>
      </trkpt>
      <trkpt lat="46.74237" lon="-0.94899">
        <ele>107</ele>
        <time>2022-05-14T05:46:22Z</time>
      </trkpt>
      <trkpt lat="46.74213" lon="-0.94893">
        <ele>107</ele>
        <time>2022-05-14T05:46:26Z</time>
      </trkpt>
      <trkpt lat="46.74165" lon="-0.94873">
        <ele>108</ele>
        <time>2022-05-14T05:46:35Z</time>
      </trkpt>
      <trkpt lat="46.74143" lon="-0.94857">
        <ele>108</ele>
        <time>2022-05-14T05:46:39Z</time>
      </trkpt>
      <trkpt lat="46.74125" lon="-0.94838">
        <ele>108</ele>
        <time>2022-05-14T05:46:43Z</time>
      </trkpt>
      <trkpt lat="46.7408" lon="-0.94774">
        <ele>107</ele>
        <time>2022-05-14T05:46:54Z</time>
      </trkpt>
      <trkpt lat="46.74059" lon="-0.94737">
        <ele>107</ele>
        <time>2022-05-14T05:47:00Z</time>
      </trkpt>
      <trkpt lat="46.74003" lon="-0.94623">
        <ele>109</ele>
        <time>2022-05-14T05:47:17Z</time>
      </trkpt>
      <trkpt lat="46.7398" lon="-0.94581">
        <ele>108</ele>
        <time>2022-05-14T05:47:24Z</time>
      </trkpt>
      <trkpt lat="46.73917" lon="-0.94504">
        <ele>108</ele>
        <time>2022-05-14T05:47:38Z</time>
      </trkpt>
      <trkpt lat="46.73874" lon="-0.94459">
        <ele>106</ele>
        <time>2022-05-14T05:47:48Z</time>
      </trkpt>
      <trkpt lat="46.73853" lon="-0.94442">
        <ele>105</ele>
        <time>2022-05-14T05:47:52Z</time>
      </trkpt>
      <trkpt lat="46.73825" lon="-0.94423">
        <ele>103</ele>
        <time>2022-05-14T05:47:58Z</time>
      </trkpt>
      <trkpt lat="46.73801" lon="-0.94412">
        <ele>102</ele>
        <time>2022-05-14T05:48:02Z</time>
      </trkpt>
      <trkpt lat="46.73741" lon="-0.94392">
        <ele>99</ele>
        <time>2022-05-14T05:48:13Z</time>
      </trkpt>
      <trkpt lat="46.73641" lon="-0.94366">
        <ele>97</ele>
        <time>2022-05-14T05:48:31Z</time>
      </trkpt>
      <trkpt lat="46.73624" lon="-0.94359">
        <ele>97</ele>
        <time>2022-05-14T05:48:34Z</time>
      </trkpt>
      <trkpt lat="46.73586" lon="-0.94332">
        <ele>97</ele>
        <time>2022-05-14T05:48:42Z</time>
      </trkpt>
      <trkpt lat="46.73555" lon="-0.94303">
        <ele>96</ele>
        <time>2022-05-14T05:48:48Z</time>
      </trkpt>
      <trkpt lat="46.73483" lon="-0.94227">
        <ele>97</ele>
        <time>2022-05-14T05:49:04Z</time>
      </trkpt>
      <trkpt lat="46.73463" lon="-0.94203">
        <ele>98</ele>
        <time>2022-05-14T05:49:09Z</time>
      </trkpt>
      <trkpt lat="46.73119" lon="-0.93729">
        <ele>102</ele>
        <time>2022-05-14T05:50:33Z</time>
      </trkpt>
      <trkpt lat="46.731" lon="-0.93701">
        <ele>102</ele>
        <time>2022-05-14T05:50:38Z</time>
      </trkpt>
      <trkpt lat="46.73075" lon="-0.93651">
        <ele>102</ele>
        <time>2022-05-14T05:50:45Z</time>
      </trkpt>
      <trkpt lat="46.73062" lon="-0.93617">
        <ele>102</ele>
        <time>2022-05-14T05:50:50Z</time>
      </trkpt>
      <trkpt lat="46.73026" lon="-0.93502">
        <ele>101</ele>
        <time>2022-05-14T05:51:05Z</time>
      </trkpt>
      <trkpt lat="46.73012" lon="-0.9347">
        <ele>101</ele>
        <time>2022-05-14T05:51:10Z</time>
      </trkpt>
      <trkpt lat="46.72996" lon="-0.9344">
        <ele>101</ele>
        <time>2022-05-14T05:51:15Z</time>
      </trkpt>
      <trkpt lat="46.72979" lon="-0.93413">
        <ele>101</ele>
        <time>2022-05-14T05:51:19Z</time>
      </trkpt>
      <trkpt lat="46.72953" lon="-0.93374">
        <ele>102</ele>
        <time>2022-05-14T05:51:26Z</time>
      </trkpt>
      <trkpt lat="46.72678" lon="-0.93023">
        <ele>92</ele>
        <time>2022-05-14T05:52:31Z</time>
      </trkpt>
      <trkpt lat="46.72649" lon="-0.92976">
        <ele>90</ele>
        <time>2022-05-14T05:52:39Z</time>
      </trkpt>
      <trkpt lat="46.72578" lon="-0.92841">
        <ele>82</ele>
        <time>2022-05-14T05:52:59Z</time>
      </trkpt>
      <trkpt lat="46.72546" lon="-0.92789">
        <ele>79</ele>
        <time>2022-05-14T05:53:08Z</time>
      </trkpt>
      <trkpt lat="46.72528" lon="-0.92764">
        <ele>78</ele>
        <time>2022-05-14T05:53:12Z</time>
      </trkpt>
      <trkpt lat="46.72494" lon="-0.9272">
        <ele>75</ele>
        <time>2022-05-14T05:53:20Z</time>
      </trkpt>
      <trkpt lat="46.72415" lon="-0.92637">
        <ele>69</ele>
        <time>2022-05-14T05:53:38Z</time>
      </trkpt>
      <trkpt lat="46.72398" lon="-0.92614">
        <ele>69</ele>
        <time>2022-05-14T05:53:42Z</time>
      </trkpt>
      <trkpt lat="46.72385" lon="-0.9259">
        <ele>69</ele>
        <time>2022-05-14T05:53:46Z</time>
      </trkpt>
      <trkpt lat="46.72367" lon="-0.92549">
        <ele>71</ele>
        <time>2022-05-14T05:53:51Z</time>
      </trkpt>
      <trkpt lat="46.72359" lon="-0.92526">
        <ele>72</ele>
        <time>2022-05-14T05:53:55Z</time>
      </trkpt>
      <trkpt lat="46.72352" lon="-0.92503">
        <ele>72</ele>
        <time>2022-05-14T05:53:58Z</time>
      </trkpt>
      <trkpt lat="46.72342" lon="-0.92454">
        <ele>73</ele>
        <time>2022-05-14T05:54:04Z</time>
      </trkpt>
      <trkpt lat="46.72337" lon="-0.92433">
        <ele>74</ele>
        <time>2022-05-14T05:54:07Z</time>
      </trkpt>
      <trkpt lat="46.72323" lon="-0.92401">
        <ele>75</ele>
        <time>2022-05-14T05:54:11Z</time>
      </trkpt>
      <trkpt lat="46.72313" lon="-0.92384">
        <ele>76</ele>
        <time>2022-05-14T05:54:14Z</time>
      </trkpt>
      <trkpt lat="46.72299" lon="-0.92368">
        <ele>77</ele>
        <time>2022-05-14T05:54:17Z</time>
      </trkpt>
      <trkpt lat="46.72281" lon="-0.92354">
        <ele>78</ele>
        <time>2022-05-14T05:54:21Z</time>
      </trkpt>
      <trkpt lat="46.72255" lon="-0.92341">
        <ele>79</ele>
        <time>2022-05-14T05:54:26Z</time>
      </trkpt>
      <trkpt lat="46.72028" lon="-0.92241">
        <ele>92</ele>
        <time>2022-05-14T05:55:08Z</time>
      </trkpt>
      <trkpt lat="46.71968" lon="-0.92206">
        <ele>95</ele>
        <time>2022-05-14T05:55:19Z</time>
      </trkpt>
      <trkpt lat="46.71931" lon="-0.92178">
        <ele>96</ele>
        <time>2022-05-14T05:55:27Z</time>
      </trkpt>
      <trkpt lat="46.71867" lon="-0.92118">
        <ele>99</ele>
        <time>2022-05-14T05:55:40Z</time>
      </trkpt>
      <trkpt lat="46.71823" lon="-0.92063">
        <ele>101</ele>
        <time>2022-05-14T05:55:51Z</time>
      </trkpt>
      <trkpt lat="46.71789" lon="-0.92006">
        <ele>103</ele>
        <time>2022-05-14T05:56:00Z</time>
      </trkpt>
      <trkpt lat="46.7177" lon="-0.91967">
        <ele>102</ele>
        <time>2022-05-14T05:56:06Z</time>
      </trkpt>
      <trkpt lat="46.71758" lon="-0.91946">
        <ele>102</ele>
        <time>2022-05-14T05:56:09Z</time>
      </trkpt>
      <trkpt lat="46.71749" lon="-0.91936">
        <ele>102</ele>
        <time>2022-05-14T05:56:11Z</time>
      </trkpt>
      <trkpt lat="46.71709" lon="-0.91913">
        <ele>103</ele>
        <time>2022-05-14T05:56:19Z</time>
      </trkpt>
      <trkpt lat="46.71718" lon="-0.91884">
        <ele>102</ele>
        <time>2022-05-14T05:56:23Z</time>
      </trkpt>
      <trkpt lat="46.71725" lon="-0.91843">
        <ele>101</ele>
        <time>2022-05-14T05:56:28Z</time>
      </trkpt>
      <trkpt lat="46.71729" lon="-0.91827">
        <ele>101</ele>
        <time>2022-05-14T05:56:30Z</time>
      </trkpt>
      <trkpt lat="46.71725" lon="-0.91822">
        <ele>101</ele>
        <time>2022-05-14T05:56:31Z</time>
      </trkpt>
      <trkpt lat="46.71696" lon="-0.91745">
        <ele>101</ele>
        <time>2022-05-14T05:56:41Z</time>
      </trkpt>
      <trkpt lat="46.71676" lon="-0.91705">
        <ele>102</ele>
        <time>2022-05-14T05:56:47Z</time>
      </trkpt>
      <trkpt lat="46.71642" lon="-0.91655">
        <ele>101</ele>
        <time>2022-05-14T05:56:56Z</time>
      </trkpt>
      <trkpt lat="46.71628" lon="-0.9163">
        <ele>101</ele>
        <time>2022-05-14T05:57:00Z</time>
      </trkpt>
      <trkpt lat="46.71584" lon="-0.91538">
        <ele>100</ele>
        <time>2022-05-14T05:57:14Z</time>
      </trkpt>
      <trkpt lat="46.71557" lon="-0.91475">
        <ele>99</ele>
        <time>2022-05-14T05:57:23Z</time>
      </trkpt>
      <trkpt lat="46.71538" lon="-0.91412">
        <ele>100</ele>
        <time>2022-05-14T05:57:31Z</time>
      </trkpt>
      <trkpt lat="46.71516" lon="-0.91354">
        <ele>100</ele>
        <time>2022-05-14T05:57:39Z</time>
      </trkpt>
      <trkpt lat="46.71477" lon="-0.91271">
        <ele>99</ele>
        <time>2022-05-14T05:57:52Z</time>
      </trkpt>
      <trkpt lat="46.71463" lon="-0.91247">
        <ele>99</ele>
        <time>2022-05-14T05:57:55Z</time>
      </trkpt>
      <trkpt lat="46.71449" lon="-0.91227">
        <ele>99</ele>
        <time>2022-05-14T05:57:59Z</time>
      </trkpt>
      <trkpt lat="46.71427" lon="-0.91206">
        <ele>99</ele>
        <time>2022-05-14T05:58:04Z</time>
      </trkpt>
      <trkpt lat="46.71386" lon="-0.91185">
        <ele>100</ele>
        <time>2022-05-14T05:58:11Z</time>
      </trkpt>
      <trkpt lat="46.71358" lon="-0.91165">
        <ele>100</ele>
        <time>2022-05-14T05:58:17Z</time>
      </trkpt>
      <trkpt lat="46.71329" lon="-0.9113">
        <ele>100</ele>
        <time>2022-05-14T05:58:24Z</time>
      </trkpt>
      <trkpt lat="46.7132" lon="-0.91113">
        <ele>101</ele>
        <time>2022-05-14T05:58:26Z</time>
      </trkpt>
      <trkpt lat="46.71306" lon="-0.91076">
        <ele>101</ele>
        <time>2022-05-14T05:58:31Z</time>
      </trkpt>
      <trkpt lat="46.71162" lon="-0.90598">
        <ele>101</ele>
        <time>2022-05-14T05:59:35Z</time>
      </trkpt>
      <trkpt lat="46.71142" lon="-0.90543">
        <ele>101</ele>
        <time>2022-05-14T05:59:43Z</time>
      </trkpt>
      <trkpt lat="46.71129" lon="-0.90519">
        <ele>101</ele>
        <time>2022-05-14T05:59:46Z</time>
      </trkpt>
      <trkpt lat="46.7111" lon="-0.90487">
        <ele>101</ele>
        <time>2022-05-14T05:59:51Z</time>
      </trkpt>
      <trkpt lat="46.71025" lon="-0.9037">
        <ele>104</ele>
        <time>2022-05-14T06:00:12Z</time>
      </trkpt>
      <trkpt lat="46.71017" lon="-0.90355">
        <ele>104</ele>
        <time>2022-05-14T06:00:15Z</time>
      </trkpt>
      <trkpt lat="46.71011" lon="-0.90338">
        <ele>105</ele>
        <time>2022-05-14T06:00:17Z</time>
      </trkpt>
      <trkpt lat="46.71006" lon="-0.9032">
        <ele>105</ele>
        <time>2022-05-14T06:00:19Z</time>
      </trkpt>
      <trkpt lat="46.71001" lon="-0.90278">
        <ele>104</ele>
        <time>2022-05-14T06:00:24Z</time>
      </trkpt>
      <trkpt lat="46.71003" lon="-0.90239">
        <ele>104</ele>
        <time>2022-05-14T06:00:29Z</time>
      </trkpt>
      <trkpt lat="46.71023" lon="-0.90116">
        <ele>101</ele>
        <time>2022-05-14T06:00:45Z</time>
      </trkpt>
      <trkpt lat="46.71028" lon="-0.90063">
        <ele>101</ele>
        <time>2022-05-14T06:00:51Z</time>
      </trkpt>
      <trkpt lat="46.71028" lon="-0.90037">
        <ele>102</ele>
        <time>2022-05-14T06:00:54Z</time>
      </trkpt>
      <trkpt lat="46.71026" lon="-0.9001">
        <ele>102</ele>
        <time>2022-05-14T06:00:58Z</time>
      </trkpt>
      <trkpt lat="46.71019" lon="-0.89972">
        <ele>103</ele>
        <time>2022-05-14T06:01:03Z</time>
      </trkpt>
      <trkpt lat="46.70966" lon="-0.89747">
        <ele>105</ele>
        <time>2022-05-14T06:01:32Z</time>
      </trkpt>
      <trkpt lat="46.70806" lon="-0.89081">
        <ele>88</ele>
        <time>2022-05-14T06:02:58Z</time>
      </trkpt>
      <trkpt lat="46.70798" lon="-0.89052">
        <ele>87</ele>
        <time>2022-05-14T06:03:01Z</time>
      </trkpt>
      <trkpt lat="46.70788" lon="-0.89026">
        <ele>87</ele>
        <time>2022-05-14T06:03:05Z</time>
      </trkpt>
      <trkpt lat="46.70777" lon="-0.89001">
        <ele>86</ele>
        <time>2022-05-14T06:03:09Z</time>
      </trkpt>
      <trkpt lat="46.70753" lon="-0.8896">
        <ele>85</ele>
        <time>2022-05-14T06:03:15Z</time>
      </trkpt>
      <trkpt lat="46.70741" lon="-0.88945">
        <ele>85</ele>
        <time>2022-05-14T06:03:18Z</time>
      </trkpt>
      <trkpt lat="46.70659" lon="-0.8886">
        <ele>82</ele>
        <time>2022-05-14T06:03:36Z</time>
      </trkpt>
      <trkpt lat="46.70601" lon="-0.88814">
        <ele>80</ele>
        <time>2022-05-14T06:03:48Z</time>
      </trkpt>
      <trkpt lat="46.70532" lon="-0.88767">
        <ele>77</ele>
        <time>2022-05-14T06:04:01Z</time>
      </trkpt>
      <trkpt lat="46.70513" lon="-0.88752">
        <ele>76</ele>
        <time>2022-05-14T06:04:05Z</time>
      </trkpt>
      <trkpt lat="46.70472" lon="-0.88727">
        <ele>74</ele>
        <time>2022-05-14T06:04:13Z</time>
      </trkpt>
      <trkpt lat="46.70455" lon="-0.88718">
        <ele>74</ele>
        <time>2022-05-14T06:04:16Z</time>
      </trkpt>
      <trkpt lat="46.7043" lon="-0.8871">
        <ele>73</ele>
        <time>2022-05-14T06:04:21Z</time>
      </trkpt>
      <trkpt lat="46.70411" lon="-0.88706">
        <ele>73</ele>
        <time>2022-05-14T06:04:24Z</time>
      </trkpt>
      <trkpt lat="46.70378" lon="-0.88702">
        <ele>74</ele>
        <time>2022-05-14T06:04:30Z</time>
      </trkpt>
      <trkpt lat="46.70325" lon="-0.88701">
        <ele>77</ele>
        <time>2022-05-14T06:04:40Z</time>
      </trkpt>
      <trkpt lat="46.70311" lon="-0.88698">
        <ele>79</ele>
        <time>2022-05-14T06:04:42Z</time>
      </trkpt>
      <trkpt lat="46.70297" lon="-0.88689">
        <ele>81</ele>
        <time>2022-05-14T06:04:45Z</time>
      </trkpt>
      <trkpt lat="46.70283" lon="-0.88677">
        <ele>83</ele>
        <time>2022-05-14T06:04:48Z</time>
      </trkpt>
      <trkpt lat="46.70269" lon="-0.88661">
        <ele>84</ele>
        <time>2022-05-14T06:04:51Z</time>
      </trkpt>
      <trkpt lat="46.70235" lon="-0.88614">
        <ele>88</ele>
        <time>2022-05-14T06:04:59Z</time>
      </trkpt>
      <trkpt lat="46.70198" lon="-0.88575">
        <ele>91</ele>
        <time>2022-05-14T06:05:07Z</time>
      </trkpt>
      <trkpt lat="46.70176" lon="-0.88557">
        <ele>93</ele>
        <time>2022-05-14T06:05:12Z</time>
      </trkpt>
      <trkpt lat="46.7015" lon="-0.88541">
        <ele>95</ele>
        <time>2022-05-14T06:05:17Z</time>
      </trkpt>
      <trkpt lat="46.70033" lon="-0.88483">
        <ele>104</ele>
        <time>2022-05-14T06:05:39Z</time>
      </trkpt>
      <trkpt lat="46.69997" lon="-0.88461">
        <ele>106</ele>
        <time>2022-05-14T06:05:46Z</time>
      </trkpt>
      <trkpt lat="46.69952" lon="-0.88421">
        <ele>105</ele>
        <time>2022-05-14T06:05:55Z</time>
      </trkpt>
      <trkpt lat="46.69915" lon="-0.8838">
        <ele>106</ele>
        <time>2022-05-14T06:06:03Z</time>
      </trkpt>
      <trkpt lat="46.69791" lon="-0.88217">
        <ele>105</ele>
        <time>2022-05-14T06:06:33Z</time>
      </trkpt>
      <trkpt lat="46.69769" lon="-0.88181">
        <ele>107</ele>
        <time>2022-05-14T06:06:39Z</time>
      </trkpt>
      <trkpt lat="46.69758" lon="-0.88159">
        <ele>107</ele>
        <time>2022-05-14T06:06:42Z</time>
      </trkpt>
      <trkpt lat="46.69747" lon="-0.88128">
        <ele>107</ele>
        <time>2022-05-14T06:06:47Z</time>
      </trkpt>
      <trkpt lat="46.69737" lon="-0.88094">
        <ele>107</ele>
        <time>2022-05-14T06:06:51Z</time>
      </trkpt>
      <trkpt lat="46.69696" lon="-0.87924">
        <ele>104</ele>
        <time>2022-05-14T06:07:13Z</time>
      </trkpt>
      <trkpt lat="46.69686" lon="-0.87892">
        <ele>104</ele>
        <time>2022-05-14T06:07:17Z</time>
      </trkpt>
      <trkpt lat="46.69674" lon="-0.87861">
        <ele>105</ele>
        <time>2022-05-14T06:07:22Z</time>
      </trkpt>
      <trkpt lat="46.6966" lon="-0.87834">
        <ele>106</ele>
        <time>2022-05-14T06:07:26Z</time>
      </trkpt>
      <trkpt lat="46.69625" lon="-0.87776">
        <ele>110</ele>
        <time>2022-05-14T06:07:35Z</time>
      </trkpt>
      <trkpt lat="46.69467" lon="-0.87573">
        <ele>114</ele>
        <time>2022-05-14T06:08:13Z</time>
      </trkpt>
      <trkpt lat="46.6943" lon="-0.87521">
        <ele>113</ele>
        <time>2022-05-14T06:08:22Z</time>
      </trkpt>
      <trkpt lat="46.69399" lon="-0.87466">
        <ele>115</ele>
        <time>2022-05-14T06:08:31Z</time>
      </trkpt>
      <trkpt lat="46.69354" lon="-0.87376">
        <ele>120</ele>
        <time>2022-05-14T06:08:44Z</time>
      </trkpt>
      <trkpt lat="46.69335" lon="-0.87351">
        <ele>121</ele>
        <time>2022-05-14T06:08:49Z</time>
      </trkpt>
      <trkpt lat="46.69297" lon="-0.8731">
        <ele>123</ele>
        <time>2022-05-14T06:08:57Z</time>
      </trkpt>
      <trkpt lat="46.6923" lon="-0.87225">
        <ele>122</ele>
        <time>2022-05-14T06:09:13Z</time>
      </trkpt>
      <trkpt lat="46.69213" lon="-0.8721">
        <ele>122</ele>
        <time>2022-05-14T06:09:16Z</time>
      </trkpt>
      <trkpt lat="46.69144" lon="-0.87159">
        <ele>121</ele>
        <time>2022-05-14T06:09:30Z</time>
      </trkpt>
      <trkpt lat="46.69132" lon="-0.87145">
        <ele>121</ele>
        <time>2022-05-14T06:09:33Z</time>
      </trkpt>
      <trkpt lat="46.69055" lon="-0.87044">
        <ele>124</ele>
        <time>2022-05-14T06:09:51Z</time>
      </trkpt>
      <trkpt lat="46.69036" lon="-0.87026">
        <ele>124</ele>
        <time>2022-05-14T06:09:55Z</time>
      </trkpt>
      <trkpt lat="46.68951" lon="-0.86954">
        <ele>128</ele>
        <time>2022-05-14T06:10:13Z</time>
      </trkpt>
      <trkpt lat="46.68933" lon="-0.86943">
        <ele>129</ele>
        <time>2022-05-14T06:10:16Z</time>
      </trkpt>
      <trkpt lat="46.68912" lon="-0.86934">
        <ele>130</ele>
        <time>2022-05-14T06:10:20Z</time>
      </trkpt>
      <trkpt lat="46.68803" lon="-0.86902">
        <ele>134</ele>
        <time>2022-05-14T06:10:40Z</time>
      </trkpt>
      <trkpt lat="46.68767" lon="-0.86886">
        <ele>135</ele>
        <time>2022-05-14T06:10:47Z</time>
      </trkpt>
      <trkpt lat="46.68738" lon="-0.8687">
        <ele>135</ele>
        <time>2022-05-14T06:10:52Z</time>
      </trkpt>
      <trkpt lat="46.68681" lon="-0.86833">
        <ele>136</ele>
        <time>2022-05-14T06:11:03Z</time>
      </trkpt>
      <trkpt lat="46.68659" lon="-0.86813">
        <ele>137</ele>
        <time>2022-05-14T06:11:08Z</time>
      </trkpt>
      <trkpt lat="46.68557" lon="-0.8667">
        <ele>137</ele>
        <time>2022-05-14T06:11:33Z</time>
      </trkpt>
      <trkpt lat="46.6854" lon="-0.86644">
        <ele>138</ele>
        <time>2022-05-14T06:11:38Z</time>
      </trkpt>
      <trkpt lat="46.68529" lon="-0.86619">
        <ele>138</ele>
        <time>2022-05-14T06:11:41Z</time>
      </trkpt>
      <trkpt lat="46.6852" lon="-0.86593">
        <ele>138</ele>
        <time>2022-05-14T06:11:45Z</time>
      </trkpt>
      <trkpt lat="46.68504" lon="-0.86503">
        <ele>140</ele>
        <time>2022-05-14T06:11:56Z</time>
      </trkpt>
      <trkpt lat="46.68494" lon="-0.86456">
        <ele>139</ele>
        <time>2022-05-14T06:12:02Z</time>
      </trkpt>
      <trkpt lat="46.68478" lon="-0.86405">
        <ele>137</ele>
        <time>2022-05-14T06:12:09Z</time>
      </trkpt>
      <trkpt lat="46.68426" lon="-0.86255">
        <ele>133</ele>
        <time>2022-05-14T06:12:29Z</time>
      </trkpt>
      <trkpt lat="46.68404" lon="-0.86197">
        <ele>133</ele>
        <time>2022-05-14T06:12:38Z</time>
      </trkpt>
      <trkpt lat="46.68385" lon="-0.86156">
        <ele>134</ele>
        <time>2022-05-14T06:12:44Z</time>
      </trkpt>
      <trkpt lat="46.68344" lon="-0.86078">
        <ele>135</ele>
        <time>2022-05-14T06:12:56Z</time>
      </trkpt>
      <trkpt lat="46.68236" lon="-0.85888">
        <ele>134</ele>
        <time>2022-05-14T06:13:26Z</time>
      </trkpt>
      <trkpt lat="46.6821" lon="-0.85854">
        <ele>131</ele>
        <time>2022-05-14T06:13:32Z</time>
      </trkpt>
      <trkpt lat="46.68148" lon="-0.85794">
        <ele>127</ele>
        <time>2022-05-14T06:13:45Z</time>
      </trkpt>
      <trkpt lat="46.68119" lon="-0.85773">
        <ele>126</ele>
        <time>2022-05-14T06:13:51Z</time>
      </trkpt>
      <trkpt lat="46.68087" lon="-0.85753">
        <ele>124</ele>
        <time>2022-05-14T06:13:57Z</time>
      </trkpt>
      <trkpt lat="46.6803" lon="-0.85725">
        <ele>124</ele>
        <time>2022-05-14T06:14:08Z</time>
      </trkpt>
      <trkpt lat="46.67991" lon="-0.85701">
        <ele>123</ele>
        <time>2022-05-14T06:14:15Z</time>
      </trkpt>
      <trkpt lat="46.67964" lon="-0.85678">
        <ele>122</ele>
        <time>2022-05-14T06:14:21Z</time>
      </trkpt>
      <trkpt lat="46.67936" lon="-0.85651">
        <ele>121</ele>
        <time>2022-05-14T06:14:27Z</time>
      </trkpt>
      <trkpt lat="46.67887" lon="-0.85586">
        <ele>117</ele>
        <time>2022-05-14T06:14:39Z</time>
      </trkpt>
      <trkpt lat="46.67834" lon="-0.8553">
        <ele>113</ele>
        <time>2022-05-14T06:14:50Z</time>
      </trkpt>
      <trkpt lat="46.6775" lon="-0.85433">
        <ele>109</ele>
        <time>2022-05-14T06:15:09Z</time>
      </trkpt>
      <trkpt lat="46.67741" lon="-0.85429">
        <ele>109</ele>
        <time>2022-05-14T06:15:11Z</time>
      </trkpt>
      <trkpt lat="46.67735" lon="-0.85433">
        <ele>109</ele>
        <time>2022-05-14T06:15:12Z</time>
      </trkpt>
      <trkpt lat="46.67732" lon="-0.85433">
        <ele>109</ele>
        <time>2022-05-14T06:15:13Z</time>
      </trkpt>
      <trkpt lat="46.67726" lon="-0.85429">
        <ele>109</ele>
        <time>2022-05-14T06:15:14Z</time>
      </trkpt>
      <trkpt lat="46.67723" lon="-0.85421">
        <ele>109</ele>
        <time>2022-05-14T06:15:15Z</time>
      </trkpt>
      <trkpt lat="46.67713" lon="-0.85411">
        <ele>110</ele>
        <time>2022-05-14T06:15:17Z</time>
      </trkpt>
      <trkpt lat="46.67695" lon="-0.85369">
        <ele>110</ele>
        <time>2022-05-14T06:15:23Z</time>
      </trkpt>
      <trkpt lat="46.67665" lon="-0.85321">
        <ele>111</ele>
        <time>2022-05-14T06:15:31Z</time>
      </trkpt>
      <trkpt lat="46.67658" lon="-0.85307">
        <ele>111</ele>
        <time>2022-05-14T06:15:33Z</time>
      </trkpt>
      <trkpt lat="46.67651" lon="-0.85284">
        <ele>112</ele>
        <time>2022-05-14T06:15:36Z</time>
      </trkpt>
      <trkpt lat="46.6765" lon="-0.85261">
        <ele>112</ele>
        <time>2022-05-14T06:15:39Z</time>
      </trkpt>
      <trkpt lat="46.67667" lon="-0.85091">
        <ele>112</ele>
        <time>2022-05-14T06:16:00Z</time>
      </trkpt>
      <trkpt lat="46.67658" lon="-0.85023">
        <ele>112</ele>
        <time>2022-05-14T06:16:09Z</time>
      </trkpt>
      <trkpt lat="46.67654" lon="-0.85003">
        <ele>111</ele>
        <time>2022-05-14T06:16:11Z</time>
      </trkpt>
      <trkpt lat="46.6762" lon="-0.84915">
        <ele>107</ele>
        <time>2022-05-14T06:16:23Z</time>
      </trkpt>
      <trkpt lat="46.67596" lon="-0.84885">
        <ele>106</ele>
        <time>2022-05-14T06:16:29Z</time>
      </trkpt>
      <trkpt lat="46.67583" lon="-0.84861">
        <ele>105</ele>
        <time>2022-05-14T06:16:33Z</time>
      </trkpt>
      <trkpt lat="46.67577" lon="-0.84847">
        <ele>104</ele>
        <time>2022-05-14T06:16:35Z</time>
      </trkpt>
      <trkpt lat="46.67575" lon="-0.84838">
        <ele>104</ele>
        <time>2022-05-14T06:16:36Z</time>
      </trkpt>
      <trkpt lat="46.67553" lon="-0.84832">
        <ele>102</ele>
        <time>2022-05-14T06:16:40Z</time>
      </trkpt>
      <trkpt lat="46.67543" lon="-0.84818">
        <ele>101</ele>
        <time>2022-05-14T06:16:42Z</time>
      </trkpt>
      <trkpt lat="46.67537" lon="-0.84813">
        <ele>100</ele>
        <time>2022-05-14T06:16:44Z</time>
      </trkpt>
      <trkpt lat="46.67504" lon="-0.84802">
        <ele>99</ele>
        <time>2022-05-14T06:16:50Z</time>
      </trkpt>
      <trkpt lat="46.67494" lon="-0.84794">
        <ele>98</ele>
        <time>2022-05-14T06:16:52Z</time>
      </trkpt>
      <trkpt lat="46.67444" lon="-0.84727">
        <ele>98</ele>
        <time>2022-05-14T06:17:04Z</time>
      </trkpt>
      <trkpt lat="46.6741" lon="-0.84687">
        <ele>99</ele>
        <time>2022-05-14T06:17:12Z</time>
      </trkpt>
      <trkpt lat="46.67364" lon="-0.84628">
        <ele>99</ele>
        <time>2022-05-14T06:17:23Z</time>
      </trkpt>
      <trkpt lat="46.67337" lon="-0.84596">
        <ele>99</ele>
        <time>2022-05-14T06:17:29Z</time>
      </trkpt>
      <trkpt lat="46.67267" lon="-0.84534">
        <ele>98</ele>
        <time>2022-05-14T06:17:43Z</time>
      </trkpt>
      <trkpt lat="46.67251" lon="-0.84516">
        <ele>98</ele>
        <time>2022-05-14T06:17:47Z</time>
      </trkpt>
      <trkpt lat="46.67212" lon="-0.84469">
        <ele>97</ele>
        <time>2022-05-14T06:17:56Z</time>
      </trkpt>
      <trkpt lat="46.67167" lon="-0.84402">
        <ele>96</ele>
        <time>2022-05-14T06:18:07Z</time>
      </trkpt>
      <trkpt lat="46.67139" lon="-0.84369">
        <ele>97</ele>
        <time>2022-05-14T06:18:14Z</time>
      </trkpt>
      <trkpt lat="46.67087" lon="-0.84328">
        <ele>97</ele>
        <time>2022-05-14T06:18:24Z</time>
      </trkpt>
      <trkpt lat="46.67059" lon="-0.84299">
        <ele>98</ele>
        <time>2022-05-14T06:18:30Z</time>
      </trkpt>
      <trkpt lat="46.6696" lon="-0.84166">
        <ele>100</ele>
        <time>2022-05-14T06:18:54Z</time>
      </trkpt>
      <trkpt lat="46.66847" lon="-0.84045">
        <ele>105</ele>
        <time>2022-05-14T06:19:19Z</time>
      </trkpt>
      <trkpt lat="46.66758" lon="-0.83959">
        <ele>105</ele>
        <time>2022-05-14T06:19:38Z</time>
      </trkpt>
      <trkpt lat="46.6666" lon="-0.83858">
        <ele>104</ele>
        <time>2022-05-14T06:20:00Z</time>
      </trkpt>
      <trkpt lat="46.66479" lon="-0.83697">
        <ele>100</ele>
        <time>2022-05-14T06:20:37Z</time>
      </trkpt>
      <trkpt lat="46.66388" lon="-0.83619">
        <ele>99</ele>
        <time>2022-05-14T06:20:56Z</time>
      </trkpt>
      <trkpt lat="46.66297" lon="-0.83561">
        <ele>100</ele>
        <time>2022-05-14T06:21:14Z</time>
      </trkpt>
      <trkpt lat="46.66266" lon="-0.83547">
        <ele>100</ele>
        <time>2022-05-14T06:21:20Z</time>
      </trkpt>
      <trkpt lat="46.66233" lon="-0.83539">
        <ele>100</ele>
        <time>2022-05-14T06:21:26Z</time>
      </trkpt>
      <trkpt lat="46.66185" lon="-0.83532">
        <ele>100</ele>
        <time>2022-05-14T06:21:34Z</time>
      </trkpt>
      <trkpt lat="46.66136" lon="-0.83536">
        <ele>99</ele>
        <time>2022-05-14T06:21:43Z</time>
      </trkpt>
      <trkpt lat="46.6607" lon="-0.83555">
        <ele>98</ele>
        <time>2022-05-14T06:21:55Z</time>
      </trkpt>
      <trkpt lat="46.66025" lon="-0.8356">
        <ele>98</ele>
        <time>2022-05-14T06:22:03Z</time>
      </trkpt>
      <trkpt lat="46.65993" lon="-0.83556">
        <ele>98</ele>
        <time>2022-05-14T06:22:09Z</time>
      </trkpt>
      <trkpt lat="46.65606" lon="-0.83463">
        <ele>104</ele>
        <time>2022-05-14T06:23:18Z</time>
      </trkpt>
      <trkpt lat="46.65573" lon="-0.83465">
        <ele>104</ele>
        <time>2022-05-14T06:23:24Z</time>
      </trkpt>
      <trkpt lat="46.65554" lon="-0.83469">
        <ele>103</ele>
        <time>2022-05-14T06:23:28Z</time>
      </trkpt>
      <trkpt lat="46.65445" lon="-0.83515">
        <ele>98</ele>
        <time>2022-05-14T06:23:48Z</time>
      </trkpt>
      <trkpt lat="46.65416" lon="-0.83521">
        <ele>97</ele>
        <time>2022-05-14T06:23:53Z</time>
      </trkpt>
      <trkpt lat="46.65382" lon="-0.83519">
        <ele>96</ele>
        <time>2022-05-14T06:23:59Z</time>
      </trkpt>
      <trkpt lat="46.65357" lon="-0.8351">
        <ele>95</ele>
        <time>2022-05-14T06:24:04Z</time>
      </trkpt>
      <trkpt lat="46.6534" lon="-0.83501">
        <ele>94</ele>
        <time>2022-05-14T06:24:07Z</time>
      </trkpt>
      <trkpt lat="46.65321" lon="-0.83485">
        <ele>94</ele>
        <time>2022-05-14T06:24:11Z</time>
      </trkpt>
      <trkpt lat="46.6524" lon="-0.834">
        <ele>95</ele>
        <time>2022-05-14T06:24:29Z</time>
      </trkpt>
      <trkpt lat="46.65209" lon="-0.83374">
        <ele>94</ele>
        <time>2022-05-14T06:24:35Z</time>
      </trkpt>
      <trkpt lat="46.65172" lon="-0.83356">
        <ele>93</ele>
        <time>2022-05-14T06:24:42Z</time>
      </trkpt>
      <trkpt lat="46.65108" lon="-0.83337">
        <ele>91</ele>
        <time>2022-05-14T06:24:54Z</time>
      </trkpt>
      <trkpt lat="46.65084" lon="-0.83329">
        <ele>90</ele>
        <time>2022-05-14T06:24:58Z</time>
      </trkpt>
      <trkpt lat="46.65073" lon="-0.83321">
        <ele>90</ele>
        <time>2022-05-14T06:25:00Z</time>
      </trkpt>
      <trkpt lat="46.64854" lon="-0.83143">
        <ele>75</ele>
        <time>2022-05-14T06:25:45Z</time>
      </trkpt>
      <trkpt lat="46.64849" lon="-0.83138">
        <ele>75</ele>
        <time>2022-05-14T06:25:46Z</time>
      </trkpt>
      <trkpt lat="46.64781" lon="-0.8308">
        <ele>79</ele>
        <time>2022-05-14T06:26:00Z</time>
      </trkpt>
      <trkpt lat="46.64646" lon="-0.82937">
        <ele>88</ele>
        <time>2022-05-14T06:26:29Z</time>
      </trkpt>
      <trkpt lat="46.64612" lon="-0.82895">
        <ele>90</ele>
        <time>2022-05-14T06:26:37Z</time>
      </trkpt>
      <trkpt lat="46.646" lon="-0.82876">
        <ele>91</ele>
        <time>2022-05-14T06:26:41Z</time>
      </trkpt>
      <trkpt lat="46.64583" lon="-0.82842">
        <ele>95</ele>
        <time>2022-05-14T06:26:46Z</time>
      </trkpt>
      <trkpt lat="46.64522" lon="-0.82687">
        <ele>98</ele>
        <time>2022-05-14T06:27:08Z</time>
      </trkpt>
      <trkpt lat="46.64497" lon="-0.8264">
        <ele>98</ele>
        <time>2022-05-14T06:27:15Z</time>
      </trkpt>
      <trkpt lat="46.64486" lon="-0.82625">
        <ele>99</ele>
        <time>2022-05-14T06:27:17Z</time>
      </trkpt>
      <trkpt lat="46.64465" lon="-0.82609">
        <ele>100</ele>
        <time>2022-05-14T06:27:22Z</time>
      </trkpt>
      <trkpt lat="46.64415" lon="-0.82578">
        <ele>101</ele>
        <time>2022-05-14T06:27:31Z</time>
      </trkpt>
      <trkpt lat="46.64383" lon="-0.82557">
        <ele>102</ele>
        <time>2022-05-14T06:27:38Z</time>
      </trkpt>
      <trkpt lat="46.64359" lon="-0.82536">
        <ele>103</ele>
        <time>2022-05-14T06:27:43Z</time>
      </trkpt>
      <trkpt lat="46.6429" lon="-0.82454">
        <ele>106</ele>
        <time>2022-05-14T06:27:58Z</time>
      </trkpt>
      <trkpt lat="46.64265" lon="-0.82429">
        <ele>107</ele>
        <time>2022-05-14T06:28:04Z</time>
      </trkpt>
      <trkpt lat="46.64258" lon="-0.82421">
        <ele>107</ele>
        <time>2022-05-14T06:28:05Z</time>
      </trkpt>
      <trkpt lat="46.64254" lon="-0.82413">
        <ele>107</ele>
        <time>2022-05-14T06:28:07Z</time>
      </trkpt>
      <trkpt lat="46.64263" lon="-0.8237">
        <ele>107</ele>
        <time>2022-05-14T06:28:12Z</time>
      </trkpt>
      <trkpt lat="46.64275" lon="-0.82332">
        <ele>107</ele>
        <time>2022-05-14T06:28:17Z</time>
      </trkpt>
      <trkpt lat="46.64291" lon="-0.82285">
        <ele>108</ele>
        <time>2022-05-14T06:28:24Z</time>
      </trkpt>
      <trkpt lat="46.64375" lon="-0.82075">
        <ele>112</ele>
        <time>2022-05-14T06:28:53Z</time>
      </trkpt>
      <trkpt lat="46.64395" lon="-0.8202">
        <ele>114</ele>
        <time>2022-05-14T06:29:01Z</time>
      </trkpt>
      <trkpt lat="46.64406" lon="-0.81986">
        <ele>114</ele>
        <time>2022-05-14T06:29:06Z</time>
      </trkpt>
      <trkpt lat="46.64418" lon="-0.81932">
        <ele>114</ele>
        <time>2022-05-14T06:29:12Z</time>
      </trkpt>
      <trkpt lat="46.64423" lon="-0.81891">
        <ele>114</ele>
        <time>2022-05-14T06:29:18Z</time>
      </trkpt>
      <trkpt lat="46.64427" lon="-0.81846">
        <ele>114</ele>
        <time>2022-05-14T06:29:23Z</time>
      </trkpt>
      <trkpt lat="46.64435" lon="-0.81689">
        <ele>118</ele>
        <time>2022-05-14T06:29:42Z</time>
      </trkpt>
      <trkpt lat="46.64435" lon="-0.81654">
        <ele>119</ele>
        <time>2022-05-14T06:29:47Z</time>
      </trkpt>
      <trkpt lat="46.64432" lon="-0.81624">
        <ele>119</ele>
        <time>2022-05-14T06:29:50Z</time>
      </trkpt>
      <trkpt lat="46.64425" lon="-0.81583">
        <ele>119</ele>
        <time>2022-05-14T06:29:55Z</time>
      </trkpt>
      <trkpt lat="46.64416" lon="-0.81553">
        <ele>119</ele>
        <time>2022-05-14T06:29:59Z</time>
      </trkpt>
      <trkpt lat="46.64403" lon="-0.81518">
        <ele>119</ele>
        <time>2022-05-14T06:30:04Z</time>
      </trkpt>
      <trkpt lat="46.64322" lon="-0.81346">
        <ele>122</ele>
        <time>2022-05-14T06:30:30Z</time>
      </trkpt>
      <trkpt lat="46.6431" lon="-0.8131">
        <ele>122</ele>
        <time>2022-05-14T06:30:35Z</time>
      </trkpt>
      <trkpt lat="46.643" lon="-0.81275">
        <ele>122</ele>
        <time>2022-05-14T06:30:39Z</time>
      </trkpt>
      <trkpt lat="46.64294" lon="-0.81238">
        <ele>121</ele>
        <time>2022-05-14T06:30:44Z</time>
      </trkpt>
      <trkpt lat="46.64292" lon="-0.81">
        <ele>115</ele>
        <time>2022-05-14T06:31:13Z</time>
      </trkpt>
      <trkpt lat="46.64282" lon="-0.80832">
        <ele>114</ele>
        <time>2022-05-14T06:31:34Z</time>
      </trkpt>
      <trkpt lat="46.64283" lon="-0.80814">
        <ele>114</ele>
        <time>2022-05-14T06:31:36Z</time>
      </trkpt>
      <trkpt lat="46.64286" lon="-0.80788">
        <ele>115</ele>
        <time>2022-05-14T06:31:39Z</time>
      </trkpt>
      <trkpt lat="46.6429" lon="-0.80776">
        <ele>115</ele>
        <time>2022-05-14T06:31:41Z</time>
      </trkpt>
      <trkpt lat="46.64298" lon="-0.80754">
        <ele>115</ele>
        <time>2022-05-14T06:31:44Z</time>
      </trkpt>
      <trkpt lat="46.64308" lon="-0.80733">
        <ele>115</ele>
        <time>2022-05-14T06:31:47Z</time>
      </trkpt>
      <trkpt lat="46.64372" lon="-0.80651">
        <ele>115</ele>
        <time>2022-05-14T06:32:02Z</time>
      </trkpt>
      <trkpt lat="46.64303" lon="-0.80554">
        <ele>120</ele>
        <time>2022-05-14T06:32:19Z</time>
      </trkpt>
      <trkpt lat="46.64114" lon="-0.80229">
        <ele>117</ele>
        <time>2022-05-14T06:33:11Z</time>
      </trkpt>
      <trkpt lat="46.63747" lon="-0.79596">
        <ele>112</ele>
        <time>2022-05-14T06:34:52Z</time>
      </trkpt>
      <trkpt lat="46.63619" lon="-0.79328">
        <ele>107</ele>
        <time>2022-05-14T06:35:32Z</time>
      </trkpt>
      <trkpt lat="46.63607" lon="-0.79298">
        <ele>107</ele>
        <time>2022-05-14T06:35:36Z</time>
      </trkpt>
      <trkpt lat="46.63592" lon="-0.79249">
        <ele>106</ele>
        <time>2022-05-14T06:35:43Z</time>
      </trkpt>
      <trkpt lat="46.63584" lon="-0.79204">
        <ele>104</ele>
        <time>2022-05-14T06:35:49Z</time>
      </trkpt>
      <trkpt lat="46.63582" lon="-0.79171">
        <ele>103</ele>
        <time>2022-05-14T06:35:53Z</time>
      </trkpt>
      <trkpt lat="46.63584" lon="-0.79083">
        <ele>103</ele>
        <time>2022-05-14T06:36:03Z</time>
      </trkpt>
      <trkpt lat="46.63583" lon="-0.79054">
        <ele>103</ele>
        <time>2022-05-14T06:36:07Z</time>
      </trkpt>
      <trkpt lat="46.63576" lon="-0.7897">
        <ele>103</ele>
        <time>2022-05-14T06:36:17Z</time>
      </trkpt>
      <trkpt lat="46.6357" lon="-0.78932">
        <ele>104</ele>
        <time>2022-05-14T06:36:22Z</time>
      </trkpt>
      <trkpt lat="46.63556" lon="-0.78877">
        <ele>104</ele>
        <time>2022-05-14T06:36:29Z</time>
      </trkpt>
      <trkpt lat="46.63546" lon="-0.78856">
        <ele>105</ele>
        <time>2022-05-14T06:36:32Z</time>
      </trkpt>
      <trkpt lat="46.63538" lon="-0.7884">
        <ele>105</ele>
        <time>2022-05-14T06:36:35Z</time>
      </trkpt>
      <trkpt lat="46.63525" lon="-0.78824">
        <ele>105</ele>
        <time>2022-05-14T06:36:38Z</time>
      </trkpt>
      <trkpt lat="46.63503" lon="-0.78804">
        <ele>105</ele>
        <time>2022-05-14T06:36:42Z</time>
      </trkpt>
      <trkpt lat="46.63373" lon="-0.78716">
        <ele>100</ele>
        <time>2022-05-14T06:37:08Z</time>
      </trkpt>
      <trkpt lat="46.63353" lon="-0.7869">
        <ele>99</ele>
        <time>2022-05-14T06:37:13Z</time>
      </trkpt>
      <trkpt lat="46.63345" lon="-0.78675">
        <ele>98</ele>
        <time>2022-05-14T06:37:15Z</time>
      </trkpt>
      <trkpt lat="46.63338" lon="-0.78654">
        <ele>98</ele>
        <time>2022-05-14T06:37:18Z</time>
      </trkpt>
      <trkpt lat="46.63333" lon="-0.78629">
        <ele>98</ele>
        <time>2022-05-14T06:37:21Z</time>
      </trkpt>
      <trkpt lat="46.63324" lon="-0.78563">
        <ele>99</ele>
        <time>2022-05-14T06:37:29Z</time>
      </trkpt>
      <trkpt lat="46.63312" lon="-0.78513">
        <ele>100</ele>
        <time>2022-05-14T06:37:36Z</time>
      </trkpt>
      <trkpt lat="46.63303" lon="-0.78482">
        <ele>100</ele>
        <time>2022-05-14T06:37:40Z</time>
      </trkpt>
      <trkpt lat="46.63289" lon="-0.78449">
        <ele>100</ele>
        <time>2022-05-14T06:37:45Z</time>
      </trkpt>
      <trkpt lat="46.63146" lon="-0.78145">
        <ele>95</ele>
        <time>2022-05-14T06:38:30Z</time>
      </trkpt>
      <trkpt lat="46.63132" lon="-0.78106">
        <ele>95</ele>
        <time>2022-05-14T06:38:35Z</time>
      </trkpt>
      <trkpt lat="46.63122" lon="-0.78063">
        <ele>94</ele>
        <time>2022-05-14T06:38:41Z</time>
      </trkpt>
      <trkpt lat="46.63093" lon="-0.77861">
        <ele>91</ele>
        <time>2022-05-14T06:39:06Z</time>
      </trkpt>
      <trkpt lat="46.63085" lon="-0.77821">
        <ele>90</ele>
        <time>2022-05-14T06:39:11Z</time>
      </trkpt>
      <trkpt lat="46.63073" lon="-0.77777">
        <ele>90</ele>
        <time>2022-05-14T06:39:17Z</time>
      </trkpt>
      <trkpt lat="46.6306" lon="-0.77742">
        <ele>89</ele>
        <time>2022-05-14T06:39:22Z</time>
      </trkpt>
      <trkpt lat="46.63018" lon="-0.77644">
        <ele>90</ele>
        <time>2022-05-14T06:39:36Z</time>
      </trkpt>
      <trkpt lat="46.62996" lon="-0.77579">
        <ele>91</ele>
        <time>2022-05-14T06:39:45Z</time>
      </trkpt>
      <trkpt lat="46.62972" lon="-0.77458">
        <ele>90</ele>
        <time>2022-05-14T06:40:00Z</time>
      </trkpt>
      <trkpt lat="46.62966" lon="-0.77435">
        <ele>90</ele>
        <time>2022-05-14T06:40:03Z</time>
      </trkpt>
      <trkpt lat="46.62959" lon="-0.77416">
        <ele>89</ele>
        <time>2022-05-14T06:40:06Z</time>
      </trkpt>
      <trkpt lat="46.62944" lon="-0.77387">
        <ele>88</ele>
        <time>2022-05-14T06:40:10Z</time>
      </trkpt>
      <trkpt lat="46.62924" lon="-0.77364">
        <ele>86</ele>
        <time>2022-05-14T06:40:15Z</time>
      </trkpt>
      <trkpt lat="46.62912" lon="-0.77354">
        <ele>86</ele>
        <time>2022-05-14T06:40:17Z</time>
      </trkpt>
      <trkpt lat="46.62888" lon="-0.77341">
        <ele>84</ele>
        <time>2022-05-14T06:40:22Z</time>
      </trkpt>
      <trkpt lat="46.62869" lon="-0.77337">
        <ele>82</ele>
        <time>2022-05-14T06:40:25Z</time>
      </trkpt>
      <trkpt lat="46.62793" lon="-0.77335">
        <ele>79</ele>
        <time>2022-05-14T06:40:38Z</time>
      </trkpt>
      <trkpt lat="46.62779" lon="-0.77334">
        <ele>79</ele>
        <time>2022-05-14T06:40:41Z</time>
      </trkpt>
      <trkpt lat="46.62766" lon="-0.77329">
        <ele>78</ele>
        <time>2022-05-14T06:40:43Z</time>
      </trkpt>
      <trkpt lat="46.62757" lon="-0.77323">
        <ele>78</ele>
        <time>2022-05-14T06:40:45Z</time>
      </trkpt>
      <trkpt lat="46.6274" lon="-0.77307">
        <ele>78</ele>
        <time>2022-05-14T06:40:49Z</time>
      </trkpt>
      <trkpt lat="46.62717" lon="-0.77275">
        <ele>79</ele>
        <time>2022-05-14T06:40:54Z</time>
      </trkpt>
      <trkpt lat="46.627" lon="-0.77254">
        <ele>80</ele>
        <time>2022-05-14T06:40:58Z</time>
      </trkpt>
      <trkpt lat="46.62682" lon="-0.77243">
        <ele>81</ele>
        <time>2022-05-14T06:41:02Z</time>
      </trkpt>
      <trkpt lat="46.62664" lon="-0.77233">
        <ele>82</ele>
        <time>2022-05-14T06:41:05Z</time>
      </trkpt>
      <trkpt lat="46.62645" lon="-0.77232">
        <ele>82</ele>
        <time>2022-05-14T06:41:09Z</time>
      </trkpt>
      <trkpt lat="46.62635" lon="-0.7724">
        <ele>83</ele>
        <time>2022-05-14T06:41:11Z</time>
      </trkpt>
      <trkpt lat="46.62626" lon="-0.77239">
        <ele>83</ele>
        <time>2022-05-14T06:41:12Z</time>
      </trkpt>
      <trkpt lat="46.62617" lon="-0.7723">
        <ele>83</ele>
        <time>2022-05-14T06:41:14Z</time>
      </trkpt>
      <trkpt lat="46.62614" lon="-0.77219">
        <ele>83</ele>
        <time>2022-05-14T06:41:16Z</time>
      </trkpt>
      <trkpt lat="46.62613" lon="-0.77211">
        <ele>83</ele>
        <time>2022-05-14T06:41:17Z</time>
      </trkpt>
      <trkpt lat="46.62606" lon="-0.77194">
        <ele>84</ele>
        <time>2022-05-14T06:41:19Z</time>
      </trkpt>
      <trkpt lat="46.62588" lon="-0.77178">
        <ele>85</ele>
        <time>2022-05-14T06:41:23Z</time>
      </trkpt>
      <trkpt lat="46.62543" lon="-0.77152">
        <ele>83</ele>
        <time>2022-05-14T06:41:31Z</time>
      </trkpt>
      <trkpt lat="46.62519" lon="-0.77131">
        <ele>81</ele>
        <time>2022-05-14T06:41:36Z</time>
      </trkpt>
      <trkpt lat="46.62492" lon="-0.77101">
        <ele>79</ele>
        <time>2022-05-14T06:41:42Z</time>
      </trkpt>
      <trkpt lat="46.62478" lon="-0.77088">
        <ele>78</ele>
        <time>2022-05-14T06:41:45Z</time>
      </trkpt>
      <trkpt lat="46.62461" lon="-0.77075">
        <ele>76</ele>
        <time>2022-05-14T06:41:49Z</time>
      </trkpt>
      <trkpt lat="46.62384" lon="-0.77037">
        <ele>73</ele>
        <time>2022-05-14T06:42:03Z</time>
      </trkpt>
      <trkpt lat="46.62373" lon="-0.77028">
        <ele>74</ele>
        <time>2022-05-14T06:42:06Z</time>
      </trkpt>
      <trkpt lat="46.62356" lon="-0.77012">
        <ele>75</ele>
        <time>2022-05-14T06:42:09Z</time>
      </trkpt>
      <trkpt lat="46.62346" lon="-0.77005">
        <ele>75</ele>
        <time>2022-05-14T06:42:11Z</time>
      </trkpt>
      <trkpt lat="46.62337" lon="-0.77002">
        <ele>76</ele>
        <time>2022-05-14T06:42:13Z</time>
      </trkpt>
      <trkpt lat="46.62319" lon="-0.77003">
        <ele>77</ele>
        <time>2022-05-14T06:42:16Z</time>
      </trkpt>
      <trkpt lat="46.62195" lon="-0.7707">
        <ele>76</ele>
        <time>2022-05-14T06:42:40Z</time>
      </trkpt>
      <trkpt lat="46.6214" lon="-0.77077">
        <ele>76</ele>
        <time>2022-05-14T06:42:49Z</time>
      </trkpt>
      <trkpt lat="46.62127" lon="-0.77075">
        <ele>77</ele>
        <time>2022-05-14T06:42:52Z</time>
      </trkpt>
      <trkpt lat="46.6212" lon="-0.7707">
        <ele>78</ele>
        <time>2022-05-14T06:42:53Z</time>
      </trkpt>
      <trkpt lat="46.62112" lon="-0.77049">
        <ele>79</ele>
        <time>2022-05-14T06:42:56Z</time>
      </trkpt>
      <trkpt lat="46.62109" lon="-0.77029">
        <ele>81</ele>
        <time>2022-05-14T06:42:58Z</time>
      </trkpt>
      <trkpt lat="46.62105" lon="-0.77019">
        <ele>82</ele>
        <time>2022-05-14T06:43:00Z</time>
      </trkpt>
      <trkpt lat="46.62094" lon="-0.77013">
        <ele>82</ele>
        <time>2022-05-14T06:43:02Z</time>
      </trkpt>
      <trkpt lat="46.62062" lon="-0.77014">
        <ele>82</ele>
        <time>2022-05-14T06:43:08Z</time>
      </trkpt>
      <trkpt lat="46.62038" lon="-0.77012">
        <ele>81</ele>
        <time>2022-05-14T06:43:12Z</time>
      </trkpt>
      <trkpt lat="46.62031" lon="-0.77008">
        <ele>81</ele>
        <time>2022-05-14T06:43:13Z</time>
      </trkpt>
      <trkpt lat="46.6202" lon="-0.76995">
        <ele>82</ele>
        <time>2022-05-14T06:43:16Z</time>
      </trkpt>
      <trkpt lat="46.62004" lon="-0.76967">
        <ele>82</ele>
        <time>2022-05-14T06:43:20Z</time>
      </trkpt>
      <trkpt lat="46.62" lon="-0.76955">
        <ele>83</ele>
        <time>2022-05-14T06:43:22Z</time>
      </trkpt>
      <trkpt lat="46.61994" lon="-0.76913">
        <ele>84</ele>
        <time>2022-05-14T06:43:27Z</time>
      </trkpt>
      <trkpt lat="46.61994" lon="-0.76879">
        <ele>86</ele>
        <time>2022-05-14T06:43:31Z</time>
      </trkpt>
      <trkpt lat="46.62023" lon="-0.76729">
        <ele>94</ele>
        <time>2022-05-14T06:43:50Z</time>
      </trkpt>
      <trkpt lat="46.62025" lon="-0.76705">
        <ele>94</ele>
        <time>2022-05-14T06:43:53Z</time>
      </trkpt>
      <trkpt lat="46.62019" lon="-0.76684">
        <ele>94</ele>
        <time>2022-05-14T06:43:56Z</time>
      </trkpt>
      <trkpt lat="46.61812" lon="-0.76219">
        <ele>89</ele>
        <time>2022-05-14T06:45:04Z</time>
      </trkpt>
      <trkpt lat="46.61797" lon="-0.7619">
        <ele>88</ele>
        <time>2022-05-14T06:45:08Z</time>
      </trkpt>
      <trkpt lat="46.61784" lon="-0.76168">
        <ele>88</ele>
        <time>2022-05-14T06:45:12Z</time>
      </trkpt>
      <trkpt lat="46.61625" lon="-0.75952">
        <ele>89</ele>
        <time>2022-05-14T06:45:50Z</time>
      </trkpt>
      <trkpt lat="46.61591" lon="-0.75902">
        <ele>90</ele>
        <time>2022-05-14T06:45:59Z</time>
      </trkpt>
      <trkpt lat="46.61568" lon="-0.75863">
        <ele>91</ele>
        <time>2022-05-14T06:46:05Z</time>
      </trkpt>
      <trkpt lat="46.61547" lon="-0.75816">
        <ele>92</ele>
        <time>2022-05-14T06:46:12Z</time>
      </trkpt>
      <trkpt lat="46.61538" lon="-0.75788">
        <ele>92</ele>
        <time>2022-05-14T06:46:16Z</time>
      </trkpt>
      <trkpt lat="46.6151" lon="-0.75682">
        <ele>93</ele>
        <time>2022-05-14T06:46:30Z</time>
      </trkpt>
      <trkpt lat="46.61488" lon="-0.75623">
        <ele>93</ele>
        <time>2022-05-14T06:46:38Z</time>
      </trkpt>
      <trkpt lat="46.61476" lon="-0.75598">
        <ele>93</ele>
        <time>2022-05-14T06:46:42Z</time>
      </trkpt>
      <trkpt lat="46.61448" lon="-0.75547">
        <ele>94</ele>
        <time>2022-05-14T06:46:50Z</time>
      </trkpt>
      <trkpt lat="46.61409" lon="-0.75485">
        <ele>95</ele>
        <time>2022-05-14T06:47:00Z</time>
      </trkpt>
      <trkpt lat="46.61364" lon="-0.75419">
        <ele>96</ele>
        <time>2022-05-14T06:47:11Z</time>
      </trkpt>
      <trkpt lat="46.61332" lon="-0.75378">
        <ele>97</ele>
        <time>2022-05-14T06:47:19Z</time>
      </trkpt>
      <trkpt lat="46.61286" lon="-0.75331">
        <ele>99</ele>
        <time>2022-05-14T06:47:29Z</time>
      </trkpt>
      <trkpt lat="46.61255" lon="-0.75295">
        <ele>100</ele>
        <time>2022-05-14T06:47:36Z</time>
      </trkpt>
      <trkpt lat="46.6117" lon="-0.75173">
        <ele>100</ele>
        <time>2022-05-14T06:47:57Z</time>
      </trkpt>
      <trkpt lat="46.61148" lon="-0.75136">
        <ele>100</ele>
        <time>2022-05-14T06:48:03Z</time>
      </trkpt>
      <trkpt lat="46.61043" lon="-0.74944">
        <ele>99</ele>
        <time>2022-05-14T06:48:33Z</time>
      </trkpt>
      <trkpt lat="46.61024" lon="-0.74903">
        <ele>98</ele>
        <time>2022-05-14T06:48:39Z</time>
      </trkpt>
      <trkpt lat="46.60987" lon="-0.74802">
        <ele>98</ele>
        <time>2022-05-14T06:48:53Z</time>
      </trkpt>
      <trkpt lat="46.60963" lon="-0.74749">
        <ele>99</ele>
        <time>2022-05-14T06:49:01Z</time>
      </trkpt>
      <trkpt lat="46.60843" lon="-0.74546">
        <ele>99</ele>
        <time>2022-05-14T06:49:34Z</time>
      </trkpt>
      <trkpt lat="46.60824" lon="-0.74504">
        <ele>99</ele>
        <time>2022-05-14T06:49:40Z</time>
      </trkpt>
      <trkpt lat="46.60813" lon="-0.74469">
        <ele>97</ele>
        <time>2022-05-14T06:49:45Z</time>
      </trkpt>
      <trkpt lat="46.60791" lon="-0.7437">
        <ele>95</ele>
        <time>2022-05-14T06:49:57Z</time>
      </trkpt>
      <trkpt lat="46.60785" lon="-0.74345">
        <ele>94</ele>
        <time>2022-05-14T06:50:01Z</time>
      </trkpt>
      <trkpt lat="46.60771" lon="-0.74308">
        <ele>94</ele>
        <time>2022-05-14T06:50:06Z</time>
      </trkpt>
      <trkpt lat="46.60758" lon="-0.74284">
        <ele>93</ele>
        <time>2022-05-14T06:50:10Z</time>
      </trkpt>
      <trkpt lat="46.60735" lon="-0.74255">
        <ele>93</ele>
        <time>2022-05-14T06:50:15Z</time>
      </trkpt>
      <trkpt lat="46.60681" lon="-0.74213">
        <ele>93</ele>
        <time>2022-05-14T06:50:26Z</time>
      </trkpt>
      <trkpt lat="46.60664" lon="-0.74194">
        <ele>94</ele>
        <time>2022-05-14T06:50:30Z</time>
      </trkpt>
      <trkpt lat="46.60655" lon="-0.7418">
        <ele>94</ele>
        <time>2022-05-14T06:50:32Z</time>
      </trkpt>
      <trkpt lat="46.60648" lon="-0.74166">
        <ele>94</ele>
        <time>2022-05-14T06:50:34Z</time>
      </trkpt>
      <trkpt lat="46.60642" lon="-0.74145">
        <ele>94</ele>
        <time>2022-05-14T06:50:37Z</time>
      </trkpt>
      <trkpt lat="46.60639" lon="-0.7413">
        <ele>94</ele>
        <time>2022-05-14T06:50:39Z</time>
      </trkpt>
      <trkpt lat="46.60637" lon="-0.74099">
        <ele>95</ele>
        <time>2022-05-14T06:50:43Z</time>
      </trkpt>
      <trkpt lat="46.60639" lon="-0.74063">
        <ele>95</ele>
        <time>2022-05-14T06:50:47Z</time>
      </trkpt>
      <trkpt lat="46.60661" lon="-0.73883">
        <ele>97</ele>
        <time>2022-05-14T06:51:09Z</time>
      </trkpt>
      <trkpt lat="46.60684" lon="-0.73788">
        <ele>98</ele>
        <time>2022-05-14T06:51:22Z</time>
      </trkpt>
      <trkpt lat="46.60688" lon="-0.73744">
        <ele>98</ele>
        <time>2022-05-14T06:51:27Z</time>
      </trkpt>
      <trkpt lat="46.60687" lon="-0.7371">
        <ele>98</ele>
        <time>2022-05-14T06:51:31Z</time>
      </trkpt>
      <trkpt lat="46.60685" lon="-0.73692">
        <ele>98</ele>
        <time>2022-05-14T06:51:33Z</time>
      </trkpt>
      <trkpt lat="46.60668" lon="-0.73582">
        <ele>96</ele>
        <time>2022-05-14T06:51:47Z</time>
      </trkpt>
      <trkpt lat="46.60661" lon="-0.7356">
        <ele>96</ele>
        <time>2022-05-14T06:51:50Z</time>
      </trkpt>
      <trkpt lat="46.60656" lon="-0.73547">
        <ele>96</ele>
        <time>2022-05-14T06:51:52Z</time>
      </trkpt>
      <trkpt lat="46.60642" lon="-0.73523">
        <ele>96</ele>
        <time>2022-05-14T06:51:56Z</time>
      </trkpt>
      <trkpt lat="46.60617" lon="-0.73496">
        <ele>96</ele>
        <time>2022-05-14T06:52:01Z</time>
      </trkpt>
      <trkpt lat="46.6054" lon="-0.73438">
        <ele>96</ele>
        <time>2022-05-14T06:52:17Z</time>
      </trkpt>
      <trkpt lat="46.60515" lon="-0.73413">
        <ele>96</ele>
        <time>2022-05-14T06:52:22Z</time>
      </trkpt>
      <trkpt lat="46.60497" lon="-0.73386">
        <ele>96</ele>
        <time>2022-05-14T06:52:27Z</time>
      </trkpt>
      <trkpt lat="46.60485" lon="-0.73355">
        <ele>97</ele>
        <time>2022-05-14T06:52:31Z</time>
      </trkpt>
      <trkpt lat="46.60482" lon="-0.7334">
        <ele>97</ele>
        <time>2022-05-14T06:52:33Z</time>
      </trkpt>
      <trkpt lat="46.60475" lon="-0.73292">
        <ele>98</ele>
        <time>2022-05-14T06:52:39Z</time>
      </trkpt>
      <trkpt lat="46.60466" lon="-0.73189">
        <ele>98</ele>
        <time>2022-05-14T06:52:52Z</time>
      </trkpt>
      <trkpt lat="46.60456" lon="-0.73127">
        <ele>99</ele>
        <time>2022-05-14T06:53:00Z</time>
      </trkpt>
      <trkpt lat="46.60359" lon="-0.72706">
        <ele>94</ele>
        <time>2022-05-14T06:53:54Z</time>
      </trkpt>
      <trkpt lat="46.60353" lon="-0.7268">
        <ele>94</ele>
        <time>2022-05-14T06:53:57Z</time>
      </trkpt>
      <trkpt lat="46.60344" lon="-0.72657">
        <ele>93</ele>
        <time>2022-05-14T06:54:00Z</time>
      </trkpt>
      <trkpt lat="46.60329" lon="-0.72626">
        <ele>93</ele>
        <time>2022-05-14T06:54:05Z</time>
      </trkpt>
      <trkpt lat="46.60321" lon="-0.72613">
        <ele>93</ele>
        <time>2022-05-14T06:54:07Z</time>
      </trkpt>
      <trkpt lat="46.60303" lon="-0.72589">
        <ele>94</ele>
        <time>2022-05-14T06:54:12Z</time>
      </trkpt>
      <trkpt lat="46.60273" lon="-0.72556">
        <ele>95</ele>
        <time>2022-05-14T06:54:18Z</time>
      </trkpt>
      <trkpt lat="46.60258" lon="-0.72531">
        <ele>95</ele>
        <time>2022-05-14T06:54:22Z</time>
      </trkpt>
      <trkpt lat="46.60179" lon="-0.7232">
        <ele>99</ele>
        <time>2022-05-14T06:54:52Z</time>
      </trkpt>
      <trkpt lat="46.60171" lon="-0.72305">
        <ele>99</ele>
        <time>2022-05-14T06:54:54Z</time>
      </trkpt>
      <trkpt lat="46.6013" lon="-0.72254">
        <ele>100</ele>
        <time>2022-05-14T06:55:04Z</time>
      </trkpt>
      <trkpt lat="46.60142" lon="-0.72233">
        <ele>99</ele>
        <time>2022-05-14T06:55:07Z</time>
      </trkpt>
      <trkpt lat="46.60156" lon="-0.72181">
        <ele>99</ele>
        <time>2022-05-14T06:55:14Z</time>
      </trkpt>
      <trkpt lat="46.60152" lon="-0.72177">
        <ele>99</ele>
        <time>2022-05-14T06:55:15Z</time>
      </trkpt>
      <trkpt lat="46.60144" lon="-0.72156">
        <ele>99</ele>
        <time>2022-05-14T06:55:18Z</time>
      </trkpt>
      <trkpt lat="46.60131" lon="-0.72134">
        <ele>99</ele>
        <time>2022-05-14T06:55:21Z</time>
      </trkpt>
      <trkpt lat="46.60118" lon="-0.72119">
        <ele>99</ele>
        <time>2022-05-14T06:55:24Z</time>
      </trkpt>
      <trkpt lat="46.60088" lon="-0.72094">
        <ele>99</ele>
        <time>2022-05-14T06:55:30Z</time>
      </trkpt>
      <trkpt lat="46.6008" lon="-0.72084">
        <ele>99</ele>
        <time>2022-05-14T06:55:32Z</time>
      </trkpt>
      <trkpt lat="46.60071" lon="-0.72057">
        <ele>99</ele>
        <time>2022-05-14T06:55:36Z</time>
      </trkpt>
      <trkpt lat="46.60067" lon="-0.72031">
        <ele>99</ele>
        <time>2022-05-14T06:55:39Z</time>
      </trkpt>
      <trkpt lat="46.60066" lon="-0.72008">
        <ele>98</ele>
        <time>2022-05-14T06:55:42Z</time>
      </trkpt>
      <trkpt lat="46.60069" lon="-0.71895">
        <ele>97</ele>
        <time>2022-05-14T06:55:56Z</time>
      </trkpt>
      <trkpt lat="46.60067" lon="-0.71871">
        <ele>97</ele>
        <time>2022-05-14T06:55:59Z</time>
      </trkpt>
      <trkpt lat="46.6006" lon="-0.71847">
        <ele>97</ele>
        <time>2022-05-14T06:56:02Z</time>
      </trkpt>
      <trkpt lat="46.59942" lon="-0.71561">
        <ele>96</ele>
        <time>2022-05-14T06:56:43Z</time>
      </trkpt>
      <trkpt lat="46.59834" lon="-0.71293">
        <ele>93</ele>
        <time>2022-05-14T06:57:21Z</time>
      </trkpt>
      <trkpt lat="46.59827" lon="-0.71264">
        <ele>92</ele>
        <time>2022-05-14T06:57:24Z</time>
      </trkpt>
      <trkpt lat="46.59824" lon="-0.71239">
        <ele>92</ele>
        <time>2022-05-14T06:57:27Z</time>
      </trkpt>
      <trkpt lat="46.59824" lon="-0.71213">
        <ele>92</ele>
        <time>2022-05-14T06:57:31Z</time>
      </trkpt>
      <trkpt lat="46.59834" lon="-0.71116">
        <ele>90</ele>
        <time>2022-05-14T06:57:43Z</time>
      </trkpt>
      <trkpt lat="46.59835" lon="-0.7109">
        <ele>89</ele>
        <time>2022-05-14T06:57:46Z</time>
      </trkpt>
      <trkpt lat="46.59833" lon="-0.7106">
        <ele>88</ele>
        <time>2022-05-14T06:57:49Z</time>
      </trkpt>
      <trkpt lat="46.59821" lon="-0.71009">
        <ele>87</ele>
        <time>2022-05-14T06:57:56Z</time>
      </trkpt>
      <trkpt lat="46.59799" lon="-0.70966">
        <ele>88</ele>
        <time>2022-05-14T06:58:03Z</time>
      </trkpt>
      <trkpt lat="46.59696" lon="-0.70827">
        <ele>88</ele>
        <time>2022-05-14T06:58:28Z</time>
      </trkpt>
      <trkpt lat="46.59684" lon="-0.70802">
        <ele>88</ele>
        <time>2022-05-14T06:58:31Z</time>
      </trkpt>
      <trkpt lat="46.59661" lon="-0.70738">
        <ele>91</ele>
        <time>2022-05-14T06:58:40Z</time>
      </trkpt>
      <trkpt lat="46.59648" lon="-0.70685">
        <ele>92</ele>
        <time>2022-05-14T06:58:47Z</time>
      </trkpt>
      <trkpt lat="46.59617" lon="-0.70533">
        <ele>91</ele>
        <time>2022-05-14T06:59:06Z</time>
      </trkpt>
      <trkpt lat="46.59609" lon="-0.70511">
        <ele>91</ele>
        <time>2022-05-14T06:59:09Z</time>
      </trkpt>
      <trkpt lat="46.59598" lon="-0.70492">
        <ele>90</ele>
        <time>2022-05-14T06:59:13Z</time>
      </trkpt>
      <trkpt lat="46.59585" lon="-0.70481">
        <ele>89</ele>
        <time>2022-05-14T06:59:15Z</time>
      </trkpt>
      <trkpt lat="46.59519" lon="-0.70437">
        <ele>88</ele>
        <time>2022-05-14T06:59:28Z</time>
      </trkpt>
      <trkpt lat="46.59502" lon="-0.70421">
        <ele>88</ele>
        <time>2022-05-14T06:59:32Z</time>
      </trkpt>
      <trkpt lat="46.59485" lon="-0.70398">
        <ele>88</ele>
        <time>2022-05-14T06:59:36Z</time>
      </trkpt>
      <trkpt lat="46.59421" lon="-0.70287">
        <ele>87</ele>
        <time>2022-05-14T06:59:54Z</time>
      </trkpt>
      <trkpt lat="46.59394" lon="-0.70246">
        <ele>87</ele>
        <time>2022-05-14T07:00:01Z</time>
      </trkpt>
      <trkpt lat="46.59379" lon="-0.70231">
        <ele>86</ele>
        <time>2022-05-14T07:00:04Z</time>
      </trkpt>
      <trkpt lat="46.59359" lon="-0.70219">
        <ele>85</ele>
        <time>2022-05-14T07:00:08Z</time>
      </trkpt>
      <trkpt lat="46.59336" lon="-0.70212">
        <ele>84</ele>
        <time>2022-05-14T07:00:12Z</time>
      </trkpt>
      <trkpt lat="46.59306" lon="-0.70213">
        <ele>83</ele>
        <time>2022-05-14T07:00:17Z</time>
      </trkpt>
      <trkpt lat="46.59285" lon="-0.70224">
        <ele>82</ele>
        <time>2022-05-14T07:00:21Z</time>
      </trkpt>
      <trkpt lat="46.59232" lon="-0.70283">
        <ele>82</ele>
        <time>2022-05-14T07:00:33Z</time>
      </trkpt>
      <trkpt lat="46.59208" lon="-0.70305">
        <ele>84</ele>
        <time>2022-05-14T07:00:38Z</time>
      </trkpt>
      <trkpt lat="46.59171" lon="-0.70323">
        <ele>84</ele>
        <time>2022-05-14T07:00:45Z</time>
      </trkpt>
      <trkpt lat="46.59147" lon="-0.70325">
        <ele>85</ele>
        <time>2022-05-14T07:00:49Z</time>
      </trkpt>
      <trkpt lat="46.59131" lon="-0.70322">
        <ele>86</ele>
        <time>2022-05-14T07:00:52Z</time>
      </trkpt>
      <trkpt lat="46.59116" lon="-0.70315">
        <ele>87</ele>
        <time>2022-05-14T07:00:55Z</time>
      </trkpt>
      <trkpt lat="46.59075" lon="-0.70284">
        <ele>90</ele>
        <time>2022-05-14T07:01:03Z</time>
      </trkpt>
      <trkpt lat="46.59053" lon="-0.70272">
        <ele>91</ele>
        <time>2022-05-14T07:01:07Z</time>
      </trkpt>
      <trkpt lat="46.59029" lon="-0.70264">
        <ele>92</ele>
        <time>2022-05-14T07:01:12Z</time>
      </trkpt>
      <trkpt lat="46.5896" lon="-0.7026">
        <ele>93</ele>
        <time>2022-05-14T07:01:24Z</time>
      </trkpt>
      <trkpt lat="46.58935" lon="-0.70255">
        <ele>94</ele>
        <time>2022-05-14T07:01:28Z</time>
      </trkpt>
      <trkpt lat="46.58912" lon="-0.70246">
        <ele>94</ele>
        <time>2022-05-14T07:01:33Z</time>
      </trkpt>
      <trkpt lat="46.58836" lon="-0.702">
        <ele>99</ele>
        <time>2022-05-14T07:01:47Z</time>
      </trkpt>
      <trkpt lat="46.58606" lon="-0.70024">
        <ele>110</ele>
        <time>2022-05-14T07:02:34Z</time>
      </trkpt>
      <trkpt lat="46.58577" lon="-0.70006">
        <ele>112</ele>
        <time>2022-05-14T07:02:39Z</time>
      </trkpt>
      <trkpt lat="46.58553" lon="-0.69995">
        <ele>112</ele>
        <time>2022-05-14T07:02:44Z</time>
      </trkpt>
      <trkpt lat="46.58432" lon="-0.69957">
        <ele>114</ele>
        <time>2022-05-14T07:03:06Z</time>
      </trkpt>
      <trkpt lat="46.58399" lon="-0.69937">
        <ele>113</ele>
        <time>2022-05-14T07:03:12Z</time>
      </trkpt>
      <trkpt lat="46.58351" lon="-0.699">
        <ele>110</ele>
        <time>2022-05-14T07:03:22Z</time>
      </trkpt>
      <trkpt lat="46.58319" lon="-0.69885">
        <ele>108</ele>
        <time>2022-05-14T07:03:28Z</time>
      </trkpt>
      <trkpt lat="46.57992" lon="-0.69786">
        <ele>90</ele>
        <time>2022-05-14T07:04:27Z</time>
      </trkpt>
      <trkpt lat="46.57973" lon="-0.69776">
        <ele>89</ele>
        <time>2022-05-14T07:04:31Z</time>
      </trkpt>
      <trkpt lat="46.57821" lon="-0.69648">
        <ele>90</ele>
        <time>2022-05-14T07:05:02Z</time>
      </trkpt>
      <trkpt lat="46.57382" lon="-0.69268">
        <ele>99</ele>
        <time>2022-05-14T07:06:33Z</time>
      </trkpt>
      <trkpt lat="46.57349" lon="-0.69237">
        <ele>97</ele>
        <time>2022-05-14T07:06:40Z</time>
      </trkpt>
      <trkpt lat="46.57323" lon="-0.69208">
        <ele>95</ele>
        <time>2022-05-14T07:06:46Z</time>
      </trkpt>
      <trkpt lat="46.57219" lon="-0.69063">
        <ele>97</ele>
        <time>2022-05-14T07:07:11Z</time>
      </trkpt>
      <trkpt lat="46.57053" lon="-0.68843">
        <ele>103</ele>
        <time>2022-05-14T07:07:51Z</time>
      </trkpt>
      <trkpt lat="46.56862" lon="-0.6858">
        <ele>106</ele>
        <time>2022-05-14T07:08:38Z</time>
      </trkpt>
      <trkpt lat="46.56763" lon="-0.6845">
        <ele>106</ele>
        <time>2022-05-14T07:09:02Z</time>
      </trkpt>
      <trkpt lat="46.5657" lon="-0.68188">
        <ele>122</ele>
        <time>2022-05-14T07:09:49Z</time>
      </trkpt>
      <trkpt lat="46.5655" lon="-0.68166">
        <ele>122</ele>
        <time>2022-05-14T07:09:53Z</time>
      </trkpt>
      <trkpt lat="46.56546" lon="-0.6813">
        <ele>122</ele>
        <time>2022-05-14T07:09:58Z</time>
      </trkpt>
      <trkpt lat="46.56539" lon="-0.68087">
        <ele>122</ele>
        <time>2022-05-14T07:10:03Z</time>
      </trkpt>
      <trkpt lat="46.56373" lon="-0.6729">
        <ele>115</ele>
        <time>2022-05-14T07:11:45Z</time>
      </trkpt>
      <trkpt lat="46.56347" lon="-0.67075">
        <ele>113</ele>
        <time>2022-05-14T07:12:12Z</time>
      </trkpt>
      <trkpt lat="46.56338" lon="-0.67019">
        <ele>114</ele>
        <time>2022-05-14T07:12:19Z</time>
      </trkpt>
      <trkpt lat="46.5629" lon="-0.66871">
        <ele>115</ele>
        <time>2022-05-14T07:12:39Z</time>
      </trkpt>
      <trkpt lat="46.56278" lon="-0.66828">
        <ele>116</ele>
        <time>2022-05-14T07:12:44Z</time>
      </trkpt>
      <trkpt lat="46.56272" lon="-0.66786">
        <ele>116</ele>
        <time>2022-05-14T07:12:50Z</time>
      </trkpt>
      <trkpt lat="46.5626" lon="-0.66665">
        <ele>117</ele>
        <time>2022-05-14T07:13:05Z</time>
      </trkpt>
      <trkpt lat="46.5625" lon="-0.66632">
        <ele>117</ele>
        <time>2022-05-14T07:13:09Z</time>
      </trkpt>
      <trkpt lat="46.56225" lon="-0.66644">
        <ele>117</ele>
        <time>2022-05-14T07:13:14Z</time>
      </trkpt>
      <trkpt lat="46.56222" lon="-0.66629">
        <ele>117</ele>
        <time>2022-05-14T07:13:16Z</time>
      </trkpt>
      <trkpt lat="46.56207" lon="-0.6647">
        <ele>117</ele>
        <time>2022-05-14T07:13:35Z</time>
      </trkpt>
      <trkpt lat="46.56204" lon="-0.66451">
        <ele>117</ele>
        <time>2022-05-14T07:13:38Z</time>
      </trkpt>
      <trkpt lat="46.56186" lon="-0.66385">
        <ele>117</ele>
        <time>2022-05-14T07:13:46Z</time>
      </trkpt>
      <trkpt lat="46.56169" lon="-0.66343">
        <ele>117</ele>
        <time>2022-05-14T07:13:52Z</time>
      </trkpt>
      <trkpt lat="46.56151" lon="-0.6631">
        <ele>115</ele>
        <time>2022-05-14T07:13:57Z</time>
      </trkpt>
      <trkpt lat="46.56138" lon="-0.6628">
        <ele>114</ele>
        <time>2022-05-14T07:14:02Z</time>
      </trkpt>
      <trkpt lat="46.56124" lon="-0.66241">
        <ele>113</ele>
        <time>2022-05-14T07:14:07Z</time>
      </trkpt>
      <trkpt lat="46.56117" lon="-0.6621">
        <ele>114</ele>
        <time>2022-05-14T07:14:11Z</time>
      </trkpt>
      <trkpt lat="46.56087" lon="-0.66048">
        <ele>114</ele>
        <time>2022-05-14T07:14:32Z</time>
      </trkpt>
      <trkpt lat="46.56068" lon="-0.65982">
        <ele>111</ele>
        <time>2022-05-14T07:14:40Z</time>
      </trkpt>
      <trkpt lat="46.56057" lon="-0.65952">
        <ele>109</ele>
        <time>2022-05-14T07:14:45Z</time>
      </trkpt>
      <trkpt lat="46.56027" lon="-0.65892">
        <ele>107</ele>
        <time>2022-05-14T07:14:54Z</time>
      </trkpt>
      <trkpt lat="46.56014" lon="-0.65873">
        <ele>107</ele>
        <time>2022-05-14T07:14:57Z</time>
      </trkpt>
      <trkpt lat="46.56" lon="-0.65857">
        <ele>108</ele>
        <time>2022-05-14T07:15:00Z</time>
      </trkpt>
      <trkpt lat="46.55988" lon="-0.65848">
        <ele>107</ele>
        <time>2022-05-14T07:15:03Z</time>
      </trkpt>
      <trkpt lat="46.55974" lon="-0.65841">
        <ele>106</ele>
        <time>2022-05-14T07:15:05Z</time>
      </trkpt>
      <trkpt lat="46.55928" lon="-0.65828">
        <ele>103</ele>
        <time>2022-05-14T07:15:13Z</time>
      </trkpt>
      <trkpt lat="46.5591" lon="-0.65818">
        <ele>102</ele>
        <time>2022-05-14T07:15:17Z</time>
      </trkpt>
      <trkpt lat="46.55895" lon="-0.65806">
        <ele>102</ele>
        <time>2022-05-14T07:15:20Z</time>
      </trkpt>
      <trkpt lat="46.5588" lon="-0.65789">
        <ele>101</ele>
        <time>2022-05-14T07:15:23Z</time>
      </trkpt>
      <trkpt lat="46.55864" lon="-0.6576">
        <ele>101</ele>
        <time>2022-05-14T07:15:28Z</time>
      </trkpt>
      <trkpt lat="46.5585" lon="-0.65732">
        <ele>100</ele>
        <time>2022-05-14T07:15:32Z</time>
      </trkpt>
      <trkpt lat="46.55821" lon="-0.65668">
        <ele>98</ele>
        <time>2022-05-14T07:15:42Z</time>
      </trkpt>
      <trkpt lat="46.5566" lon="-0.6533">
        <ele>87</ele>
        <time>2022-05-14T07:16:32Z</time>
      </trkpt>
      <trkpt lat="46.55647" lon="-0.65295">
        <ele>86</ele>
        <time>2022-05-14T07:16:37Z</time>
      </trkpt>
      <trkpt lat="46.55627" lon="-0.65218">
        <ele>84</ele>
        <time>2022-05-14T07:16:47Z</time>
      </trkpt>
      <trkpt lat="46.55616" lon="-0.65161">
        <ele>82</ele>
        <time>2022-05-14T07:16:54Z</time>
      </trkpt>
      <trkpt lat="46.55596" lon="-0.65">
        <ele>80</ele>
        <time>2022-05-14T07:17:14Z</time>
      </trkpt>
      <trkpt lat="46.55589" lon="-0.64963">
        <ele>79</ele>
        <time>2022-05-14T07:17:19Z</time>
      </trkpt>
      <trkpt lat="46.55578" lon="-0.64925">
        <ele>79</ele>
        <time>2022-05-14T07:17:24Z</time>
      </trkpt>
      <trkpt lat="46.55554" lon="-0.64857">
        <ele>80</ele>
        <time>2022-05-14T07:17:33Z</time>
      </trkpt>
      <trkpt lat="46.55505" lon="-0.64732">
        <ele>74</ele>
        <time>2022-05-14T07:17:51Z</time>
      </trkpt>
      <trkpt lat="46.55479" lon="-0.64656">
        <ele>72</ele>
        <time>2022-05-14T07:18:01Z</time>
      </trkpt>
      <trkpt lat="46.55398" lon="-0.64436">
        <ele>69</ele>
        <time>2022-05-14T07:18:32Z</time>
      </trkpt>
      <trkpt lat="46.55378" lon="-0.64381">
        <ele>72</ele>
        <time>2022-05-14T07:18:39Z</time>
      </trkpt>
      <trkpt lat="46.55353" lon="-0.64318">
        <ele>75</ele>
        <time>2022-05-14T07:18:48Z</time>
      </trkpt>
      <trkpt lat="46.55341" lon="-0.64294">
        <ele>76</ele>
        <time>2022-05-14T07:18:52Z</time>
      </trkpt>
      <trkpt lat="46.55327" lon="-0.64271">
        <ele>77</ele>
        <time>2022-05-14T07:18:56Z</time>
      </trkpt>
      <trkpt lat="46.5526" lon="-0.64184">
        <ele>79</ele>
        <time>2022-05-14T07:19:12Z</time>
      </trkpt>
      <trkpt lat="46.55249" lon="-0.64164">
        <ele>79</ele>
        <time>2022-05-14T07:19:15Z</time>
      </trkpt>
      <trkpt lat="46.55241" lon="-0.64127">
        <ele>81</ele>
        <time>2022-05-14T07:19:19Z</time>
      </trkpt>
      <trkpt lat="46.55233" lon="-0.64008">
        <ele>86</ele>
        <time>2022-05-14T07:19:34Z</time>
      </trkpt>
      <trkpt lat="46.55226" lon="-0.63966">
        <ele>88</ele>
        <time>2022-05-14T07:19:39Z</time>
      </trkpt>
      <trkpt lat="46.55217" lon="-0.63939">
        <ele>88</ele>
        <time>2022-05-14T07:19:43Z</time>
      </trkpt>
      <trkpt lat="46.55182" lon="-0.63866">
        <ele>87</ele>
        <time>2022-05-14T07:19:54Z</time>
      </trkpt>
      <trkpt lat="46.5517" lon="-0.63828">
        <ele>88</ele>
        <time>2022-05-14T07:19:59Z</time>
      </trkpt>
      <trkpt lat="46.55132" lon="-0.63669">
        <ele>88</ele>
        <time>2022-05-14T07:20:20Z</time>
      </trkpt>
      <trkpt lat="46.55127" lon="-0.63641">
        <ele>88</ele>
        <time>2022-05-14T07:20:23Z</time>
      </trkpt>
      <trkpt lat="46.55119" lon="-0.6359">
        <ele>89</ele>
        <time>2022-05-14T07:20:30Z</time>
      </trkpt>
      <trkpt lat="46.55111" lon="-0.63483">
        <ele>88</ele>
        <time>2022-05-14T07:20:43Z</time>
      </trkpt>
      <trkpt lat="46.55105" lon="-0.63426">
        <ele>87</ele>
        <time>2022-05-14T07:20:50Z</time>
      </trkpt>
      <trkpt lat="46.55098" lon="-0.63381">
        <ele>86</ele>
        <time>2022-05-14T07:20:55Z</time>
      </trkpt>
      <trkpt lat="46.55078" lon="-0.63264">
        <ele>83</ele>
        <time>2022-05-14T07:21:10Z</time>
      </trkpt>
      <trkpt lat="46.55068" lon="-0.63175">
        <ele>83</ele>
        <time>2022-05-14T07:21:21Z</time>
      </trkpt>
      <trkpt lat="46.55062" lon="-0.63158">
        <ele>82</ele>
        <time>2022-05-14T07:21:24Z</time>
      </trkpt>
      <trkpt lat="46.55053" lon="-0.63143">
        <ele>81</ele>
        <time>2022-05-14T07:21:26Z</time>
      </trkpt>
      <trkpt lat="46.55043" lon="-0.63131">
        <ele>81</ele>
        <time>2022-05-14T07:21:28Z</time>
      </trkpt>
      <trkpt lat="46.55032" lon="-0.63122">
        <ele>80</ele>
        <time>2022-05-14T07:21:31Z</time>
      </trkpt>
      <trkpt lat="46.5502" lon="-0.63117">
        <ele>79</ele>
        <time>2022-05-14T07:21:33Z</time>
      </trkpt>
      <trkpt lat="46.54997" lon="-0.63119">
        <ele>78</ele>
        <time>2022-05-14T07:21:37Z</time>
      </trkpt>
      <trkpt lat="46.54927" lon="-0.63155">
        <ele>75</ele>
        <time>2022-05-14T07:21:50Z</time>
      </trkpt>
      <trkpt lat="46.54923" lon="-0.63157">
        <ele>75</ele>
        <time>2022-05-14T07:21:51Z</time>
      </trkpt>
      <trkpt lat="46.54871" lon="-0.63185">
        <ele>74</ele>
        <time>2022-05-14T07:22:01Z</time>
      </trkpt>
      <trkpt lat="46.54837" lon="-0.63207">
        <ele>74</ele>
        <time>2022-05-14T07:22:07Z</time>
      </trkpt>
      <trkpt lat="46.54774" lon="-0.63255">
        <ele>78</ele>
        <time>2022-05-14T07:22:20Z</time>
      </trkpt>
      <trkpt lat="46.54746" lon="-0.63271">
        <ele>81</ele>
        <time>2022-05-14T07:22:25Z</time>
      </trkpt>
      <trkpt lat="46.54719" lon="-0.63284">
        <ele>84</ele>
        <time>2022-05-14T07:22:30Z</time>
      </trkpt>
      <trkpt lat="46.54695" lon="-0.63292">
        <ele>86</ele>
        <time>2022-05-14T07:22:35Z</time>
      </trkpt>
      <trkpt lat="46.54616" lon="-0.63314">
        <ele>92</ele>
        <time>2022-05-14T07:22:49Z</time>
      </trkpt>
      <trkpt lat="46.54592" lon="-0.63323">
        <ele>93</ele>
        <time>2022-05-14T07:22:53Z</time>
      </trkpt>
      <trkpt lat="46.54575" lon="-0.63333">
        <ele>94</ele>
        <time>2022-05-14T07:22:57Z</time>
      </trkpt>
      <trkpt lat="46.54526" lon="-0.63371">
        <ele>97</ele>
        <time>2022-05-14T07:23:07Z</time>
      </trkpt>
      <trkpt lat="46.54508" lon="-0.63382">
        <ele>98</ele>
        <time>2022-05-14T07:23:10Z</time>
      </trkpt>
      <trkpt lat="46.5449" lon="-0.63387">
        <ele>99</ele>
        <time>2022-05-14T07:23:13Z</time>
      </trkpt>
      <trkpt lat="46.54452" lon="-0.63392">
        <ele>99</ele>
        <time>2022-05-14T07:23:20Z</time>
      </trkpt>
      <trkpt lat="46.54435" lon="-0.63389">
        <ele>99</ele>
        <time>2022-05-14T07:23:23Z</time>
      </trkpt>
      <trkpt lat="46.5441" lon="-0.63377">
        <ele>100</ele>
        <time>2022-05-14T07:23:28Z</time>
      </trkpt>
      <trkpt lat="46.54393" lon="-0.63364">
        <ele>100</ele>
        <time>2022-05-14T07:23:31Z</time>
      </trkpt>
      <trkpt lat="46.54239" lon="-0.63213">
        <ele>109</ele>
        <time>2022-05-14T07:24:04Z</time>
      </trkpt>
      <trkpt lat="46.54094" lon="-0.63082">
        <ele>115</ele>
        <time>2022-05-14T07:24:35Z</time>
      </trkpt>
      <trkpt lat="46.53833" lon="-0.62782">
        <ele>111</ele>
        <time>2022-05-14T07:25:34Z</time>
      </trkpt>
      <trkpt lat="46.53826" lon="-0.62772">
        <ele>111</ele>
        <time>2022-05-14T07:25:36Z</time>
      </trkpt>
      <trkpt lat="46.53804" lon="-0.6279">
        <ele>111</ele>
        <time>2022-05-14T07:25:40Z</time>
      </trkpt>
      <trkpt lat="46.53669" lon="-0.62849">
        <ele>108</ele>
        <time>2022-05-14T07:26:05Z</time>
      </trkpt>
      <trkpt lat="46.5363" lon="-0.62857">
        <ele>108</ele>
        <time>2022-05-14T07:26:12Z</time>
      </trkpt>
      <trkpt lat="46.53571" lon="-0.62863">
        <ele>109</ele>
        <time>2022-05-14T07:26:23Z</time>
      </trkpt>
      <trkpt lat="46.53519" lon="-0.62873">
        <ele>110</ele>
        <time>2022-05-14T07:26:32Z</time>
      </trkpt>
      <trkpt lat="46.535" lon="-0.6288">
        <ele>110</ele>
        <time>2022-05-14T07:26:36Z</time>
      </trkpt>
      <trkpt lat="46.53468" lon="-0.629">
        <ele>109</ele>
        <time>2022-05-14T07:26:42Z</time>
      </trkpt>
      <trkpt lat="46.53446" lon="-0.62921">
        <ele>109</ele>
        <time>2022-05-14T07:26:46Z</time>
      </trkpt>
      <trkpt lat="46.5338" lon="-0.63">
        <ele>106</ele>
        <time>2022-05-14T07:27:02Z</time>
      </trkpt>
      <trkpt lat="46.53362" lon="-0.63023">
        <ele>105</ele>
        <time>2022-05-14T07:27:06Z</time>
      </trkpt>
      <trkpt lat="46.53349" lon="-0.63045">
        <ele>105</ele>
        <time>2022-05-14T07:27:09Z</time>
      </trkpt>
      <trkpt lat="46.53297" lon="-0.63146">
        <ele>101</ele>
        <time>2022-05-14T07:27:25Z</time>
      </trkpt>
      <trkpt lat="46.53279" lon="-0.63179">
        <ele>99</ele>
        <time>2022-05-14T07:27:30Z</time>
      </trkpt>
      <trkpt lat="46.53264" lon="-0.63202">
        <ele>98</ele>
        <time>2022-05-14T07:27:34Z</time>
      </trkpt>
      <trkpt lat="46.53234" lon="-0.63243">
        <ele>98</ele>
        <time>2022-05-14T07:27:41Z</time>
      </trkpt>
      <trkpt lat="46.5317" lon="-0.63312">
        <ele>99</ele>
        <time>2022-05-14T07:27:55Z</time>
      </trkpt>
      <trkpt lat="46.53142" lon="-0.63352">
        <ele>99</ele>
        <time>2022-05-14T07:28:02Z</time>
      </trkpt>
      <trkpt lat="46.53105" lon="-0.63427">
        <ele>98</ele>
        <time>2022-05-14T07:28:14Z</time>
      </trkpt>
      <trkpt lat="46.53088" lon="-0.63469">
        <ele>97</ele>
        <time>2022-05-14T07:28:20Z</time>
      </trkpt>
      <trkpt lat="46.53077" lon="-0.63514">
        <ele>95</ele>
        <time>2022-05-14T07:28:26Z</time>
      </trkpt>
      <trkpt lat="46.53056" lon="-0.63617">
        <ele>93</ele>
        <time>2022-05-14T07:28:39Z</time>
      </trkpt>
      <trkpt lat="46.53047" lon="-0.63654">
        <ele>93</ele>
        <time>2022-05-14T07:28:44Z</time>
      </trkpt>
      <trkpt lat="46.53035" lon="-0.63695">
        <ele>92</ele>
        <time>2022-05-14T07:28:49Z</time>
      </trkpt>
      <trkpt lat="46.53021" lon="-0.63726">
        <ele>91</ele>
        <time>2022-05-14T07:28:54Z</time>
      </trkpt>
      <trkpt lat="46.52995" lon="-0.63778">
        <ele>89</ele>
        <time>2022-05-14T07:29:01Z</time>
      </trkpt>
      <trkpt lat="46.52977" lon="-0.63801">
        <ele>89</ele>
        <time>2022-05-14T07:29:06Z</time>
      </trkpt>
      <trkpt lat="46.52968" lon="-0.63809">
        <ele>88</ele>
        <time>2022-05-14T07:29:08Z</time>
      </trkpt>
      <trkpt lat="46.52914" lon="-0.63725">
        <ele>90</ele>
        <time>2022-05-14T07:29:22Z</time>
      </trkpt>
      <trkpt lat="46.52865" lon="-0.63678">
        <ele>86</ele>
        <time>2022-05-14T07:29:32Z</time>
      </trkpt>
      <trkpt lat="46.52827" lon="-0.63647">
        <ele>82</ele>
        <time>2022-05-14T07:29:40Z</time>
      </trkpt>
      <trkpt lat="46.52805" lon="-0.63641">
        <ele>79</ele>
        <time>2022-05-14T07:29:44Z</time>
      </trkpt>
      <trkpt lat="46.5275" lon="-0.63633">
        <ele>74</ele>
        <time>2022-05-14T07:29:54Z</time>
      </trkpt>
      <trkpt lat="46.52677" lon="-0.63639">
        <ele>67</ele>
        <time>2022-05-14T07:30:07Z</time>
      </trkpt>
      <trkpt lat="46.5266" lon="-0.6363">
        <ele>66</ele>
        <time>2022-05-14T07:30:10Z</time>
      </trkpt>
      <trkpt lat="46.52625" lon="-0.63604">
        <ele>66</ele>
        <time>2022-05-14T07:30:17Z</time>
      </trkpt>
      <trkpt lat="46.52606" lon="-0.63583">
        <ele>66</ele>
        <time>2022-05-14T07:30:21Z</time>
      </trkpt>
      <trkpt lat="46.52348" lon="-0.63274">
        <ele>89</ele>
        <time>2022-05-14T07:31:21Z</time>
      </trkpt>
      <trkpt lat="46.52331" lon="-0.63264">
        <ele>91</ele>
        <time>2022-05-14T07:31:24Z</time>
      </trkpt>
      <trkpt lat="46.52289" lon="-0.63257">
        <ele>91</ele>
        <time>2022-05-14T07:31:31Z</time>
      </trkpt>
      <trkpt lat="46.52271" lon="-0.63252">
        <ele>92</ele>
        <time>2022-05-14T07:31:35Z</time>
      </trkpt>
      <trkpt lat="46.52252" lon="-0.6325">
        <ele>92</ele>
        <time>2022-05-14T07:31:38Z</time>
      </trkpt>
      <trkpt lat="46.522" lon="-0.63229">
        <ele>92</ele>
        <time>2022-05-14T07:31:48Z</time>
      </trkpt>
      <trkpt lat="46.52174" lon="-0.63216">
        <ele>92</ele>
        <time>2022-05-14T07:31:52Z</time>
      </trkpt>
      <trkpt lat="46.52113" lon="-0.63173">
        <ele>89</ele>
        <time>2022-05-14T07:32:05Z</time>
      </trkpt>
      <trkpt lat="46.52053" lon="-0.63119">
        <ele>88</ele>
        <time>2022-05-14T07:32:17Z</time>
      </trkpt>
      <trkpt lat="46.52028" lon="-0.63093">
        <ele>88</ele>
        <time>2022-05-14T07:32:23Z</time>
      </trkpt>
      <trkpt lat="46.52006" lon="-0.63067">
        <ele>87</ele>
        <time>2022-05-14T07:32:28Z</time>
      </trkpt>
      <trkpt lat="46.51992" lon="-0.63043">
        <ele>86</ele>
        <time>2022-05-14T07:32:31Z</time>
      </trkpt>
      <trkpt lat="46.51937" lon="-0.62963">
        <ele>85</ele>
        <time>2022-05-14T07:32:45Z</time>
      </trkpt>
      <trkpt lat="46.51901" lon="-0.62938">
        <ele>85</ele>
        <time>2022-05-14T07:32:52Z</time>
      </trkpt>
      <trkpt lat="46.51835" lon="-0.629">
        <ele>84</ele>
        <time>2022-05-14T07:33:05Z</time>
      </trkpt>
      <trkpt lat="46.5176" lon="-0.6284">
        <ele>84</ele>
        <time>2022-05-14T07:33:20Z</time>
      </trkpt>
      <trkpt lat="46.51576" lon="-0.6272">
        <ele>81</ele>
        <time>2022-05-14T07:33:56Z</time>
      </trkpt>
      <trkpt lat="46.51518" lon="-0.62672">
        <ele>77</ele>
        <time>2022-05-14T07:34:08Z</time>
      </trkpt>
      <trkpt lat="46.51473" lon="-0.62626">
        <ele>73</ele>
        <time>2022-05-14T07:34:18Z</time>
      </trkpt>
      <trkpt lat="46.51445" lon="-0.62585">
        <ele>70</ele>
        <time>2022-05-14T07:34:25Z</time>
      </trkpt>
      <trkpt lat="46.51423" lon="-0.62542">
        <ele>67</ele>
        <time>2022-05-14T07:34:31Z</time>
      </trkpt>
      <trkpt lat="46.51407" lon="-0.62505">
        <ele>67</ele>
        <time>2022-05-14T07:34:37Z</time>
      </trkpt>
      <trkpt lat="46.51395" lon="-0.62466">
        <ele>67</ele>
        <time>2022-05-14T07:34:42Z</time>
      </trkpt>
      <trkpt lat="46.51366" lon="-0.62203">
        <ele>66</ele>
        <time>2022-05-14T07:35:15Z</time>
      </trkpt>
      <trkpt lat="46.51361" lon="-0.62182">
        <ele>66</ele>
        <time>2022-05-14T07:35:17Z</time>
      </trkpt>
      <trkpt lat="46.51353" lon="-0.62168">
        <ele>65</ele>
        <time>2022-05-14T07:35:20Z</time>
      </trkpt>
      <trkpt lat="46.51341" lon="-0.62157">
        <ele>65</ele>
        <time>2022-05-14T07:35:22Z</time>
      </trkpt>
      <trkpt lat="46.51303" lon="-0.6214">
        <ele>67</ele>
        <time>2022-05-14T07:35:29Z</time>
      </trkpt>
      <trkpt lat="46.51296" lon="-0.62133">
        <ele>68</ele>
        <time>2022-05-14T07:35:31Z</time>
      </trkpt>
      <trkpt lat="46.51291" lon="-0.62123">
        <ele>68</ele>
        <time>2022-05-14T07:35:32Z</time>
      </trkpt>
      <trkpt lat="46.51278" lon="-0.62057">
        <ele>69</ele>
        <time>2022-05-14T07:35:41Z</time>
      </trkpt>
      <trkpt lat="46.51267" lon="-0.61987">
        <ele>70</ele>
        <time>2022-05-14T07:35:49Z</time>
      </trkpt>
      <trkpt lat="46.51242" lon="-0.61898">
        <ele>74</ele>
        <time>2022-05-14T07:36:01Z</time>
      </trkpt>
      <trkpt lat="46.51219" lon="-0.61836">
        <ele>75</ele>
        <time>2022-05-14T07:36:10Z</time>
      </trkpt>
      <trkpt lat="46.51181" lon="-0.61721">
        <ele>79</ele>
        <time>2022-05-14T07:36:25Z</time>
      </trkpt>
      <trkpt lat="46.51159" lon="-0.61645">
        <ele>82</ele>
        <time>2022-05-14T07:36:36Z</time>
      </trkpt>
      <trkpt lat="46.51133" lon="-0.61594">
        <ele>82</ele>
        <time>2022-05-14T07:36:43Z</time>
      </trkpt>
      <trkpt lat="46.51098" lon="-0.61543">
        <ele>83</ele>
        <time>2022-05-14T07:36:52Z</time>
      </trkpt>
      <trkpt lat="46.51057" lon="-0.61495">
        <ele>86</ele>
        <time>2022-05-14T07:37:02Z</time>
      </trkpt>
      <trkpt lat="46.51001" lon="-0.61437">
        <ele>92</ele>
        <time>2022-05-14T07:37:14Z</time>
      </trkpt>
      <trkpt lat="46.50982" lon="-0.6141">
        <ele>93</ele>
        <time>2022-05-14T07:37:18Z</time>
      </trkpt>
      <trkpt lat="46.50968" lon="-0.61381">
        <ele>94</ele>
        <time>2022-05-14T07:37:23Z</time>
      </trkpt>
      <trkpt lat="46.5093" lon="-0.61323">
        <ele>96</ele>
        <time>2022-05-14T07:37:33Z</time>
      </trkpt>
      <trkpt lat="46.50891" lon="-0.61276">
        <ele>95</ele>
        <time>2022-05-14T07:37:42Z</time>
      </trkpt>
      <trkpt lat="46.5088" lon="-0.61267">
        <ele>95</ele>
        <time>2022-05-14T07:37:44Z</time>
      </trkpt>
      <trkpt lat="46.50812" lon="-0.61229">
        <ele>95</ele>
        <time>2022-05-14T07:37:57Z</time>
      </trkpt>
      <trkpt lat="46.50749" lon="-0.61202">
        <ele>97</ele>
        <time>2022-05-14T07:38:09Z</time>
      </trkpt>
      <trkpt lat="46.5068" lon="-0.61193">
        <ele>98</ele>
        <time>2022-05-14T07:38:21Z</time>
      </trkpt>
      <trkpt lat="46.50613" lon="-0.61193">
        <ele>98</ele>
        <time>2022-05-14T07:38:33Z</time>
      </trkpt>
      <trkpt lat="46.50546" lon="-0.6119">
        <ele>97</ele>
        <time>2022-05-14T07:38:45Z</time>
      </trkpt>
      <trkpt lat="46.50523" lon="-0.61184">
        <ele>96</ele>
        <time>2022-05-14T07:38:49Z</time>
      </trkpt>
      <trkpt lat="46.50461" lon="-0.61145">
        <ele>95</ele>
        <time>2022-05-14T07:39:01Z</time>
      </trkpt>
      <trkpt lat="46.50421" lon="-0.61158">
        <ele>94</ele>
        <time>2022-05-14T07:39:08Z</time>
      </trkpt>
      <trkpt lat="46.50411" lon="-0.61164">
        <ele>94</ele>
        <time>2022-05-14T07:39:10Z</time>
      </trkpt>
      <trkpt lat="46.50396" lon="-0.61167">
        <ele>93</ele>
        <time>2022-05-14T07:39:13Z</time>
      </trkpt>
      <trkpt lat="46.50374" lon="-0.61153">
        <ele>91</ele>
        <time>2022-05-14T07:39:17Z</time>
      </trkpt>
      <trkpt lat="46.50307" lon="-0.61118">
        <ele>87</ele>
        <time>2022-05-14T07:39:30Z</time>
      </trkpt>
      <trkpt lat="46.50273" lon="-0.61114">
        <ele>85</ele>
        <time>2022-05-14T07:39:36Z</time>
      </trkpt>
      <trkpt lat="46.50205" lon="-0.61127">
        <ele>82</ele>
        <time>2022-05-14T07:39:48Z</time>
      </trkpt>
      <trkpt lat="46.50139" lon="-0.61145">
        <ele>80</ele>
        <time>2022-05-14T07:40:00Z</time>
      </trkpt>
      <trkpt lat="46.50117" lon="-0.61144">
        <ele>80</ele>
        <time>2022-05-14T07:40:04Z</time>
      </trkpt>
      <trkpt lat="46.50073" lon="-0.6113">
        <ele>79</ele>
        <time>2022-05-14T07:40:12Z</time>
      </trkpt>
      <trkpt lat="46.50014" lon="-0.61093">
        <ele>78</ele>
        <time>2022-05-14T07:40:23Z</time>
      </trkpt>
      <trkpt lat="46.49985" lon="-0.61068">
        <ele>78</ele>
        <time>2022-05-14T07:40:29Z</time>
      </trkpt>
      <trkpt lat="46.49954" lon="-0.61034">
        <ele>78</ele>
        <time>2022-05-14T07:40:36Z</time>
      </trkpt>
      <trkpt lat="46.4994" lon="-0.61017">
        <ele>79</ele>
        <time>2022-05-14T07:40:39Z</time>
      </trkpt>
      <trkpt lat="46.49918" lon="-0.60996">
        <ele>80</ele>
        <time>2022-05-14T07:40:44Z</time>
      </trkpt>
      <trkpt lat="46.49886" lon="-0.60986">
        <ele>81</ele>
        <time>2022-05-14T07:40:50Z</time>
      </trkpt>
      <trkpt lat="46.49857" lon="-0.60981">
        <ele>81</ele>
        <time>2022-05-14T07:40:55Z</time>
      </trkpt>
      <trkpt lat="46.49825" lon="-0.6096">
        <ele>82</ele>
        <time>2022-05-14T07:41:01Z</time>
      </trkpt>
      <trkpt lat="46.49778" lon="-0.60922">
        <ele>83</ele>
        <time>2022-05-14T07:41:11Z</time>
      </trkpt>
      <trkpt lat="46.49725" lon="-0.60898">
        <ele>84</ele>
        <time>2022-05-14T07:41:21Z</time>
      </trkpt>
      <trkpt lat="46.49658" lon="-0.60874">
        <ele>87</ele>
        <time>2022-05-14T07:41:33Z</time>
      </trkpt>
      <trkpt lat="46.49577" lon="-0.60817">
        <ele>90</ele>
        <time>2022-05-14T07:41:49Z</time>
      </trkpt>
      <trkpt lat="46.49539" lon="-0.60781">
        <ele>92</ele>
        <time>2022-05-14T07:41:57Z</time>
      </trkpt>
      <trkpt lat="46.49439" lon="-0.60659">
        <ele>93</ele>
        <time>2022-05-14T07:42:20Z</time>
      </trkpt>
      <trkpt lat="46.49408" lon="-0.60635">
        <ele>92</ele>
        <time>2022-05-14T07:42:27Z</time>
      </trkpt>
      <trkpt lat="46.4929" lon="-0.60565">
        <ele>88</ele>
        <time>2022-05-14T07:42:49Z</time>
      </trkpt>
      <trkpt lat="46.49258" lon="-0.60504">
        <ele>88</ele>
        <time>2022-05-14T07:42:59Z</time>
      </trkpt>
      <trkpt lat="46.49227" lon="-0.60397">
        <ele>89</ele>
        <time>2022-05-14T07:43:13Z</time>
      </trkpt>
      <trkpt lat="46.49192" lon="-0.6035">
        <ele>88</ele>
        <time>2022-05-14T07:43:22Z</time>
      </trkpt>
      <trkpt lat="46.49079" lon="-0.60242">
        <ele>87</ele>
        <time>2022-05-14T07:43:46Z</time>
      </trkpt>
      <trkpt lat="46.49021" lon="-0.602">
        <ele>84</ele>
        <time>2022-05-14T07:43:57Z</time>
      </trkpt>
      <trkpt lat="46.48968" lon="-0.60172">
        <ele>82</ele>
        <time>2022-05-14T07:44:07Z</time>
      </trkpt>
      <trkpt lat="46.48859" lon="-0.60108">
        <ele>78</ele>
        <time>2022-05-14T07:44:28Z</time>
      </trkpt>
      <trkpt lat="46.48824" lon="-0.6009">
        <ele>77</ele>
        <time>2022-05-14T07:44:35Z</time>
      </trkpt>
      <trkpt lat="46.48664" lon="-0.60036">
        <ele>77</ele>
        <time>2022-05-14T07:45:04Z</time>
      </trkpt>
      <trkpt lat="46.48657" lon="-0.60021">
        <ele>77</ele>
        <time>2022-05-14T07:45:06Z</time>
      </trkpt>
      <trkpt lat="46.48649" lon="-0.59937">
        <ele>78</ele>
        <time>2022-05-14T07:45:16Z</time>
      </trkpt>
      <trkpt lat="46.48628" lon="-0.59935">
        <ele>77</ele>
        <time>2022-05-14T07:45:20Z</time>
      </trkpt>
      <trkpt lat="46.48609" lon="-0.59928">
        <ele>77</ele>
        <time>2022-05-14T07:45:24Z</time>
      </trkpt>
      <trkpt lat="46.48585" lon="-0.59914">
        <ele>76</ele>
        <time>2022-05-14T07:45:28Z</time>
      </trkpt>
      <trkpt lat="46.48374" lon="-0.59761">
        <ele>76</ele>
        <time>2022-05-14T07:46:10Z</time>
      </trkpt>
      <trkpt lat="46.48353" lon="-0.59816">
        <ele>77</ele>
        <time>2022-05-14T07:46:18Z</time>
      </trkpt>
      <trkpt lat="46.48332" lon="-0.59903">
        <ele>78</ele>
        <time>2022-05-14T07:46:29Z</time>
      </trkpt>
      <trkpt lat="46.48309" lon="-0.59942">
        <ele>78</ele>
        <time>2022-05-14T07:46:36Z</time>
      </trkpt>
      <trkpt lat="46.48263" lon="-0.59986">
        <ele>78</ele>
        <time>2022-05-14T07:46:45Z</time>
      </trkpt>
      <trkpt lat="46.48225" lon="-0.60036">
        <ele>77</ele>
        <time>2022-05-14T07:46:55Z</time>
      </trkpt>
      <trkpt lat="46.48105" lon="-0.60204">
        <ele>75</ele>
        <time>2022-05-14T07:47:24Z</time>
      </trkpt>
      <trkpt lat="46.48095" lon="-0.60224">
        <ele>75</ele>
        <time>2022-05-14T07:47:27Z</time>
      </trkpt>
      <trkpt lat="46.48087" lon="-0.60221">
        <ele>75</ele>
        <time>2022-05-14T07:47:29Z</time>
      </trkpt>
      <trkpt lat="46.4807" lon="-0.60204">
        <ele>76</ele>
        <time>2022-05-14T07:47:32Z</time>
      </trkpt>
      <trkpt lat="46.47835" lon="-0.60104">
        <ele>80</ele>
        <time>2022-05-14T07:48:16Z</time>
      </trkpt>
      <trkpt lat="46.47792" lon="-0.60101">
        <ele>79</ele>
        <time>2022-05-14T07:48:24Z</time>
      </trkpt>
      <trkpt lat="46.47788" lon="-0.60109">
        <ele>78</ele>
        <time>2022-05-14T07:48:25Z</time>
      </trkpt>
      <trkpt lat="46.4778" lon="-0.60114">
        <ele>78</ele>
        <time>2022-05-14T07:48:26Z</time>
      </trkpt>
      <trkpt lat="46.47771" lon="-0.60109">
        <ele>78</ele>
        <time>2022-05-14T07:48:28Z</time>
      </trkpt>
      <trkpt lat="46.47768" lon="-0.601">
        <ele>78</ele>
        <time>2022-05-14T07:48:29Z</time>
      </trkpt>
      <trkpt lat="46.47768" lon="-0.60091">
        <ele>78</ele>
        <time>2022-05-14T07:48:30Z</time>
      </trkpt>
      <trkpt lat="46.47771" lon="-0.60083">
        <ele>78</ele>
        <time>2022-05-14T07:48:31Z</time>
      </trkpt>
      <trkpt lat="46.47761" lon="-0.60076">
        <ele>77</ele>
        <time>2022-05-14T07:48:33Z</time>
      </trkpt>
      <trkpt lat="46.47599" lon="-0.60008">
        <ele>72</ele>
        <time>2022-05-14T07:49:03Z</time>
      </trkpt>
      <trkpt lat="46.47544" lon="-0.5999">
        <ele>71</ele>
        <time>2022-05-14T07:49:13Z</time>
      </trkpt>
      <trkpt lat="46.47499" lon="-0.59981">
        <ele>70</ele>
        <time>2022-05-14T07:49:22Z</time>
      </trkpt>
      <trkpt lat="46.4746" lon="-0.59976">
        <ele>69</ele>
        <time>2022-05-14T07:49:29Z</time>
      </trkpt>
      <trkpt lat="46.46863" lon="-0.5995">
        <ele>67</ele>
        <time>2022-05-14T07:51:15Z</time>
      </trkpt>
      <trkpt lat="46.46829" lon="-0.59943">
        <ele>68</ele>
        <time>2022-05-14T07:51:21Z</time>
      </trkpt>
      <trkpt lat="46.46814" lon="-0.59937">
        <ele>68</ele>
        <time>2022-05-14T07:51:24Z</time>
      </trkpt>
      <trkpt lat="46.46789" lon="-0.59922">
        <ele>67</ele>
        <time>2022-05-14T07:51:29Z</time>
      </trkpt>
      <trkpt lat="46.46725" lon="-0.59865">
        <ele>66</ele>
        <time>2022-05-14T07:51:42Z</time>
      </trkpt>
      <trkpt lat="46.46703" lon="-0.59851">
        <ele>66</ele>
        <time>2022-05-14T07:51:46Z</time>
      </trkpt>
      <trkpt lat="46.46691" lon="-0.59841">
        <ele>66</ele>
        <time>2022-05-14T07:51:49Z</time>
      </trkpt>
      <trkpt lat="46.46653" lon="-0.59826">
        <ele>64</ele>
        <time>2022-05-14T07:51:56Z</time>
      </trkpt>
      <trkpt lat="46.46368" lon="-0.5979">
        <ele>62</ele>
        <time>2022-05-14T07:52:47Z</time>
      </trkpt>
      <trkpt lat="46.46348" lon="-0.59795">
        <ele>62</ele>
        <time>2022-05-14T07:52:50Z</time>
      </trkpt>
      <trkpt lat="46.46336" lon="-0.59801">
        <ele>62</ele>
        <time>2022-05-14T07:52:52Z</time>
      </trkpt>
      <trkpt lat="46.46206" lon="-0.59976">
        <ele>57</ele>
        <time>2022-05-14T07:53:24Z</time>
      </trkpt>
      <trkpt lat="46.46196" lon="-0.59983">
        <ele>57</ele>
        <time>2022-05-14T07:53:26Z</time>
      </trkpt>
      <trkpt lat="46.46179" lon="-0.5999">
        <ele>57</ele>
        <time>2022-05-14T07:53:29Z</time>
      </trkpt>
      <trkpt lat="46.46158" lon="-0.59988">
        <ele>57</ele>
        <time>2022-05-14T07:53:33Z</time>
      </trkpt>
      <trkpt lat="46.46142" lon="-0.59983">
        <ele>57</ele>
        <time>2022-05-14T07:53:36Z</time>
      </trkpt>
      <trkpt lat="46.46107" lon="-0.59978">
        <ele>56</ele>
        <time>2022-05-14T07:53:42Z</time>
      </trkpt>
      <trkpt lat="46.45665" lon="-0.59898">
        <ele>42</ele>
        <time>2022-05-14T07:55:01Z</time>
      </trkpt>
      <trkpt lat="46.45645" lon="-0.59897">
        <ele>42</ele>
        <time>2022-05-14T07:55:05Z</time>
      </trkpt>
      <trkpt lat="46.45627" lon="-0.599">
        <ele>43</ele>
        <time>2022-05-14T07:55:08Z</time>
      </trkpt>
      <trkpt lat="46.4561" lon="-0.59906">
        <ele>43</ele>
        <time>2022-05-14T07:55:11Z</time>
      </trkpt>
      <trkpt lat="46.45597" lon="-0.59913">
        <ele>43</ele>
        <time>2022-05-14T07:55:14Z</time>
      </trkpt>
      <trkpt lat="46.45376" lon="-0.60093">
        <ele>44</ele>
        <time>2022-05-14T07:55:59Z</time>
      </trkpt>
      <trkpt lat="46.45343" lon="-0.60113">
        <ele>44</ele>
        <time>2022-05-14T07:56:05Z</time>
      </trkpt>
      <trkpt lat="46.45246" lon="-0.60155">
        <ele>46</ele>
        <time>2022-05-14T07:56:23Z</time>
      </trkpt>
      <trkpt lat="46.45182" lon="-0.60173">
        <ele>49</ele>
        <time>2022-05-14T07:56:35Z</time>
      </trkpt>
      <trkpt lat="46.45159" lon="-0.60175">
        <ele>49</ele>
        <time>2022-05-14T07:56:39Z</time>
      </trkpt>
      <trkpt lat="46.44934" lon="-0.60166">
        <ele>44</ele>
        <time>2022-05-14T07:57:19Z</time>
      </trkpt>
      <trkpt lat="46.44507" lon="-0.60141">
        <ele>31</ele>
        <time>2022-05-14T07:58:35Z</time>
      </trkpt>
      <trkpt lat="46.44473" lon="-0.6014">
        <ele>37</ele>
        <time>2022-05-14T07:58:41Z</time>
      </trkpt>
      <trkpt lat="46.44465" lon="-0.60139">
        <ele>38</ele>
        <time>2022-05-14T07:58:42Z</time>
      </trkpt>
      <trkpt lat="46.4446" lon="-0.60135">
        <ele>39</ele>
        <time>2022-05-14T07:58:43Z</time>
      </trkpt>
      <trkpt lat="46.44453" lon="-0.60114">
        <ele>40</ele>
        <time>2022-05-14T07:58:46Z</time>
      </trkpt>
      <trkpt lat="46.44425" lon="-0.59883">
        <ele>40</ele>
        <time>2022-05-14T07:59:15Z</time>
      </trkpt>
      <trkpt lat="46.44416" lon="-0.59866">
        <ele>41</ele>
        <time>2022-05-14T07:59:18Z</time>
      </trkpt>
      <trkpt lat="46.44406" lon="-0.59859">
        <ele>41</ele>
        <time>2022-05-14T07:59:20Z</time>
      </trkpt>
      <trkpt lat="46.44391" lon="-0.59858">
        <ele>42</ele>
        <time>2022-05-14T07:59:22Z</time>
      </trkpt>
      <trkpt lat="46.44375" lon="-0.5987">
        <ele>43</ele>
        <time>2022-05-14T07:59:25Z</time>
      </trkpt>
      <trkpt lat="46.44371" lon="-0.59877">
        <ele>44</ele>
        <time>2022-05-14T07:59:27Z</time>
      </trkpt>
      <trkpt lat="46.44365" lon="-0.59902">
        <ele>45</ele>
        <time>2022-05-14T07:59:30Z</time>
      </trkpt>
      <trkpt lat="46.44352" lon="-0.59982">
        <ele>48</ele>
        <time>2022-05-14T07:59:40Z</time>
      </trkpt>
      <trkpt lat="46.4434" lon="-0.60029">
        <ele>50</ele>
        <time>2022-05-14T07:59:46Z</time>
      </trkpt>
      <trkpt lat="46.44331" lon="-0.60048">
        <ele>51</ele>
        <time>2022-05-14T07:59:49Z</time>
      </trkpt>
      <trkpt lat="46.44325" lon="-0.60053">
        <ele>52</ele>
        <time>2022-05-14T07:59:50Z</time>
      </trkpt>
      <trkpt lat="46.44304" lon="-0.60062">
        <ele>54</ele>
        <time>2022-05-14T07:59:54Z</time>
      </trkpt>
      <trkpt lat="46.44285" lon="-0.60065">
        <ele>55</ele>
        <time>2022-05-14T07:59:57Z</time>
      </trkpt>
      <trkpt lat="46.44257" lon="-0.60066">
        <ele>57</ele>
        <time>2022-05-14T08:00:02Z</time>
      </trkpt>
      <trkpt lat="46.44183" lon="-0.60054">
        <ele>64</ele>
        <time>2022-05-14T08:00:16Z</time>
      </trkpt>
      <trkpt lat="46.44178" lon="-0.60049">
        <ele>64</ele>
        <time>2022-05-14T08:00:17Z</time>
      </trkpt>
      <trkpt lat="46.44166" lon="-0.60007">
        <ele>66</ele>
        <time>2022-05-14T08:00:22Z</time>
      </trkpt>
      <trkpt lat="46.44119" lon="-0.59833">
        <ele>64</ele>
        <time>2022-05-14T08:00:45Z</time>
      </trkpt>
      <trkpt lat="46.44115" lon="-0.59833">
        <ele>64</ele>
        <time>2022-05-14T08:00:46Z</time>
      </trkpt>
      <trkpt lat="46.44027" lon="-0.59743">
        <ele>69</ele>
        <time>2022-05-14T08:01:05Z</time>
      </trkpt>
      <trkpt lat="46.44009" lon="-0.59731">
        <ele>70</ele>
        <time>2022-05-14T08:01:09Z</time>
      </trkpt>
      <trkpt lat="46.4397" lon="-0.59712">
        <ele>70</ele>
        <time>2022-05-14T08:01:16Z</time>
      </trkpt>
      <trkpt lat="46.43959" lon="-0.59709">
        <ele>70</ele>
        <time>2022-05-14T08:01:18Z</time>
      </trkpt>
      <trkpt lat="46.43881" lon="-0.59704">
        <ele>69</ele>
        <time>2022-05-14T08:01:32Z</time>
      </trkpt>
      <trkpt lat="46.43836" lon="-0.59697">
        <ele>68</ele>
        <time>2022-05-14T08:01:40Z</time>
      </trkpt>
      <trkpt lat="46.43697" lon="-0.59672">
        <ele>65</ele>
        <time>2022-05-14T08:02:05Z</time>
      </trkpt>
      <trkpt lat="46.43639" lon="-0.59654">
        <ele>64</ele>
        <time>2022-05-14T08:02:15Z</time>
      </trkpt>
      <trkpt lat="46.43571" lon="-0.59621">
        <ele>63</ele>
        <time>2022-05-14T08:02:28Z</time>
      </trkpt>
      <trkpt lat="46.43551" lon="-0.59607">
        <ele>62</ele>
        <time>2022-05-14T08:02:32Z</time>
      </trkpt>
      <trkpt lat="46.4346" lon="-0.5953">
        <ele>61</ele>
        <time>2022-05-14T08:02:51Z</time>
      </trkpt>
      <trkpt lat="46.43417" lon="-0.59491">
        <ele>61</ele>
        <time>2022-05-14T08:03:00Z</time>
      </trkpt>
      <trkpt lat="46.43372" lon="-0.59461">
        <ele>62</ele>
        <time>2022-05-14T08:03:09Z</time>
      </trkpt>
      <trkpt lat="46.43331" lon="-0.59448">
        <ele>62</ele>
        <time>2022-05-14T08:03:16Z</time>
      </trkpt>
      <trkpt lat="46.43306" lon="-0.59442">
        <ele>62</ele>
        <time>2022-05-14T08:03:21Z</time>
      </trkpt>
      <trkpt lat="46.43275" lon="-0.59439">
        <ele>61</ele>
        <time>2022-05-14T08:03:26Z</time>
      </trkpt>
      <trkpt lat="46.43202" lon="-0.59441">
        <ele>60</ele>
        <time>2022-05-14T08:03:39Z</time>
      </trkpt>
      <trkpt lat="46.43" lon="-0.59456">
        <ele>59</ele>
        <time>2022-05-14T08:04:15Z</time>
      </trkpt>
      <trkpt lat="46.42968" lon="-0.59453">
        <ele>59</ele>
        <time>2022-05-14T08:04:21Z</time>
      </trkpt>
      <trkpt lat="46.42904" lon="-0.59439">
        <ele>58</ele>
        <time>2022-05-14T08:04:32Z</time>
      </trkpt>
      <trkpt lat="46.42713" lon="-0.59375">
        <ele>56</ele>
        <time>2022-05-14T08:05:07Z</time>
      </trkpt>
      <trkpt lat="46.42638" lon="-0.59338">
        <ele>56</ele>
        <time>2022-05-14T08:05:21Z</time>
      </trkpt>
      <trkpt lat="46.42603" lon="-0.59326">
        <ele>55</ele>
        <time>2022-05-14T08:05:28Z</time>
      </trkpt>
      <trkpt lat="46.42458" lon="-0.593">
        <ele>50</ele>
        <time>2022-05-14T08:05:54Z</time>
      </trkpt>
      <trkpt lat="46.42414" lon="-0.59295">
        <ele>48</ele>
        <time>2022-05-14T08:06:01Z</time>
      </trkpt>
      <trkpt lat="46.42275" lon="-0.59285">
        <ele>44</ele>
        <time>2022-05-14T08:06:26Z</time>
      </trkpt>
      <trkpt lat="46.42231" lon="-0.5928">
        <ele>43</ele>
        <time>2022-05-14T08:06:34Z</time>
      </trkpt>
      <trkpt lat="46.42187" lon="-0.59271">
        <ele>43</ele>
        <time>2022-05-14T08:06:42Z</time>
      </trkpt>
      <trkpt lat="46.42078" lon="-0.59239">
        <ele>42</ele>
        <time>2022-05-14T08:07:02Z</time>
      </trkpt>
      <trkpt lat="46.42014" lon="-0.59227">
        <ele>40</ele>
        <time>2022-05-14T08:07:13Z</time>
      </trkpt>
      <trkpt lat="46.41976" lon="-0.59224">
        <ele>40</ele>
        <time>2022-05-14T08:07:20Z</time>
      </trkpt>
      <trkpt lat="46.4158" lon="-0.59224">
        <ele>40</ele>
        <time>2022-05-14T08:08:31Z</time>
      </trkpt>
      <trkpt lat="46.41544" lon="-0.59226">
        <ele>41</ele>
        <time>2022-05-14T08:08:37Z</time>
      </trkpt>
      <trkpt lat="46.41514" lon="-0.5923">
        <ele>41</ele>
        <time>2022-05-14T08:08:42Z</time>
      </trkpt>
      <trkpt lat="46.41482" lon="-0.59239">
        <ele>42</ele>
        <time>2022-05-14T08:08:48Z</time>
      </trkpt>
      <trkpt lat="46.41452" lon="-0.5925">
        <ele>42</ele>
        <time>2022-05-14T08:08:54Z</time>
      </trkpt>
      <trkpt lat="46.41365" lon="-0.59296">
        <ele>43</ele>
        <time>2022-05-14T08:09:10Z</time>
      </trkpt>
      <trkpt lat="46.41295" lon="-0.59337">
        <ele>44</ele>
        <time>2022-05-14T08:09:24Z</time>
      </trkpt>
      <trkpt lat="46.41274" lon="-0.59352">
        <ele>45</ele>
        <time>2022-05-14T08:09:28Z</time>
      </trkpt>
      <trkpt lat="46.41247" lon="-0.59376">
        <ele>45</ele>
        <time>2022-05-14T08:09:33Z</time>
      </trkpt>
      <trkpt lat="46.41133" lon="-0.59499">
        <ele>45</ele>
        <time>2022-05-14T08:09:59Z</time>
      </trkpt>
      <trkpt lat="46.4109" lon="-0.59541">
        <ele>43</ele>
        <time>2022-05-14T08:10:08Z</time>
      </trkpt>
      <trkpt lat="46.41051" lon="-0.59564">
        <ele>40</ele>
        <time>2022-05-14T08:10:15Z</time>
      </trkpt>
      <trkpt lat="46.40928" lon="-0.5961">
        <ele>34</ele>
        <time>2022-05-14T08:10:38Z</time>
      </trkpt>
      <trkpt lat="46.40832" lon="-0.59629">
        <ele>33</ele>
        <time>2022-05-14T08:10:55Z</time>
      </trkpt>
      <trkpt lat="46.40764" lon="-0.59633">
        <ele>32</ele>
        <time>2022-05-14T08:11:07Z</time>
      </trkpt>
      <trkpt lat="46.4071" lon="-0.59634">
        <ele>31</ele>
        <time>2022-05-14T08:11:17Z</time>
      </trkpt>
      <trkpt lat="46.4067" lon="-0.59632">
        <ele>30</ele>
        <time>2022-05-14T08:11:24Z</time>
      </trkpt>
      <trkpt lat="46.40574" lon="-0.5962">
        <ele>31</ele>
        <time>2022-05-14T08:11:41Z</time>
      </trkpt>
      <trkpt lat="46.40318" lon="-0.59573">
        <ele>35</ele>
        <time>2022-05-14T08:12:27Z</time>
      </trkpt>
      <trkpt lat="46.40293" lon="-0.59568">
        <ele>35</ele>
        <time>2022-05-14T08:12:32Z</time>
      </trkpt>
      <trkpt lat="46.40106" lon="-0.59533">
        <ele>33</ele>
        <time>2022-05-14T08:13:05Z</time>
      </trkpt>
      <trkpt lat="46.40073" lon="-0.5953">
        <ele>33</ele>
        <time>2022-05-14T08:13:11Z</time>
      </trkpt>
      <trkpt lat="46.40042" lon="-0.59533">
        <ele>32</ele>
        <time>2022-05-14T08:13:16Z</time>
      </trkpt>
      <trkpt lat="46.39965" lon="-0.59554">
        <ele>32</ele>
        <time>2022-05-14T08:13:30Z</time>
      </trkpt>
      <trkpt lat="46.39907" lon="-0.59578">
        <ele>33</ele>
        <time>2022-05-14T08:13:41Z</time>
      </trkpt>
      <trkpt lat="46.39689" lon="-0.59704">
        <ele>36</ele>
        <time>2022-05-14T08:14:23Z</time>
      </trkpt>
      <trkpt lat="46.39565" lon="-0.59773">
        <ele>37</ele>
        <time>2022-05-14T08:14:47Z</time>
      </trkpt>
      <trkpt lat="46.39493" lon="-0.5981">
        <ele>37</ele>
        <time>2022-05-14T08:15:00Z</time>
      </trkpt>
      <trkpt lat="46.39462" lon="-0.59814">
        <ele>38</ele>
        <time>2022-05-14T08:15:06Z</time>
      </trkpt>
      <trkpt lat="46.39385" lon="-0.59805">
        <ele>38</ele>
        <time>2022-05-14T08:15:19Z</time>
      </trkpt>
      <trkpt lat="46.38798" lon="-0.59727">
        <ele>41</ele>
        <time>2022-05-14T08:17:04Z</time>
      </trkpt>
      <trkpt lat="46.38728" lon="-0.59725">
        <ele>41</ele>
        <time>2022-05-14T08:17:17Z</time>
      </trkpt>
      <trkpt lat="46.38667" lon="-0.59729">
        <ele>41</ele>
        <time>2022-05-14T08:17:28Z</time>
      </trkpt>
      <trkpt lat="46.38558" lon="-0.59751">
        <ele>42</ele>
        <time>2022-05-14T08:17:47Z</time>
      </trkpt>
      <trkpt lat="46.38499" lon="-0.59766">
        <ele>42</ele>
        <time>2022-05-14T08:17:58Z</time>
      </trkpt>
      <trkpt lat="46.38447" lon="-0.59773">
        <ele>42</ele>
        <time>2022-05-14T08:18:07Z</time>
      </trkpt>
      <trkpt lat="46.38418" lon="-0.59772">
        <ele>41</ele>
        <time>2022-05-14T08:18:12Z</time>
      </trkpt>
      <trkpt lat="46.3839" lon="-0.59768">
        <ele>41</ele>
        <time>2022-05-14T08:18:17Z</time>
      </trkpt>
      <trkpt lat="46.37891" lon="-0.59628">
        <ele>36</ele>
        <time>2022-05-14T08:19:48Z</time>
      </trkpt>
      <trkpt lat="46.37864" lon="-0.59624">
        <ele>35</ele>
        <time>2022-05-14T08:19:53Z</time>
      </trkpt>
      <trkpt lat="46.37839" lon="-0.59623">
        <ele>35</ele>
        <time>2022-05-14T08:19:57Z</time>
      </trkpt>
      <trkpt lat="46.37813" lon="-0.59626">
        <ele>36</ele>
        <time>2022-05-14T08:20:02Z</time>
      </trkpt>
      <trkpt lat="46.3779" lon="-0.59633">
        <ele>36</ele>
        <time>2022-05-14T08:20:06Z</time>
      </trkpt>
      <trkpt lat="46.37765" lon="-0.59645">
        <ele>36</ele>
        <time>2022-05-14T08:20:11Z</time>
      </trkpt>
      <trkpt lat="46.37737" lon="-0.59662">
        <ele>36</ele>
        <time>2022-05-14T08:20:16Z</time>
      </trkpt>
      <trkpt lat="46.37742" lon="-0.59672">
        <ele>36</ele>
        <time>2022-05-14T08:20:17Z</time>
      </trkpt>
      <trkpt lat="46.37744" lon="-0.59683">
        <ele>36</ele>
        <time>2022-05-14T08:20:19Z</time>
      </trkpt>
      <trkpt lat="46.37741" lon="-0.59704">
        <ele>36</ele>
        <time>2022-05-14T08:20:21Z</time>
      </trkpt>
      <trkpt lat="46.37735" lon="-0.59714">
        <ele>36</ele>
        <time>2022-05-14T08:20:23Z</time>
      </trkpt>
      <trkpt lat="46.37728" lon="-0.5972">
        <ele>36</ele>
        <time>2022-05-14T08:20:25Z</time>
      </trkpt>
      <trkpt lat="46.37721" lon="-0.59722">
        <ele>36</ele>
        <time>2022-05-14T08:20:26Z</time>
      </trkpt>
      <trkpt lat="46.37713" lon="-0.59722">
        <ele>36</ele>
        <time>2022-05-14T08:20:27Z</time>
      </trkpt>
      <trkpt lat="46.37706" lon="-0.59718">
        <ele>36</ele>
        <time>2022-05-14T08:20:29Z</time>
      </trkpt>
      <trkpt lat="46.377" lon="-0.59711">
        <ele>36</ele>
        <time>2022-05-14T08:20:30Z</time>
      </trkpt>
      <trkpt lat="46.37696" lon="-0.59703">
        <ele>36</ele>
        <time>2022-05-14T08:20:31Z</time>
      </trkpt>
      <trkpt lat="46.37694" lon="-0.59692">
        <ele>36</ele>
        <time>2022-05-14T08:20:33Z</time>
      </trkpt>
      <trkpt lat="46.37693" lon="-0.59681">
        <ele>35</ele>
        <time>2022-05-14T08:20:34Z</time>
      </trkpt>
      <trkpt lat="46.37676" lon="-0.59672">
        <ele>35</ele>
        <time>2022-05-14T08:20:37Z</time>
      </trkpt>
      <trkpt lat="46.37579" lon="-0.59635">
        <ele>36</ele>
        <time>2022-05-14T08:20:55Z</time>
      </trkpt>
      <trkpt lat="46.37508" lon="-0.59626">
        <ele>36</ele>
        <time>2022-05-14T08:21:08Z</time>
      </trkpt>
      <trkpt lat="46.37497" lon="-0.59622">
        <ele>36</ele>
        <time>2022-05-14T08:21:10Z</time>
      </trkpt>
      <trkpt lat="46.37485" lon="-0.59615">
        <ele>36</ele>
        <time>2022-05-14T08:21:12Z</time>
      </trkpt>
      <trkpt lat="46.37453" lon="-0.59582">
        <ele>36</ele>
        <time>2022-05-14T08:21:19Z</time>
      </trkpt>
      <trkpt lat="46.37426" lon="-0.59564">
        <ele>37</ele>
        <time>2022-05-14T08:21:24Z</time>
      </trkpt>
      <trkpt lat="46.37407" lon="-0.59554">
        <ele>37</ele>
        <time>2022-05-14T08:21:28Z</time>
      </trkpt>
      <trkpt lat="46.37375" lon="-0.59542">
        <ele>38</ele>
        <time>2022-05-14T08:21:34Z</time>
      </trkpt>
      <trkpt lat="46.37322" lon="-0.59529">
        <ele>39</ele>
        <time>2022-05-14T08:21:43Z</time>
      </trkpt>
      <trkpt lat="46.37312" lon="-0.59521">
        <ele>39</ele>
        <time>2022-05-14T08:21:45Z</time>
      </trkpt>
      <trkpt lat="46.37265" lon="-0.59469">
        <ele>38</ele>
        <time>2022-05-14T08:21:56Z</time>
      </trkpt>
      <trkpt lat="46.37242" lon="-0.59452">
        <ele>38</ele>
        <time>2022-05-14T08:22:00Z</time>
      </trkpt>
      <trkpt lat="46.37226" lon="-0.5945">
        <ele>38</ele>
        <time>2022-05-14T08:22:03Z</time>
      </trkpt>
      <trkpt lat="46.37187" lon="-0.59457">
        <ele>38</ele>
        <time>2022-05-14T08:22:10Z</time>
      </trkpt>
      <trkpt lat="46.37101" lon="-0.59444">
        <ele>34</ele>
        <time>2022-05-14T08:22:26Z</time>
      </trkpt>
      <trkpt lat="46.37072" lon="-0.59451">
        <ele>33</ele>
        <time>2022-05-14T08:22:31Z</time>
      </trkpt>
      <trkpt lat="46.37064" lon="-0.59456">
        <ele>32</ele>
        <time>2022-05-14T08:22:32Z</time>
      </trkpt>
      <trkpt lat="46.37017" lon="-0.59534">
        <ele>31</ele>
        <time>2022-05-14T08:22:45Z</time>
      </trkpt>
      <trkpt lat="46.37005" lon="-0.59546">
        <ele>30</ele>
        <time>2022-05-14T08:22:48Z</time>
      </trkpt>
      <trkpt lat="46.3699" lon="-0.59551">
        <ele>30</ele>
        <time>2022-05-14T08:22:51Z</time>
      </trkpt>
      <trkpt lat="46.36946" lon="-0.59557">
        <ele>27</ele>
        <time>2022-05-14T08:22:58Z</time>
      </trkpt>
      <trkpt lat="46.36946" lon="-0.59563">
        <ele>28</ele>
        <time>2022-05-14T08:22:59Z</time>
      </trkpt>
      <trkpt lat="46.36942" lon="-0.59567">
        <ele>27</ele>
        <time>2022-05-14T08:23:00Z</time>
      </trkpt>
      <trkpt lat="46.36938" lon="-0.59568">
        <ele>27</ele>
        <time>2022-05-14T08:23:01Z</time>
      </trkpt>
      <trkpt lat="46.36934" lon="-0.59565">
        <ele>27</ele>
        <time>2022-05-14T08:23:02Z</time>
      </trkpt>
      <trkpt lat="46.36913" lon="-0.59599">
        <ele>27</ele>
        <time>2022-05-14T08:23:07Z</time>
      </trkpt>
      <trkpt lat="46.36876" lon="-0.59664">
        <ele>28</ele>
        <time>2022-05-14T08:23:17Z</time>
      </trkpt>
      <trkpt lat="46.36833" lon="-0.59728">
        <ele>27</ele>
        <time>2022-05-14T08:23:28Z</time>
      </trkpt>
      <trkpt lat="46.36822" lon="-0.59742">
        <ele>27</ele>
        <time>2022-05-14T08:23:31Z</time>
      </trkpt>
      <trkpt lat="46.3681" lon="-0.59751">
        <ele>27</ele>
        <time>2022-05-14T08:23:33Z</time>
      </trkpt>
      <trkpt lat="46.36784" lon="-0.5976">
        <ele>28</ele>
        <time>2022-05-14T08:23:38Z</time>
      </trkpt>
      <trkpt lat="46.36774" lon="-0.5976">
        <ele>28</ele>
        <time>2022-05-14T08:23:40Z</time>
      </trkpt>
      <trkpt lat="46.36703" lon="-0.59775">
        <ele>28</ele>
        <time>2022-05-14T08:23:53Z</time>
      </trkpt>
      <trkpt lat="46.36664" lon="-0.59805">
        <ele>26</ele>
        <time>2022-05-14T08:24:01Z</time>
      </trkpt>
      <trkpt lat="46.36637" lon="-0.59822">
        <ele>26</ele>
        <time>2022-05-14T08:24:06Z</time>
      </trkpt>
      <trkpt lat="46.36613" lon="-0.5983">
        <ele>25</ele>
        <time>2022-05-14T08:24:10Z</time>
      </trkpt>
      <trkpt lat="46.3659" lon="-0.59845">
        <ele>26</ele>
        <time>2022-05-14T08:24:15Z</time>
      </trkpt>
      <trkpt lat="46.3649" lon="-0.59929">
        <ele>23</ele>
        <time>2022-05-14T08:24:35Z</time>
      </trkpt>
      <trkpt lat="46.3649" lon="-0.59936">
        <ele>23</ele>
        <time>2022-05-14T08:24:36Z</time>
      </trkpt>
      <trkpt lat="46.36481" lon="-0.59954">
        <ele>23</ele>
        <time>2022-05-14T08:24:39Z</time>
      </trkpt>
      <trkpt lat="46.36472" lon="-0.59961">
        <ele>24</ele>
        <time>2022-05-14T08:24:41Z</time>
      </trkpt>
      <trkpt lat="46.36438" lon="-0.5997">
        <ele>24</ele>
        <time>2022-05-14T08:24:47Z</time>
      </trkpt>
      <trkpt lat="46.36411" lon="-0.59989">
        <ele>24</ele>
        <time>2022-05-14T08:24:52Z</time>
      </trkpt>
      <trkpt lat="46.36378" lon="-0.60035">
        <ele>23</ele>
        <time>2022-05-14T08:25:00Z</time>
      </trkpt>
      <trkpt lat="46.36333" lon="-0.60072">
        <ele>20</ele>
        <time>2022-05-14T08:25:10Z</time>
      </trkpt>
      <trkpt lat="46.3632" lon="-0.60087">
        <ele>19</ele>
        <time>2022-05-14T08:25:12Z</time>
      </trkpt>
      <trkpt lat="46.36247" lon="-0.60188">
        <ele>18</ele>
        <time>2022-05-14T08:25:30Z</time>
      </trkpt>
      <trkpt lat="46.36195" lon="-0.6024">
        <ele>18</ele>
        <time>2022-05-14T08:25:42Z</time>
      </trkpt>
      <trkpt lat="46.3618" lon="-0.60258">
        <ele>18</ele>
        <time>2022-05-14T08:25:45Z</time>
      </trkpt>
      <trkpt lat="46.36169" lon="-0.60276">
        <ele>18</ele>
        <time>2022-05-14T08:25:48Z</time>
      </trkpt>
      <trkpt lat="46.3616" lon="-0.60304">
        <ele>17</ele>
        <time>2022-05-14T08:25:52Z</time>
      </trkpt>
      <trkpt lat="46.3615" lon="-0.60312">
        <ele>17</ele>
        <time>2022-05-14T08:25:54Z</time>
      </trkpt>
      <trkpt lat="46.3612" lon="-0.60164">
        <ele>17</ele>
        <time>2022-05-14T08:26:13Z</time>
      </trkpt>
      <trkpt lat="46.36086" lon="-0.60055">
        <ele>18</ele>
        <time>2022-05-14T08:26:28Z</time>
      </trkpt>
      <trkpt lat="46.36046" lon="-0.59917">
        <ele>20</ele>
        <time>2022-05-14T08:26:46Z</time>
      </trkpt>
      <trkpt lat="46.36038" lon="-0.59875">
        <ele>20</ele>
        <time>2022-05-14T08:26:51Z</time>
      </trkpt>
      <trkpt lat="46.36017" lon="-0.59865">
        <ele>19</ele>
        <time>2022-05-14T08:26:55Z</time>
      </trkpt>
      <trkpt lat="46.35988" lon="-0.59845">
        <ele>19</ele>
        <time>2022-05-14T08:27:01Z</time>
      </trkpt>
      <trkpt lat="46.35674" lon="-0.59534">
        <ele>12</ele>
        <time>2022-05-14T08:28:09Z</time>
      </trkpt>
      <trkpt lat="46.35634" lon="-0.59501">
        <ele>11</ele>
        <time>2022-05-14T08:28:17Z</time>
      </trkpt>
      <trkpt lat="46.35597" lon="-0.59476">
        <ele>12</ele>
        <time>2022-05-14T08:28:24Z</time>
      </trkpt>
      <trkpt lat="46.35564" lon="-0.59457">
        <ele>12</ele>
        <time>2022-05-14T08:28:30Z</time>
      </trkpt>
      <trkpt lat="46.35464" lon="-0.5941">
        <ele>12</ele>
        <time>2022-05-14T08:28:49Z</time>
      </trkpt>
      <trkpt lat="46.35278" lon="-0.59327">
        <ele>13</ele>
        <time>2022-05-14T08:29:24Z</time>
      </trkpt>
      <trkpt lat="46.35245" lon="-0.59316">
        <ele>13</ele>
        <time>2022-05-14T08:29:30Z</time>
      </trkpt>
      <trkpt lat="46.35221" lon="-0.59314">
        <ele>13</ele>
        <time>2022-05-14T08:29:34Z</time>
      </trkpt>
      <trkpt lat="46.35177" lon="-0.59316">
        <ele>13</ele>
        <time>2022-05-14T08:29:42Z</time>
      </trkpt>
      <trkpt lat="46.35046" lon="-0.5933">
        <ele>13</ele>
        <time>2022-05-14T08:30:05Z</time>
      </trkpt>
      <trkpt lat="46.35019" lon="-0.59331">
        <ele>13</ele>
        <time>2022-05-14T08:30:10Z</time>
      </trkpt>
      <trkpt lat="46.34922" lon="-0.59326">
        <ele>12</ele>
        <time>2022-05-14T08:30:27Z</time>
      </trkpt>
      <trkpt lat="46.34568" lon="-0.59335">
        <ele>15</ele>
        <time>2022-05-14T08:31:30Z</time>
      </trkpt>
      <trkpt lat="46.34513" lon="-0.59341">
        <ele>15</ele>
        <time>2022-05-14T08:31:40Z</time>
      </trkpt>
      <trkpt lat="46.34245" lon="-0.59383">
        <ele>14</ele>
        <time>2022-05-14T08:32:28Z</time>
      </trkpt>
      <trkpt lat="46.34208" lon="-0.59386">
        <ele>14</ele>
        <time>2022-05-14T08:32:35Z</time>
      </trkpt>
      <trkpt lat="46.34171" lon="-0.59388">
        <ele>14</ele>
        <time>2022-05-14T08:32:41Z</time>
      </trkpt>
      <trkpt lat="46.33963" lon="-0.59376">
        <ele>13</ele>
        <time>2022-05-14T08:33:18Z</time>
      </trkpt>
      <trkpt lat="46.33933" lon="-0.59371">
        <ele>12</ele>
        <time>2022-05-14T08:33:24Z</time>
      </trkpt>
      <trkpt lat="46.33911" lon="-0.59363">
        <ele>12</ele>
        <time>2022-05-14T08:33:28Z</time>
      </trkpt>
      <trkpt lat="46.33591" lon="-0.59189">
        <ele>11</ele>
        <time>2022-05-14T08:34:29Z</time>
      </trkpt>
      <trkpt lat="46.33568" lon="-0.5918">
        <ele>10</ele>
        <time>2022-05-14T08:34:33Z</time>
      </trkpt>
      <trkpt lat="46.33471" lon="-0.59168">
        <ele>6</ele>
        <time>2022-05-14T08:34:50Z</time>
      </trkpt>
      <trkpt lat="46.33465" lon="-0.59164">
        <ele>6</ele>
        <time>2022-05-14T08:34:51Z</time>
      </trkpt>
      <trkpt lat="46.33422" lon="-0.59114">
        <ele>5</ele>
        <time>2022-05-14T08:35:01Z</time>
      </trkpt>
      <trkpt lat="46.33416" lon="-0.59107">
        <ele>5</ele>
        <time>2022-05-14T08:35:02Z</time>
      </trkpt>
      <trkpt lat="46.33391" lon="-0.59081">
        <ele>6</ele>
        <time>2022-05-14T08:35:08Z</time>
      </trkpt>
      <trkpt lat="46.33376" lon="-0.5907">
        <ele>6</ele>
        <time>2022-05-14T08:35:11Z</time>
      </trkpt>
      <trkpt lat="46.33362" lon="-0.59061">
        <ele>7</ele>
        <time>2022-05-14T08:35:14Z</time>
      </trkpt>
      <trkpt lat="46.33228" lon="-0.5901">
        <ele>7</ele>
        <time>2022-05-14T08:35:38Z</time>
      </trkpt>
      <trkpt lat="46.33201" lon="-0.58993">
        <ele>7</ele>
        <time>2022-05-14T08:35:44Z</time>
      </trkpt>
      <trkpt lat="46.33176" lon="-0.58972">
        <ele>8</ele>
        <time>2022-05-14T08:35:49Z</time>
      </trkpt>
      <trkpt lat="46.33055" lon="-0.58865">
        <ele>8</ele>
        <time>2022-05-14T08:36:14Z</time>
      </trkpt>
      <trkpt lat="46.32728" lon="-0.58567">
        <ele>8</ele>
        <time>2022-05-14T08:37:23Z</time>
      </trkpt>
      <trkpt lat="46.32406" lon="-0.58267">
        <ele>7</ele>
        <time>2022-05-14T08:38:31Z</time>
      </trkpt>
      <trkpt lat="46.32279" lon="-0.58152">
        <ele>6</ele>
        <time>2022-05-14T08:38:57Z</time>
      </trkpt>
      <trkpt lat="46.3228" lon="-0.58148">
        <ele>6</ele>
        <time>2022-05-14T08:38:58Z</time>
      </trkpt>
      <trkpt lat="46.32273" lon="-0.58142">
        <ele>5</ele>
        <time>2022-05-14T08:38:59Z</time>
      </trkpt>
      <trkpt lat="46.32269" lon="-0.58151">
        <ele>5</ele>
        <time>2022-05-14T08:39:01Z</time>
      </trkpt>
      <trkpt lat="46.32246" lon="-0.58195">
        <ele>5</ele>
        <time>2022-05-14T08:39:07Z</time>
      </trkpt>
      <trkpt lat="46.32231" lon="-0.58229">
        <ele>5</ele>
        <time>2022-05-14T08:39:12Z</time>
      </trkpt>
      <trkpt lat="46.32214" lon="-0.58263">
        <ele>5</ele>
        <time>2022-05-14T08:39:18Z</time>
      </trkpt>
      <trkpt lat="46.32212" lon="-0.58262">
        <ele>5</ele>
        <time>2022-05-14T08:39:18Z</time>
      </trkpt>
      <trkpt lat="46.32211" lon="-0.58264">
        <ele>5</ele>
        <time>2022-05-14T08:39:18Z</time>
      </trkpt>
      <trkpt lat="46.32212" lon="-0.58262">
        <ele>5</ele>
        <time>2022-05-14T08:39:19Z</time>
      </trkpt>
      <trkpt lat="46.32214" lon="-0.58263">
        <ele>5</ele>
        <time>2022-05-14T08:39:19Z</time>
      </trkpt>
      <trkpt lat="46.32207" lon="-0.58281">
        <ele>5</ele>
        <time>2022-05-14T08:39:21Z</time>
      </trkpt>
      <trkpt lat="46.321" lon="-0.58514">
        <ele>5</ele>
        <time>2022-05-14T08:39:56Z</time>
      </trkpt>
      <trkpt lat="46.32093" lon="-0.58556">
        <ele>5</ele>
        <time>2022-05-14T08:40:01Z</time>
      </trkpt>
      <trkpt lat="46.32085" lon="-0.58644">
        <ele>5</ele>
        <time>2022-05-14T08:40:12Z</time>
      </trkpt>
      <trkpt lat="46.32074" lon="-0.58693">
        <ele>5</ele>
        <time>2022-05-14T08:40:18Z</time>
      </trkpt>
      <trkpt lat="46.3208" lon="-0.58696">
        <ele>5</ele>
        <time>2022-05-14T08:40:20Z</time>
      </trkpt>
      <trkpt lat="46.32081" lon="-0.58693">
        <ele>5</ele>
        <time>2022-05-14T08:40:20Z</time>
      </trkpt>
      <trkpt lat="46.32094" lon="-0.58701">
        <ele>5</ele>
        <time>2022-05-14T08:40:22Z</time>
      </trkpt>
      <trkpt lat="46.32094" lon="-0.58703">
        <ele>5</ele>
        <time>2022-05-14T08:40:23Z</time>
      </trkpt>
      <trkpt lat="46.3211" lon="-0.58712">
        <ele>5</ele>
        <time>2022-05-14T08:40:26Z</time>
      </trkpt>
      <trkpt lat="46.32094" lon="-0.58808">
        <ele>5</ele>
        <time>2022-05-14T08:40:38Z</time>
      </trkpt>
      <trkpt lat="46.3211" lon="-0.58815">
        <ele>5</ele>
        <time>2022-05-14T08:40:41Z</time>
      </trkpt>
      <trkpt lat="46.32143" lon="-0.5882">
        <ele>6</ele>
        <time>2022-05-14T08:40:47Z</time>
      </trkpt>
      <trkpt lat="46.32147" lon="-0.58875">
        <ele>5</ele>
        <time>2022-05-14T08:40:54Z</time>
      </trkpt>
      <trkpt lat="46.32202" lon="-0.5888">
        <ele>5</ele>
        <time>2022-05-14T08:41:03Z</time>
      </trkpt>
      <trkpt lat="46.32169" lon="-0.58925">
        <ele>5</ele>
        <time>2022-05-14T08:41:11Z</time>
      </trkpt>
      <trkpt lat="46.32156" lon="-0.58946">
        <ele>5</ele>
        <time>2022-05-14T08:41:15Z</time>
      </trkpt>
      <trkpt lat="46.32116" lon="-0.59053">
        <ele>4</ele>
        <time>2022-05-14T08:41:30Z</time>
      </trkpt>
      <trkpt lat="46.32105" lon="-0.59078">
        <ele>4</ele>
        <time>2022-05-14T08:41:34Z</time>
      </trkpt>
      <trkpt lat="46.3209" lon="-0.59102">
        <ele>4</ele>
        <time>2022-05-14T08:41:37Z</time>
      </trkpt>
      <trkpt lat="46.32075" lon="-0.59118">
        <ele>5</ele>
        <time>2022-05-14T08:41:41Z</time>
      </trkpt>
      <trkpt lat="46.3201" lon="-0.59175">
        <ele>4</ele>
        <time>2022-05-14T08:41:54Z</time>
      </trkpt>
      <trkpt lat="46.31965" lon="-0.59223">
        <ele>4</ele>
        <time>2022-05-14T08:42:04Z</time>
      </trkpt>
      <trkpt lat="46.31951" lon="-0.5924">
        <ele>5</ele>
        <time>2022-05-14T08:42:08Z</time>
      </trkpt>
      <trkpt lat="46.31934" lon="-0.59269">
        <ele>5</ele>
        <time>2022-05-14T08:42:12Z</time>
      </trkpt>
      <trkpt lat="46.31921" lon="-0.59303">
        <ele>5</ele>
        <time>2022-05-14T08:42:17Z</time>
      </trkpt>
      <trkpt lat="46.31905" lon="-0.59358">
        <ele>5</ele>
        <time>2022-05-14T08:42:24Z</time>
      </trkpt>
      <trkpt lat="46.31894" lon="-0.59475">
        <ele>4</ele>
        <time>2022-05-14T08:42:39Z</time>
      </trkpt>
      <trkpt lat="46.31885" lon="-0.59517">
        <ele>4</ele>
        <time>2022-05-14T08:42:44Z</time>
      </trkpt>
      <trkpt lat="46.31876" lon="-0.59545">
        <ele>4</ele>
        <time>2022-05-14T08:42:48Z</time>
      </trkpt>
      <trkpt lat="46.31866" lon="-0.5957">
        <ele>4</ele>
        <time>2022-05-14T08:42:52Z</time>
      </trkpt>
      <trkpt lat="46.31795" lon="-0.59696">
        <ele>5</ele>
        <time>2022-05-14T08:43:12Z</time>
      </trkpt>
      <trkpt lat="46.31751" lon="-0.5977">
        <ele>3</ele>
        <time>2022-05-14T08:43:24Z</time>
      </trkpt>
      <trkpt lat="46.31733" lon="-0.59794">
        <ele>3</ele>
        <time>2022-05-14T08:43:28Z</time>
      </trkpt>
      <trkpt lat="46.31622" lon="-0.59926">
        <ele>4</ele>
        <time>2022-05-14T08:43:53Z</time>
      </trkpt>
      <trkpt lat="46.31605" lon="-0.59952">
        <ele>5</ele>
        <time>2022-05-14T08:43:58Z</time>
      </trkpt>
      <trkpt lat="46.31596" lon="-0.59969">
        <ele>6</ele>
        <time>2022-05-14T08:44:00Z</time>
      </trkpt>
      <trkpt lat="46.31584" lon="-0.59995">
        <ele>7</ele>
        <time>2022-05-14T08:44:04Z</time>
      </trkpt>
      <trkpt lat="46.31573" lon="-0.60029">
        <ele>7</ele>
        <time>2022-05-14T08:44:09Z</time>
      </trkpt>
      <trkpt lat="46.31515" lon="-0.60266">
        <ele>7</ele>
        <time>2022-05-14T08:44:40Z</time>
      </trkpt>
      <trkpt lat="46.31501" lon="-0.60329">
        <ele>5</ele>
        <time>2022-05-14T08:44:48Z</time>
      </trkpt>
      <trkpt lat="46.31495" lon="-0.60369">
        <ele>5</ele>
        <time>2022-05-14T08:44:53Z</time>
      </trkpt>
      <trkpt lat="46.31487" lon="-0.60439">
        <ele>6</ele>
        <time>2022-05-14T08:45:02Z</time>
      </trkpt>
      <trkpt lat="46.31472" lon="-0.60686">
        <ele>4</ele>
        <time>2022-05-14T08:45:32Z</time>
      </trkpt>
      <trkpt lat="46.31475" lon="-0.60721">
        <ele>3</ele>
        <time>2022-05-14T08:45:37Z</time>
      </trkpt>
      <trkpt lat="46.31488" lon="-0.60791">
        <ele>2</ele>
        <time>2022-05-14T08:45:45Z</time>
      </trkpt>
      <trkpt lat="46.3149" lon="-0.60808">
        <ele>3</ele>
        <time>2022-05-14T08:45:48Z</time>
      </trkpt>
      <trkpt lat="46.31488" lon="-0.60827">
        <ele>3</ele>
        <time>2022-05-14T08:45:50Z</time>
      </trkpt>
      <trkpt lat="46.31483" lon="-0.60847">
        <ele>3</ele>
        <time>2022-05-14T08:45:53Z</time>
      </trkpt>
      <trkpt lat="46.31478" lon="-0.60862">
        <ele>4</ele>
        <time>2022-05-14T08:45:55Z</time>
      </trkpt>
      <trkpt lat="46.3147" lon="-0.60873">
        <ele>4</ele>
        <time>2022-05-14T08:45:57Z</time>
      </trkpt>
      <trkpt lat="46.31459" lon="-0.60884">
        <ele>4</ele>
        <time>2022-05-14T08:45:59Z</time>
      </trkpt>
      <trkpt lat="46.31319" lon="-0.61026">
        <ele>4</ele>
        <time>2022-05-14T08:46:29Z</time>
      </trkpt>
      <trkpt lat="46.31302" lon="-0.61055">
        <ele>4</ele>
        <time>2022-05-14T08:46:34Z</time>
      </trkpt>
      <trkpt lat="46.31295" lon="-0.61073">
        <ele>4</ele>
        <time>2022-05-14T08:46:37Z</time>
      </trkpt>
      <trkpt lat="46.3129" lon="-0.61114">
        <ele>4</ele>
        <time>2022-05-14T08:46:42Z</time>
      </trkpt>
      <trkpt lat="46.31293" lon="-0.61161">
        <ele>4</ele>
        <time>2022-05-14T08:46:47Z</time>
      </trkpt>
      <trkpt lat="46.313" lon="-0.61194">
        <ele>4</ele>
        <time>2022-05-14T08:46:52Z</time>
      </trkpt>
      <trkpt lat="46.3132" lon="-0.61265">
        <ele>5</ele>
        <time>2022-05-14T08:47:01Z</time>
      </trkpt>
      <trkpt lat="46.31325" lon="-0.61305">
        <ele>5</ele>
        <time>2022-05-14T08:47:06Z</time>
      </trkpt>
      <trkpt lat="46.31324" lon="-0.6134">
        <ele>5</ele>
        <time>2022-05-14T08:47:10Z</time>
      </trkpt>
      <trkpt lat="46.31318" lon="-0.61379">
        <ele>4</ele>
        <time>2022-05-14T08:47:15Z</time>
      </trkpt>
      <trkpt lat="46.31312" lon="-0.61398">
        <ele>4</ele>
        <time>2022-05-14T08:47:18Z</time>
      </trkpt>
      <trkpt lat="46.31272" lon="-0.61485">
        <ele>5</ele>
        <time>2022-05-14T08:47:31Z</time>
      </trkpt>
      <trkpt lat="46.31235" lon="-0.61561">
        <ele>5</ele>
        <time>2022-05-14T08:47:42Z</time>
      </trkpt>
      <trkpt lat="46.31225" lon="-0.61581">
        <ele>4</ele>
        <time>2022-05-14T08:47:45Z</time>
      </trkpt>
      <trkpt lat="46.31216" lon="-0.61593">
        <ele>4</ele>
        <time>2022-05-14T08:47:47Z</time>
      </trkpt>
      <trkpt lat="46.31145" lon="-0.61649">
        <ele>4</ele>
        <time>2022-05-14T08:48:02Z</time>
      </trkpt>
      <trkpt lat="46.31097" lon="-0.6169">
        <ele>4</ele>
        <time>2022-05-14T08:48:12Z</time>
      </trkpt>
      <trkpt lat="46.31087" lon="-0.61701">
        <ele>4</ele>
        <time>2022-05-14T08:48:14Z</time>
      </trkpt>
      <trkpt lat="46.3107" lon="-0.61738">
        <ele>5</ele>
        <time>2022-05-14T08:48:19Z</time>
      </trkpt>
      <trkpt lat="46.31051" lon="-0.61796">
        <ele>6</ele>
        <time>2022-05-14T08:48:27Z</time>
      </trkpt>
      <trkpt lat="46.31039" lon="-0.61847">
        <ele>6</ele>
        <time>2022-05-14T08:48:34Z</time>
      </trkpt>
      <trkpt lat="46.31008" lon="-0.62084">
        <ele>6</ele>
        <time>2022-05-14T08:49:04Z</time>
      </trkpt>
      <trkpt lat="46.31006" lon="-0.62114">
        <ele>5</ele>
        <time>2022-05-14T08:49:07Z</time>
      </trkpt>
      <trkpt lat="46.31006" lon="-0.6217">
        <ele>4</ele>
        <time>2022-05-14T08:49:14Z</time>
      </trkpt>
      <trkpt lat="46.31011" lon="-0.62224">
        <ele>5</ele>
        <time>2022-05-14T08:49:21Z</time>
      </trkpt>
      <trkpt lat="46.31016" lon="-0.62251">
        <ele>5</ele>
        <time>2022-05-14T08:49:24Z</time>
      </trkpt>
      <trkpt lat="46.31022" lon="-0.62275">
        <ele>5</ele>
        <time>2022-05-14T08:49:27Z</time>
      </trkpt>
      <trkpt lat="46.31087" lon="-0.62473">
        <ele>4</ele>
        <time>2022-05-14T08:49:54Z</time>
      </trkpt>
      <trkpt lat="46.31109" lon="-0.62533">
        <ele>4</ele>
        <time>2022-05-14T08:50:03Z</time>
      </trkpt>
      <trkpt lat="46.31121" lon="-0.62562">
        <ele>5</ele>
        <time>2022-05-14T08:50:07Z</time>
      </trkpt>
      <trkpt lat="46.31145" lon="-0.62606">
        <ele>5</ele>
        <time>2022-05-14T08:50:14Z</time>
      </trkpt>
      <trkpt lat="46.31151" lon="-0.62616">
        <ele>5</ele>
        <time>2022-05-14T08:50:15Z</time>
      </trkpt>
      <trkpt lat="46.31195" lon="-0.62694">
        <ele>4</ele>
        <time>2022-05-14T08:50:28Z</time>
      </trkpt>
      <trkpt lat="46.31258" lon="-0.62819">
        <ele>3</ele>
        <time>2022-05-14T08:50:47Z</time>
      </trkpt>
      <trkpt lat="46.31273" lon="-0.62859">
        <ele>4</ele>
        <time>2022-05-14T08:50:52Z</time>
      </trkpt>
      <trkpt lat="46.31279" lon="-0.62892">
        <ele>5</ele>
        <time>2022-05-14T08:50:57Z</time>
      </trkpt>
      <trkpt lat="46.31279" lon="-0.62908">
        <ele>5</ele>
        <time>2022-05-14T08:50:59Z</time>
      </trkpt>
      <trkpt lat="46.31277" lon="-0.62924">
        <ele>6</ele>
        <time>2022-05-14T08:51:01Z</time>
      </trkpt>
      <trkpt lat="46.31269" lon="-0.62956">
        <ele>5</ele>
        <time>2022-05-14T08:51:05Z</time>
      </trkpt>
      <trkpt lat="46.3126" lon="-0.62975">
        <ele>5</ele>
        <time>2022-05-14T08:51:08Z</time>
      </trkpt>
      <trkpt lat="46.31177" lon="-0.63111">
        <ele>3</ele>
        <time>2022-05-14T08:51:30Z</time>
      </trkpt>
      <trkpt lat="46.31169" lon="-0.6313">
        <ele>4</ele>
        <time>2022-05-14T08:51:33Z</time>
      </trkpt>
      <trkpt lat="46.31162" lon="-0.63152">
        <ele>4</ele>
        <time>2022-05-14T08:51:36Z</time>
      </trkpt>
      <trkpt lat="46.31156" lon="-0.63175">
        <ele>4</ele>
        <time>2022-05-14T08:51:39Z</time>
      </trkpt>
      <trkpt lat="46.31153" lon="-0.63219">
        <ele>3</ele>
        <time>2022-05-14T08:51:44Z</time>
      </trkpt>
      <trkpt lat="46.31155" lon="-0.63268">
        <ele>2</ele>
        <time>2022-05-14T08:51:50Z</time>
      </trkpt>
      <trkpt lat="46.31164" lon="-0.63316">
        <ele>3</ele>
        <time>2022-05-14T08:51:56Z</time>
      </trkpt>
      <trkpt lat="46.3117" lon="-0.63339">
        <ele>3</ele>
        <time>2022-05-14T08:51:59Z</time>
      </trkpt>
      <trkpt lat="46.31181" lon="-0.63367">
        <ele>3</ele>
        <time>2022-05-14T08:52:03Z</time>
      </trkpt>
      <trkpt lat="46.31355" lon="-0.6379">
        <ele>4</ele>
        <time>2022-05-14T08:53:04Z</time>
      </trkpt>
      <trkpt lat="46.3137" lon="-0.63823">
        <ele>4</ele>
        <time>2022-05-14T08:53:08Z</time>
      </trkpt>
      <trkpt lat="46.31383" lon="-0.6384">
        <ele>4</ele>
        <time>2022-05-14T08:53:12Z</time>
      </trkpt>
      <trkpt lat="46.31444" lon="-0.63896">
        <ele>3</ele>
        <time>2022-05-14T08:53:24Z</time>
      </trkpt>
      <trkpt lat="46.31451" lon="-0.63906">
        <ele>3</ele>
        <time>2022-05-14T08:53:26Z</time>
      </trkpt>
      <trkpt lat="46.31462" lon="-0.63924">
        <ele>3</ele>
        <time>2022-05-14T08:53:29Z</time>
      </trkpt>
      <trkpt lat="46.31466" lon="-0.63938">
        <ele>3</ele>
        <time>2022-05-14T08:53:31Z</time>
      </trkpt>
      <trkpt lat="46.31465" lon="-0.63954">
        <ele>3</ele>
        <time>2022-05-14T08:53:33Z</time>
      </trkpt>
      <trkpt lat="46.31456" lon="-0.63975">
        <ele>3</ele>
        <time>2022-05-14T08:53:36Z</time>
      </trkpt>
      <trkpt lat="46.3144" lon="-0.63989">
        <ele>4</ele>
        <time>2022-05-14T08:53:39Z</time>
      </trkpt>
      <trkpt lat="46.31358" lon="-0.64044">
        <ele>5</ele>
        <time>2022-05-14T08:53:55Z</time>
      </trkpt>
      <trkpt lat="46.31319" lon="-0.6407">
        <ele>5</ele>
        <time>2022-05-14T08:54:03Z</time>
      </trkpt>
      <trkpt lat="46.31298" lon="-0.64082">
        <ele>4</ele>
        <time>2022-05-14T08:54:07Z</time>
      </trkpt>
      <trkpt lat="46.31203" lon="-0.64148">
        <ele>6</ele>
        <time>2022-05-14T08:54:26Z</time>
      </trkpt>
      <trkpt lat="46.31157" lon="-0.64181">
        <ele>6</ele>
        <time>2022-05-14T08:54:35Z</time>
      </trkpt>
      <trkpt lat="46.31039" lon="-0.64298">
        <ele>6</ele>
        <time>2022-05-14T08:55:00Z</time>
      </trkpt>
      <trkpt lat="46.3102" lon="-0.64316">
        <ele>5</ele>
        <time>2022-05-14T08:55:04Z</time>
      </trkpt>
      <trkpt lat="46.30955" lon="-0.64378">
        <ele>6</ele>
        <time>2022-05-14T08:55:18Z</time>
      </trkpt>
      <trkpt lat="46.30929" lon="-0.64398">
        <ele>7</ele>
        <time>2022-05-14T08:55:24Z</time>
      </trkpt>
      <trkpt lat="46.30875" lon="-0.64437">
        <ele>7</ele>
        <time>2022-05-14T08:55:34Z</time>
      </trkpt>
      <trkpt lat="46.30827" lon="-0.64469">
        <ele>6</ele>
        <time>2022-05-14T08:55:44Z</time>
      </trkpt>
      <trkpt lat="46.30839" lon="-0.64514">
        <ele>6</ele>
        <time>2022-05-14T08:55:50Z</time>
      </trkpt>
      <trkpt lat="46.3086" lon="-0.64602">
        <ele>7</ele>
        <time>2022-05-14T08:56:01Z</time>
      </trkpt>
      <trkpt lat="46.30876" lon="-0.64692">
        <ele>6</ele>
        <time>2022-05-14T08:56:12Z</time>
      </trkpt>
      <trkpt lat="46.3085" lon="-0.64724">
        <ele>6</ele>
        <time>2022-05-14T08:56:19Z</time>
      </trkpt>
      <trkpt lat="46.30804" lon="-0.64789">
        <ele>8</ele>
        <time>2022-05-14T08:56:30Z</time>
      </trkpt>
      <trkpt lat="46.30785" lon="-0.64805">
        <ele>9</ele>
        <time>2022-05-14T08:56:34Z</time>
      </trkpt>
      <trkpt lat="46.30785" lon="-0.64833">
        <ele>9</ele>
        <time>2022-05-14T08:56:37Z</time>
      </trkpt>
      <trkpt lat="46.30779" lon="-0.64869">
        <ele>9</ele>
        <time>2022-05-14T08:56:42Z</time>
      </trkpt>
      <trkpt lat="46.30774" lon="-0.6489">
        <ele>10</ele>
        <time>2022-05-14T08:56:45Z</time>
      </trkpt>
      <trkpt lat="46.30781" lon="-0.6505">
        <ele>10</ele>
        <time>2022-05-14T08:57:04Z</time>
      </trkpt>
      <trkpt lat="46.30797" lon="-0.65108">
        <ele>9</ele>
        <time>2022-05-14T08:57:12Z</time>
      </trkpt>
      <trkpt lat="46.30812" lon="-0.65174">
        <ele>8</ele>
        <time>2022-05-14T08:57:21Z</time>
      </trkpt>
      <trkpt lat="46.30767" lon="-0.65279">
        <ele>12</ele>
        <time>2022-05-14T08:57:36Z</time>
      </trkpt>
      <trkpt lat="46.30765" lon="-0.65297">
        <ele>12</ele>
        <time>2022-05-14T08:57:38Z</time>
      </trkpt>
      <trkpt lat="46.30801" lon="-0.65452">
        <ele>10</ele>
        <time>2022-05-14T08:57:58Z</time>
      </trkpt>
      <trkpt lat="46.30803" lon="-0.65465">
        <ele>11</ele>
        <time>2022-05-14T08:58:00Z</time>
      </trkpt>
      <trkpt lat="46.30806" lon="-0.65499">
        <ele>11</ele>
        <time>2022-05-14T08:58:04Z</time>
      </trkpt>
      <trkpt lat="46.30806" lon="-0.65552">
        <ele>10</ele>
        <time>2022-05-14T08:58:10Z</time>
      </trkpt>
      <trkpt lat="46.30797" lon="-0.65687">
        <ele>7</ele>
        <time>2022-05-14T08:58:27Z</time>
      </trkpt>
      <trkpt lat="46.30784" lon="-0.6575">
        <ele>7</ele>
        <time>2022-05-14T08:58:35Z</time>
      </trkpt>
      <trkpt lat="46.30785" lon="-0.65769">
        <ele>6</ele>
        <time>2022-05-14T08:58:38Z</time>
      </trkpt>
      <trkpt lat="46.3082" lon="-0.65838">
        <ele>5</ele>
        <time>2022-05-14T08:58:48Z</time>
      </trkpt>
      <trkpt lat="46.3083" lon="-0.65865">
        <ele>5</ele>
        <time>2022-05-14T08:58:52Z</time>
      </trkpt>
      <trkpt lat="46.30868" lon="-0.66247">
        <ele>4</ele>
        <time>2022-05-14T08:59:39Z</time>
      </trkpt>
      <trkpt lat="46.30873" lon="-0.66275">
        <ele>4</ele>
        <time>2022-05-14T08:59:43Z</time>
      </trkpt>
      <trkpt lat="46.30893" lon="-0.66299">
        <ele>5</ele>
        <time>2022-05-14T08:59:47Z</time>
      </trkpt>
      <trkpt lat="46.30903" lon="-0.66305">
        <ele>5</ele>
        <time>2022-05-14T08:59:49Z</time>
      </trkpt>
      <trkpt lat="46.31468" lon="-0.66643">
        <ele>4</ele>
        <time>2022-05-14T09:01:38Z</time>
      </trkpt>
      <trkpt lat="46.31515" lon="-0.66667">
        <ele>3</ele>
        <time>2022-05-14T09:01:47Z</time>
      </trkpt>
      <trkpt lat="46.31526" lon="-0.66674">
        <ele>3</ele>
        <time>2022-05-14T09:01:49Z</time>
      </trkpt>
      <trkpt lat="46.31547" lon="-0.66687">
        <ele>2</ele>
        <time>2022-05-14T09:01:53Z</time>
      </trkpt>
      <trkpt lat="46.31568" lon="-0.66696">
        <ele>2</ele>
        <time>2022-05-14T09:01:57Z</time>
      </trkpt>
      <trkpt lat="46.31584" lon="-0.667">
        <ele>2</ele>
        <time>2022-05-14T09:02:00Z</time>
      </trkpt>
      <trkpt lat="46.31645" lon="-0.66703">
        <ele>4</ele>
        <time>2022-05-14T09:02:11Z</time>
      </trkpt>
      <trkpt lat="46.31649" lon="-0.66704">
        <ele>4</ele>
        <time>2022-05-14T09:02:12Z</time>
      </trkpt>
      <trkpt lat="46.31687" lon="-0.66708">
        <ele>5</ele>
        <time>2022-05-14T09:02:18Z</time>
      </trkpt>
      <trkpt lat="46.31691" lon="-0.66707">
        <ele>5</ele>
        <time>2022-05-14T09:02:19Z</time>
      </trkpt>
      <trkpt lat="46.31689" lon="-0.66735">
        <ele>5</ele>
        <time>2022-05-14T09:02:23Z</time>
      </trkpt>
      <trkpt lat="46.31686" lon="-0.66838">
        <ele>4</ele>
        <time>2022-05-14T09:02:35Z</time>
      </trkpt>
      <trkpt lat="46.31685" lon="-0.66859">
        <ele>4</ele>
        <time>2022-05-14T09:02:38Z</time>
      </trkpt>
      <trkpt lat="46.31676" lon="-0.66956">
        <ele>3</ele>
        <time>2022-05-14T09:02:50Z</time>
      </trkpt>
      <trkpt lat="46.31661" lon="-0.67164">
        <ele>4</ele>
        <time>2022-05-14T09:03:16Z</time>
      </trkpt>
      <trkpt lat="46.31653" lon="-0.67214">
        <ele>4</ele>
        <time>2022-05-14T09:03:22Z</time>
      </trkpt>
      <trkpt lat="46.31647" lon="-0.67238">
        <ele>4</ele>
        <time>2022-05-14T09:03:25Z</time>
      </trkpt>
      <trkpt lat="46.31643" lon="-0.6725">
        <ele>4</ele>
        <time>2022-05-14T09:03:27Z</time>
      </trkpt>
      <trkpt lat="46.3162" lon="-0.67322">
        <ele>3</ele>
        <time>2022-05-14T09:03:36Z</time>
      </trkpt>
      <trkpt lat="46.31557" lon="-0.67495">
        <ele>4</ele>
        <time>2022-05-14T09:04:00Z</time>
      </trkpt>
      <trkpt lat="46.31552" lon="-0.67509">
        <ele>4</ele>
        <time>2022-05-14T09:04:02Z</time>
      </trkpt>
      <trkpt lat="46.31499" lon="-0.6765">
        <ele>3</ele>
        <time>2022-05-14T09:04:22Z</time>
      </trkpt>
      <trkpt lat="46.31479" lon="-0.67696">
        <ele>3</ele>
        <time>2022-05-14T09:04:29Z</time>
      </trkpt>
      <trkpt lat="46.31465" lon="-0.67718">
        <ele>2</ele>
        <time>2022-05-14T09:04:32Z</time>
      </trkpt>
      <trkpt lat="46.31439" lon="-0.67741">
        <ele>2</ele>
        <time>2022-05-14T09:04:38Z</time>
      </trkpt>
      <trkpt lat="46.31413" lon="-0.67755">
        <ele>2</ele>
        <time>2022-05-14T09:04:43Z</time>
      </trkpt>
      <trkpt lat="46.31398" lon="-0.67762">
        <ele>2</ele>
        <time>2022-05-14T09:04:46Z</time>
      </trkpt>
      <trkpt lat="46.31347" lon="-0.67779">
        <ele>3</ele>
        <time>2022-05-14T09:04:55Z</time>
      </trkpt>
      <trkpt lat="46.31142" lon="-0.67828">
        <ele>3</ele>
        <time>2022-05-14T09:05:32Z</time>
      </trkpt>
      <trkpt lat="46.31132" lon="-0.67831">
        <ele>3</ele>
        <time>2022-05-14T09:05:34Z</time>
      </trkpt>
      <trkpt lat="46.31013" lon="-0.67876">
        <ele>4</ele>
        <time>2022-05-14T09:05:56Z</time>
      </trkpt>
      <trkpt lat="46.3095" lon="-0.6791">
        <ele>4</ele>
        <time>2022-05-14T09:06:08Z</time>
      </trkpt>
      <trkpt lat="46.3094" lon="-0.6792">
        <ele>4</ele>
        <time>2022-05-14T09:06:10Z</time>
      </trkpt>
      <trkpt lat="46.30926" lon="-0.67941">
        <ele>4</ele>
        <time>2022-05-14T09:06:13Z</time>
      </trkpt>
      <trkpt lat="46.30888" lon="-0.68016">
        <ele>5</ele>
        <time>2022-05-14T09:06:25Z</time>
      </trkpt>
      <trkpt lat="46.30757" lon="-0.68295">
        <ele>2</ele>
        <time>2022-05-14T09:07:06Z</time>
      </trkpt>
      <trkpt lat="46.30749" lon="-0.68315">
        <ele>3</ele>
        <time>2022-05-14T09:07:09Z</time>
      </trkpt>
      <trkpt lat="46.30744" lon="-0.68334">
        <ele>3</ele>
        <time>2022-05-14T09:07:12Z</time>
      </trkpt>
      <trkpt lat="46.30744" lon="-0.68352">
        <ele>3</ele>
        <time>2022-05-14T09:07:14Z</time>
      </trkpt>
      <trkpt lat="46.30748" lon="-0.68374">
        <ele>3</ele>
        <time>2022-05-14T09:07:17Z</time>
      </trkpt>
      <trkpt lat="46.30756" lon="-0.68395">
        <ele>3</ele>
        <time>2022-05-14T09:07:19Z</time>
      </trkpt>
      <trkpt lat="46.308" lon="-0.6849">
        <ele>4</ele>
        <time>2022-05-14T09:07:34Z</time>
      </trkpt>
      <trkpt lat="46.30814" lon="-0.68526">
        <ele>4</ele>
        <time>2022-05-14T09:07:39Z</time>
      </trkpt>
      <trkpt lat="46.30821" lon="-0.68544">
        <ele>4</ele>
        <time>2022-05-14T09:07:41Z</time>
      </trkpt>
      <trkpt lat="46.30831" lon="-0.68574">
        <ele>5</ele>
        <time>2022-05-14T09:07:45Z</time>
      </trkpt>
      <trkpt lat="46.3084" lon="-0.68606">
        <ele>5</ele>
        <time>2022-05-14T09:07:49Z</time>
      </trkpt>
      <trkpt lat="46.30856" lon="-0.68675">
        <ele>4</ele>
        <time>2022-05-14T09:07:58Z</time>
      </trkpt>
      <trkpt lat="46.30865" lon="-0.6873">
        <ele>4</ele>
        <time>2022-05-14T09:08:05Z</time>
      </trkpt>
      <trkpt lat="46.30869" lon="-0.68751">
        <ele>4</ele>
        <time>2022-05-14T09:08:08Z</time>
      </trkpt>
      <trkpt lat="46.3089" lon="-0.68821">
        <ele>3</ele>
        <time>2022-05-14T09:08:17Z</time>
      </trkpt>
      <trkpt lat="46.30893" lon="-0.68863">
        <ele>3</ele>
        <time>2022-05-14T09:08:23Z</time>
      </trkpt>
      <trkpt lat="46.30891" lon="-0.68892">
        <ele>3</ele>
        <time>2022-05-14T09:08:26Z</time>
      </trkpt>
      <trkpt lat="46.30882" lon="-0.68973">
        <ele>3</ele>
        <time>2022-05-14T09:08:36Z</time>
      </trkpt>
      <trkpt lat="46.30882" lon="-0.69012">
        <ele>3</ele>
        <time>2022-05-14T09:08:41Z</time>
      </trkpt>
      <trkpt lat="46.30885" lon="-0.69031">
        <ele>3</ele>
        <time>2022-05-14T09:08:43Z</time>
      </trkpt>
      <trkpt lat="46.30936" lon="-0.6923">
        <ele>5</ele>
        <time>2022-05-14T09:09:10Z</time>
      </trkpt>
      <trkpt lat="46.30939" lon="-0.69267">
        <ele>5</ele>
        <time>2022-05-14T09:09:14Z</time>
      </trkpt>
      <trkpt lat="46.30936" lon="-0.6931">
        <ele>5</ele>
        <time>2022-05-14T09:09:19Z</time>
      </trkpt>
      <trkpt lat="46.3093" lon="-0.69334">
        <ele>5</ele>
        <time>2022-05-14T09:09:23Z</time>
      </trkpt>
      <trkpt lat="46.30922" lon="-0.69354">
        <ele>6</ele>
        <time>2022-05-14T09:09:25Z</time>
      </trkpt>
      <trkpt lat="46.30915" lon="-0.69369">
        <ele>6</ele>
        <time>2022-05-14T09:09:28Z</time>
      </trkpt>
      <trkpt lat="46.30784" lon="-0.69562">
        <ele>4</ele>
        <time>2022-05-14T09:10:01Z</time>
      </trkpt>
      <trkpt lat="46.30776" lon="-0.69575">
        <ele>4</ele>
        <time>2022-05-14T09:10:03Z</time>
      </trkpt>
      <trkpt lat="46.30745" lon="-0.69622">
        <ele>3</ele>
        <time>2022-05-14T09:10:11Z</time>
      </trkpt>
      <trkpt lat="46.30737" lon="-0.69632">
        <ele>4</ele>
        <time>2022-05-14T09:10:13Z</time>
      </trkpt>
      <trkpt lat="46.30687" lon="-0.69685">
        <ele>4</ele>
        <time>2022-05-14T09:10:24Z</time>
      </trkpt>
      <trkpt lat="46.30627" lon="-0.69744">
        <ele>3</ele>
        <time>2022-05-14T09:10:37Z</time>
      </trkpt>
      <trkpt lat="46.30615" lon="-0.6977">
        <ele>4</ele>
        <time>2022-05-14T09:10:41Z</time>
      </trkpt>
      <trkpt lat="46.30609" lon="-0.69794">
        <ele>4</ele>
        <time>2022-05-14T09:10:44Z</time>
      </trkpt>
      <trkpt lat="46.30604" lon="-0.69825">
        <ele>4</ele>
        <time>2022-05-14T09:10:48Z</time>
      </trkpt>
      <trkpt lat="46.30584" lon="-0.69978">
        <ele>4</ele>
        <time>2022-05-14T09:11:07Z</time>
      </trkpt>
      <trkpt lat="46.30552" lon="-0.70189">
        <ele>4</ele>
        <time>2022-05-14T09:11:33Z</time>
      </trkpt>
      <trkpt lat="46.30538" lon="-0.7024">
        <ele>5</ele>
        <time>2022-05-14T09:11:40Z</time>
      </trkpt>
      <trkpt lat="46.30462" lon="-0.70415">
        <ele>6</ele>
        <time>2022-05-14T09:12:06Z</time>
      </trkpt>
      <trkpt lat="46.30454" lon="-0.70431">
        <ele>6</ele>
        <time>2022-05-14T09:12:08Z</time>
      </trkpt>
      <trkpt lat="46.30429" lon="-0.70494">
        <ele>6</ele>
        <time>2022-05-14T09:12:17Z</time>
      </trkpt>
      <trkpt lat="46.3042" lon="-0.70522">
        <ele>6</ele>
        <time>2022-05-14T09:12:21Z</time>
      </trkpt>
      <trkpt lat="46.30406" lon="-0.70578">
        <ele>6</ele>
        <time>2022-05-14T09:12:28Z</time>
      </trkpt>
      <trkpt lat="46.304" lon="-0.70636">
        <ele>5</ele>
        <time>2022-05-14T09:12:35Z</time>
      </trkpt>
      <trkpt lat="46.30397" lon="-0.707">
        <ele>5</ele>
        <time>2022-05-14T09:12:43Z</time>
      </trkpt>
      <trkpt lat="46.304" lon="-0.70813">
        <ele>5</ele>
        <time>2022-05-14T09:12:57Z</time>
      </trkpt>
      <trkpt lat="46.30407" lon="-0.70948">
        <ele>3</ele>
        <time>2022-05-14T09:13:14Z</time>
      </trkpt>
      <trkpt lat="46.30418" lon="-0.71055">
        <ele>3</ele>
        <time>2022-05-14T09:13:27Z</time>
      </trkpt>
      <trkpt lat="46.30428" lon="-0.7112">
        <ele>5</ele>
        <time>2022-05-14T09:13:35Z</time>
      </trkpt>
      <trkpt lat="46.30434" lon="-0.71139">
        <ele>5</ele>
        <time>2022-05-14T09:13:38Z</time>
      </trkpt>
      <trkpt lat="46.30442" lon="-0.71155">
        <ele>6</ele>
        <time>2022-05-14T09:13:40Z</time>
      </trkpt>
      <trkpt lat="46.30452" lon="-0.71169">
        <ele>6</ele>
        <time>2022-05-14T09:13:43Z</time>
      </trkpt>
      <trkpt lat="46.30501" lon="-0.71217">
        <ele>5</ele>
        <time>2022-05-14T09:13:53Z</time>
      </trkpt>
      <trkpt lat="46.30646" lon="-0.7134">
        <ele>7</ele>
        <time>2022-05-14T09:14:23Z</time>
      </trkpt>
      <trkpt lat="46.30666" lon="-0.7137">
        <ele>6</ele>
        <time>2022-05-14T09:14:28Z</time>
      </trkpt>
      <trkpt lat="46.30673" lon="-0.71386">
        <ele>6</ele>
        <time>2022-05-14T09:14:31Z</time>
      </trkpt>
      <trkpt lat="46.30691" lon="-0.71443">
        <ele>4</ele>
        <time>2022-05-14T09:14:38Z</time>
      </trkpt>
      <trkpt lat="46.30696" lon="-0.71462">
        <ele>4</ele>
        <time>2022-05-14T09:14:41Z</time>
      </trkpt>
      <trkpt lat="46.30717" lon="-0.71539">
        <ele>3</ele>
        <time>2022-05-14T09:14:51Z</time>
      </trkpt>
      <trkpt lat="46.30744" lon="-0.71619">
        <ele>4</ele>
        <time>2022-05-14T09:15:02Z</time>
      </trkpt>
      <trkpt lat="46.30759" lon="-0.71672">
        <ele>4</ele>
        <time>2022-05-14T09:15:09Z</time>
      </trkpt>
      <trkpt lat="46.30778" lon="-0.71731">
        <ele>5</ele>
        <time>2022-05-14T09:15:17Z</time>
      </trkpt>
      <trkpt lat="46.30793" lon="-0.71792">
        <ele>5</ele>
        <time>2022-05-14T09:15:25Z</time>
      </trkpt>
      <trkpt lat="46.30805" lon="-0.71862">
        <ele>5</ele>
        <time>2022-05-14T09:15:34Z</time>
      </trkpt>
      <trkpt lat="46.30832" lon="-0.71988">
        <ele>4</ele>
        <time>2022-05-14T09:15:50Z</time>
      </trkpt>
      <trkpt lat="46.30837" lon="-0.72002">
        <ele>4</ele>
        <time>2022-05-14T09:15:52Z</time>
      </trkpt>
      <trkpt lat="46.3091" lon="-0.72144">
        <ele>3</ele>
        <time>2022-05-14T09:16:14Z</time>
      </trkpt>
      <trkpt lat="46.3093" lon="-0.72192">
        <ele>3</ele>
        <time>2022-05-14T09:16:21Z</time>
      </trkpt>
      <trkpt lat="46.30958" lon="-0.72276">
        <ele>3</ele>
        <time>2022-05-14T09:16:32Z</time>
      </trkpt>
      <trkpt lat="46.30989" lon="-0.72382">
        <ele>5</ele>
        <time>2022-05-14T09:16:46Z</time>
      </trkpt>
      <trkpt lat="46.30993" lon="-0.72395">
        <ele>5</ele>
        <time>2022-05-14T09:16:48Z</time>
      </trkpt>
      <trkpt lat="46.31013" lon="-0.72445">
        <ele>5</ele>
        <time>2022-05-14T09:16:55Z</time>
      </trkpt>
      <trkpt lat="46.31022" lon="-0.72466">
        <ele>4</ele>
        <time>2022-05-14T09:16:58Z</time>
      </trkpt>
      <trkpt lat="46.31089" lon="-0.72575">
        <ele>3</ele>
        <time>2022-05-14T09:17:16Z</time>
      </trkpt>
      <trkpt lat="46.31202" lon="-0.72803">
        <ele>5</ele>
        <time>2022-05-14T09:17:50Z</time>
      </trkpt>
      <trkpt lat="46.31252" lon="-0.72912">
        <ele>5</ele>
        <time>2022-05-14T09:18:07Z</time>
      </trkpt>
      <trkpt lat="46.31296" lon="-0.72999">
        <ele>5</ele>
        <time>2022-05-14T09:18:20Z</time>
      </trkpt>
      <trkpt lat="46.31327" lon="-0.73071">
        <ele>7</ele>
        <time>2022-05-14T09:18:30Z</time>
      </trkpt>
      <trkpt lat="46.31345" lon="-0.73138">
        <ele>7</ele>
        <time>2022-05-14T09:18:39Z</time>
      </trkpt>
      <trkpt lat="46.31356" lon="-0.73197">
        <ele>6</ele>
        <time>2022-05-14T09:18:47Z</time>
      </trkpt>
      <trkpt lat="46.31362" lon="-0.73246">
        <ele>5</ele>
        <time>2022-05-14T09:18:53Z</time>
      </trkpt>
      <trkpt lat="46.31363" lon="-0.73267">
        <ele>5</ele>
        <time>2022-05-14T09:18:55Z</time>
      </trkpt>
      <trkpt lat="46.31371" lon="-0.73292">
        <ele>5</ele>
        <time>2022-05-14T09:18:59Z</time>
      </trkpt>
      <trkpt lat="46.31373" lon="-0.73313">
        <ele>5</ele>
        <time>2022-05-14T09:19:01Z</time>
      </trkpt>
      <trkpt lat="46.31377" lon="-0.73355">
        <ele>5</ele>
        <time>2022-05-14T09:19:06Z</time>
      </trkpt>
      <trkpt lat="46.31397" lon="-0.73364">
        <ele>5</ele>
        <time>2022-05-14T09:19:10Z</time>
      </trkpt>
      <trkpt lat="46.3142" lon="-0.73369">
        <ele>6</ele>
        <time>2022-05-14T09:19:14Z</time>
      </trkpt>
      <trkpt lat="46.31427" lon="-0.73375">
        <ele>6</ele>
        <time>2022-05-14T09:19:16Z</time>
      </trkpt>
      <trkpt lat="46.31494" lon="-0.73346">
        <ele>7</ele>
        <time>2022-05-14T09:19:28Z</time>
      </trkpt>
      <trkpt lat="46.31533" lon="-0.73359">
        <ele>6</ele>
        <time>2022-05-14T09:19:35Z</time>
      </trkpt>
      <trkpt lat="46.31542" lon="-0.73417">
        <ele>6</ele>
        <time>2022-05-14T09:19:43Z</time>
      </trkpt>
      <trkpt lat="46.31558" lon="-0.73421">
        <ele>6</ele>
        <time>2022-05-14T09:19:46Z</time>
      </trkpt>
      <trkpt lat="46.31587" lon="-0.73423">
        <ele>6</ele>
        <time>2022-05-14T09:19:51Z</time>
      </trkpt>
      <trkpt lat="46.31611" lon="-0.73431">
        <ele>6</ele>
        <time>2022-05-14T09:19:55Z</time>
      </trkpt>
      <trkpt lat="46.31646" lon="-0.73454">
        <ele>7</ele>
        <time>2022-05-14T09:20:02Z</time>
      </trkpt>
      <trkpt lat="46.31653" lon="-0.73454">
        <ele>7</ele>
        <time>2022-05-14T09:20:03Z</time>
      </trkpt>
      <trkpt lat="46.3166" lon="-0.7346">
        <ele>7</ele>
        <time>2022-05-14T09:20:05Z</time>
      </trkpt>
      <trkpt lat="46.31667" lon="-0.73476">
        <ele>7</ele>
        <time>2022-05-14T09:20:07Z</time>
      </trkpt>
      <trkpt lat="46.3173" lon="-0.73762">
        <ele>5</ele>
        <time>2022-05-14T09:20:44Z</time>
      </trkpt>
      <trkpt lat="46.31737" lon="-0.73783">
        <ele>5</ele>
        <time>2022-05-14T09:20:47Z</time>
      </trkpt>
      <trkpt lat="46.31797" lon="-0.73903">
        <ele>5</ele>
        <time>2022-05-14T09:21:05Z</time>
      </trkpt>
      <trkpt lat="46.31837" lon="-0.74001">
        <ele>6</ele>
        <time>2022-05-14T09:21:19Z</time>
      </trkpt>
      <trkpt lat="46.3185" lon="-0.74015">
        <ele>6</ele>
        <time>2022-05-14T09:21:22Z</time>
      </trkpt>
      <trkpt lat="46.31858" lon="-0.74016">
        <ele>6</ele>
        <time>2022-05-14T09:21:23Z</time>
      </trkpt>
      <trkpt lat="46.3187" lon="-0.74013">
        <ele>6</ele>
        <time>2022-05-14T09:21:25Z</time>
      </trkpt>
      <trkpt lat="46.31984" lon="-0.73948">
        <ele>6</ele>
        <time>2022-05-14T09:21:47Z</time>
      </trkpt>
      <trkpt lat="46.32072" lon="-0.7391">
        <ele>5</ele>
        <time>2022-05-14T09:22:03Z</time>
      </trkpt>
      <trkpt lat="46.32086" lon="-0.7391">
        <ele>5</ele>
        <time>2022-05-14T09:22:06Z</time>
      </trkpt>
      <trkpt lat="46.32105" lon="-0.73916">
        <ele>5</ele>
        <time>2022-05-14T09:22:09Z</time>
      </trkpt>
      <trkpt lat="46.32155" lon="-0.73938">
        <ele>5</ele>
        <time>2022-05-14T09:22:19Z</time>
      </trkpt>
      <trkpt lat="46.32173" lon="-0.7394">
        <ele>5</ele>
        <time>2022-05-14T09:22:22Z</time>
      </trkpt>
      <trkpt lat="46.32191" lon="-0.73939">
        <ele>5</ele>
        <time>2022-05-14T09:22:25Z</time>
      </trkpt>
      <trkpt lat="46.32244" lon="-0.7392">
        <ele>5</ele>
        <time>2022-05-14T09:22:35Z</time>
      </trkpt>
      <trkpt lat="46.32268" lon="-0.73918">
        <ele>5</ele>
        <time>2022-05-14T09:22:39Z</time>
      </trkpt>
      <trkpt lat="46.32438" lon="-0.73948">
        <ele>7</ele>
        <time>2022-05-14T09:23:10Z</time>
      </trkpt>
      <trkpt lat="46.32453" lon="-0.73954">
        <ele>7</ele>
        <time>2022-05-14T09:23:12Z</time>
      </trkpt>
      <trkpt lat="46.32465" lon="-0.73965">
        <ele>7</ele>
        <time>2022-05-14T09:23:15Z</time>
      </trkpt>
      <trkpt lat="46.3251" lon="-0.7403">
        <ele>7</ele>
        <time>2022-05-14T09:23:26Z</time>
      </trkpt>
      <trkpt lat="46.32522" lon="-0.74032">
        <ele>7</ele>
        <time>2022-05-14T09:23:28Z</time>
      </trkpt>
      <trkpt lat="46.32524" lon="-0.74046">
        <ele>7</ele>
        <time>2022-05-14T09:23:30Z</time>
      </trkpt>
      <trkpt lat="46.32529" lon="-0.74059">
        <ele>7</ele>
        <time>2022-05-14T09:23:32Z</time>
      </trkpt>
      <trkpt lat="46.32553" lon="-0.74098">
        <ele>7</ele>
        <time>2022-05-14T09:23:38Z</time>
      </trkpt>
      <trkpt lat="46.32665" lon="-0.7426">
        <ele>6</ele>
        <time>2022-05-14T09:24:07Z</time>
      </trkpt>
      <trkpt lat="46.32691" lon="-0.74286">
        <ele>6</ele>
        <time>2022-05-14T09:24:12Z</time>
      </trkpt>
      <trkpt lat="46.32723" lon="-0.74312">
        <ele>6</ele>
        <time>2022-05-14T09:24:19Z</time>
      </trkpt>
      <trkpt lat="46.3276" lon="-0.74336">
        <ele>6</ele>
        <time>2022-05-14T09:24:26Z</time>
      </trkpt>
      <trkpt lat="46.32802" lon="-0.74359">
        <ele>6</ele>
        <time>2022-05-14T09:24:34Z</time>
      </trkpt>
      <trkpt lat="46.32861" lon="-0.74379">
        <ele>6</ele>
        <time>2022-05-14T09:24:45Z</time>
      </trkpt>
      <trkpt lat="46.32878" lon="-0.74381">
        <ele>6</ele>
        <time>2022-05-14T09:24:48Z</time>
      </trkpt>
      <trkpt lat="46.32967" lon="-0.74375">
        <ele>7</ele>
        <time>2022-05-14T09:25:04Z</time>
      </trkpt>
      <trkpt lat="46.32988" lon="-0.74378">
        <ele>8</ele>
        <time>2022-05-14T09:25:07Z</time>
      </trkpt>
      <trkpt lat="46.33009" lon="-0.74384">
        <ele>8</ele>
        <time>2022-05-14T09:25:11Z</time>
      </trkpt>
      <trkpt lat="46.33084" lon="-0.7442">
        <ele>8</ele>
        <time>2022-05-14T09:25:25Z</time>
      </trkpt>
      <trkpt lat="46.33119" lon="-0.74435">
        <ele>7</ele>
        <time>2022-05-14T09:25:32Z</time>
      </trkpt>
      <trkpt lat="46.33146" lon="-0.74444">
        <ele>6</ele>
        <time>2022-05-14T09:25:37Z</time>
      </trkpt>
      <trkpt lat="46.33166" lon="-0.74446">
        <ele>5</ele>
        <time>2022-05-14T09:25:40Z</time>
      </trkpt>
      <trkpt lat="46.33205" lon="-0.7444">
        <ele>5</ele>
        <time>2022-05-14T09:25:47Z</time>
      </trkpt>
      <trkpt lat="46.3322" lon="-0.7444">
        <ele>5</ele>
        <time>2022-05-14T09:25:50Z</time>
      </trkpt>
      <trkpt lat="46.33235" lon="-0.74445">
        <ele>4</ele>
        <time>2022-05-14T09:25:53Z</time>
      </trkpt>
      <trkpt lat="46.33248" lon="-0.74452">
        <ele>4</ele>
        <time>2022-05-14T09:25:55Z</time>
      </trkpt>
      <trkpt lat="46.33273" lon="-0.7447">
        <ele>4</ele>
        <time>2022-05-14T09:26:00Z</time>
      </trkpt>
      <trkpt lat="46.33283" lon="-0.7448">
        <ele>4</ele>
        <time>2022-05-14T09:26:02Z</time>
      </trkpt>
      <trkpt lat="46.33295" lon="-0.74497">
        <ele>5</ele>
        <time>2022-05-14T09:26:05Z</time>
      </trkpt>
      <trkpt lat="46.33307" lon="-0.74527">
        <ele>4</ele>
        <time>2022-05-14T09:26:09Z</time>
      </trkpt>
      <trkpt lat="46.33315" lon="-0.74562">
        <ele>3</ele>
        <time>2022-05-14T09:26:14Z</time>
      </trkpt>
      <trkpt lat="46.3332" lon="-0.7459">
        <ele>2</ele>
        <time>2022-05-14T09:26:17Z</time>
      </trkpt>
      <trkpt lat="46.33335" lon="-0.74723">
        <ele>6</ele>
        <time>2022-05-14T09:26:34Z</time>
      </trkpt>
      <trkpt lat="46.33342" lon="-0.74749">
        <ele>6</ele>
        <time>2022-05-14T09:26:37Z</time>
      </trkpt>
      <trkpt lat="46.33356" lon="-0.74782">
        <ele>5</ele>
        <time>2022-05-14T09:26:42Z</time>
      </trkpt>
      <trkpt lat="46.33398" lon="-0.74843">
        <ele>5</ele>
        <time>2022-05-14T09:26:53Z</time>
      </trkpt>
      <trkpt lat="46.33411" lon="-0.74866">
        <ele>4</ele>
        <time>2022-05-14T09:26:56Z</time>
      </trkpt>
      <trkpt lat="46.3342" lon="-0.74893">
        <ele>4</ele>
        <time>2022-05-14T09:27:00Z</time>
      </trkpt>
      <trkpt lat="46.33454" lon="-0.75046">
        <ele>3</ele>
        <time>2022-05-14T09:27:20Z</time>
      </trkpt>
      <trkpt lat="46.33464" lon="-0.75084">
        <ele>4</ele>
        <time>2022-05-14T09:27:25Z</time>
      </trkpt>
      <trkpt lat="46.33474" lon="-0.75115">
        <ele>3</ele>
        <time>2022-05-14T09:27:29Z</time>
      </trkpt>
      <trkpt lat="46.33482" lon="-0.7514">
        <ele>3</ele>
        <time>2022-05-14T09:27:32Z</time>
      </trkpt>
      <trkpt lat="46.33492" lon="-0.75169">
        <ele>3</ele>
        <time>2022-05-14T09:27:36Z</time>
      </trkpt>
      <trkpt lat="46.335" lon="-0.75204">
        <ele>3</ele>
        <time>2022-05-14T09:27:41Z</time>
      </trkpt>
      <trkpt lat="46.33544" lon="-0.75429">
        <ele>3</ele>
        <time>2022-05-14T09:28:10Z</time>
      </trkpt>
      <trkpt lat="46.33619" lon="-0.75881">
        <ele>4</ele>
        <time>2022-05-14T09:29:07Z</time>
      </trkpt>
      <trkpt lat="46.33637" lon="-0.7596">
        <ele>5</ele>
        <time>2022-05-14T09:29:17Z</time>
      </trkpt>
      <trkpt lat="46.33642" lon="-0.75975">
        <ele>5</ele>
        <time>2022-05-14T09:29:19Z</time>
      </trkpt>
      <trkpt lat="46.33663" lon="-0.76017">
        <ele>6</ele>
        <time>2022-05-14T09:29:25Z</time>
      </trkpt>
      <trkpt lat="46.33664" lon="-0.76027">
        <ele>6</ele>
        <time>2022-05-14T09:29:27Z</time>
      </trkpt>
      <trkpt lat="46.33663" lon="-0.76038">
        <ele>6</ele>
        <time>2022-05-14T09:29:28Z</time>
      </trkpt>
      <trkpt lat="46.33658" lon="-0.76056">
        <ele>6</ele>
        <time>2022-05-14T09:29:30Z</time>
      </trkpt>
      <trkpt lat="46.33641" lon="-0.76078">
        <ele>6</ele>
        <time>2022-05-14T09:29:35Z</time>
      </trkpt>
      <trkpt lat="46.33625" lon="-0.76096">
        <ele>7</ele>
        <time>2022-05-14T09:29:38Z</time>
      </trkpt>
      <trkpt lat="46.33618" lon="-0.76107">
        <ele>7</ele>
        <time>2022-05-14T09:29:40Z</time>
      </trkpt>
      <trkpt lat="46.33614" lon="-0.7612">
        <ele>7</ele>
        <time>2022-05-14T09:29:42Z</time>
      </trkpt>
      <trkpt lat="46.33613" lon="-0.76142">
        <ele>7</ele>
        <time>2022-05-14T09:29:44Z</time>
      </trkpt>
      <trkpt lat="46.33614" lon="-0.7616">
        <ele>7</ele>
        <time>2022-05-14T09:29:47Z</time>
      </trkpt>
      <trkpt lat="46.33619" lon="-0.76187">
        <ele>7</ele>
        <time>2022-05-14T09:29:50Z</time>
      </trkpt>
      <trkpt lat="46.33629" lon="-0.76222">
        <ele>7</ele>
        <time>2022-05-14T09:29:55Z</time>
      </trkpt>
      <trkpt lat="46.33651" lon="-0.76274">
        <ele>7</ele>
        <time>2022-05-14T09:30:02Z</time>
      </trkpt>
      <trkpt lat="46.3371" lon="-0.76383">
        <ele>6</ele>
        <time>2022-05-14T09:30:19Z</time>
      </trkpt>
      <trkpt lat="46.33728" lon="-0.76433">
        <ele>6</ele>
        <time>2022-05-14T09:30:26Z</time>
      </trkpt>
      <trkpt lat="46.33748" lon="-0.76514">
        <ele>5</ele>
        <time>2022-05-14T09:30:37Z</time>
      </trkpt>
      <trkpt lat="46.33759" lon="-0.76553">
        <ele>5</ele>
        <time>2022-05-14T09:30:42Z</time>
      </trkpt>
      <trkpt lat="46.33769" lon="-0.76581">
        <ele>5</ele>
        <time>2022-05-14T09:30:46Z</time>
      </trkpt>
      <trkpt lat="46.33848" lon="-0.76756">
        <ele>6</ele>
        <time>2022-05-14T09:31:11Z</time>
      </trkpt>
      <trkpt lat="46.33861" lon="-0.76793">
        <ele>6</ele>
        <time>2022-05-14T09:31:17Z</time>
      </trkpt>
      <trkpt lat="46.33905" lon="-0.76942">
        <ele>7</ele>
        <time>2022-05-14T09:31:36Z</time>
      </trkpt>
      <trkpt lat="46.33925" lon="-0.77003">
        <ele>7</ele>
        <time>2022-05-14T09:31:45Z</time>
      </trkpt>
      <trkpt lat="46.33993" lon="-0.77154">
        <ele>10</ele>
        <time>2022-05-14T09:32:07Z</time>
      </trkpt>
      <trkpt lat="46.34011" lon="-0.77201">
        <ele>9</ele>
        <time>2022-05-14T09:32:13Z</time>
      </trkpt>
      <trkpt lat="46.34022" lon="-0.77235">
        <ele>8</ele>
        <time>2022-05-14T09:32:18Z</time>
      </trkpt>
      <trkpt lat="46.34036" lon="-0.77306">
        <ele>7</ele>
        <time>2022-05-14T09:32:27Z</time>
      </trkpt>
      <trkpt lat="46.34062" lon="-0.77443">
        <ele>7</ele>
        <time>2022-05-14T09:32:45Z</time>
      </trkpt>
      <trkpt lat="46.34069" lon="-0.77472">
        <ele>8</ele>
        <time>2022-05-14T09:32:48Z</time>
      </trkpt>
      <trkpt lat="46.34075" lon="-0.77489">
        <ele>8</ele>
        <time>2022-05-14T09:32:51Z</time>
      </trkpt>
      <trkpt lat="46.34096" lon="-0.77531">
        <ele>7</ele>
        <time>2022-05-14T09:32:57Z</time>
      </trkpt>
      <trkpt lat="46.34105" lon="-0.77554">
        <ele>6</ele>
        <time>2022-05-14T09:33:00Z</time>
      </trkpt>
      <trkpt lat="46.34112" lon="-0.77595">
        <ele>5</ele>
        <time>2022-05-14T09:33:06Z</time>
      </trkpt>
      <trkpt lat="46.34137" lon="-0.77797">
        <ele>5</ele>
        <time>2022-05-14T09:33:31Z</time>
      </trkpt>
      <trkpt lat="46.34183" lon="-0.78368">
        <ele>7</ele>
        <time>2022-05-14T09:34:41Z</time>
      </trkpt>
      <trkpt lat="46.34192" lon="-0.78525">
        <ele>6</ele>
        <time>2022-05-14T09:35:01Z</time>
      </trkpt>
      <trkpt lat="46.34198" lon="-0.78604">
        <ele>6</ele>
        <time>2022-05-14T09:35:10Z</time>
      </trkpt>
      <trkpt lat="46.34207" lon="-0.78681">
        <ele>7</ele>
        <time>2022-05-14T09:35:20Z</time>
      </trkpt>
      <trkpt lat="46.34235" lon="-0.78889">
        <ele>7</ele>
        <time>2022-05-14T09:35:46Z</time>
      </trkpt>
      <trkpt lat="46.34238" lon="-0.78894">
        <ele>7</ele>
        <time>2022-05-14T09:35:47Z</time>
      </trkpt>
      <trkpt lat="46.34246" lon="-0.78895">
        <ele>7</ele>
        <time>2022-05-14T09:35:48Z</time>
      </trkpt>
      <trkpt lat="46.34419" lon="-0.78845">
        <ele>9</ele>
        <time>2022-05-14T09:36:20Z</time>
      </trkpt>
      <trkpt lat="46.34439" lon="-0.78842">
        <ele>9</ele>
        <time>2022-05-14T09:36:23Z</time>
      </trkpt>
      <trkpt lat="46.34453" lon="-0.78842">
        <ele>9</ele>
        <time>2022-05-14T09:36:26Z</time>
      </trkpt>
      <trkpt lat="46.34463" lon="-0.78846">
        <ele>9</ele>
        <time>2022-05-14T09:36:28Z</time>
      </trkpt>
      <trkpt lat="46.34472" lon="-0.78854">
        <ele>9</ele>
        <time>2022-05-14T09:36:30Z</time>
      </trkpt>
      <trkpt lat="46.34579" lon="-0.78971">
        <ele>4</ele>
        <time>2022-05-14T09:36:53Z</time>
      </trkpt>
      <trkpt lat="46.34601" lon="-0.78995">
        <ele>4</ele>
        <time>2022-05-14T09:36:58Z</time>
      </trkpt>
      <trkpt lat="46.34633" lon="-0.79032">
        <ele>2</ele>
        <time>2022-05-14T09:37:06Z</time>
      </trkpt>
      <trkpt lat="46.34653" lon="-0.7905">
        <ele>2</ele>
        <time>2022-05-14T09:37:10Z</time>
      </trkpt>
      <trkpt lat="46.34695" lon="-0.79079">
        <ele>2</ele>
        <time>2022-05-14T09:37:18Z</time>
      </trkpt>
      <trkpt lat="46.34716" lon="-0.79088">
        <ele>2</ele>
        <time>2022-05-14T09:37:22Z</time>
      </trkpt>
      <trkpt lat="46.3474" lon="-0.79094">
        <ele>2</ele>
        <time>2022-05-14T09:37:26Z</time>
      </trkpt>
      <trkpt lat="46.34843" lon="-0.791">
        <ele>4</ele>
        <time>2022-05-14T09:37:45Z</time>
      </trkpt>
      <trkpt lat="46.34877" lon="-0.79102">
        <ele>3</ele>
        <time>2022-05-14T09:37:51Z</time>
      </trkpt>
      <trkpt lat="46.34968" lon="-0.79109">
        <ele>2</ele>
        <time>2022-05-14T09:38:07Z</time>
      </trkpt>
      <trkpt lat="46.35085" lon="-0.79113">
        <ele>2</ele>
        <time>2022-05-14T09:38:28Z</time>
      </trkpt>
      <trkpt lat="46.35101" lon="-0.79117">
        <ele>2</ele>
        <time>2022-05-14T09:38:31Z</time>
      </trkpt>
      <trkpt lat="46.35113" lon="-0.79122">
        <ele>1</ele>
        <time>2022-05-14T09:38:33Z</time>
      </trkpt>
      <trkpt lat="46.35126" lon="-0.79131">
        <ele>1</ele>
        <time>2022-05-14T09:38:35Z</time>
      </trkpt>
      <trkpt lat="46.35139" lon="-0.79143">
        <ele>1</ele>
        <time>2022-05-14T09:38:38Z</time>
      </trkpt>
      <trkpt lat="46.35157" lon="-0.79169">
        <ele>2</ele>
        <time>2022-05-14T09:38:43Z</time>
      </trkpt>
      <trkpt lat="46.35169" lon="-0.79197">
        <ele>2</ele>
        <time>2022-05-14T09:38:47Z</time>
      </trkpt>
      <trkpt lat="46.35175" lon="-0.79221">
        <ele>2</ele>
        <time>2022-05-14T09:38:50Z</time>
      </trkpt>
      <trkpt lat="46.35379" lon="-0.80494">
        <ele>2</ele>
        <time>2022-05-14T09:41:30Z</time>
      </trkpt>
      <trkpt lat="46.35391" lon="-0.80561">
        <ele>3</ele>
        <time>2022-05-14T09:41:39Z</time>
      </trkpt>
      <trkpt lat="46.35405" lon="-0.80623">
        <ele>3</ele>
        <time>2022-05-14T09:41:47Z</time>
      </trkpt>
      <trkpt lat="46.35421" lon="-0.8067">
        <ele>3</ele>
        <time>2022-05-14T09:41:53Z</time>
      </trkpt>
      <trkpt lat="46.35436" lon="-0.80705">
        <ele>3</ele>
        <time>2022-05-14T09:41:58Z</time>
      </trkpt>
      <trkpt lat="46.35465" lon="-0.80755">
        <ele>2</ele>
        <time>2022-05-14T09:42:06Z</time>
      </trkpt>
      <trkpt lat="46.35471" lon="-0.80765">
        <ele>2</ele>
        <time>2022-05-14T09:42:08Z</time>
      </trkpt>
      <trkpt lat="46.35482" lon="-0.80787">
        <ele>2</ele>
        <time>2022-05-14T09:42:11Z</time>
      </trkpt>
      <trkpt lat="46.35487" lon="-0.80801">
        <ele>2</ele>
        <time>2022-05-14T09:42:13Z</time>
      </trkpt>
      <trkpt lat="46.3549" lon="-0.80823">
        <ele>2</ele>
        <time>2022-05-14T09:42:16Z</time>
      </trkpt>
      <trkpt lat="46.35489" lon="-0.8085">
        <ele>2</ele>
        <time>2022-05-14T09:42:19Z</time>
      </trkpt>
      <trkpt lat="46.35387" lon="-0.81479">
        <ele>2</ele>
        <time>2022-05-14T09:43:39Z</time>
      </trkpt>
      <trkpt lat="46.35384" lon="-0.81498">
        <ele>2</ele>
        <time>2022-05-14T09:43:41Z</time>
      </trkpt>
      <trkpt lat="46.35197" lon="-0.82647">
        <ele>2</ele>
        <time>2022-05-14T09:46:06Z</time>
      </trkpt>
      <trkpt lat="46.35121" lon="-0.83129">
        <ele>4</ele>
        <time>2022-05-14T09:47:07Z</time>
      </trkpt>
      <trkpt lat="46.35119" lon="-0.83164">
        <ele>6</ele>
        <time>2022-05-14T09:47:11Z</time>
      </trkpt>
      <trkpt lat="46.35122" lon="-0.83179">
        <ele>6</ele>
        <time>2022-05-14T09:47:13Z</time>
      </trkpt>
      <trkpt lat="46.3513" lon="-0.83195">
        <ele>5</ele>
        <time>2022-05-14T09:47:15Z</time>
      </trkpt>
      <trkpt lat="46.35171" lon="-0.83252">
        <ele>5</ele>
        <time>2022-05-14T09:47:26Z</time>
      </trkpt>
      <trkpt lat="46.35191" lon="-0.83287">
        <ele>5</ele>
        <time>2022-05-14T09:47:31Z</time>
      </trkpt>
      <trkpt lat="46.35218" lon="-0.83354">
        <ele>5</ele>
        <time>2022-05-14T09:47:41Z</time>
      </trkpt>
      <trkpt lat="46.35255" lon="-0.83459">
        <ele>5</ele>
        <time>2022-05-14T09:47:55Z</time>
      </trkpt>
      <trkpt lat="46.35277" lon="-0.83541">
        <ele>5</ele>
        <time>2022-05-14T09:48:06Z</time>
      </trkpt>
      <trkpt lat="46.35289" lon="-0.8359">
        <ele>5</ele>
        <time>2022-05-14T09:48:12Z</time>
      </trkpt>
      <trkpt lat="46.3536" lon="-0.83916">
        <ele>4</ele>
        <time>2022-05-14T09:48:54Z</time>
      </trkpt>
      <trkpt lat="46.35366" lon="-0.83968">
        <ele>5</ele>
        <time>2022-05-14T09:49:01Z</time>
      </trkpt>
      <trkpt lat="46.35367" lon="-0.84004">
        <ele>5</ele>
        <time>2022-05-14T09:49:05Z</time>
      </trkpt>
      <trkpt lat="46.35364" lon="-0.84038">
        <ele>4</ele>
        <time>2022-05-14T09:49:09Z</time>
      </trkpt>
      <trkpt lat="46.35353" lon="-0.84094">
        <ele>4</ele>
        <time>2022-05-14T09:49:17Z</time>
      </trkpt>
      <trkpt lat="46.35332" lon="-0.84144">
        <ele>5</ele>
        <time>2022-05-14T09:49:24Z</time>
      </trkpt>
      <trkpt lat="46.35337" lon="-0.84151">
        <ele>6</ele>
        <time>2022-05-14T09:49:25Z</time>
      </trkpt>
      <trkpt lat="46.35339" lon="-0.84162">
        <ele>6</ele>
        <time>2022-05-14T09:49:26Z</time>
      </trkpt>
      <trkpt lat="46.35336" lon="-0.84172">
        <ele>6</ele>
        <time>2022-05-14T09:49:28Z</time>
      </trkpt>
      <trkpt lat="46.35329" lon="-0.84177">
        <ele>6</ele>
        <time>2022-05-14T09:49:29Z</time>
      </trkpt>
      <trkpt lat="46.35335" lon="-0.84195">
        <ele>6</ele>
        <time>2022-05-14T09:49:32Z</time>
      </trkpt>
      <trkpt lat="46.3534" lon="-0.84223">
        <ele>5</ele>
        <time>2022-05-14T09:49:35Z</time>
      </trkpt>
      <trkpt lat="46.35347" lon="-0.84275">
        <ele>5</ele>
        <time>2022-05-14T09:49:42Z</time>
      </trkpt>
      <trkpt lat="46.35355" lon="-0.84312">
        <ele>5</ele>
        <time>2022-05-14T09:49:46Z</time>
      </trkpt>
      <trkpt lat="46.35373" lon="-0.8437">
        <ele>5</ele>
        <time>2022-05-14T09:49:54Z</time>
      </trkpt>
      <trkpt lat="46.35398" lon="-0.84433">
        <ele>5</ele>
        <time>2022-05-14T09:50:03Z</time>
      </trkpt>
      <trkpt lat="46.35413" lon="-0.84465">
        <ele>6</ele>
        <time>2022-05-14T09:50:08Z</time>
      </trkpt>
      <trkpt lat="46.35427" lon="-0.84488">
        <ele>6</ele>
        <time>2022-05-14T09:50:12Z</time>
      </trkpt>
      <trkpt lat="46.35468" lon="-0.84547">
        <ele>5</ele>
        <time>2022-05-14T09:50:22Z</time>
      </trkpt>
      <trkpt lat="46.35496" lon="-0.84595">
        <ele>5</ele>
        <time>2022-05-14T09:50:30Z</time>
      </trkpt>
      <trkpt lat="46.35567" lon="-0.84705">
        <ele>5</ele>
        <time>2022-05-14T09:50:48Z</time>
      </trkpt>
      <trkpt lat="46.35607" lon="-0.84773">
        <ele>5</ele>
        <time>2022-05-14T09:50:59Z</time>
      </trkpt>
      <trkpt lat="46.35653" lon="-0.84835">
        <ele>5</ele>
        <time>2022-05-14T09:51:10Z</time>
      </trkpt>
      <trkpt lat="46.35661" lon="-0.84847">
        <ele>4</ele>
        <time>2022-05-14T09:51:12Z</time>
      </trkpt>
      <trkpt lat="46.35716" lon="-0.84926">
        <ele>4</ele>
        <time>2022-05-14T09:51:26Z</time>
      </trkpt>
      <trkpt lat="46.35827" lon="-0.85094">
        <ele>6</ele>
        <time>2022-05-14T09:51:55Z</time>
      </trkpt>
      <trkpt lat="46.35923" lon="-0.85277">
        <ele>5</ele>
        <time>2022-05-14T09:52:23Z</time>
      </trkpt>
      <trkpt lat="46.35936" lon="-0.85299">
        <ele>5</ele>
        <time>2022-05-14T09:52:26Z</time>
      </trkpt>
      <trkpt lat="46.3595" lon="-0.85319">
        <ele>5</ele>
        <time>2022-05-14T09:52:30Z</time>
      </trkpt>
      <trkpt lat="46.35989" lon="-0.85364">
        <ele>5</ele>
        <time>2022-05-14T09:52:39Z</time>
      </trkpt>
      <trkpt lat="46.36035" lon="-0.85412">
        <ele>6</ele>
        <time>2022-05-14T09:52:49Z</time>
      </trkpt>
      <trkpt lat="46.36089" lon="-0.85474">
        <ele>7</ele>
        <time>2022-05-14T09:53:01Z</time>
      </trkpt>
      <trkpt lat="46.36206" lon="-0.85636">
        <ele>8</ele>
        <time>2022-05-14T09:53:30Z</time>
      </trkpt>
      <trkpt lat="46.36253" lon="-0.85712">
        <ele>8</ele>
        <time>2022-05-14T09:53:42Z</time>
      </trkpt>
      <trkpt lat="46.36298" lon="-0.85779">
        <ele>9</ele>
        <time>2022-05-14T09:53:54Z</time>
      </trkpt>
      <trkpt lat="46.36389" lon="-0.85855">
        <ele>10</ele>
        <time>2022-05-14T09:54:13Z</time>
      </trkpt>
      <trkpt lat="46.36399" lon="-0.85866">
        <ele>10</ele>
        <time>2022-05-14T09:54:15Z</time>
      </trkpt>
      <trkpt lat="46.36411" lon="-0.85891">
        <ele>11</ele>
        <time>2022-05-14T09:54:19Z</time>
      </trkpt>
      <trkpt lat="46.36443" lon="-0.85996">
        <ele>11</ele>
        <time>2022-05-14T09:54:33Z</time>
      </trkpt>
      <trkpt lat="46.36462" lon="-0.86038">
        <ele>11</ele>
        <time>2022-05-14T09:54:39Z</time>
      </trkpt>
      <trkpt lat="46.36501" lon="-0.86128">
        <ele>12</ele>
        <time>2022-05-14T09:54:52Z</time>
      </trkpt>
      <trkpt lat="46.36519" lon="-0.86155">
        <ele>12</ele>
        <time>2022-05-14T09:54:57Z</time>
      </trkpt>
      <trkpt lat="46.36576" lon="-0.86252">
        <ele>13</ele>
        <time>2022-05-14T09:55:12Z</time>
      </trkpt>
      <trkpt lat="46.36602" lon="-0.86284">
        <ele>13</ele>
        <time>2022-05-14T09:55:18Z</time>
      </trkpt>
      <trkpt lat="46.36635" lon="-0.86333">
        <ele>12</ele>
        <time>2022-05-14T09:55:27Z</time>
      </trkpt>
      <trkpt lat="46.3665" lon="-0.86358">
        <ele>13</ele>
        <time>2022-05-14T09:55:31Z</time>
      </trkpt>
      <trkpt lat="46.36673" lon="-0.86405">
        <ele>14</ele>
        <time>2022-05-14T09:55:38Z</time>
      </trkpt>
      <trkpt lat="46.36753" lon="-0.86651">
        <ele>17</ele>
        <time>2022-05-14T09:56:11Z</time>
      </trkpt>
      <trkpt lat="46.36842" lon="-0.86933">
        <ele>21</ele>
        <time>2022-05-14T09:56:49Z</time>
      </trkpt>
      <trkpt lat="46.36855" lon="-0.86973">
        <ele>22</ele>
        <time>2022-05-14T09:56:55Z</time>
      </trkpt>
      <trkpt lat="46.36875" lon="-0.87023">
        <ele>22</ele>
        <time>2022-05-14T09:57:02Z</time>
      </trkpt>
      <trkpt lat="46.36892" lon="-0.8707">
        <ele>21</ele>
        <time>2022-05-14T09:57:08Z</time>
      </trkpt>
      <trkpt lat="46.36914" lon="-0.87149">
        <ele>20</ele>
        <time>2022-05-14T09:57:19Z</time>
      </trkpt>
      <trkpt lat="46.36926" lon="-0.87171">
        <ele>20</ele>
        <time>2022-05-14T09:57:22Z</time>
      </trkpt>
      <trkpt lat="46.36945" lon="-0.87201">
        <ele>21</ele>
        <time>2022-05-14T09:57:27Z</time>
      </trkpt>
      <trkpt lat="46.36956" lon="-0.87214">
        <ele>21</ele>
        <time>2022-05-14T09:57:30Z</time>
      </trkpt>
      <trkpt lat="46.36987" lon="-0.87236">
        <ele>22</ele>
        <time>2022-05-14T09:57:36Z</time>
      </trkpt>
      <trkpt lat="46.37013" lon="-0.87252">
        <ele>23</ele>
        <time>2022-05-14T09:57:41Z</time>
      </trkpt>
      <trkpt lat="46.37022" lon="-0.87254">
        <ele>23</ele>
        <time>2022-05-14T09:57:43Z</time>
      </trkpt>
      <trkpt lat="46.3703" lon="-0.87249">
        <ele>23</ele>
        <time>2022-05-14T09:57:44Z</time>
      </trkpt>
      <trkpt lat="46.37036" lon="-0.87249">
        <ele>24</ele>
        <time>2022-05-14T09:57:45Z</time>
      </trkpt>
      <trkpt lat="46.37048" lon="-0.87255">
        <ele>24</ele>
        <time>2022-05-14T09:57:47Z</time>
      </trkpt>
      <trkpt lat="46.37057" lon="-0.87275">
        <ele>25</ele>
        <time>2022-05-14T09:57:50Z</time>
      </trkpt>
      <trkpt lat="46.37058" lon="-0.87284">
        <ele>26</ele>
        <time>2022-05-14T09:57:51Z</time>
      </trkpt>
      <trkpt lat="46.37056" lon="-0.87299">
        <ele>26</ele>
        <time>2022-05-14T09:57:53Z</time>
      </trkpt>
      <trkpt lat="46.37059" lon="-0.87314">
        <ele>26</ele>
        <time>2022-05-14T09:57:55Z</time>
      </trkpt>
      <trkpt lat="46.37067" lon="-0.87324">
        <ele>27</ele>
        <time>2022-05-14T09:57:57Z</time>
      </trkpt>
      <trkpt lat="46.37075" lon="-0.87326">
        <ele>27</ele>
        <time>2022-05-14T09:57:59Z</time>
      </trkpt>
      <trkpt lat="46.37099" lon="-0.87326">
        <ele>28</ele>
        <time>2022-05-14T09:58:03Z</time>
      </trkpt>
      <trkpt lat="46.3711" lon="-0.8733">
        <ele>29</ele>
        <time>2022-05-14T09:58:05Z</time>
      </trkpt>
      <trkpt lat="46.37246" lon="-0.87421">
        <ele>30</ele>
        <time>2022-05-14T09:58:32Z</time>
      </trkpt>
      <trkpt lat="46.37294" lon="-0.87449">
        <ele>30</ele>
        <time>2022-05-14T09:58:41Z</time>
      </trkpt>
      <trkpt lat="46.37313" lon="-0.87465">
        <ele>30</ele>
        <time>2022-05-14T09:58:45Z</time>
      </trkpt>
      <trkpt lat="46.37327" lon="-0.87479">
        <ele>30</ele>
        <time>2022-05-14T09:58:48Z</time>
      </trkpt>
      <trkpt lat="46.37354" lon="-0.87519">
        <ele>30</ele>
        <time>2022-05-14T09:58:55Z</time>
      </trkpt>
      <trkpt lat="46.37367" lon="-0.87543">
        <ele>30</ele>
        <time>2022-05-14T09:58:58Z</time>
      </trkpt>
      <trkpt lat="46.3749" lon="-0.87789">
        <ele>32</ele>
        <time>2022-05-14T09:59:36Z</time>
      </trkpt>
      <trkpt lat="46.37547" lon="-0.87875">
        <ele>31</ele>
        <time>2022-05-14T09:59:50Z</time>
      </trkpt>
      <trkpt lat="46.3756" lon="-0.87899">
        <ele>31</ele>
        <time>2022-05-14T09:59:54Z</time>
      </trkpt>
      <trkpt lat="46.37574" lon="-0.8793">
        <ele>31</ele>
        <time>2022-05-14T09:59:58Z</time>
      </trkpt>
      <trkpt lat="46.37584" lon="-0.87959">
        <ele>30</ele>
        <time>2022-05-14T10:00:02Z</time>
      </trkpt>
      <trkpt lat="46.3759" lon="-0.8798">
        <ele>30</ele>
        <time>2022-05-14T10:00:05Z</time>
      </trkpt>
      <trkpt lat="46.37592" lon="-0.87997">
        <ele>30</ele>
        <time>2022-05-14T10:00:07Z</time>
      </trkpt>
      <trkpt lat="46.3759" lon="-0.88038">
        <ele>27</ele>
        <time>2022-05-14T10:00:12Z</time>
      </trkpt>
      <trkpt lat="46.37587" lon="-0.88054">
        <ele>27</ele>
        <time>2022-05-14T10:00:14Z</time>
      </trkpt>
      <trkpt lat="46.37579" lon="-0.8808">
        <ele>26</ele>
        <time>2022-05-14T10:00:18Z</time>
      </trkpt>
      <trkpt lat="46.37568" lon="-0.8811">
        <ele>24</ele>
        <time>2022-05-14T10:00:22Z</time>
      </trkpt>
      <trkpt lat="46.37542" lon="-0.88166">
        <ele>22</ele>
        <time>2022-05-14T10:00:30Z</time>
      </trkpt>
      <trkpt lat="46.37526" lon="-0.88196">
        <ele>20</ele>
        <time>2022-05-14T10:00:35Z</time>
      </trkpt>
      <trkpt lat="46.3751" lon="-0.88218">
        <ele>20</ele>
        <time>2022-05-14T10:00:39Z</time>
      </trkpt>
      <trkpt lat="46.37494" lon="-0.88236">
        <ele>19</ele>
        <time>2022-05-14T10:00:43Z</time>
      </trkpt>
      <trkpt lat="46.37452" lon="-0.88274">
        <ele>17</ele>
        <time>2022-05-14T10:00:51Z</time>
      </trkpt>
      <trkpt lat="46.37404" lon="-0.88313">
        <ele>15</ele>
        <time>2022-05-14T10:01:01Z</time>
      </trkpt>
      <trkpt lat="46.37328" lon="-0.8837">
        <ele>10</ele>
        <time>2022-05-14T10:01:16Z</time>
      </trkpt>
      <trkpt lat="46.37315" lon="-0.88382">
        <ele>9</ele>
        <time>2022-05-14T10:01:19Z</time>
      </trkpt>
      <trkpt lat="46.37304" lon="-0.88394">
        <ele>8</ele>
        <time>2022-05-14T10:01:22Z</time>
      </trkpt>
      <trkpt lat="46.37291" lon="-0.88412">
        <ele>7</ele>
        <time>2022-05-14T10:01:25Z</time>
      </trkpt>
      <trkpt lat="46.37272" lon="-0.88449">
        <ele>5</ele>
        <time>2022-05-14T10:01:30Z</time>
      </trkpt>
      <trkpt lat="46.37259" lon="-0.88487">
        <ele>4</ele>
        <time>2022-05-14T10:01:36Z</time>
      </trkpt>
      <trkpt lat="46.37254" lon="-0.8852">
        <ele>3</ele>
        <time>2022-05-14T10:01:40Z</time>
      </trkpt>
      <trkpt lat="46.37249" lon="-0.88566">
        <ele>2</ele>
        <time>2022-05-14T10:01:46Z</time>
      </trkpt>
      <trkpt lat="46.37232" lon="-0.88811">
        <ele>2</ele>
        <time>2022-05-14T10:02:16Z</time>
      </trkpt>
      <trkpt lat="46.37231" lon="-0.88822">
        <ele>2</ele>
        <time>2022-05-14T10:02:17Z</time>
      </trkpt>
      <trkpt lat="46.3716" lon="-0.89834">
        <ele>5</ele>
        <time>2022-05-14T10:04:22Z</time>
      </trkpt>
      <trkpt lat="46.37096" lon="-0.90714">
        <ele>32</ele>
        <time>2022-05-14T10:06:11Z</time>
      </trkpt>
      <trkpt lat="46.37082" lon="-0.90934">
        <ele>36</ele>
        <time>2022-05-14T10:06:38Z</time>
      </trkpt>
      <trkpt lat="46.3708" lon="-0.90997">
        <ele>36</ele>
        <time>2022-05-14T10:06:46Z</time>
      </trkpt>
      <trkpt lat="46.37085" lon="-0.91036">
        <ele>36</ele>
        <time>2022-05-14T10:06:50Z</time>
      </trkpt>
      <trkpt lat="46.3709" lon="-0.91056">
        <ele>36</ele>
        <time>2022-05-14T10:06:53Z</time>
      </trkpt>
      <trkpt lat="46.37142" lon="-0.91221">
        <ele>36</ele>
        <time>2022-05-14T10:07:15Z</time>
      </trkpt>
      <trkpt lat="46.37148" lon="-0.91245">
        <ele>36</ele>
        <time>2022-05-14T10:07:18Z</time>
      </trkpt>
      <trkpt lat="46.37152" lon="-0.91278">
        <ele>36</ele>
        <time>2022-05-14T10:07:23Z</time>
      </trkpt>
      <trkpt lat="46.37166" lon="-0.9143">
        <ele>34</ele>
        <time>2022-05-14T10:07:41Z</time>
      </trkpt>
      <trkpt lat="46.37172" lon="-0.9153">
        <ele>34</ele>
        <time>2022-05-14T10:07:54Z</time>
      </trkpt>
      <trkpt lat="46.37177" lon="-0.91571">
        <ele>33</ele>
        <time>2022-05-14T10:07:59Z</time>
      </trkpt>
      <trkpt lat="46.37194" lon="-0.91648">
        <ele>30</ele>
        <time>2022-05-14T10:08:09Z</time>
      </trkpt>
      <trkpt lat="46.37232" lon="-0.91791">
        <ele>22</ele>
        <time>2022-05-14T10:08:28Z</time>
      </trkpt>
      <trkpt lat="46.37259" lon="-0.91886">
        <ele>15</ele>
        <time>2022-05-14T10:08:40Z</time>
      </trkpt>
      <trkpt lat="46.37272" lon="-0.92008">
        <ele>12</ele>
        <time>2022-05-14T10:08:55Z</time>
      </trkpt>
      <trkpt lat="46.37276" lon="-0.92064">
        <ele>10</ele>
        <time>2022-05-14T10:09:02Z</time>
      </trkpt>
      <trkpt lat="46.37279" lon="-0.9219">
        <ele>9</ele>
        <time>2022-05-14T10:09:18Z</time>
      </trkpt>
      <trkpt lat="46.37281" lon="-0.92219">
        <ele>9</ele>
        <time>2022-05-14T10:09:21Z</time>
      </trkpt>
      <trkpt lat="46.37308" lon="-0.92301">
        <ele>7</ele>
        <time>2022-05-14T10:09:32Z</time>
      </trkpt>
      <trkpt lat="46.37313" lon="-0.9233">
        <ele>7</ele>
        <time>2022-05-14T10:09:36Z</time>
      </trkpt>
      <trkpt lat="46.37316" lon="-0.92333">
        <ele>6</ele>
        <time>2022-05-14T10:09:37Z</time>
      </trkpt>
      <trkpt lat="46.37334" lon="-0.92337">
        <ele>6</ele>
        <time>2022-05-14T10:09:40Z</time>
      </trkpt>
      <trkpt lat="46.3736" lon="-0.92353">
        <ele>6</ele>
        <time>2022-05-14T10:09:45Z</time>
      </trkpt>
      <trkpt lat="46.37401" lon="-0.92392">
        <ele>5</ele>
        <time>2022-05-14T10:09:54Z</time>
      </trkpt>
      <trkpt lat="46.37422" lon="-0.92418">
        <ele>5</ele>
        <time>2022-05-14T10:09:59Z</time>
      </trkpt>
      <trkpt lat="46.37434" lon="-0.92433">
        <ele>4</ele>
        <time>2022-05-14T10:10:01Z</time>
      </trkpt>
      <trkpt lat="46.37451" lon="-0.92461">
        <ele>4</ele>
        <time>2022-05-14T10:10:06Z</time>
      </trkpt>
      <trkpt lat="46.37496" lon="-0.92593">
        <ele>4</ele>
        <time>2022-05-14T10:10:24Z</time>
      </trkpt>
      <trkpt lat="46.37501" lon="-0.92608">
        <ele>4</ele>
        <time>2022-05-14T10:10:26Z</time>
      </trkpt>
      <trkpt lat="46.37521" lon="-0.92662">
        <ele>4</ele>
        <time>2022-05-14T10:10:34Z</time>
      </trkpt>
      <trkpt lat="46.37578" lon="-0.92645">
        <ele>6</ele>
        <time>2022-05-14T10:10:44Z</time>
      </trkpt>
      <trkpt lat="46.37601" lon="-0.92641">
        <ele>6</ele>
        <time>2022-05-14T10:10:48Z</time>
      </trkpt>
      <trkpt lat="46.3763" lon="-0.92648">
        <ele>5</ele>
        <time>2022-05-14T10:10:53Z</time>
      </trkpt>
      <trkpt lat="46.37694" lon="-0.92641">
        <ele>5</ele>
        <time>2022-05-14T10:11:05Z</time>
      </trkpt>
      <trkpt lat="46.37749" lon="-0.92658">
        <ele>7</ele>
        <time>2022-05-14T10:11:15Z</time>
      </trkpt>
      <trkpt lat="46.37765" lon="-0.92667">
        <ele>7</ele>
        <time>2022-05-14T10:11:18Z</time>
      </trkpt>
      <trkpt lat="46.37776" lon="-0.92677">
        <ele>6</ele>
        <time>2022-05-14T10:11:20Z</time>
      </trkpt>
      <trkpt lat="46.37804" lon="-0.92705">
        <ele>6</ele>
        <time>2022-05-14T10:11:26Z</time>
      </trkpt>
      <trkpt lat="46.37842" lon="-0.9275">
        <ele>6</ele>
        <time>2022-05-14T10:11:35Z</time>
      </trkpt>
      <trkpt lat="46.37864" lon="-0.92781">
        <ele>6</ele>
        <time>2022-05-14T10:11:40Z</time>
      </trkpt>
      <trkpt lat="46.37879" lon="-0.92816">
        <ele>6</ele>
        <time>2022-05-14T10:11:45Z</time>
      </trkpt>
      <trkpt lat="46.37912" lon="-0.92905">
        <ele>7</ele>
        <time>2022-05-14T10:11:58Z</time>
      </trkpt>
      <trkpt lat="46.38012" lon="-0.93142">
        <ele>4</ele>
        <time>2022-05-14T10:12:32Z</time>
      </trkpt>
      <trkpt lat="46.38038" lon="-0.93234">
        <ele>6</ele>
        <time>2022-05-14T10:12:44Z</time>
      </trkpt>
      <trkpt lat="46.38117" lon="-0.93433">
        <ele>6</ele>
        <time>2022-05-14T10:13:12Z</time>
      </trkpt>
      <trkpt lat="46.38191" lon="-0.93614">
        <ele>5</ele>
        <time>2022-05-14T10:13:38Z</time>
      </trkpt>
      <trkpt lat="46.38268" lon="-0.93795">
        <ele>6</ele>
        <time>2022-05-14T10:14:04Z</time>
      </trkpt>
      <trkpt lat="46.3832" lon="-0.9393">
        <ele>7</ele>
        <time>2022-05-14T10:14:23Z</time>
      </trkpt>
      <trkpt lat="46.3834" lon="-0.9399">
        <ele>6</ele>
        <time>2022-05-14T10:14:31Z</time>
      </trkpt>
      <trkpt lat="46.3838" lon="-0.94127">
        <ele>6</ele>
        <time>2022-05-14T10:14:50Z</time>
      </trkpt>
      <trkpt lat="46.38409" lon="-0.94249">
        <ele>8</ele>
        <time>2022-05-14T10:15:06Z</time>
      </trkpt>
      <trkpt lat="46.38437" lon="-0.94422">
        <ele>3</ele>
        <time>2022-05-14T10:15:27Z</time>
      </trkpt>
      <trkpt lat="46.38456" lon="-0.94584">
        <ele>4</ele>
        <time>2022-05-14T10:15:48Z</time>
      </trkpt>
      <trkpt lat="46.38463" lon="-0.94633">
        <ele>4</ele>
        <time>2022-05-14T10:15:54Z</time>
      </trkpt>
      <trkpt lat="46.38524" lon="-0.94902">
        <ele>3</ele>
        <time>2022-05-14T10:16:28Z</time>
      </trkpt>
      <trkpt lat="46.38609" lon="-0.95338">
        <ele>5</ele>
        <time>2022-05-14T10:17:24Z</time>
      </trkpt>
      <trkpt lat="46.38617" lon="-0.95406">
        <ele>5</ele>
        <time>2022-05-14T10:17:32Z</time>
      </trkpt>
      <trkpt lat="46.3862" lon="-0.95504">
        <ele>5</ele>
        <time>2022-05-14T10:17:45Z</time>
      </trkpt>
      <trkpt lat="46.38622" lon="-0.95538">
        <ele>5</ele>
        <time>2022-05-14T10:17:49Z</time>
      </trkpt>
      <trkpt lat="46.38632" lon="-0.95542">
        <ele>6</ele>
        <time>2022-05-14T10:17:51Z</time>
      </trkpt>
      <trkpt lat="46.38636" lon="-0.95547">
        <ele>6</ele>
        <time>2022-05-14T10:17:51Z</time>
      </trkpt>
      <trkpt lat="46.38641" lon="-0.95561">
        <ele>6</ele>
        <time>2022-05-14T10:17:53Z</time>
      </trkpt>
      <trkpt lat="46.38639" lon="-0.95577">
        <ele>6</ele>
        <time>2022-05-14T10:17:55Z</time>
      </trkpt>
      <trkpt lat="46.38651" lon="-0.95588">
        <ele>6</ele>
        <time>2022-05-14T10:17:58Z</time>
      </trkpt>
      <trkpt lat="46.38657" lon="-0.95597">
        <ele>6</ele>
        <time>2022-05-14T10:17:59Z</time>
      </trkpt>
      <trkpt lat="46.38663" lon="-0.95613">
        <ele>6</ele>
        <time>2022-05-14T10:18:02Z</time>
      </trkpt>
      <trkpt lat="46.38748" lon="-0.96044">
        <ele>10</ele>
        <time>2022-05-14T10:18:57Z</time>
      </trkpt>
      <trkpt lat="46.38761" lon="-0.96121">
        <ele>11</ele>
        <time>2022-05-14T10:19:06Z</time>
      </trkpt>
      <trkpt lat="46.38776" lon="-0.96175">
        <ele>11</ele>
        <time>2022-05-14T10:19:14Z</time>
      </trkpt>
      <trkpt lat="46.38797" lon="-0.96277">
        <ele>10</ele>
        <time>2022-05-14T10:19:27Z</time>
      </trkpt>
      <trkpt lat="46.38825" lon="-0.96364">
        <ele>10</ele>
        <time>2022-05-14T10:19:38Z</time>
      </trkpt>
      <trkpt lat="46.38837" lon="-0.96382">
        <ele>9</ele>
        <time>2022-05-14T10:19:42Z</time>
      </trkpt>
      <trkpt lat="46.38858" lon="-0.96404">
        <ele>9</ele>
        <time>2022-05-14T10:19:46Z</time>
      </trkpt>
      <trkpt lat="46.38863" lon="-0.96414">
        <ele>8</ele>
        <time>2022-05-14T10:19:48Z</time>
      </trkpt>
      <trkpt lat="46.38881" lon="-0.96481">
        <ele>8</ele>
        <time>2022-05-14T10:19:56Z</time>
      </trkpt>
      <trkpt lat="46.38891" lon="-0.96504">
        <ele>9</ele>
        <time>2022-05-14T10:20:00Z</time>
      </trkpt>
      <trkpt lat="46.38911" lon="-0.96544">
        <ele>8</ele>
        <time>2022-05-14T10:20:06Z</time>
      </trkpt>
      <trkpt lat="46.38945" lon="-0.966">
        <ele>7</ele>
        <time>2022-05-14T10:20:15Z</time>
      </trkpt>
      <trkpt lat="46.38999" lon="-0.96684">
        <ele>6</ele>
        <time>2022-05-14T10:20:29Z</time>
      </trkpt>
      <trkpt lat="46.39006" lon="-0.96703">
        <ele>6</ele>
        <time>2022-05-14T10:20:32Z</time>
      </trkpt>
      <trkpt lat="46.39011" lon="-0.96731">
        <ele>6</ele>
        <time>2022-05-14T10:20:35Z</time>
      </trkpt>
      <trkpt lat="46.39014" lon="-0.96763">
        <ele>6</ele>
        <time>2022-05-14T10:20:39Z</time>
      </trkpt>
      <trkpt lat="46.39017" lon="-0.96878">
        <ele>5</ele>
        <time>2022-05-14T10:20:53Z</time>
      </trkpt>
      <trkpt lat="46.39017" lon="-0.96933">
        <ele>4</ele>
        <time>2022-05-14T10:21:00Z</time>
      </trkpt>
      <trkpt lat="46.3901" lon="-0.97077">
        <ele>4</ele>
        <time>2022-05-14T10:21:18Z</time>
      </trkpt>
      <trkpt lat="46.39001" lon="-0.97178">
        <ele>4</ele>
        <time>2022-05-14T10:21:30Z</time>
      </trkpt>
      <trkpt lat="46.38982" lon="-0.97327">
        <ele>3</ele>
        <time>2022-05-14T10:21:49Z</time>
      </trkpt>
      <trkpt lat="46.38977" lon="-0.9736">
        <ele>3</ele>
        <time>2022-05-14T10:21:53Z</time>
      </trkpt>
      <trkpt lat="46.38962" lon="-0.97481">
        <ele>1</ele>
        <time>2022-05-14T10:22:08Z</time>
      </trkpt>
      <trkpt lat="46.38956" lon="-0.97507">
        <ele>1</ele>
        <time>2022-05-14T10:22:12Z</time>
      </trkpt>
      <trkpt lat="46.38948" lon="-0.97532">
        <ele>1</ele>
        <time>2022-05-14T10:22:15Z</time>
      </trkpt>
      <trkpt lat="46.38937" lon="-0.97557">
        <ele>2</ele>
        <time>2022-05-14T10:22:19Z</time>
      </trkpt>
      <trkpt lat="46.38888" lon="-0.97655">
        <ele>2</ele>
        <time>2022-05-14T10:22:33Z</time>
      </trkpt>
      <trkpt lat="46.38839" lon="-0.97739">
        <ele>2</ele>
        <time>2022-05-14T10:22:47Z</time>
      </trkpt>
      <trkpt lat="46.38827" lon="-0.97764">
        <ele>2</ele>
        <time>2022-05-14T10:22:51Z</time>
      </trkpt>
      <trkpt lat="46.3882" lon="-0.97792">
        <ele>1</ele>
        <time>2022-05-14T10:22:54Z</time>
      </trkpt>
      <trkpt lat="46.38796" lon="-0.97957">
        <ele>2</ele>
        <time>2022-05-14T10:23:15Z</time>
      </trkpt>
      <trkpt lat="46.38763" lon="-0.98218">
        <ele>4</ele>
        <time>2022-05-14T10:23:48Z</time>
      </trkpt>
      <trkpt lat="46.3876" lon="-0.98241">
        <ele>4</ele>
        <time>2022-05-14T10:23:50Z</time>
      </trkpt>
      <trkpt lat="46.38729" lon="-0.98505">
        <ele>2</ele>
        <time>2022-05-14T10:24:23Z</time>
      </trkpt>
      <trkpt lat="46.38703" lon="-0.98834">
        <ele>4</ele>
        <time>2022-05-14T10:25:04Z</time>
      </trkpt>
      <trkpt lat="46.38687" lon="-0.99056">
        <ele>3</ele>
        <time>2022-05-14T10:25:31Z</time>
      </trkpt>
      <trkpt lat="46.38674" lon="-0.99185">
        <ele>3</ele>
        <time>2022-05-14T10:25:47Z</time>
      </trkpt>
      <trkpt lat="46.38665" lon="-0.99244">
        <ele>3</ele>
        <time>2022-05-14T10:25:55Z</time>
      </trkpt>
      <trkpt lat="46.38534" lon="-0.99878">
        <ele>4</ele>
        <time>2022-05-14T10:27:16Z</time>
      </trkpt>
      <trkpt lat="46.38529" lon="-0.99914">
        <ele>4</ele>
        <time>2022-05-14T10:27:21Z</time>
      </trkpt>
      <trkpt lat="46.38527" lon="-0.99946">
        <ele>4</ele>
        <time>2022-05-14T10:27:24Z</time>
      </trkpt>
      <trkpt lat="46.38528" lon="-1.00008">
        <ele>5</ele>
        <time>2022-05-14T10:27:32Z</time>
      </trkpt>
      <trkpt lat="46.38534" lon="-1.00067">
        <ele>4</ele>
        <time>2022-05-14T10:27:39Z</time>
      </trkpt>
      <trkpt lat="46.38541" lon="-1.001">
        <ele>4</ele>
        <time>2022-05-14T10:27:44Z</time>
      </trkpt>
      <trkpt lat="46.38607" lon="-1.00324">
        <ele>5</ele>
        <time>2022-05-14T10:28:14Z</time>
      </trkpt>
      <trkpt lat="46.38615" lon="-1.00366">
        <ele>4</ele>
        <time>2022-05-14T10:28:19Z</time>
      </trkpt>
      <trkpt lat="46.38622" lon="-1.00412">
        <ele>4</ele>
        <time>2022-05-14T10:28:25Z</time>
      </trkpt>
      <trkpt lat="46.38637" lon="-1.00533">
        <ele>7</ele>
        <time>2022-05-14T10:28:40Z</time>
      </trkpt>
      <trkpt lat="46.38644" lon="-1.0065">
        <ele>7</ele>
        <time>2022-05-14T10:28:54Z</time>
      </trkpt>
      <trkpt lat="46.38649" lon="-1.00699">
        <ele>6</ele>
        <time>2022-05-14T10:29:00Z</time>
      </trkpt>
      <trkpt lat="46.38684" lon="-1.00879">
        <ele>4</ele>
        <time>2022-05-14T10:29:23Z</time>
      </trkpt>
      <trkpt lat="46.38693" lon="-1.00913">
        <ele>4</ele>
        <time>2022-05-14T10:29:28Z</time>
      </trkpt>
      <trkpt lat="46.38703" lon="-1.00942">
        <ele>3</ele>
        <time>2022-05-14T10:29:32Z</time>
      </trkpt>
      <trkpt lat="46.38821" lon="-1.01179">
        <ele>7</ele>
        <time>2022-05-14T10:30:08Z</time>
      </trkpt>
      <trkpt lat="46.38855" lon="-1.01255">
        <ele>7</ele>
        <time>2022-05-14T10:30:19Z</time>
      </trkpt>
      <trkpt lat="46.38947" lon="-1.01486">
        <ele>7</ele>
        <time>2022-05-14T10:30:51Z</time>
      </trkpt>
      <trkpt lat="46.38976" lon="-1.01568">
        <ele>7</ele>
        <time>2022-05-14T10:31:03Z</time>
      </trkpt>
      <trkpt lat="46.39015" lon="-1.01691">
        <ele>6</ele>
        <time>2022-05-14T10:31:19Z</time>
      </trkpt>
      <trkpt lat="46.39026" lon="-1.01717">
        <ele>6</ele>
        <time>2022-05-14T10:31:23Z</time>
      </trkpt>
      <trkpt lat="46.39037" lon="-1.01737">
        <ele>6</ele>
        <time>2022-05-14T10:31:26Z</time>
      </trkpt>
      <trkpt lat="46.39055" lon="-1.01764">
        <ele>7</ele>
        <time>2022-05-14T10:31:31Z</time>
      </trkpt>
      <trkpt lat="46.39071" lon="-1.01784">
        <ele>7</ele>
        <time>2022-05-14T10:31:35Z</time>
      </trkpt>
      <trkpt lat="46.39087" lon="-1.018">
        <ele>7</ele>
        <time>2022-05-14T10:31:38Z</time>
      </trkpt>
      <trkpt lat="46.39252" lon="-1.01913">
        <ele>9</ele>
        <time>2022-05-14T10:32:10Z</time>
      </trkpt>
      <trkpt lat="46.39286" lon="-1.01911">
        <ele>10</ele>
        <time>2022-05-14T10:32:17Z</time>
      </trkpt>
      <trkpt lat="46.3931" lon="-1.01916">
        <ele>10</ele>
        <time>2022-05-14T10:32:21Z</time>
      </trkpt>
      <trkpt lat="46.39352" lon="-1.01936">
        <ele>12</ele>
        <time>2022-05-14T10:32:29Z</time>
      </trkpt>
      <trkpt lat="46.39383" lon="-1.01955">
        <ele>13</ele>
        <time>2022-05-14T10:32:35Z</time>
      </trkpt>
      <trkpt lat="46.39435" lon="-1.02">
        <ele>14</ele>
        <time>2022-05-14T10:32:45Z</time>
      </trkpt>
      <trkpt lat="46.39477" lon="-1.02047">
        <ele>14</ele>
        <time>2022-05-14T10:32:55Z</time>
      </trkpt>
      <trkpt lat="46.39523" lon="-1.02108">
        <ele>15</ele>
        <time>2022-05-14T10:33:06Z</time>
      </trkpt>
      <trkpt lat="46.39559" lon="-1.0214">
        <ele>15</ele>
        <time>2022-05-14T10:33:14Z</time>
      </trkpt>
      <trkpt lat="46.39638" lon="-1.02196">
        <ele>14</ele>
        <time>2022-05-14T10:33:29Z</time>
      </trkpt>
      <trkpt lat="46.39754" lon="-1.02308">
        <ele>11</ele>
        <time>2022-05-14T10:33:54Z</time>
      </trkpt>
      <trkpt lat="46.39864" lon="-1.02437">
        <ele>10</ele>
        <time>2022-05-14T10:34:19Z</time>
      </trkpt>
      <trkpt lat="46.39904" lon="-1.0247">
        <ele>9</ele>
        <time>2022-05-14T10:34:27Z</time>
      </trkpt>
      <trkpt lat="46.39915" lon="-1.02491">
        <ele>10</ele>
        <time>2022-05-14T10:34:31Z</time>
      </trkpt>
      <trkpt lat="46.39954" lon="-1.02535">
        <ele>10</ele>
        <time>2022-05-14T10:34:39Z</time>
      </trkpt>
      <trkpt lat="46.40036" lon="-1.02667">
        <ele>13</ele>
        <time>2022-05-14T10:35:01Z</time>
      </trkpt>
      <trkpt lat="46.40097" lon="-1.02795">
        <ele>12</ele>
        <time>2022-05-14T10:35:20Z</time>
      </trkpt>
      <trkpt lat="46.40121" lon="-1.02855">
        <ele>13</ele>
        <time>2022-05-14T10:35:29Z</time>
      </trkpt>
      <trkpt lat="46.4015" lon="-1.02956">
        <ele>12</ele>
        <time>2022-05-14T10:35:42Z</time>
      </trkpt>
      <trkpt lat="46.40155" lon="-1.02988">
        <ele>12</ele>
        <time>2022-05-14T10:35:46Z</time>
      </trkpt>
      <trkpt lat="46.40155" lon="-1.03006">
        <ele>12</ele>
        <time>2022-05-14T10:35:48Z</time>
      </trkpt>
      <trkpt lat="46.40153" lon="-1.03044">
        <ele>11</ele>
        <time>2022-05-14T10:35:53Z</time>
      </trkpt>
      <trkpt lat="46.4015" lon="-1.0306">
        <ele>11</ele>
        <time>2022-05-14T10:35:55Z</time>
      </trkpt>
      <trkpt lat="46.40138" lon="-1.03103">
        <ele>9</ele>
        <time>2022-05-14T10:36:01Z</time>
      </trkpt>
      <trkpt lat="46.40081" lon="-1.03242">
        <ele>6</ele>
        <time>2022-05-14T10:36:21Z</time>
      </trkpt>
      <trkpt lat="46.40156" lon="-1.03313">
        <ele>5</ele>
        <time>2022-05-14T10:36:37Z</time>
      </trkpt>
      <trkpt lat="46.40307" lon="-1.03447">
        <ele>6</ele>
        <time>2022-05-14T10:37:08Z</time>
      </trkpt>
      <trkpt lat="46.40373" lon="-1.03505">
        <ele>7</ele>
        <time>2022-05-14T10:37:22Z</time>
      </trkpt>
      <trkpt lat="46.40433" lon="-1.03552">
        <ele>6</ele>
        <time>2022-05-14T10:37:34Z</time>
      </trkpt>
      <trkpt lat="46.40461" lon="-1.03566">
        <ele>6</ele>
        <time>2022-05-14T10:37:39Z</time>
      </trkpt>
      <trkpt lat="46.40489" lon="-1.03578">
        <ele>5</ele>
        <time>2022-05-14T10:37:44Z</time>
      </trkpt>
      <trkpt lat="46.40524" lon="-1.03589">
        <ele>5</ele>
        <time>2022-05-14T10:37:51Z</time>
      </trkpt>
      <trkpt lat="46.40557" lon="-1.03595">
        <ele>5</ele>
        <time>2022-05-14T10:37:57Z</time>
      </trkpt>
      <trkpt lat="46.40689" lon="-1.03594">
        <ele>2</ele>
        <time>2022-05-14T10:38:20Z</time>
      </trkpt>
      <trkpt lat="46.40719" lon="-1.03602">
        <ele>1</ele>
        <time>2022-05-14T10:38:26Z</time>
      </trkpt>
      <trkpt lat="46.40766" lon="-1.03625">
        <ele>2</ele>
        <time>2022-05-14T10:38:34Z</time>
      </trkpt>
      <trkpt lat="46.40824" lon="-1.03662">
        <ele>1</ele>
        <time>2022-05-14T10:38:46Z</time>
      </trkpt>
      <trkpt lat="46.4085" lon="-1.03673">
        <ele>1</ele>
        <time>2022-05-14T10:38:51Z</time>
      </trkpt>
      <trkpt lat="46.40863" lon="-1.03676">
        <ele>1</ele>
        <time>2022-05-14T10:38:53Z</time>
      </trkpt>
      <trkpt lat="46.40873" lon="-1.03673">
        <ele>1</ele>
        <time>2022-05-14T10:38:55Z</time>
      </trkpt>
      <trkpt lat="46.40902" lon="-1.03649">
        <ele>1</ele>
        <time>2022-05-14T10:39:01Z</time>
      </trkpt>
      <trkpt lat="46.40918" lon="-1.03641">
        <ele>1</ele>
        <time>2022-05-14T10:39:04Z</time>
      </trkpt>
      <trkpt lat="46.40926" lon="-1.03639">
        <ele>1</ele>
        <time>2022-05-14T10:39:05Z</time>
      </trkpt>
      <trkpt lat="46.40943" lon="-1.0364">
        <ele>1</ele>
        <time>2022-05-14T10:39:08Z</time>
      </trkpt>
      <trkpt lat="46.40956" lon="-1.03647">
        <ele>1</ele>
        <time>2022-05-14T10:39:11Z</time>
      </trkpt>
      <trkpt lat="46.40996" lon="-1.03677">
        <ele>2</ele>
        <time>2022-05-14T10:39:19Z</time>
      </trkpt>
      <trkpt lat="46.41013" lon="-1.03681">
        <ele>2</ele>
        <time>2022-05-14T10:39:22Z</time>
      </trkpt>
      <trkpt lat="46.41029" lon="-1.03678">
        <ele>2</ele>
        <time>2022-05-14T10:39:25Z</time>
      </trkpt>
      <trkpt lat="46.4158" lon="-1.03433">
        <ele>1</ele>
        <time>2022-05-14T10:41:07Z</time>
      </trkpt>
      <trkpt lat="46.41586" lon="-1.03431">
        <ele>1</ele>
        <time>2022-05-14T10:41:08Z</time>
      </trkpt>
      <trkpt lat="46.42278" lon="-1.03121">
        <ele>3</ele>
        <time>2022-05-14T10:43:17Z</time>
      </trkpt>
      <trkpt lat="46.42288" lon="-1.03116">
        <ele>2</ele>
        <time>2022-05-14T10:43:19Z</time>
      </trkpt>
      <trkpt lat="46.43117" lon="-1.02744">
        <ele>1</ele>
        <time>2022-05-14T10:45:53Z</time>
      </trkpt>
      <trkpt lat="46.43148" lon="-1.02726">
        <ele>2</ele>
        <time>2022-05-14T10:45:59Z</time>
      </trkpt>
      <trkpt lat="46.43165" lon="-1.02713">
        <ele>2</ele>
        <time>2022-05-14T10:46:03Z</time>
      </trkpt>
      <trkpt lat="46.43171" lon="-1.02709">
        <ele>2</ele>
        <time>2022-05-14T10:46:04Z</time>
      </trkpt>
      <trkpt lat="46.43187" lon="-1.02696">
        <ele>2</ele>
        <time>2022-05-14T10:46:07Z</time>
      </trkpt>
      <trkpt lat="46.43222" lon="-1.02681">
        <ele>2</ele>
        <time>2022-05-14T10:46:14Z</time>
      </trkpt>
      <trkpt lat="46.43236" lon="-1.02676">
        <ele>3</ele>
        <time>2022-05-14T10:46:16Z</time>
      </trkpt>
      <trkpt lat="46.43943" lon="-1.02421">
        <ele>3</ele>
        <time>2022-05-14T10:48:26Z</time>
      </trkpt>
      <trkpt lat="46.44217" lon="-1.02281">
        <ele>2</ele>
        <time>2022-05-14T10:49:17Z</time>
      </trkpt>
      <trkpt lat="46.44226" lon="-1.02278">
        <ele>2</ele>
        <time>2022-05-14T10:49:19Z</time>
      </trkpt>
      <trkpt lat="46.44258" lon="-1.02275">
        <ele>2</ele>
        <time>2022-05-14T10:49:25Z</time>
      </trkpt>
      <trkpt lat="46.44276" lon="-1.02276">
        <ele>2</ele>
        <time>2022-05-14T10:49:28Z</time>
      </trkpt>
      <trkpt lat="46.44298" lon="-1.02283">
        <ele>2</ele>
        <time>2022-05-14T10:49:32Z</time>
      </trkpt>
      <trkpt lat="46.44325" lon="-1.02299">
        <ele>3</ele>
        <time>2022-05-14T10:49:37Z</time>
      </trkpt>
      <trkpt lat="46.44356" lon="-1.02321">
        <ele>3</ele>
        <time>2022-05-14T10:49:43Z</time>
      </trkpt>
      <trkpt lat="46.44421" lon="-1.02373">
        <ele>4</ele>
        <time>2022-05-14T10:49:57Z</time>
      </trkpt>
      <trkpt lat="46.44444" lon="-1.02385">
        <ele>4</ele>
        <time>2022-05-14T10:50:01Z</time>
      </trkpt>
      <trkpt lat="46.44459" lon="-1.02388">
        <ele>4</ele>
        <time>2022-05-14T10:50:04Z</time>
      </trkpt>
      <trkpt lat="46.44472" lon="-1.02388">
        <ele>4</ele>
        <time>2022-05-14T10:50:06Z</time>
      </trkpt>
      <trkpt lat="46.44516" lon="-1.02379">
        <ele>4</ele>
        <time>2022-05-14T10:50:14Z</time>
      </trkpt>
      <trkpt lat="46.44569" lon="-1.02364">
        <ele>4</ele>
        <time>2022-05-14T10:50:23Z</time>
      </trkpt>
      <trkpt lat="46.44619" lon="-1.02355">
        <ele>4</ele>
        <time>2022-05-14T10:50:32Z</time>
      </trkpt>
      <trkpt lat="46.44785" lon="-1.02352">
        <ele>4</ele>
        <time>2022-05-14T10:51:02Z</time>
      </trkpt>
      <trkpt lat="46.44813" lon="-1.02345">
        <ele>3</ele>
        <time>2022-05-14T10:51:07Z</time>
      </trkpt>
      <trkpt lat="46.44835" lon="-1.02334">
        <ele>3</ele>
        <time>2022-05-14T10:51:11Z</time>
      </trkpt>
      <trkpt lat="46.44846" lon="-1.02325">
        <ele>3</ele>
        <time>2022-05-14T10:51:13Z</time>
      </trkpt>
      <trkpt lat="46.44865" lon="-1.02307">
        <ele>3</ele>
        <time>2022-05-14T10:51:17Z</time>
      </trkpt>
      <trkpt lat="46.4502" lon="-1.02115">
        <ele>2</ele>
        <time>2022-05-14T10:51:54Z</time>
      </trkpt>
      <trkpt lat="46.45209" lon="-1.0189">
        <ele>2</ele>
        <time>2022-05-14T10:52:37Z</time>
      </trkpt>
      <trkpt lat="46.45249" lon="-1.01833">
        <ele>3</ele>
        <time>2022-05-14T10:52:47Z</time>
      </trkpt>
      <trkpt lat="46.45262" lon="-1.01796">
        <ele>4</ele>
        <time>2022-05-14T10:52:52Z</time>
      </trkpt>
      <trkpt lat="46.45293" lon="-1.01696">
        <ele>5</ele>
        <time>2022-05-14T10:53:06Z</time>
      </trkpt>
      <trkpt lat="46.45301" lon="-1.01674">
        <ele>4</ele>
        <time>2022-05-14T10:53:09Z</time>
      </trkpt>
      <trkpt lat="46.45313" lon="-1.01649">
        <ele>4</ele>
        <time>2022-05-14T10:53:12Z</time>
      </trkpt>
      <trkpt lat="46.45421" lon="-1.01509">
        <ele>2</ele>
        <time>2022-05-14T10:53:38Z</time>
      </trkpt>
      <trkpt lat="46.45432" lon="-1.01501">
        <ele>2</ele>
        <time>2022-05-14T10:53:40Z</time>
      </trkpt>
      <trkpt lat="46.45443" lon="-1.01496">
        <ele>3</ele>
        <time>2022-05-14T10:53:42Z</time>
      </trkpt>
      <trkpt lat="46.45457" lon="-1.01493">
        <ele>3</ele>
        <time>2022-05-14T10:53:45Z</time>
      </trkpt>
      <trkpt lat="46.45505" lon="-1.01496">
        <ele>4</ele>
        <time>2022-05-14T10:53:54Z</time>
      </trkpt>
      <trkpt lat="46.4563" lon="-1.01539">
        <ele>3</ele>
        <time>2022-05-14T10:54:16Z</time>
      </trkpt>
      <trkpt lat="46.45652" lon="-1.01542">
        <ele>3</ele>
        <time>2022-05-14T10:54:20Z</time>
      </trkpt>
      <trkpt lat="46.45675" lon="-1.0154">
        <ele>3</ele>
        <time>2022-05-14T10:54:24Z</time>
      </trkpt>
      <trkpt lat="46.45708" lon="-1.01533">
        <ele>3</ele>
        <time>2022-05-14T10:54:30Z</time>
      </trkpt>
      <trkpt lat="46.45726" lon="-1.01534">
        <ele>3</ele>
        <time>2022-05-14T10:54:34Z</time>
      </trkpt>
      <trkpt lat="46.4574" lon="-1.01544">
        <ele>3</ele>
        <time>2022-05-14T10:54:36Z</time>
      </trkpt>
      <trkpt lat="46.45755" lon="-1.01562">
        <ele>4</ele>
        <time>2022-05-14T10:54:40Z</time>
      </trkpt>
      <trkpt lat="46.45826" lon="-1.01668">
        <ele>4</ele>
        <time>2022-05-14T10:54:58Z</time>
      </trkpt>
      <trkpt lat="46.45856" lon="-1.0169">
        <ele>4</ele>
        <time>2022-05-14T10:55:04Z</time>
      </trkpt>
      <trkpt lat="46.45871" lon="-1.01699">
        <ele>4</ele>
        <time>2022-05-14T10:55:07Z</time>
      </trkpt>
      <trkpt lat="46.45884" lon="-1.01701">
        <ele>4</ele>
        <time>2022-05-14T10:55:09Z</time>
      </trkpt>
      <trkpt lat="46.45919" lon="-1.01688">
        <ele>4</ele>
        <time>2022-05-14T10:55:16Z</time>
      </trkpt>
      <trkpt lat="46.45931" lon="-1.01688">
        <ele>4</ele>
        <time>2022-05-14T10:55:18Z</time>
      </trkpt>
      <trkpt lat="46.45941" lon="-1.01691">
        <ele>4</ele>
        <time>2022-05-14T10:55:20Z</time>
      </trkpt>
      <trkpt lat="46.4604" lon="-1.01743">
        <ele>3</ele>
        <time>2022-05-14T10:55:38Z</time>
      </trkpt>
      <trkpt lat="46.4606" lon="-1.01761">
        <ele>2</ele>
        <time>2022-05-14T10:55:42Z</time>
      </trkpt>
      <trkpt lat="46.46074" lon="-1.01778">
        <ele>2</ele>
        <time>2022-05-14T10:55:46Z</time>
      </trkpt>
      <trkpt lat="46.4613" lon="-1.01867">
        <ele>4</ele>
        <time>2022-05-14T10:56:00Z</time>
      </trkpt>
      <trkpt lat="46.46171" lon="-1.01945">
        <ele>5</ele>
        <time>2022-05-14T10:56:12Z</time>
      </trkpt>
      <trkpt lat="46.46186" lon="-1.01968">
        <ele>4</ele>
        <time>2022-05-14T10:56:16Z</time>
      </trkpt>
      <trkpt lat="46.4622" lon="-1.02007">
        <ele>3</ele>
        <time>2022-05-14T10:56:24Z</time>
      </trkpt>
      <trkpt lat="46.46249" lon="-1.02032">
        <ele>3</ele>
        <time>2022-05-14T10:56:30Z</time>
      </trkpt>
      <trkpt lat="46.46286" lon="-1.02056">
        <ele>4</ele>
        <time>2022-05-14T10:56:37Z</time>
      </trkpt>
      <trkpt lat="46.46406" lon="-1.02109">
        <ele>4</ele>
        <time>2022-05-14T10:57:00Z</time>
      </trkpt>
      <trkpt lat="46.46436" lon="-1.02131">
        <ele>4</ele>
        <time>2022-05-14T10:57:06Z</time>
      </trkpt>
      <trkpt lat="46.46516" lon="-1.0223">
        <ele>3</ele>
        <time>2022-05-14T10:57:24Z</time>
      </trkpt>
      <trkpt lat="46.46575" lon="-1.02298">
        <ele>3</ele>
        <time>2022-05-14T10:57:38Z</time>
      </trkpt>
      <trkpt lat="46.4659" lon="-1.0231">
        <ele>3</ele>
        <time>2022-05-14T10:57:41Z</time>
      </trkpt>
      <trkpt lat="46.46626" lon="-1.02325">
        <ele>4</ele>
        <time>2022-05-14T10:57:47Z</time>
      </trkpt>
      <trkpt lat="46.46702" lon="-1.0234">
        <ele>5</ele>
        <time>2022-05-14T10:58:01Z</time>
      </trkpt>
      <trkpt lat="46.46714" lon="-1.02346">
        <ele>5</ele>
        <time>2022-05-14T10:58:03Z</time>
      </trkpt>
      <trkpt lat="46.46721" lon="-1.02354">
        <ele>5</ele>
        <time>2022-05-14T10:58:05Z</time>
      </trkpt>
      <trkpt lat="46.46727" lon="-1.02366">
        <ele>5</ele>
        <time>2022-05-14T10:58:07Z</time>
      </trkpt>
      <trkpt lat="46.46732" lon="-1.02382">
        <ele>5</ele>
        <time>2022-05-14T10:58:09Z</time>
      </trkpt>
      <trkpt lat="46.46764" lon="-1.02547">
        <ele>5</ele>
        <time>2022-05-14T10:58:30Z</time>
      </trkpt>
      <trkpt lat="46.46799" lon="-1.02741">
        <ele>6</ele>
        <time>2022-05-14T10:58:54Z</time>
      </trkpt>
      <trkpt lat="46.46799" lon="-1.02764">
        <ele>6</ele>
        <time>2022-05-14T10:58:57Z</time>
      </trkpt>
      <trkpt lat="46.46795" lon="-1.02791">
        <ele>6</ele>
        <time>2022-05-14T10:59:01Z</time>
      </trkpt>
      <trkpt lat="46.46796" lon="-1.028">
        <ele>6</ele>
        <time>2022-05-14T10:59:02Z</time>
      </trkpt>
      <trkpt lat="46.468" lon="-1.02807">
        <ele>6</ele>
        <time>2022-05-14T10:59:03Z</time>
      </trkpt>
      <trkpt lat="46.46806" lon="-1.02809">
        <ele>6</ele>
        <time>2022-05-14T10:59:04Z</time>
      </trkpt>
      <trkpt lat="46.46839" lon="-1.02803">
        <ele>6</ele>
        <time>2022-05-14T10:59:10Z</time>
      </trkpt>
      <trkpt lat="46.47004" lon="-1.02735">
        <ele>6</ele>
        <time>2022-05-14T10:59:40Z</time>
      </trkpt>
      <trkpt lat="46.47095" lon="-1.02687">
        <ele>7</ele>
        <time>2022-05-14T10:59:58Z</time>
      </trkpt>
      <trkpt lat="46.47144" lon="-1.02653">
        <ele>8</ele>
        <time>2022-05-14T11:00:07Z</time>
      </trkpt>
      <trkpt lat="46.47173" lon="-1.02627">
        <ele>8</ele>
        <time>2022-05-14T11:00:13Z</time>
      </trkpt>
      <trkpt lat="46.47195" lon="-1.02682">
        <ele>8</ele>
        <time>2022-05-14T11:00:21Z</time>
      </trkpt>
      <trkpt lat="46.47216" lon="-1.02763">
        <ele>8</ele>
        <time>2022-05-14T11:00:32Z</time>
      </trkpt>
      <trkpt lat="46.47221" lon="-1.02792">
        <ele>8</ele>
        <time>2022-05-14T11:00:35Z</time>
      </trkpt>
      <trkpt lat="46.47226" lon="-1.02792">
        <ele>8</ele>
        <time>2022-05-14T11:00:36Z</time>
      </trkpt>
      <trkpt lat="46.47255" lon="-1.02819">
        <ele>8</ele>
        <time>2022-05-14T11:00:42Z</time>
      </trkpt>
      <trkpt lat="46.47308" lon="-1.02878">
        <ele>7</ele>
        <time>2022-05-14T11:00:54Z</time>
      </trkpt>
      <trkpt lat="46.4737" lon="-1.02951">
        <ele>5</ele>
        <time>2022-05-14T11:01:09Z</time>
      </trkpt>
      <trkpt lat="46.47471" lon="-1.03108">
        <ele>7</ele>
        <time>2022-05-14T11:01:35Z</time>
      </trkpt>
      <trkpt lat="46.47527" lon="-1.03223">
        <ele>8</ele>
        <time>2022-05-14T11:01:52Z</time>
      </trkpt>
      <trkpt lat="46.47558" lon="-1.03265">
        <ele>8</ele>
        <time>2022-05-14T11:02:00Z</time>
      </trkpt>
      <trkpt lat="46.47569" lon="-1.03277">
        <ele>8</ele>
        <time>2022-05-14T11:02:02Z</time>
      </trkpt>
      <trkpt lat="46.47594" lon="-1.03296">
        <ele>9</ele>
        <time>2022-05-14T11:02:07Z</time>
      </trkpt>
      <trkpt lat="46.47832" lon="-1.0344">
        <ele>9</ele>
        <time>2022-05-14T11:02:53Z</time>
      </trkpt>
      <trkpt lat="46.47857" lon="-1.0346">
        <ele>10</ele>
        <time>2022-05-14T11:02:58Z</time>
      </trkpt>
      <trkpt lat="46.47973" lon="-1.03565">
        <ele>11</ele>
        <time>2022-05-14T11:03:22Z</time>
      </trkpt>
      <trkpt lat="46.48099" lon="-1.03664">
        <ele>12</ele>
        <time>2022-05-14T11:03:48Z</time>
      </trkpt>
      <trkpt lat="46.48143" lon="-1.03702">
        <ele>13</ele>
        <time>2022-05-14T11:03:57Z</time>
      </trkpt>
      <trkpt lat="46.48181" lon="-1.03742">
        <ele>13</ele>
        <time>2022-05-14T11:04:05Z</time>
      </trkpt>
      <trkpt lat="46.48206" lon="-1.03775">
        <ele>13</ele>
        <time>2022-05-14T11:04:11Z</time>
      </trkpt>
      <trkpt lat="46.48226" lon="-1.03805">
        <ele>13</ele>
        <time>2022-05-14T11:04:16Z</time>
      </trkpt>
      <trkpt lat="46.48289" lon="-1.03905">
        <ele>13</ele>
        <time>2022-05-14T11:04:33Z</time>
      </trkpt>
      <trkpt lat="46.48323" lon="-1.03942">
        <ele>14</ele>
        <time>2022-05-14T11:04:41Z</time>
      </trkpt>
      <trkpt lat="46.48354" lon="-1.03969">
        <ele>14</ele>
        <time>2022-05-14T11:04:47Z</time>
      </trkpt>
      <trkpt lat="46.48391" lon="-1.03992">
        <ele>15</ele>
        <time>2022-05-14T11:04:54Z</time>
      </trkpt>
      <trkpt lat="46.48449" lon="-1.04023">
        <ele>16</ele>
        <time>2022-05-14T11:05:05Z</time>
      </trkpt>
      <trkpt lat="46.48461" lon="-1.04032">
        <ele>16</ele>
        <time>2022-05-14T11:05:08Z</time>
      </trkpt>
      <trkpt lat="46.4848" lon="-1.04056">
        <ele>15</ele>
        <time>2022-05-14T11:05:12Z</time>
      </trkpt>
      <trkpt lat="46.48488" lon="-1.04071">
        <ele>15</ele>
        <time>2022-05-14T11:05:14Z</time>
      </trkpt>
      <trkpt lat="46.48496" lon="-1.04092">
        <ele>15</ele>
        <time>2022-05-14T11:05:17Z</time>
      </trkpt>
      <trkpt lat="46.48526" lon="-1.04184">
        <ele>16</ele>
        <time>2022-05-14T11:05:30Z</time>
      </trkpt>
      <trkpt lat="46.48537" lon="-1.0421">
        <ele>16</ele>
        <time>2022-05-14T11:05:34Z</time>
      </trkpt>
      <trkpt lat="46.4857" lon="-1.04277">
        <ele>16</ele>
        <time>2022-05-14T11:05:44Z</time>
      </trkpt>
      <trkpt lat="46.48633" lon="-1.04389">
        <ele>19</ele>
        <time>2022-05-14T11:06:01Z</time>
      </trkpt>
      <trkpt lat="46.48694" lon="-1.04483">
        <ele>19</ele>
        <time>2022-05-14T11:06:17Z</time>
      </trkpt>
      <trkpt lat="46.48755" lon="-1.04586">
        <ele>20</ele>
        <time>2022-05-14T11:06:34Z</time>
      </trkpt>
      <trkpt lat="46.48788" lon="-1.04635">
        <ele>19</ele>
        <time>2022-05-14T11:06:42Z</time>
      </trkpt>
      <trkpt lat="46.48808" lon="-1.04661">
        <ele>19</ele>
        <time>2022-05-14T11:06:47Z</time>
      </trkpt>
      <trkpt lat="46.49011" lon="-1.04884">
        <ele>18</ele>
        <time>2022-05-14T11:07:32Z</time>
      </trkpt>
      <trkpt lat="46.49027" lon="-1.04898">
        <ele>18</ele>
        <time>2022-05-14T11:07:36Z</time>
      </trkpt>
      <trkpt lat="46.49207" lon="-1.05011">
        <ele>20</ele>
        <time>2022-05-14T11:08:11Z</time>
      </trkpt>
      <trkpt lat="46.49332" lon="-1.0507">
        <ele>21</ele>
        <time>2022-05-14T11:08:34Z</time>
      </trkpt>
      <trkpt lat="46.49409" lon="-1.05102">
        <ele>23</ele>
        <time>2022-05-14T11:08:48Z</time>
      </trkpt>
      <trkpt lat="46.49441" lon="-1.05119">
        <ele>24</ele>
        <time>2022-05-14T11:08:54Z</time>
      </trkpt>
      <trkpt lat="46.49461" lon="-1.05137">
        <ele>24</ele>
        <time>2022-05-14T11:08:58Z</time>
      </trkpt>
      <trkpt lat="46.49478" lon="-1.05156">
        <ele>25</ele>
        <time>2022-05-14T11:09:02Z</time>
      </trkpt>
      <trkpt lat="46.49499" lon="-1.05181">
        <ele>25</ele>
        <time>2022-05-14T11:09:07Z</time>
      </trkpt>
      <trkpt lat="46.49529" lon="-1.05224">
        <ele>26</ele>
        <time>2022-05-14T11:09:15Z</time>
      </trkpt>
      <trkpt lat="46.49554" lon="-1.05261">
        <ele>27</ele>
        <time>2022-05-14T11:09:21Z</time>
      </trkpt>
      <trkpt lat="46.49571" lon="-1.0529">
        <ele>27</ele>
        <time>2022-05-14T11:09:26Z</time>
      </trkpt>
      <trkpt lat="46.49653" lon="-1.05448">
        <ele>26</ele>
        <time>2022-05-14T11:09:50Z</time>
      </trkpt>
      <trkpt lat="46.49699" lon="-1.05546">
        <ele>24</ele>
        <time>2022-05-14T11:10:04Z</time>
      </trkpt>
      <trkpt lat="46.4972" lon="-1.05584">
        <ele>23</ele>
        <time>2022-05-14T11:10:10Z</time>
      </trkpt>
      <trkpt lat="46.49733" lon="-1.05604">
        <ele>22</ele>
        <time>2022-05-14T11:10:14Z</time>
      </trkpt>
      <trkpt lat="46.49749" lon="-1.05623">
        <ele>22</ele>
        <time>2022-05-14T11:10:17Z</time>
      </trkpt>
      <trkpt lat="46.49777" lon="-1.05647">
        <ele>23</ele>
        <time>2022-05-14T11:10:23Z</time>
      </trkpt>
      <trkpt lat="46.49796" lon="-1.05659">
        <ele>23</ele>
        <time>2022-05-14T11:10:27Z</time>
      </trkpt>
      <trkpt lat="46.49939" lon="-1.05738">
        <ele>29</ele>
        <time>2022-05-14T11:10:54Z</time>
      </trkpt>
      <trkpt lat="46.50195" lon="-1.05848">
        <ele>40</ele>
        <time>2022-05-14T11:11:42Z</time>
      </trkpt>
      <trkpt lat="46.50281" lon="-1.05892">
        <ele>41</ele>
        <time>2022-05-14T11:11:58Z</time>
      </trkpt>
      <trkpt lat="46.50287" lon="-1.059">
        <ele>42</ele>
        <time>2022-05-14T11:11:59Z</time>
      </trkpt>
      <trkpt lat="46.50307" lon="-1.05945">
        <ele>41</ele>
        <time>2022-05-14T11:12:06Z</time>
      </trkpt>
      <trkpt lat="46.50332" lon="-1.05924">
        <ele>42</ele>
        <time>2022-05-14T11:12:11Z</time>
      </trkpt>
      <trkpt lat="46.50341" lon="-1.05928">
        <ele>42</ele>
        <time>2022-05-14T11:12:13Z</time>
      </trkpt>
      <trkpt lat="46.50436" lon="-1.0595">
        <ele>40</ele>
        <time>2022-05-14T11:12:30Z</time>
      </trkpt>
      <trkpt lat="46.50508" lon="-1.05963">
        <ele>38</ele>
        <time>2022-05-14T11:12:43Z</time>
      </trkpt>
      <trkpt lat="46.50562" lon="-1.05968">
        <ele>39</ele>
        <time>2022-05-14T11:12:52Z</time>
      </trkpt>
      <trkpt lat="46.50617" lon="-1.05954">
        <ele>40</ele>
        <time>2022-05-14T11:13:02Z</time>
      </trkpt>
      <trkpt lat="46.50657" lon="-1.05948">
        <ele>42</ele>
        <time>2022-05-14T11:13:09Z</time>
      </trkpt>
      <trkpt lat="46.50704" lon="-1.05933">
        <ele>43</ele>
        <time>2022-05-14T11:13:18Z</time>
      </trkpt>
      <trkpt lat="46.5073" lon="-1.05922">
        <ele>44</ele>
        <time>2022-05-14T11:13:23Z</time>
      </trkpt>
      <trkpt lat="46.50779" lon="-1.05889">
        <ele>46</ele>
        <time>2022-05-14T11:13:32Z</time>
      </trkpt>
      <trkpt lat="46.50787" lon="-1.05889">
        <ele>47</ele>
        <time>2022-05-14T11:13:34Z</time>
      </trkpt>
      <trkpt lat="46.5086" lon="-1.05931">
        <ele>48</ele>
        <time>2022-05-14T11:13:48Z</time>
      </trkpt>
      <trkpt lat="46.50871" lon="-1.05942">
        <ele>48</ele>
        <time>2022-05-14T11:13:50Z</time>
      </trkpt>
      <trkpt lat="46.50876" lon="-1.05952">
        <ele>48</ele>
        <time>2022-05-14T11:13:52Z</time>
      </trkpt>
      <trkpt lat="46.50922" lon="-1.06095">
        <ele>47</ele>
        <time>2022-05-14T11:14:11Z</time>
      </trkpt>
      <trkpt lat="46.50987" lon="-1.06356">
        <ele>42</ele>
        <time>2022-05-14T11:14:45Z</time>
      </trkpt>
      <trkpt lat="46.50999" lon="-1.06409">
        <ele>40</ele>
        <time>2022-05-14T11:14:52Z</time>
      </trkpt>
      <trkpt lat="46.51034" lon="-1.06611">
        <ele>42</ele>
        <time>2022-05-14T11:15:17Z</time>
      </trkpt>
      <trkpt lat="46.5104" lon="-1.06638">
        <ele>42</ele>
        <time>2022-05-14T11:15:21Z</time>
      </trkpt>
      <trkpt lat="46.51051" lon="-1.06666">
        <ele>43</ele>
        <time>2022-05-14T11:15:25Z</time>
      </trkpt>
      <trkpt lat="46.5108" lon="-1.06704">
        <ele>44</ele>
        <time>2022-05-14T11:15:32Z</time>
      </trkpt>
      <trkpt lat="46.51089" lon="-1.06718">
        <ele>44</ele>
        <time>2022-05-14T11:15:34Z</time>
      </trkpt>
      <trkpt lat="46.51095" lon="-1.06733">
        <ele>44</ele>
        <time>2022-05-14T11:15:36Z</time>
      </trkpt>
      <trkpt lat="46.51107" lon="-1.06779">
        <ele>45</ele>
        <time>2022-05-14T11:15:42Z</time>
      </trkpt>
      <trkpt lat="46.51118" lon="-1.06812">
        <ele>45</ele>
        <time>2022-05-14T11:15:47Z</time>
      </trkpt>
      <trkpt lat="46.5116" lon="-1.06924">
        <ele>45</ele>
        <time>2022-05-14T11:16:02Z</time>
      </trkpt>
      <trkpt lat="46.51186" lon="-1.0698">
        <ele>44</ele>
        <time>2022-05-14T11:16:11Z</time>
      </trkpt>
      <trkpt lat="46.51314" lon="-1.07203">
        <ele>44</ele>
        <time>2022-05-14T11:16:46Z</time>
      </trkpt>
      <trkpt lat="46.51367" lon="-1.07307">
        <ele>44</ele>
        <time>2022-05-14T11:17:02Z</time>
      </trkpt>
      <trkpt lat="46.51387" lon="-1.0734">
        <ele>45</ele>
        <time>2022-05-14T11:17:07Z</time>
      </trkpt>
      <trkpt lat="46.51407" lon="-1.07361">
        <ele>45</ele>
        <time>2022-05-14T11:17:12Z</time>
      </trkpt>
      <trkpt lat="46.51472" lon="-1.07404">
        <ele>45</ele>
        <time>2022-05-14T11:17:24Z</time>
      </trkpt>
      <trkpt lat="46.51484" lon="-1.07414">
        <ele>45</ele>
        <time>2022-05-14T11:17:27Z</time>
      </trkpt>
      <trkpt lat="46.51496" lon="-1.07429">
        <ele>45</ele>
        <time>2022-05-14T11:17:30Z</time>
      </trkpt>
      <trkpt lat="46.51504" lon="-1.07442">
        <ele>44</ele>
        <time>2022-05-14T11:17:32Z</time>
      </trkpt>
      <trkpt lat="46.51558" lon="-1.07568">
        <ele>43</ele>
        <time>2022-05-14T11:17:50Z</time>
      </trkpt>
      <trkpt lat="46.51604" lon="-1.07667">
        <ele>43</ele>
        <time>2022-05-14T11:18:05Z</time>
      </trkpt>
      <trkpt lat="46.51643" lon="-1.07742">
        <ele>42</ele>
        <time>2022-05-14T11:18:16Z</time>
      </trkpt>
      <trkpt lat="46.51659" lon="-1.0777">
        <ele>42</ele>
        <time>2022-05-14T11:18:21Z</time>
      </trkpt>
      <trkpt lat="46.51688" lon="-1.07808">
        <ele>41</ele>
        <time>2022-05-14T11:18:28Z</time>
      </trkpt>
      <trkpt lat="46.51712" lon="-1.0783">
        <ele>41</ele>
        <time>2022-05-14T11:18:33Z</time>
      </trkpt>
      <trkpt lat="46.5181" lon="-1.079">
        <ele>38</ele>
        <time>2022-05-14T11:18:52Z</time>
      </trkpt>
      <trkpt lat="46.51866" lon="-1.07942">
        <ele>37</ele>
        <time>2022-05-14T11:19:03Z</time>
      </trkpt>
      <trkpt lat="46.51914" lon="-1.07982">
        <ele>37</ele>
        <time>2022-05-14T11:19:13Z</time>
      </trkpt>
      <trkpt lat="46.51948" lon="-1.08018">
        <ele>37</ele>
        <time>2022-05-14T11:19:21Z</time>
      </trkpt>
      <trkpt lat="46.52004" lon="-1.08091">
        <ele>38</ele>
        <time>2022-05-14T11:19:34Z</time>
      </trkpt>
      <trkpt lat="46.5207" lon="-1.08164">
        <ele>38</ele>
        <time>2022-05-14T11:19:49Z</time>
      </trkpt>
      <trkpt lat="46.52084" lon="-1.08185">
        <ele>38</ele>
        <time>2022-05-14T11:19:52Z</time>
      </trkpt>
      <trkpt lat="46.52096" lon="-1.08205">
        <ele>39</ele>
        <time>2022-05-14T11:19:56Z</time>
      </trkpt>
      <trkpt lat="46.52115" lon="-1.08246">
        <ele>40</ele>
        <time>2022-05-14T11:20:02Z</time>
      </trkpt>
      <trkpt lat="46.52135" lon="-1.08313">
        <ele>40</ele>
        <time>2022-05-14T11:20:11Z</time>
      </trkpt>
      <trkpt lat="46.52146" lon="-1.08343">
        <ele>40</ele>
        <time>2022-05-14T11:20:15Z</time>
      </trkpt>
      <trkpt lat="46.52154" lon="-1.0836">
        <ele>41</ele>
        <time>2022-05-14T11:20:17Z</time>
      </trkpt>
      <trkpt lat="46.52185" lon="-1.08412">
        <ele>42</ele>
        <time>2022-05-14T11:20:26Z</time>
      </trkpt>
      <trkpt lat="46.52189" lon="-1.08418">
        <ele>42</ele>
        <time>2022-05-14T11:20:27Z</time>
      </trkpt>
      <trkpt lat="46.52126" lon="-1.08466">
        <ele>42</ele>
        <time>2022-05-14T11:20:39Z</time>
      </trkpt>
      <trkpt lat="46.52137" lon="-1.08487">
        <ele>42</ele>
        <time>2022-05-14T11:20:43Z</time>
      </trkpt>
      <trkpt lat="46.52143" lon="-1.08537">
        <ele>41</ele>
        <time>2022-05-14T11:20:49Z</time>
      </trkpt>
      <trkpt lat="46.52137" lon="-1.08553">
        <ele>41</ele>
        <time>2022-05-14T11:20:51Z</time>
      </trkpt>
      <trkpt lat="46.5214" lon="-1.08568">
        <ele>41</ele>
        <time>2022-05-14T11:20:53Z</time>
      </trkpt>
      <trkpt lat="46.52135" lon="-1.08569">
        <ele>41</ele>
        <time>2022-05-14T11:20:54Z</time>
      </trkpt>
      <trkpt lat="46.52151" lon="-1.0862">
        <ele>40</ele>
        <time>2022-05-14T11:21:01Z</time>
      </trkpt>
      <trkpt lat="46.52152" lon="-1.08642">
        <ele>40</ele>
        <time>2022-05-14T11:21:03Z</time>
      </trkpt>
      <trkpt lat="46.52154" lon="-1.08707">
        <ele>39</ele>
        <time>2022-05-14T11:21:11Z</time>
      </trkpt>
      <trkpt lat="46.52159" lon="-1.08797">
        <ele>39</ele>
        <time>2022-05-14T11:21:22Z</time>
      </trkpt>
      <trkpt lat="46.52147" lon="-1.08962">
        <ele>40</ele>
        <time>2022-05-14T11:21:43Z</time>
      </trkpt>
      <trkpt lat="46.52151" lon="-1.08999">
        <ele>40</ele>
        <time>2022-05-14T11:21:47Z</time>
      </trkpt>
      <trkpt lat="46.52171" lon="-1.09122">
        <ele>38</ele>
        <time>2022-05-14T11:22:03Z</time>
      </trkpt>
      <trkpt lat="46.52175" lon="-1.09162">
        <ele>38</ele>
        <time>2022-05-14T11:22:08Z</time>
      </trkpt>
      <trkpt lat="46.52175" lon="-1.09186">
        <ele>38</ele>
        <time>2022-05-14T11:22:11Z</time>
      </trkpt>
      <trkpt lat="46.5217" lon="-1.09242">
        <ele>39</ele>
        <time>2022-05-14T11:22:18Z</time>
      </trkpt>
      <trkpt lat="46.5217" lon="-1.0926">
        <ele>39</ele>
        <time>2022-05-14T11:22:20Z</time>
      </trkpt>
      <trkpt lat="46.52179" lon="-1.09334">
        <ele>38</ele>
        <time>2022-05-14T11:22:29Z</time>
      </trkpt>
      <trkpt lat="46.5219" lon="-1.09402">
        <ele>37</ele>
        <time>2022-05-14T11:22:38Z</time>
      </trkpt>
      <trkpt lat="46.5223" lon="-1.09569">
        <ele>37</ele>
        <time>2022-05-14T11:22:59Z</time>
      </trkpt>
      <trkpt lat="46.52234" lon="-1.09597">
        <ele>37</ele>
        <time>2022-05-14T11:23:03Z</time>
      </trkpt>
      <trkpt lat="46.52241" lon="-1.09665">
        <ele>36</ele>
        <time>2022-05-14T11:23:11Z</time>
      </trkpt>
      <trkpt lat="46.5226" lon="-1.09765">
        <ele>36</ele>
        <time>2022-05-14T11:23:24Z</time>
      </trkpt>
      <trkpt lat="46.52272" lon="-1.09819">
        <ele>34</ele>
        <time>2022-05-14T11:23:31Z</time>
      </trkpt>
      <trkpt lat="46.52281" lon="-1.09852">
        <ele>34</ele>
        <time>2022-05-14T11:23:35Z</time>
      </trkpt>
      <trkpt lat="46.5237" lon="-1.10107">
        <ele>31</ele>
        <time>2022-05-14T11:24:10Z</time>
      </trkpt>
      <trkpt lat="46.52379" lon="-1.10146">
        <ele>31</ele>
        <time>2022-05-14T11:24:15Z</time>
      </trkpt>
      <trkpt lat="46.52396" lon="-1.10266">
        <ele>30</ele>
        <time>2022-05-14T11:24:30Z</time>
      </trkpt>
      <trkpt lat="46.52408" lon="-1.10337">
        <ele>30</ele>
        <time>2022-05-14T11:24:39Z</time>
      </trkpt>
      <trkpt lat="46.52441" lon="-1.10473">
        <ele>31</ele>
        <time>2022-05-14T11:24:57Z</time>
      </trkpt>
      <trkpt lat="46.52444" lon="-1.10496">
        <ele>31</ele>
        <time>2022-05-14T11:25:00Z</time>
      </trkpt>
      <trkpt lat="46.52447" lon="-1.10554">
        <ele>31</ele>
        <time>2022-05-14T11:25:07Z</time>
      </trkpt>
      <trkpt lat="46.52447" lon="-1.10596">
        <ele>31</ele>
        <time>2022-05-14T11:25:12Z</time>
      </trkpt>
      <trkpt lat="46.52442" lon="-1.1065">
        <ele>30</ele>
        <time>2022-05-14T11:25:19Z</time>
      </trkpt>
      <trkpt lat="46.52436" lon="-1.10685">
        <ele>30</ele>
        <time>2022-05-14T11:25:23Z</time>
      </trkpt>
      <trkpt lat="46.52418" lon="-1.10762">
        <ele>31</ele>
        <time>2022-05-14T11:25:33Z</time>
      </trkpt>
      <trkpt lat="46.52413" lon="-1.10799">
        <ele>30</ele>
        <time>2022-05-14T11:25:38Z</time>
      </trkpt>
      <trkpt lat="46.52405" lon="-1.10876">
        <ele>28</ele>
        <time>2022-05-14T11:25:47Z</time>
      </trkpt>
      <trkpt lat="46.52405" lon="-1.10929">
        <ele>27</ele>
        <time>2022-05-14T11:25:54Z</time>
      </trkpt>
      <trkpt lat="46.52411" lon="-1.10993">
        <ele>29</ele>
        <time>2022-05-14T11:26:01Z</time>
      </trkpt>
      <trkpt lat="46.52409" lon="-1.11045">
        <ele>30</ele>
        <time>2022-05-14T11:26:08Z</time>
      </trkpt>
      <trkpt lat="46.52389" lon="-1.11196">
        <ele>29</ele>
        <time>2022-05-14T11:26:27Z</time>
      </trkpt>
      <trkpt lat="46.52387" lon="-1.11224">
        <ele>28</ele>
        <time>2022-05-14T11:26:30Z</time>
      </trkpt>
      <trkpt lat="46.52388" lon="-1.11289">
        <ele>25</ele>
        <time>2022-05-14T11:26:38Z</time>
      </trkpt>
      <trkpt lat="46.52402" lon="-1.11466">
        <ele>24</ele>
        <time>2022-05-14T11:27:00Z</time>
      </trkpt>
      <trkpt lat="46.52405" lon="-1.11648">
        <ele>23</ele>
        <time>2022-05-14T11:27:22Z</time>
      </trkpt>
      <trkpt lat="46.52407" lon="-1.11684">
        <ele>23</ele>
        <time>2022-05-14T11:27:27Z</time>
      </trkpt>
      <trkpt lat="46.5241" lon="-1.11705">
        <ele>23</ele>
        <time>2022-05-14T11:27:29Z</time>
      </trkpt>
      <trkpt lat="46.52419" lon="-1.11736">
        <ele>23</ele>
        <time>2022-05-14T11:27:33Z</time>
      </trkpt>
      <trkpt lat="46.52445" lon="-1.11792">
        <ele>23</ele>
        <time>2022-05-14T11:27:42Z</time>
      </trkpt>
      <trkpt lat="46.5249" lon="-1.11881">
        <ele>25</ele>
        <time>2022-05-14T11:27:55Z</time>
      </trkpt>
      <trkpt lat="46.52504" lon="-1.11905">
        <ele>25</ele>
        <time>2022-05-14T11:27:59Z</time>
      </trkpt>
      <trkpt lat="46.52545" lon="-1.11958">
        <ele>24</ele>
        <time>2022-05-14T11:28:09Z</time>
      </trkpt>
      <trkpt lat="46.52582" lon="-1.12012">
        <ele>22</ele>
        <time>2022-05-14T11:28:18Z</time>
      </trkpt>
      <trkpt lat="46.52629" lon="-1.12061">
        <ele>21</ele>
        <time>2022-05-14T11:28:28Z</time>
      </trkpt>
      <trkpt lat="46.5265" lon="-1.12112">
        <ele>21</ele>
        <time>2022-05-14T11:28:36Z</time>
      </trkpt>
      <trkpt lat="46.52656" lon="-1.12121">
        <ele>21</ele>
        <time>2022-05-14T11:28:37Z</time>
      </trkpt>
      <trkpt lat="46.52685" lon="-1.1215">
        <ele>21</ele>
        <time>2022-05-14T11:28:43Z</time>
      </trkpt>
      <trkpt lat="46.52728" lon="-1.12182">
        <ele>20</ele>
        <time>2022-05-14T11:28:52Z</time>
      </trkpt>
      <trkpt lat="46.52738" lon="-1.12185">
        <ele>20</ele>
        <time>2022-05-14T11:28:54Z</time>
      </trkpt>
      <trkpt lat="46.52743" lon="-1.12183">
        <ele>20</ele>
        <time>2022-05-14T11:28:55Z</time>
      </trkpt>
      <trkpt lat="46.52757" lon="-1.12162">
        <ele>19</ele>
        <time>2022-05-14T11:28:58Z</time>
      </trkpt>
      <trkpt lat="46.52787" lon="-1.12109">
        <ele>18</ele>
        <time>2022-05-14T11:29:07Z</time>
      </trkpt>
      <trkpt lat="46.52798" lon="-1.1209">
        <ele>18</ele>
        <time>2022-05-14T11:29:10Z</time>
      </trkpt>
      <trkpt lat="46.52812" lon="-1.12052">
        <ele>17</ele>
        <time>2022-05-14T11:29:15Z</time>
      </trkpt>
      <trkpt lat="46.52838" lon="-1.1197">
        <ele>17</ele>
        <time>2022-05-14T11:29:26Z</time>
      </trkpt>
      <trkpt lat="46.52851" lon="-1.11944">
        <ele>17</ele>
        <time>2022-05-14T11:29:30Z</time>
      </trkpt>
      <trkpt lat="46.52866" lon="-1.11928">
        <ele>17</ele>
        <time>2022-05-14T11:29:33Z</time>
      </trkpt>
      <trkpt lat="46.52876" lon="-1.1192">
        <ele>17</ele>
        <time>2022-05-14T11:29:35Z</time>
      </trkpt>
      <trkpt lat="46.52888" lon="-1.11914">
        <ele>17</ele>
        <time>2022-05-14T11:29:38Z</time>
      </trkpt>
      <trkpt lat="46.52914" lon="-1.11908">
        <ele>17</ele>
        <time>2022-05-14T11:29:42Z</time>
      </trkpt>
      <trkpt lat="46.52941" lon="-1.11914">
        <ele>17</ele>
        <time>2022-05-14T11:29:47Z</time>
      </trkpt>
      <trkpt lat="46.52952" lon="-1.11919">
        <ele>17</ele>
        <time>2022-05-14T11:29:49Z</time>
      </trkpt>
      <trkpt lat="46.52973" lon="-1.11939">
        <ele>17</ele>
        <time>2022-05-14T11:29:54Z</time>
      </trkpt>
      <trkpt lat="46.53233" lon="-1.12318">
        <ele>18</ele>
        <time>2022-05-14T11:30:59Z</time>
      </trkpt>
      <trkpt lat="46.53298" lon="-1.12418">
        <ele>18</ele>
        <time>2022-05-14T11:31:16Z</time>
      </trkpt>
      <trkpt lat="46.53339" lon="-1.12493">
        <ele>18</ele>
        <time>2022-05-14T11:31:28Z</time>
      </trkpt>
      <trkpt lat="46.53364" lon="-1.12522">
        <ele>19</ele>
        <time>2022-05-14T11:31:33Z</time>
      </trkpt>
      <trkpt lat="46.53379" lon="-1.12536">
        <ele>19</ele>
        <time>2022-05-14T11:31:37Z</time>
      </trkpt>
      <trkpt lat="46.53408" lon="-1.12555">
        <ele>20</ele>
        <time>2022-05-14T11:31:42Z</time>
      </trkpt>
      <trkpt lat="46.53487" lon="-1.12586">
        <ele>23</ele>
        <time>2022-05-14T11:31:57Z</time>
      </trkpt>
      <trkpt lat="46.53522" lon="-1.12603">
        <ele>24</ele>
        <time>2022-05-14T11:32:03Z</time>
      </trkpt>
      <trkpt lat="46.53535" lon="-1.12614">
        <ele>25</ele>
        <time>2022-05-14T11:32:06Z</time>
      </trkpt>
      <trkpt lat="46.53571" lon="-1.12653">
        <ele>26</ele>
        <time>2022-05-14T11:32:14Z</time>
      </trkpt>
      <trkpt lat="46.5359" lon="-1.12679">
        <ele>26</ele>
        <time>2022-05-14T11:32:19Z</time>
      </trkpt>
      <trkpt lat="46.53636" lon="-1.12752">
        <ele>26</ele>
        <time>2022-05-14T11:32:31Z</time>
      </trkpt>
      <trkpt lat="46.53666" lon="-1.12814">
        <ele>25</ele>
        <time>2022-05-14T11:32:40Z</time>
      </trkpt>
      <trkpt lat="46.53679" lon="-1.12846">
        <ele>25</ele>
        <time>2022-05-14T11:32:45Z</time>
      </trkpt>
      <trkpt lat="46.53693" lon="-1.12895">
        <ele>26</ele>
        <time>2022-05-14T11:32:51Z</time>
      </trkpt>
      <trkpt lat="46.53721" lon="-1.13141">
        <ele>24</ele>
        <time>2022-05-14T11:33:22Z</time>
      </trkpt>
      <trkpt lat="46.53726" lon="-1.13315">
        <ele>29</ele>
        <time>2022-05-14T11:33:43Z</time>
      </trkpt>
      <trkpt lat="46.53724" lon="-1.13359">
        <ele>30</ele>
        <time>2022-05-14T11:33:48Z</time>
      </trkpt>
      <trkpt lat="46.53708" lon="-1.13462">
        <ele>33</ele>
        <time>2022-05-14T11:34:01Z</time>
      </trkpt>
      <trkpt lat="46.53704" lon="-1.13515">
        <ele>34</ele>
        <time>2022-05-14T11:34:08Z</time>
      </trkpt>
      <trkpt lat="46.53692" lon="-1.13764">
        <ele>34</ele>
        <time>2022-05-14T11:34:38Z</time>
      </trkpt>
      <trkpt lat="46.53691" lon="-1.13823">
        <ele>34</ele>
        <time>2022-05-14T11:34:46Z</time>
      </trkpt>
      <trkpt lat="46.53693" lon="-1.13851">
        <ele>34</ele>
        <time>2022-05-14T11:34:49Z</time>
      </trkpt>
      <trkpt lat="46.53708" lon="-1.13982">
        <ele>34</ele>
        <time>2022-05-14T11:35:05Z</time>
      </trkpt>
      <trkpt lat="46.53713" lon="-1.14042">
        <ele>33</ele>
        <time>2022-05-14T11:35:13Z</time>
      </trkpt>
      <trkpt lat="46.53712" lon="-1.14129">
        <ele>31</ele>
        <time>2022-05-14T11:35:23Z</time>
      </trkpt>
      <trkpt lat="46.53708" lon="-1.14197">
        <ele>30</ele>
        <time>2022-05-14T11:35:32Z</time>
      </trkpt>
      <trkpt lat="46.53696" lon="-1.14293">
        <ele>26</ele>
        <time>2022-05-14T11:35:44Z</time>
      </trkpt>
      <trkpt lat="46.53693" lon="-1.14366">
        <ele>23</ele>
        <time>2022-05-14T11:35:53Z</time>
      </trkpt>
      <trkpt lat="46.53696" lon="-1.14524">
        <ele>21</ele>
        <time>2022-05-14T11:36:12Z</time>
      </trkpt>
      <trkpt lat="46.53695" lon="-1.14542">
        <ele>21</ele>
        <time>2022-05-14T11:36:14Z</time>
      </trkpt>
      <trkpt lat="46.53689" lon="-1.14573">
        <ele>21</ele>
        <time>2022-05-14T11:36:18Z</time>
      </trkpt>
      <trkpt lat="46.53667" lon="-1.14638">
        <ele>22</ele>
        <time>2022-05-14T11:36:27Z</time>
      </trkpt>
      <trkpt lat="46.53637" lon="-1.14792">
        <ele>25</ele>
        <time>2022-05-14T11:36:47Z</time>
      </trkpt>
      <trkpt lat="46.5361" lon="-1.14951">
        <ele>27</ele>
        <time>2022-05-14T11:37:07Z</time>
      </trkpt>
      <trkpt lat="46.53609" lon="-1.14986">
        <ele>28</ele>
        <time>2022-05-14T11:37:11Z</time>
      </trkpt>
      <trkpt lat="46.5361" lon="-1.15007">
        <ele>29</ele>
        <time>2022-05-14T11:37:13Z</time>
      </trkpt>
      <trkpt lat="46.53627" lon="-1.15124">
        <ele>31</ele>
        <time>2022-05-14T11:37:28Z</time>
      </trkpt>
      <trkpt lat="46.53638" lon="-1.15185">
        <ele>33</ele>
        <time>2022-05-14T11:37:36Z</time>
      </trkpt>
      <trkpt lat="46.5365" lon="-1.15225">
        <ele>34</ele>
        <time>2022-05-14T11:37:41Z</time>
      </trkpt>
      <trkpt lat="46.53665" lon="-1.15267">
        <ele>37</ele>
        <time>2022-05-14T11:37:47Z</time>
      </trkpt>
      <trkpt lat="46.53673" lon="-1.15281">
        <ele>38</ele>
        <time>2022-05-14T11:37:49Z</time>
      </trkpt>
      <trkpt lat="46.53681" lon="-1.15288">
        <ele>39</ele>
        <time>2022-05-14T11:37:51Z</time>
      </trkpt>
      <trkpt lat="46.53715" lon="-1.1528">
        <ele>41</ele>
        <time>2022-05-14T11:37:57Z</time>
      </trkpt>
      <trkpt lat="46.53768" lon="-1.15302">
        <ele>44</ele>
        <time>2022-05-14T11:38:07Z</time>
      </trkpt>
      <trkpt lat="46.53775" lon="-1.15308">
        <ele>45</ele>
        <time>2022-05-14T11:38:08Z</time>
      </trkpt>
      <trkpt lat="46.53785" lon="-1.15323">
        <ele>45</ele>
        <time>2022-05-14T11:38:11Z</time>
      </trkpt>
      <trkpt lat="46.53788" lon="-1.15332">
        <ele>45</ele>
        <time>2022-05-14T11:38:12Z</time>
      </trkpt>
      <trkpt lat="46.53793" lon="-1.15394">
        <ele>45</ele>
        <time>2022-05-14T11:38:20Z</time>
      </trkpt>
      <trkpt lat="46.53803" lon="-1.15456">
        <ele>45</ele>
        <time>2022-05-14T11:38:27Z</time>
      </trkpt>
      <trkpt lat="46.53847" lon="-1.15592">
        <ele>45</ele>
        <time>2022-05-14T11:38:46Z</time>
      </trkpt>
      <trkpt lat="46.5388" lon="-1.15707">
        <ele>44</ele>
        <time>2022-05-14T11:39:01Z</time>
      </trkpt>
      <trkpt lat="46.53892" lon="-1.1574">
        <ele>43</ele>
        <time>2022-05-14T11:39:06Z</time>
      </trkpt>
      <trkpt lat="46.53924" lon="-1.1578">
        <ele>41</ele>
        <time>2022-05-14T11:39:13Z</time>
      </trkpt>
      <trkpt lat="46.53946" lon="-1.1586">
        <ele>38</ele>
        <time>2022-05-14T11:39:24Z</time>
      </trkpt>
      <trkpt lat="46.53953" lon="-1.159">
        <ele>36</ele>
        <time>2022-05-14T11:39:29Z</time>
      </trkpt>
      <trkpt lat="46.53961" lon="-1.15961">
        <ele>36</ele>
        <time>2022-05-14T11:39:36Z</time>
      </trkpt>
      <trkpt lat="46.53966" lon="-1.16038">
        <ele>35</ele>
        <time>2022-05-14T11:39:46Z</time>
      </trkpt>
      <trkpt lat="46.53967" lon="-1.16102">
        <ele>36</ele>
        <time>2022-05-14T11:39:54Z</time>
      </trkpt>
      <trkpt lat="46.5396" lon="-1.16229">
        <ele>35</ele>
        <time>2022-05-14T11:40:09Z</time>
      </trkpt>
      <trkpt lat="46.53961" lon="-1.16485">
        <ele>32</ele>
        <time>2022-05-14T11:40:41Z</time>
      </trkpt>
      <trkpt lat="46.53963" lon="-1.16535">
        <ele>32</ele>
        <time>2022-05-14T11:40:47Z</time>
      </trkpt>
      <trkpt lat="46.53975" lon="-1.16656">
        <ele>32</ele>
        <time>2022-05-14T11:41:02Z</time>
      </trkpt>
      <trkpt lat="46.53981" lon="-1.16756">
        <ele>31</ele>
        <time>2022-05-14T11:41:14Z</time>
      </trkpt>
      <trkpt lat="46.53983" lon="-1.16836">
        <ele>32</ele>
        <time>2022-05-14T11:41:24Z</time>
      </trkpt>
      <trkpt lat="46.53982" lon="-1.1691">
        <ele>31</ele>
        <time>2022-05-14T11:41:33Z</time>
      </trkpt>
      <trkpt lat="46.53966" lon="-1.17104">
        <ele>29</ele>
        <time>2022-05-14T11:41:57Z</time>
      </trkpt>
      <trkpt lat="46.53967" lon="-1.1715">
        <ele>29</ele>
        <time>2022-05-14T11:42:02Z</time>
      </trkpt>
      <trkpt lat="46.53971" lon="-1.17239">
        <ele>29</ele>
        <time>2022-05-14T11:42:13Z</time>
      </trkpt>
      <trkpt lat="46.53971" lon="-1.17289">
        <ele>30</ele>
        <time>2022-05-14T11:42:19Z</time>
      </trkpt>
      <trkpt lat="46.53968" lon="-1.17342">
        <ele>31</ele>
        <time>2022-05-14T11:42:26Z</time>
      </trkpt>
      <trkpt lat="46.53958" lon="-1.17467">
        <ele>32</ele>
        <time>2022-05-14T11:42:41Z</time>
      </trkpt>
      <trkpt lat="46.53954" lon="-1.17544">
        <ele>32</ele>
        <time>2022-05-14T11:42:51Z</time>
      </trkpt>
      <trkpt lat="46.53946" lon="-1.18147">
        <ele>25</ele>
        <time>2022-05-14T11:44:05Z</time>
      </trkpt>
      <trkpt lat="46.53948" lon="-1.18189">
        <ele>25</ele>
        <time>2022-05-14T11:44:10Z</time>
      </trkpt>
      <trkpt lat="46.53953" lon="-1.1821">
        <ele>25</ele>
        <time>2022-05-14T11:44:12Z</time>
      </trkpt>
      <trkpt lat="46.53962" lon="-1.18235">
        <ele>25</ele>
        <time>2022-05-14T11:44:16Z</time>
      </trkpt>
      <trkpt lat="46.53972" lon="-1.18256">
        <ele>24</ele>
        <time>2022-05-14T11:44:19Z</time>
      </trkpt>
      <trkpt lat="46.53985" lon="-1.18277">
        <ele>24</ele>
        <time>2022-05-14T11:44:23Z</time>
      </trkpt>
      <trkpt lat="46.54139" lon="-1.18475">
        <ele>20</ele>
        <time>2022-05-14T11:44:59Z</time>
      </trkpt>
      <trkpt lat="46.54169" lon="-1.18525">
        <ele>20</ele>
        <time>2022-05-14T11:45:07Z</time>
      </trkpt>
      <trkpt lat="46.54191" lon="-1.18564">
        <ele>21</ele>
        <time>2022-05-14T11:45:13Z</time>
      </trkpt>
      <trkpt lat="46.54076" lon="-1.18887">
        <ele>16</ele>
        <time>2022-05-14T11:45:58Z</time>
      </trkpt>
      <trkpt lat="46.54055" lon="-1.18951">
        <ele>16</ele>
        <time>2022-05-14T11:46:07Z</time>
      </trkpt>
      <trkpt lat="46.54044" lon="-1.18991">
        <ele>16</ele>
        <time>2022-05-14T11:46:12Z</time>
      </trkpt>
      <trkpt lat="46.54006" lon="-1.19173">
        <ele>14</ele>
        <time>2022-05-14T11:46:35Z</time>
      </trkpt>
      <trkpt lat="46.5398" lon="-1.19309">
        <ele>12</ele>
        <time>2022-05-14T11:46:52Z</time>
      </trkpt>
      <trkpt lat="46.53959" lon="-1.19452">
        <ele>11</ele>
        <time>2022-05-14T11:47:10Z</time>
      </trkpt>
      <trkpt lat="46.53941" lon="-1.19545">
        <ele>11</ele>
        <time>2022-05-14T11:47:22Z</time>
      </trkpt>
      <trkpt lat="46.53931" lon="-1.19591">
        <ele>11</ele>
        <time>2022-05-14T11:47:28Z</time>
      </trkpt>
      <trkpt lat="46.53906" lon="-1.19672">
        <ele>11</ele>
        <time>2022-05-14T11:47:39Z</time>
      </trkpt>
      <trkpt lat="46.5389" lon="-1.19716">
        <ele>10</ele>
        <time>2022-05-14T11:47:45Z</time>
      </trkpt>
      <trkpt lat="46.53854" lon="-1.19797">
        <ele>10</ele>
        <time>2022-05-14T11:47:57Z</time>
      </trkpt>
      <trkpt lat="46.53839" lon="-1.19822">
        <ele>10</ele>
        <time>2022-05-14T11:48:01Z</time>
      </trkpt>
      <trkpt lat="46.53827" lon="-1.19841">
        <ele>10</ele>
        <time>2022-05-14T11:48:04Z</time>
      </trkpt>
      <trkpt lat="46.53763" lon="-1.19923">
        <ele>10</ele>
        <time>2022-05-14T11:48:19Z</time>
      </trkpt>
      <trkpt lat="46.53658" lon="-1.20041">
        <ele>7</ele>
        <time>2022-05-14T11:48:43Z</time>
      </trkpt>
      <trkpt lat="46.53645" lon="-1.2006">
        <ele>6</ele>
        <time>2022-05-14T11:48:46Z</time>
      </trkpt>
      <trkpt lat="46.53548" lon="-1.20224">
        <ele>7</ele>
        <time>2022-05-14T11:49:13Z</time>
      </trkpt>
      <trkpt lat="46.53522" lon="-1.20266">
        <ele>10</ele>
        <time>2022-05-14T11:49:19Z</time>
      </trkpt>
      <trkpt lat="46.53517" lon="-1.20286">
        <ele>12</ele>
        <time>2022-05-14T11:49:22Z</time>
      </trkpt>
      <trkpt lat="46.53516" lon="-1.20298">
        <ele>13</ele>
        <time>2022-05-14T11:49:24Z</time>
      </trkpt>
      <trkpt lat="46.5352" lon="-1.20398">
        <ele>19</ele>
        <time>2022-05-14T11:49:36Z</time>
      </trkpt>
      <trkpt lat="46.5353" lon="-1.20523">
        <ele>21</ele>
        <time>2022-05-14T11:49:51Z</time>
      </trkpt>
      <trkpt lat="46.5356" lon="-1.20725">
        <ele>22</ele>
        <time>2022-05-14T11:50:17Z</time>
      </trkpt>
      <trkpt lat="46.53564" lon="-1.2076">
        <ele>22</ele>
        <time>2022-05-14T11:50:21Z</time>
      </trkpt>
      <trkpt lat="46.53591" lon="-1.21181">
        <ele>11</ele>
        <time>2022-05-14T11:51:13Z</time>
      </trkpt>
      <trkpt lat="46.53591" lon="-1.21234">
        <ele>11</ele>
        <time>2022-05-14T11:51:19Z</time>
      </trkpt>
      <trkpt lat="46.53588" lon="-1.21339">
        <ele>11</ele>
        <time>2022-05-14T11:51:32Z</time>
      </trkpt>
      <trkpt lat="46.53589" lon="-1.21407">
        <ele>11</ele>
        <time>2022-05-14T11:51:40Z</time>
      </trkpt>
      <trkpt lat="46.53596" lon="-1.21491">
        <ele>10</ele>
        <time>2022-05-14T11:51:51Z</time>
      </trkpt>
      <trkpt lat="46.53596" lon="-1.21538">
        <ele>10</ele>
        <time>2022-05-14T11:51:56Z</time>
      </trkpt>
      <trkpt lat="46.53593" lon="-1.21592">
        <ele>10</ele>
        <time>2022-05-14T11:52:03Z</time>
      </trkpt>
      <trkpt lat="46.53585" lon="-1.21641">
        <ele>10</ele>
        <time>2022-05-14T11:52:09Z</time>
      </trkpt>
      <trkpt lat="46.53574" lon="-1.21681">
        <ele>10</ele>
        <time>2022-05-14T11:52:14Z</time>
      </trkpt>
      <trkpt lat="46.53559" lon="-1.21711">
        <ele>9</ele>
        <time>2022-05-14T11:52:19Z</time>
      </trkpt>
      <trkpt lat="46.53552" lon="-1.21718">
        <ele>9</ele>
        <time>2022-05-14T11:52:21Z</time>
      </trkpt>
      <trkpt lat="46.53524" lon="-1.2173">
        <ele>9</ele>
        <time>2022-05-14T11:52:26Z</time>
      </trkpt>
      <trkpt lat="46.53463" lon="-1.21771">
        <ele>10</ele>
        <time>2022-05-14T11:52:38Z</time>
      </trkpt>
      <trkpt lat="46.53441" lon="-1.21789">
        <ele>10</ele>
        <time>2022-05-14T11:52:42Z</time>
      </trkpt>
      <trkpt lat="46.53434" lon="-1.21798">
        <ele>10</ele>
        <time>2022-05-14T11:52:44Z</time>
      </trkpt>
      <trkpt lat="46.5348" lon="-1.21864">
        <ele>9</ele>
        <time>2022-05-14T11:52:55Z</time>
      </trkpt>
      <trkpt lat="46.53487" lon="-1.21881">
        <ele>9</ele>
        <time>2022-05-14T11:52:58Z</time>
      </trkpt>
      <trkpt lat="46.53493" lon="-1.21904">
        <ele>9</ele>
        <time>2022-05-14T11:53:01Z</time>
      </trkpt>
      <trkpt lat="46.53497" lon="-1.21932">
        <ele>9</ele>
        <time>2022-05-14T11:53:04Z</time>
      </trkpt>
      <trkpt lat="46.53498" lon="-1.21962">
        <ele>8</ele>
        <time>2022-05-14T11:53:08Z</time>
      </trkpt>
      <trkpt lat="46.53496" lon="-1.21991">
        <ele>8</ele>
        <time>2022-05-14T11:53:11Z</time>
      </trkpt>
      <trkpt lat="46.53487" lon="-1.22049">
        <ele>12</ele>
        <time>2022-05-14T11:53:19Z</time>
      </trkpt>
      <trkpt lat="46.53484" lon="-1.2208">
        <ele>14</ele>
        <time>2022-05-14T11:53:23Z</time>
      </trkpt>
      <trkpt lat="46.53488" lon="-1.22168">
        <ele>17</ele>
        <time>2022-05-14T11:53:33Z</time>
      </trkpt>
      <trkpt lat="46.5349" lon="-1.22195">
        <ele>17</ele>
        <time>2022-05-14T11:53:37Z</time>
      </trkpt>
      <trkpt lat="46.53496" lon="-1.22223">
        <ele>17</ele>
        <time>2022-05-14T11:53:40Z</time>
      </trkpt>
      <trkpt lat="46.53507" lon="-1.22259">
        <ele>17</ele>
        <time>2022-05-14T11:53:45Z</time>
      </trkpt>
      <trkpt lat="46.53561" lon="-1.22395">
        <ele>11</ele>
        <time>2022-05-14T11:54:04Z</time>
      </trkpt>
      <trkpt lat="46.53565" lon="-1.2239">
        <ele>11</ele>
        <time>2022-05-14T11:54:05Z</time>
      </trkpt>
      <trkpt lat="46.53574" lon="-1.22374">
        <ele>11</ele>
        <time>2022-05-14T11:54:08Z</time>
      </trkpt>
      <trkpt lat="46.53588" lon="-1.22331">
        <ele>12</ele>
        <time>2022-05-14T11:54:14Z</time>
      </trkpt>
      <trkpt lat="46.53599" lon="-1.22318">
        <ele>12</ele>
        <time>2022-05-14T11:54:16Z</time>
      </trkpt>
      <trkpt lat="46.53597" lon="-1.22314">
        <ele>12</ele>
        <time>2022-05-14T11:54:17Z</time>
      </trkpt>
      <trkpt lat="46.53597" lon="-1.22304">
        <ele>13</ele>
        <time>2022-05-14T11:54:18Z</time>
      </trkpt>
      <trkpt lat="46.53613" lon="-1.22259">
        <ele>13</ele>
        <time>2022-05-14T11:54:24Z</time>
      </trkpt>
      <trkpt lat="46.53622" lon="-1.22219">
        <ele>13</ele>
        <time>2022-05-14T11:54:29Z</time>
      </trkpt>
      <trkpt lat="46.53631" lon="-1.22168">
        <ele>13</ele>
        <time>2022-05-14T11:54:36Z</time>
      </trkpt>
      <trkpt lat="46.53639" lon="-1.22101">
        <ele>11</ele>
        <time>2022-05-14T11:54:44Z</time>
      </trkpt>
      <trkpt lat="46.53645" lon="-1.22065">
        <ele>10</ele>
        <time>2022-05-14T11:54:49Z</time>
      </trkpt>
      <trkpt lat="46.53659" lon="-1.22029">
        <ele>10</ele>
        <time>2022-05-14T11:54:54Z</time>
      </trkpt>
      <trkpt lat="46.53669" lon="-1.21983">
        <ele>11</ele>
        <time>2022-05-14T11:55:00Z</time>
      </trkpt>
      <trkpt lat="46.53676" lon="-1.21962">
        <ele>11</ele>
        <time>2022-05-14T11:55:02Z</time>
      </trkpt>
      <trkpt lat="46.53696" lon="-1.21925">
        <ele>11</ele>
        <time>2022-05-14T11:55:08Z</time>
      </trkpt>
      <trkpt lat="46.53705" lon="-1.21901">
        <ele>11</ele>
        <time>2022-05-14T11:55:12Z</time>
      </trkpt>
      <trkpt lat="46.53706" lon="-1.21866">
        <ele>11</ele>
        <time>2022-05-14T11:55:16Z</time>
      </trkpt>
      <trkpt lat="46.53713" lon="-1.21847">
        <ele>11</ele>
        <time>2022-05-14T11:55:18Z</time>
      </trkpt>
      <trkpt lat="46.53749" lon="-1.21793">
        <ele>15</ele>
        <time>2022-05-14T11:55:28Z</time>
      </trkpt>
      <trkpt lat="46.53755" lon="-1.2178">
        <ele>16</ele>
        <time>2022-05-14T11:55:30Z</time>
      </trkpt>
      <trkpt lat="46.53758" lon="-1.2177">
        <ele>17</ele>
        <time>2022-05-14T11:55:31Z</time>
      </trkpt>
      <trkpt lat="46.53758" lon="-1.21755">
        <ele>18</ele>
        <time>2022-05-14T11:55:33Z</time>
      </trkpt>
      <trkpt lat="46.53746" lon="-1.21717">
        <ele>19</ele>
        <time>2022-05-14T11:55:38Z</time>
      </trkpt>
      <trkpt lat="46.53745" lon="-1.21705">
        <ele>19</ele>
        <time>2022-05-14T11:55:39Z</time>
      </trkpt>
      <trkpt lat="46.53745" lon="-1.2168">
        <ele>19</ele>
        <time>2022-05-14T11:55:42Z</time>
      </trkpt>
      <trkpt lat="46.53752" lon="-1.21651">
        <ele>19</ele>
        <time>2022-05-14T11:55:46Z</time>
      </trkpt>
      <trkpt lat="46.53769" lon="-1.21609">
        <ele>19</ele>
        <time>2022-05-14T11:55:52Z</time>
      </trkpt>
      <trkpt lat="46.53816" lon="-1.21538">
        <ele>23</ele>
        <time>2022-05-14T11:56:04Z</time>
      </trkpt>
      <trkpt lat="46.53832" lon="-1.21517">
        <ele>24</ele>
        <time>2022-05-14T11:56:08Z</time>
      </trkpt>
      <trkpt lat="46.53863" lon="-1.21488">
        <ele>25</ele>
        <time>2022-05-14T11:56:15Z</time>
      </trkpt>
      <trkpt lat="46.53872" lon="-1.21483">
        <ele>25</ele>
        <time>2022-05-14T11:56:16Z</time>
      </trkpt>
      <trkpt lat="46.53897" lon="-1.21479">
        <ele>26</ele>
        <time>2022-05-14T11:56:21Z</time>
      </trkpt>
      <trkpt lat="46.53911" lon="-1.21479">
        <ele>27</ele>
        <time>2022-05-14T11:56:23Z</time>
      </trkpt>
      <trkpt lat="46.53923" lon="-1.21482">
        <ele>27</ele>
        <time>2022-05-14T11:56:25Z</time>
      </trkpt>
      <trkpt lat="46.53979" lon="-1.21506">
        <ele>30</ele>
        <time>2022-05-14T11:56:36Z</time>
      </trkpt>
      <trkpt lat="46.53991" lon="-1.21508">
        <ele>30</ele>
        <time>2022-05-14T11:56:38Z</time>
      </trkpt>
      <trkpt lat="46.54011" lon="-1.21507">
        <ele>31</ele>
        <time>2022-05-14T11:56:42Z</time>
      </trkpt>
      <trkpt lat="46.54028" lon="-1.21503">
        <ele>32</ele>
        <time>2022-05-14T11:56:45Z</time>
      </trkpt>
      <trkpt lat="46.5427" lon="-1.21412">
        <ele>33</ele>
        <time>2022-05-14T11:57:29Z</time>
      </trkpt>
      <trkpt lat="46.54304" lon="-1.21394">
        <ele>34</ele>
        <time>2022-05-14T11:57:36Z</time>
      </trkpt>
      <trkpt lat="46.54343" lon="-1.21371">
        <ele>34</ele>
        <time>2022-05-14T11:57:43Z</time>
      </trkpt>
      <trkpt lat="46.54625" lon="-1.21199">
        <ele>28</ele>
        <time>2022-05-14T11:58:37Z</time>
      </trkpt>
      <trkpt lat="46.54648" lon="-1.21184">
        <ele>27</ele>
        <time>2022-05-14T11:58:42Z</time>
      </trkpt>
      <trkpt lat="46.54687" lon="-1.21148">
        <ele>27</ele>
        <time>2022-05-14T11:58:50Z</time>
      </trkpt>
      <trkpt lat="46.54707" lon="-1.21122">
        <ele>27</ele>
        <time>2022-05-14T11:58:55Z</time>
      </trkpt>
      <trkpt lat="46.54921" lon="-1.20809">
        <ele>31</ele>
        <time>2022-05-14T11:59:49Z</time>
      </trkpt>
      <trkpt lat="46.54944" lon="-1.2078">
        <ele>31</ele>
        <time>2022-05-14T11:59:54Z</time>
      </trkpt>
      <trkpt lat="46.54978" lon="-1.20745">
        <ele>31</ele>
        <time>2022-05-14T12:00:02Z</time>
      </trkpt>
      <trkpt lat="46.55039" lon="-1.20693">
        <ele>32</ele>
        <time>2022-05-14T12:00:14Z</time>
      </trkpt>
      <trkpt lat="46.55085" lon="-1.2066">
        <ele>33</ele>
        <time>2022-05-14T12:00:23Z</time>
      </trkpt>
      <trkpt lat="46.55133" lon="-1.20635">
        <ele>33</ele>
        <time>2022-05-14T12:00:33Z</time>
      </trkpt>
      <trkpt lat="46.55217" lon="-1.206">
        <ele>35</ele>
        <time>2022-05-14T12:00:48Z</time>
      </trkpt>
      <trkpt lat="46.55238" lon="-1.20589">
        <ele>36</ele>
        <time>2022-05-14T12:00:52Z</time>
      </trkpt>
      <trkpt lat="46.55273" lon="-1.20561">
        <ele>36</ele>
        <time>2022-05-14T12:00:59Z</time>
      </trkpt>
      <trkpt lat="46.55366" lon="-1.20461">
        <ele>37</ele>
        <time>2022-05-14T12:01:20Z</time>
      </trkpt>
      <trkpt lat="46.55401" lon="-1.20432">
        <ele>38</ele>
        <time>2022-05-14T12:01:27Z</time>
      </trkpt>
      <trkpt lat="46.55426" lon="-1.20416">
        <ele>38</ele>
        <time>2022-05-14T12:01:32Z</time>
      </trkpt>
      <trkpt lat="46.55474" lon="-1.20391">
        <ele>39</ele>
        <time>2022-05-14T12:01:41Z</time>
      </trkpt>
      <trkpt lat="46.55657" lon="-1.20318">
        <ele>38</ele>
        <time>2022-05-14T12:02:15Z</time>
      </trkpt>
      <trkpt lat="46.55705" lon="-1.20289">
        <ele>40</ele>
        <time>2022-05-14T12:02:24Z</time>
      </trkpt>
      <trkpt lat="46.5582" lon="-1.20212">
        <ele>41</ele>
        <time>2022-05-14T12:02:46Z</time>
      </trkpt>
      <trkpt lat="46.55868" lon="-1.20176">
        <ele>41</ele>
        <time>2022-05-14T12:02:56Z</time>
      </trkpt>
      <trkpt lat="46.56274" lon="-1.19794">
        <ele>46</ele>
        <time>2022-05-14T12:04:22Z</time>
      </trkpt>
      <trkpt lat="46.56488" lon="-1.19626">
        <ele>46</ele>
        <time>2022-05-14T12:05:05Z</time>
      </trkpt>
      <trkpt lat="46.56666" lon="-1.19517">
        <ele>49</ele>
        <time>2022-05-14T12:05:40Z</time>
      </trkpt>
      <trkpt lat="46.56716" lon="-1.19492">
        <ele>47</ele>
        <time>2022-05-14T12:05:49Z</time>
      </trkpt>
      <trkpt lat="46.56731" lon="-1.19487">
        <ele>46</ele>
        <time>2022-05-14T12:05:52Z</time>
      </trkpt>
      <trkpt lat="46.56776" lon="-1.1948">
        <ele>44</ele>
        <time>2022-05-14T12:06:00Z</time>
      </trkpt>
      <trkpt lat="46.56815" lon="-1.19482">
        <ele>42</ele>
        <time>2022-05-14T12:06:07Z</time>
      </trkpt>
      <trkpt lat="46.56833" lon="-1.19486">
        <ele>41</ele>
        <time>2022-05-14T12:06:10Z</time>
      </trkpt>
      <trkpt lat="46.56863" lon="-1.19499">
        <ele>40</ele>
        <time>2022-05-14T12:06:16Z</time>
      </trkpt>
      <trkpt lat="46.57003" lon="-1.19582">
        <ele>36</ele>
        <time>2022-05-14T12:06:43Z</time>
      </trkpt>
      <trkpt lat="46.57023" lon="-1.1959">
        <ele>36</ele>
        <time>2022-05-14T12:06:46Z</time>
      </trkpt>
      <trkpt lat="46.57044" lon="-1.19595">
        <ele>36</ele>
        <time>2022-05-14T12:06:50Z</time>
      </trkpt>
      <trkpt lat="46.57072" lon="-1.19597">
        <ele>36</ele>
        <time>2022-05-14T12:06:55Z</time>
      </trkpt>
      <trkpt lat="46.57145" lon="-1.196">
        <ele>32</ele>
        <time>2022-05-14T12:07:08Z</time>
      </trkpt>
      <trkpt lat="46.57164" lon="-1.19602">
        <ele>31</ele>
        <time>2022-05-14T12:07:11Z</time>
      </trkpt>
      <trkpt lat="46.57202" lon="-1.19614">
        <ele>29</ele>
        <time>2022-05-14T12:07:18Z</time>
      </trkpt>
      <trkpt lat="46.57221" lon="-1.19624">
        <ele>28</ele>
        <time>2022-05-14T12:07:22Z</time>
      </trkpt>
      <trkpt lat="46.57239" lon="-1.19636">
        <ele>27</ele>
        <time>2022-05-14T12:07:25Z</time>
      </trkpt>
      <trkpt lat="46.57336" lon="-1.19719">
        <ele>25</ele>
        <time>2022-05-14T12:07:45Z</time>
      </trkpt>
      <trkpt lat="46.57349" lon="-1.19729">
        <ele>25</ele>
        <time>2022-05-14T12:07:48Z</time>
      </trkpt>
      <trkpt lat="46.57373" lon="-1.19749">
        <ele>26</ele>
        <time>2022-05-14T12:07:53Z</time>
      </trkpt>
      <trkpt lat="46.57395" lon="-1.19762">
        <ele>27</ele>
        <time>2022-05-14T12:07:57Z</time>
      </trkpt>
      <trkpt lat="46.57411" lon="-1.19769">
        <ele>28</ele>
        <time>2022-05-14T12:08:00Z</time>
      </trkpt>
      <trkpt lat="46.57444" lon="-1.19773">
        <ele>30</ele>
        <time>2022-05-14T12:08:06Z</time>
      </trkpt>
      <trkpt lat="46.57478" lon="-1.1977">
        <ele>32</ele>
        <time>2022-05-14T12:08:12Z</time>
      </trkpt>
      <trkpt lat="46.57495" lon="-1.19765">
        <ele>33</ele>
        <time>2022-05-14T12:08:15Z</time>
      </trkpt>
      <trkpt lat="46.57536" lon="-1.19742">
        <ele>34</ele>
        <time>2022-05-14T12:08:23Z</time>
      </trkpt>
      <trkpt lat="46.57853" lon="-1.19539">
        <ele>39</ele>
        <time>2022-05-14T12:09:25Z</time>
      </trkpt>
      <trkpt lat="46.57905" lon="-1.19508">
        <ele>39</ele>
        <time>2022-05-14T12:09:35Z</time>
      </trkpt>
      <trkpt lat="46.57925" lon="-1.19502">
        <ele>39</ele>
        <time>2022-05-14T12:09:38Z</time>
      </trkpt>
      <trkpt lat="46.57947" lon="-1.19498">
        <ele>40</ele>
        <time>2022-05-14T12:09:42Z</time>
      </trkpt>
      <trkpt lat="46.57986" lon="-1.19496">
        <ele>41</ele>
        <time>2022-05-14T12:09:49Z</time>
      </trkpt>
      <trkpt lat="46.58224" lon="-1.19497">
        <ele>44</ele>
        <time>2022-05-14T12:10:32Z</time>
      </trkpt>
      <trkpt lat="46.58259" lon="-1.19496">
        <ele>45</ele>
        <time>2022-05-14T12:10:38Z</time>
      </trkpt>
      <trkpt lat="46.58289" lon="-1.19489">
        <ele>44</ele>
        <time>2022-05-14T12:10:43Z</time>
      </trkpt>
      <trkpt lat="46.58323" lon="-1.19475">
        <ele>44</ele>
        <time>2022-05-14T12:10:49Z</time>
      </trkpt>
      <trkpt lat="46.58341" lon="-1.19463">
        <ele>44</ele>
        <time>2022-05-14T12:10:53Z</time>
      </trkpt>
      <trkpt lat="46.58362" lon="-1.19444">
        <ele>43</ele>
        <time>2022-05-14T12:10:57Z</time>
      </trkpt>
      <trkpt lat="46.58385" lon="-1.1942">
        <ele>42</ele>
        <time>2022-05-14T12:11:02Z</time>
      </trkpt>
      <trkpt lat="46.58729" lon="-1.19016">
        <ele>44</ele>
        <time>2022-05-14T12:12:21Z</time>
      </trkpt>
      <trkpt lat="46.58739" lon="-1.19007">
        <ele>43</ele>
        <time>2022-05-14T12:12:23Z</time>
      </trkpt>
      <trkpt lat="46.58755" lon="-1.18996">
        <ele>43</ele>
        <time>2022-05-14T12:12:26Z</time>
      </trkpt>
      <trkpt lat="46.58802" lon="-1.18975">
        <ele>43</ele>
        <time>2022-05-14T12:12:35Z</time>
      </trkpt>
      <trkpt lat="46.58846" lon="-1.18943">
        <ele>44</ele>
        <time>2022-05-14T12:12:44Z</time>
      </trkpt>
      <trkpt lat="46.5886" lon="-1.18928">
        <ele>45</ele>
        <time>2022-05-14T12:12:47Z</time>
      </trkpt>
      <trkpt lat="46.5898" lon="-1.18763">
        <ele>50</ele>
        <time>2022-05-14T12:13:16Z</time>
      </trkpt>
      <trkpt lat="46.59003" lon="-1.18738">
        <ele>50</ele>
        <time>2022-05-14T12:13:21Z</time>
      </trkpt>
      <trkpt lat="46.59027" lon="-1.18716">
        <ele>51</ele>
        <time>2022-05-14T12:13:26Z</time>
      </trkpt>
      <trkpt lat="46.59251" lon="-1.18529">
        <ele>54</ele>
        <time>2022-05-14T12:14:12Z</time>
      </trkpt>
      <trkpt lat="46.59261" lon="-1.18517">
        <ele>53</ele>
        <time>2022-05-14T12:14:15Z</time>
      </trkpt>
      <trkpt lat="46.59276" lon="-1.18492">
        <ele>53</ele>
        <time>2022-05-14T12:14:19Z</time>
      </trkpt>
      <trkpt lat="46.59285" lon="-1.18465">
        <ele>52</ele>
        <time>2022-05-14T12:14:22Z</time>
      </trkpt>
      <trkpt lat="46.5929" lon="-1.18443">
        <ele>52</ele>
        <time>2022-05-14T12:14:25Z</time>
      </trkpt>
      <trkpt lat="46.59294" lon="-1.18344">
        <ele>51</ele>
        <time>2022-05-14T12:14:37Z</time>
      </trkpt>
      <trkpt lat="46.59297" lon="-1.18323">
        <ele>50</ele>
        <time>2022-05-14T12:14:40Z</time>
      </trkpt>
      <trkpt lat="46.59301" lon="-1.18304">
        <ele>50</ele>
        <time>2022-05-14T12:14:42Z</time>
      </trkpt>
      <trkpt lat="46.59307" lon="-1.18296">
        <ele>50</ele>
        <time>2022-05-14T12:14:44Z</time>
      </trkpt>
      <trkpt lat="46.59315" lon="-1.18289">
        <ele>49</ele>
        <time>2022-05-14T12:14:46Z</time>
      </trkpt>
      <trkpt lat="46.59355" lon="-1.1827">
        <ele>48</ele>
        <time>2022-05-14T12:14:53Z</time>
      </trkpt>
      <trkpt lat="46.59363" lon="-1.18269">
        <ele>48</ele>
        <time>2022-05-14T12:14:54Z</time>
      </trkpt>
      <trkpt lat="46.5939" lon="-1.18274">
        <ele>47</ele>
        <time>2022-05-14T12:14:59Z</time>
      </trkpt>
      <trkpt lat="46.59393" lon="-1.1827">
        <ele>47</ele>
        <time>2022-05-14T12:15:00Z</time>
      </trkpt>
      <trkpt lat="46.59402" lon="-1.18221">
        <ele>46</ele>
        <time>2022-05-14T12:15:06Z</time>
      </trkpt>
      <trkpt lat="46.59405" lon="-1.18215">
        <ele>46</ele>
        <time>2022-05-14T12:15:07Z</time>
      </trkpt>
      <trkpt lat="46.59442" lon="-1.18186">
        <ele>46</ele>
        <time>2022-05-14T12:15:15Z</time>
      </trkpt>
      <trkpt lat="46.59446" lon="-1.18181">
        <ele>46</ele>
        <time>2022-05-14T12:15:16Z</time>
      </trkpt>
      <trkpt lat="46.59456" lon="-1.18154">
        <ele>47</ele>
        <time>2022-05-14T12:15:19Z</time>
      </trkpt>
      <trkpt lat="46.59461" lon="-1.18146">
        <ele>47</ele>
        <time>2022-05-14T12:15:21Z</time>
      </trkpt>
      <trkpt lat="46.5947" lon="-1.18138">
        <ele>47</ele>
        <time>2022-05-14T12:15:22Z</time>
      </trkpt>
      <trkpt lat="46.59524" lon="-1.18116">
        <ele>48</ele>
        <time>2022-05-14T12:15:32Z</time>
      </trkpt>
      <trkpt lat="46.59531" lon="-1.18104">
        <ele>48</ele>
        <time>2022-05-14T12:15:34Z</time>
      </trkpt>
      <trkpt lat="46.59537" lon="-1.18087">
        <ele>48</ele>
        <time>2022-05-14T12:15:37Z</time>
      </trkpt>
      <trkpt lat="46.59553" lon="-1.18027">
        <ele>48</ele>
        <time>2022-05-14T12:15:45Z</time>
      </trkpt>
      <trkpt lat="46.59593" lon="-1.18027">
        <ele>49</ele>
        <time>2022-05-14T12:15:52Z</time>
      </trkpt>
      <trkpt lat="46.59613" lon="-1.18018">
        <ele>50</ele>
        <time>2022-05-14T12:15:55Z</time>
      </trkpt>
      <trkpt lat="46.59636" lon="-1.18001">
        <ele>52</ele>
        <time>2022-05-14T12:16:00Z</time>
      </trkpt>
      <trkpt lat="46.59651" lon="-1.17987">
        <ele>53</ele>
        <time>2022-05-14T12:16:03Z</time>
      </trkpt>
      <trkpt lat="46.59688" lon="-1.17943">
        <ele>54</ele>
        <time>2022-05-14T12:16:12Z</time>
      </trkpt>
      <trkpt lat="46.59841" lon="-1.17744">
        <ele>55</ele>
        <time>2022-05-14T12:16:48Z</time>
      </trkpt>
      <trkpt lat="46.59875" lon="-1.17707">
        <ele>56</ele>
        <time>2022-05-14T12:16:56Z</time>
      </trkpt>
      <trkpt lat="46.59918" lon="-1.17671">
        <ele>56</ele>
        <time>2022-05-14T12:17:05Z</time>
      </trkpt>
      <trkpt lat="46.60116" lon="-1.17541">
        <ele>61</ele>
        <time>2022-05-14T12:17:43Z</time>
      </trkpt>
      <trkpt lat="46.60385" lon="-1.17405">
        <ele>70</ele>
        <time>2022-05-14T12:18:34Z</time>
      </trkpt>
      <trkpt lat="46.60418" lon="-1.17393">
        <ele>72</ele>
        <time>2022-05-14T12:18:40Z</time>
      </trkpt>
      <trkpt lat="46.60448" lon="-1.17389">
        <ele>73</ele>
        <time>2022-05-14T12:18:45Z</time>
      </trkpt>
      <trkpt lat="46.60467" lon="-1.17389">
        <ele>73</ele>
        <time>2022-05-14T12:18:49Z</time>
      </trkpt>
      <trkpt lat="46.60499" lon="-1.17396">
        <ele>74</ele>
        <time>2022-05-14T12:18:54Z</time>
      </trkpt>
      <trkpt lat="46.60554" lon="-1.17418">
        <ele>74</ele>
        <time>2022-05-14T12:19:05Z</time>
      </trkpt>
      <trkpt lat="46.60637" lon="-1.17456">
        <ele>74</ele>
        <time>2022-05-14T12:19:20Z</time>
      </trkpt>
      <trkpt lat="46.60695" lon="-1.17479">
        <ele>74</ele>
        <time>2022-05-14T12:19:31Z</time>
      </trkpt>
      <trkpt lat="46.60729" lon="-1.17486">
        <ele>72</ele>
        <time>2022-05-14T12:19:37Z</time>
      </trkpt>
      <trkpt lat="46.60882" lon="-1.17509">
        <ele>65</ele>
        <time>2022-05-14T12:20:04Z</time>
      </trkpt>
      <trkpt lat="46.60917" lon="-1.17511">
        <ele>63</ele>
        <time>2022-05-14T12:20:10Z</time>
      </trkpt>
      <trkpt lat="46.60994" lon="-1.17502">
        <ele>57</ele>
        <time>2022-05-14T12:20:24Z</time>
      </trkpt>
      <trkpt lat="46.61031" lon="-1.17504">
        <ele>56</ele>
        <time>2022-05-14T12:20:31Z</time>
      </trkpt>
      <trkpt lat="46.61079" lon="-1.17517">
        <ele>55</ele>
        <time>2022-05-14T12:20:39Z</time>
      </trkpt>
      <trkpt lat="46.61102" lon="-1.17522">
        <ele>55</ele>
        <time>2022-05-14T12:20:44Z</time>
      </trkpt>
      <trkpt lat="46.61119" lon="-1.17522">
        <ele>56</ele>
        <time>2022-05-14T12:20:47Z</time>
      </trkpt>
      <trkpt lat="46.61151" lon="-1.17516">
        <ele>56</ele>
        <time>2022-05-14T12:20:52Z</time>
      </trkpt>
      <trkpt lat="46.61178" lon="-1.17502">
        <ele>56</ele>
        <time>2022-05-14T12:20:58Z</time>
      </trkpt>
      <trkpt lat="46.61282" lon="-1.1742">
        <ele>54</ele>
        <time>2022-05-14T12:21:19Z</time>
      </trkpt>
      <trkpt lat="46.61298" lon="-1.17411">
        <ele>54</ele>
        <time>2022-05-14T12:21:22Z</time>
      </trkpt>
      <trkpt lat="46.61338" lon="-1.17396">
        <ele>55</ele>
        <time>2022-05-14T12:21:29Z</time>
      </trkpt>
      <trkpt lat="46.61357" lon="-1.17393">
        <ele>54</ele>
        <time>2022-05-14T12:21:32Z</time>
      </trkpt>
      <trkpt lat="46.61403" lon="-1.17394">
        <ele>52</ele>
        <time>2022-05-14T12:21:41Z</time>
      </trkpt>
      <trkpt lat="46.61476" lon="-1.17401">
        <ele>51</ele>
        <time>2022-05-14T12:21:54Z</time>
      </trkpt>
      <trkpt lat="46.61509" lon="-1.17399">
        <ele>50</ele>
        <time>2022-05-14T12:21:59Z</time>
      </trkpt>
      <trkpt lat="46.61545" lon="-1.17392">
        <ele>49</ele>
        <time>2022-05-14T12:22:06Z</time>
      </trkpt>
      <trkpt lat="46.61682" lon="-1.1735">
        <ele>51</ele>
        <time>2022-05-14T12:22:31Z</time>
      </trkpt>
      <trkpt lat="46.61716" lon="-1.17343">
        <ele>54</ele>
        <time>2022-05-14T12:22:37Z</time>
      </trkpt>
      <trkpt lat="46.61788" lon="-1.17338">
        <ele>58</ele>
        <time>2022-05-14T12:22:50Z</time>
      </trkpt>
      <trkpt lat="46.61845" lon="-1.17326">
        <ele>61</ele>
        <time>2022-05-14T12:23:00Z</time>
      </trkpt>
      <trkpt lat="46.61879" lon="-1.17312">
        <ele>62</ele>
        <time>2022-05-14T12:23:06Z</time>
      </trkpt>
      <trkpt lat="46.61958" lon="-1.17274">
        <ele>64</ele>
        <time>2022-05-14T12:23:21Z</time>
      </trkpt>
      <trkpt lat="46.61981" lon="-1.17266">
        <ele>64</ele>
        <time>2022-05-14T12:23:25Z</time>
      </trkpt>
      <trkpt lat="46.62051" lon="-1.17252">
        <ele>65</ele>
        <time>2022-05-14T12:23:38Z</time>
      </trkpt>
      <trkpt lat="46.62075" lon="-1.17252">
        <ele>65</ele>
        <time>2022-05-14T12:23:42Z</time>
      </trkpt>
      <trkpt lat="46.62174" lon="-1.17269">
        <ele>66</ele>
        <time>2022-05-14T12:24:00Z</time>
      </trkpt>
      <trkpt lat="46.62197" lon="-1.17271">
        <ele>67</ele>
        <time>2022-05-14T12:24:04Z</time>
      </trkpt>
      <trkpt lat="46.623" lon="-1.17251">
        <ele>72</ele>
        <time>2022-05-14T12:24:22Z</time>
      </trkpt>
      <trkpt lat="46.62477" lon="-1.17242">
        <ele>71</ele>
        <time>2022-05-14T12:24:54Z</time>
      </trkpt>
      <trkpt lat="46.62515" lon="-1.17235">
        <ele>71</ele>
        <time>2022-05-14T12:25:01Z</time>
      </trkpt>
      <trkpt lat="46.6253" lon="-1.1723">
        <ele>72</ele>
        <time>2022-05-14T12:25:04Z</time>
      </trkpt>
      <trkpt lat="46.62547" lon="-1.17221">
        <ele>72</ele>
        <time>2022-05-14T12:25:07Z</time>
      </trkpt>
      <trkpt lat="46.62645" lon="-1.17159">
        <ele>76</ele>
        <time>2022-05-14T12:25:26Z</time>
      </trkpt>
      <trkpt lat="46.6267" lon="-1.17148">
        <ele>77</ele>
        <time>2022-05-14T12:25:30Z</time>
      </trkpt>
      <trkpt lat="46.62727" lon="-1.17134">
        <ele>78</ele>
        <time>2022-05-14T12:25:41Z</time>
      </trkpt>
      <trkpt lat="46.62764" lon="-1.1713">
        <ele>78</ele>
        <time>2022-05-14T12:25:47Z</time>
      </trkpt>
      <trkpt lat="46.62845" lon="-1.17136">
        <ele>76</ele>
        <time>2022-05-14T12:26:02Z</time>
      </trkpt>
      <trkpt lat="46.62928" lon="-1.17137">
        <ele>76</ele>
        <time>2022-05-14T12:26:16Z</time>
      </trkpt>
      <trkpt lat="46.62971" lon="-1.17135">
        <ele>76</ele>
        <time>2022-05-14T12:26:24Z</time>
      </trkpt>
      <trkpt lat="46.63129" lon="-1.17131">
        <ele>77</ele>
        <time>2022-05-14T12:26:52Z</time>
      </trkpt>
      <trkpt lat="46.63148" lon="-1.17128">
        <ele>77</ele>
        <time>2022-05-14T12:26:56Z</time>
      </trkpt>
      <trkpt lat="46.6317" lon="-1.17121">
        <ele>76</ele>
        <time>2022-05-14T12:27:00Z</time>
      </trkpt>
      <trkpt lat="46.63207" lon="-1.17105">
        <ele>76</ele>
        <time>2022-05-14T12:27:07Z</time>
      </trkpt>
      <trkpt lat="46.63223" lon="-1.17101">
        <ele>75</ele>
        <time>2022-05-14T12:27:09Z</time>
      </trkpt>
      <trkpt lat="46.63258" lon="-1.17096">
        <ele>75</ele>
        <time>2022-05-14T12:27:16Z</time>
      </trkpt>
      <trkpt lat="46.63297" lon="-1.17084">
        <ele>76</ele>
        <time>2022-05-14T12:27:23Z</time>
      </trkpt>
      <trkpt lat="46.63316" lon="-1.17082">
        <ele>77</ele>
        <time>2022-05-14T12:27:26Z</time>
      </trkpt>
      <trkpt lat="46.63401" lon="-1.17091">
        <ele>76</ele>
        <time>2022-05-14T12:27:41Z</time>
      </trkpt>
      <trkpt lat="46.63447" lon="-1.17101">
        <ele>75</ele>
        <time>2022-05-14T12:27:50Z</time>
      </trkpt>
      <trkpt lat="46.63454" lon="-1.171">
        <ele>75</ele>
        <time>2022-05-14T12:27:51Z</time>
      </trkpt>
      <trkpt lat="46.6346" lon="-1.17097">
        <ele>75</ele>
        <time>2022-05-14T12:27:52Z</time>
      </trkpt>
      <trkpt lat="46.63464" lon="-1.17089">
        <ele>75</ele>
        <time>2022-05-14T12:27:53Z</time>
      </trkpt>
      <trkpt lat="46.6346" lon="-1.17082">
        <ele>75</ele>
        <time>2022-05-14T12:27:54Z</time>
      </trkpt>
      <trkpt lat="46.63458" lon="-1.17071">
        <ele>75</ele>
        <time>2022-05-14T12:27:56Z</time>
      </trkpt>
      <trkpt lat="46.63459" lon="-1.16964">
        <ele>74</ele>
        <time>2022-05-14T12:28:09Z</time>
      </trkpt>
      <trkpt lat="46.63459" lon="-1.16954">
        <ele>74</ele>
        <time>2022-05-14T12:28:10Z</time>
      </trkpt>
      <trkpt lat="46.63458" lon="-1.16932">
        <ele>73</ele>
        <time>2022-05-14T12:28:13Z</time>
      </trkpt>
      <trkpt lat="46.63452" lon="-1.16903">
        <ele>73</ele>
        <time>2022-05-14T12:28:16Z</time>
      </trkpt>
      <trkpt lat="46.63434" lon="-1.16861">
        <ele>74</ele>
        <time>2022-05-14T12:28:22Z</time>
      </trkpt>
      <trkpt lat="46.63407" lon="-1.16816">
        <ele>75</ele>
        <time>2022-05-14T12:28:30Z</time>
      </trkpt>
      <trkpt lat="46.63358" lon="-1.16765">
        <ele>77</ele>
        <time>2022-05-14T12:28:40Z</time>
      </trkpt>
      <trkpt lat="46.63431" lon="-1.16585">
        <ele>73</ele>
        <time>2022-05-14T12:29:06Z</time>
      </trkpt>
      <trkpt lat="46.63573" lon="-1.16251">
        <ele>80</ele>
        <time>2022-05-14T12:29:54Z</time>
      </trkpt>
      <trkpt lat="46.63704" lon="-1.15932">
        <ele>85</ele>
        <time>2022-05-14T12:30:39Z</time>
      </trkpt>
      <trkpt lat="46.63757" lon="-1.15809">
        <ele>88</ele>
        <time>2022-05-14T12:30:57Z</time>
      </trkpt>
      <trkpt lat="46.63825" lon="-1.15639">
        <ele>92</ele>
        <time>2022-05-14T12:31:21Z</time>
      </trkpt>
      <trkpt lat="46.63844" lon="-1.15581">
        <ele>91</ele>
        <time>2022-05-14T12:31:29Z</time>
      </trkpt>
      <trkpt lat="46.63847" lon="-1.15541">
        <ele>92</ele>
        <time>2022-05-14T12:31:34Z</time>
      </trkpt>
      <trkpt lat="46.63847" lon="-1.15514">
        <ele>92</ele>
        <time>2022-05-14T12:31:37Z</time>
      </trkpt>
      <trkpt lat="46.63847" lon="-1.15501">
        <ele>92</ele>
        <time>2022-05-14T12:31:39Z</time>
      </trkpt>
      <trkpt lat="46.63843" lon="-1.15477">
        <ele>93</ele>
        <time>2022-05-14T12:31:42Z</time>
      </trkpt>
      <trkpt lat="46.63833" lon="-1.15469">
        <ele>93</ele>
        <time>2022-05-14T12:31:44Z</time>
      </trkpt>
      <trkpt lat="46.63825" lon="-1.15457">
        <ele>93</ele>
        <time>2022-05-14T12:31:46Z</time>
      </trkpt>
      <trkpt lat="46.6382" lon="-1.15443">
        <ele>94</ele>
        <time>2022-05-14T12:31:48Z</time>
      </trkpt>
      <trkpt lat="46.63818" lon="-1.15425">
        <ele>94</ele>
        <time>2022-05-14T12:31:50Z</time>
      </trkpt>
      <trkpt lat="46.63821" lon="-1.15403">
        <ele>94</ele>
        <time>2022-05-14T12:31:53Z</time>
      </trkpt>
      <trkpt lat="46.63827" lon="-1.15386">
        <ele>94</ele>
        <time>2022-05-14T12:31:55Z</time>
      </trkpt>
      <trkpt lat="46.63835" lon="-1.15375">
        <ele>95</ele>
        <time>2022-05-14T12:31:57Z</time>
      </trkpt>
      <trkpt lat="46.63847" lon="-1.15368">
        <ele>94</ele>
        <time>2022-05-14T12:31:59Z</time>
      </trkpt>
      <trkpt lat="46.63857" lon="-1.15366">
        <ele>94</ele>
        <time>2022-05-14T12:32:01Z</time>
      </trkpt>
      <trkpt lat="46.63868" lon="-1.15367">
        <ele>94</ele>
        <time>2022-05-14T12:32:03Z</time>
      </trkpt>
      <trkpt lat="46.63878" lon="-1.15374">
        <ele>95</ele>
        <time>2022-05-14T12:32:05Z</time>
      </trkpt>
      <trkpt lat="46.63898" lon="-1.15366">
        <ele>95</ele>
        <time>2022-05-14T12:32:09Z</time>
      </trkpt>
      <trkpt lat="46.63908" lon="-1.15356">
        <ele>95</ele>
        <time>2022-05-14T12:32:11Z</time>
      </trkpt>
      <trkpt lat="46.63958" lon="-1.15291">
        <ele>94</ele>
        <time>2022-05-14T12:32:23Z</time>
      </trkpt>
      <trkpt lat="46.63995" lon="-1.15231">
        <ele>94</ele>
        <time>2022-05-14T12:32:33Z</time>
      </trkpt>
      <trkpt lat="46.64261" lon="-1.14593">
        <ele>95</ele>
        <time>2022-05-14T12:34:04Z</time>
      </trkpt>
      <trkpt lat="46.64384" lon="-1.14284">
        <ele>97</ele>
        <time>2022-05-14T12:34:48Z</time>
      </trkpt>
      <trkpt lat="46.64409" lon="-1.14217">
        <ele>95</ele>
        <time>2022-05-14T12:34:57Z</time>
      </trkpt>
      <trkpt lat="46.64451" lon="-1.14079">
        <ele>88</ele>
        <time>2022-05-14T12:35:15Z</time>
      </trkpt>
      <trkpt lat="46.64471" lon="-1.13984">
        <ele>86</ele>
        <time>2022-05-14T12:35:27Z</time>
      </trkpt>
      <trkpt lat="46.64518" lon="-1.14008">
        <ele>87</ele>
        <time>2022-05-14T12:35:36Z</time>
      </trkpt>
      <trkpt lat="46.64539" lon="-1.14025">
        <ele>87</ele>
        <time>2022-05-14T12:35:41Z</time>
      </trkpt>
      <trkpt lat="46.64559" lon="-1.14037">
        <ele>87</ele>
        <time>2022-05-14T12:35:44Z</time>
      </trkpt>
      <trkpt lat="46.64572" lon="-1.14042">
        <ele>87</ele>
        <time>2022-05-14T12:35:47Z</time>
      </trkpt>
      <trkpt lat="46.64596" lon="-1.14048">
        <ele>87</ele>
        <time>2022-05-14T12:35:51Z</time>
      </trkpt>
      <trkpt lat="46.64629" lon="-1.14049">
        <ele>87</ele>
        <time>2022-05-14T12:35:57Z</time>
      </trkpt>
      <trkpt lat="46.64648" lon="-1.14045">
        <ele>87</ele>
        <time>2022-05-14T12:36:00Z</time>
      </trkpt>
      <trkpt lat="46.6468" lon="-1.14031">
        <ele>87</ele>
        <time>2022-05-14T12:36:06Z</time>
      </trkpt>
      <trkpt lat="46.64695" lon="-1.1402">
        <ele>86</ele>
        <time>2022-05-14T12:36:09Z</time>
      </trkpt>
      <trkpt lat="46.64728" lon="-1.1399">
        <ele>86</ele>
        <time>2022-05-14T12:36:16Z</time>
      </trkpt>
      <trkpt lat="46.65026" lon="-1.13691">
        <ele>71</ele>
        <time>2022-05-14T12:37:21Z</time>
      </trkpt>
      <trkpt lat="46.65041" lon="-1.13676">
        <ele>72</ele>
        <time>2022-05-14T12:37:24Z</time>
      </trkpt>
      <trkpt lat="46.65074" lon="-1.13641">
        <ele>72</ele>
        <time>2022-05-14T12:37:31Z</time>
      </trkpt>
      <trkpt lat="46.65283" lon="-1.13362">
        <ele>78</ele>
        <time>2022-05-14T12:38:22Z</time>
      </trkpt>
      <trkpt lat="46.65303" lon="-1.13338">
        <ele>78</ele>
        <time>2022-05-14T12:38:26Z</time>
      </trkpt>
      <trkpt lat="46.65318" lon="-1.13322">
        <ele>78</ele>
        <time>2022-05-14T12:38:30Z</time>
      </trkpt>
      <trkpt lat="46.6533" lon="-1.13311">
        <ele>79</ele>
        <time>2022-05-14T12:38:32Z</time>
      </trkpt>
      <trkpt lat="46.65353" lon="-1.13297">
        <ele>78</ele>
        <time>2022-05-14T12:38:37Z</time>
      </trkpt>
      <trkpt lat="46.6539" lon="-1.13281">
        <ele>78</ele>
        <time>2022-05-14T12:38:43Z</time>
      </trkpt>
      <trkpt lat="46.65414" lon="-1.13275">
        <ele>77</ele>
        <time>2022-05-14T12:38:48Z</time>
      </trkpt>
      <trkpt lat="46.6544" lon="-1.13273">
        <ele>77</ele>
        <time>2022-05-14T12:38:52Z</time>
      </trkpt>
      <trkpt lat="46.65477" lon="-1.13278">
        <ele>76</ele>
        <time>2022-05-14T12:38:59Z</time>
      </trkpt>
      <trkpt lat="46.65504" lon="-1.13288">
        <ele>76</ele>
        <time>2022-05-14T12:39:04Z</time>
      </trkpt>
      <trkpt lat="46.65531" lon="-1.13303">
        <ele>74</ele>
        <time>2022-05-14T12:39:09Z</time>
      </trkpt>
      <trkpt lat="46.65548" lon="-1.13316">
        <ele>73</ele>
        <time>2022-05-14T12:39:12Z</time>
      </trkpt>
      <trkpt lat="46.65661" lon="-1.13408">
        <ele>67</ele>
        <time>2022-05-14T12:39:35Z</time>
      </trkpt>
      <trkpt lat="46.65698" lon="-1.13431">
        <ele>65</ele>
        <time>2022-05-14T12:39:43Z</time>
      </trkpt>
      <trkpt lat="46.65725" lon="-1.1344">
        <ele>63</ele>
        <time>2022-05-14T12:39:48Z</time>
      </trkpt>
      <trkpt lat="46.65751" lon="-1.13442">
        <ele>62</ele>
        <time>2022-05-14T12:39:52Z</time>
      </trkpt>
      <trkpt lat="46.65779" lon="-1.13438">
        <ele>59</ele>
        <time>2022-05-14T12:39:57Z</time>
      </trkpt>
      <trkpt lat="46.65793" lon="-1.13434">
        <ele>57</ele>
        <time>2022-05-14T12:40:00Z</time>
      </trkpt>
      <trkpt lat="46.6582" lon="-1.1342">
        <ele>54</ele>
        <time>2022-05-14T12:40:05Z</time>
      </trkpt>
      <trkpt lat="46.65881" lon="-1.13365">
        <ele>50</ele>
        <time>2022-05-14T12:40:18Z</time>
      </trkpt>
      <trkpt lat="46.65895" lon="-1.13353">
        <ele>49</ele>
        <time>2022-05-14T12:40:21Z</time>
      </trkpt>
      <trkpt lat="46.6608" lon="-1.13183">
        <ele>58</ele>
        <time>2022-05-14T12:40:59Z</time>
      </trkpt>
      <trkpt lat="46.66105" lon="-1.13167">
        <ele>60</ele>
        <time>2022-05-14T12:41:04Z</time>
      </trkpt>
      <trkpt lat="46.66123" lon="-1.13162">
        <ele>61</ele>
        <time>2022-05-14T12:41:08Z</time>
      </trkpt>
      <trkpt lat="46.66142" lon="-1.13159">
        <ele>62</ele>
        <time>2022-05-14T12:41:11Z</time>
      </trkpt>
      <trkpt lat="46.66168" lon="-1.1316">
        <ele>64</ele>
        <time>2022-05-14T12:41:16Z</time>
      </trkpt>
      <trkpt lat="46.66204" lon="-1.13174">
        <ele>66</ele>
        <time>2022-05-14T12:41:22Z</time>
      </trkpt>
      <trkpt lat="46.66225" lon="-1.13188">
        <ele>68</ele>
        <time>2022-05-14T12:41:26Z</time>
      </trkpt>
      <trkpt lat="46.66248" lon="-1.13213">
        <ele>71</ele>
        <time>2022-05-14T12:41:31Z</time>
      </trkpt>
      <trkpt lat="46.66274" lon="-1.13252">
        <ele>74</ele>
        <time>2022-05-14T12:41:38Z</time>
      </trkpt>
      <trkpt lat="46.66319" lon="-1.13349">
        <ele>78</ele>
        <time>2022-05-14T12:41:52Z</time>
      </trkpt>
      <trkpt lat="46.66337" lon="-1.13383">
        <ele>80</ele>
        <time>2022-05-14T12:41:58Z</time>
      </trkpt>
      <trkpt lat="46.66349" lon="-1.134">
        <ele>81</ele>
        <time>2022-05-14T12:42:01Z</time>
      </trkpt>
      <trkpt lat="46.66381" lon="-1.13435">
        <ele>83</ele>
        <time>2022-05-14T12:42:08Z</time>
      </trkpt>
      <trkpt lat="46.66534" lon="-1.13584">
        <ele>77</ele>
        <time>2022-05-14T12:42:40Z</time>
      </trkpt>
      <trkpt lat="46.66574" lon="-1.13625">
        <ele>71</ele>
        <time>2022-05-14T12:42:49Z</time>
      </trkpt>
      <trkpt lat="46.66609" lon="-1.13652">
        <ele>69</ele>
        <time>2022-05-14T12:42:56Z</time>
      </trkpt>
      <trkpt lat="46.66631" lon="-1.13662">
        <ele>69</ele>
        <time>2022-05-14T12:43:00Z</time>
      </trkpt>
      <trkpt lat="46.66762" lon="-1.13707">
        <ele>78</ele>
        <time>2022-05-14T12:43:24Z</time>
      </trkpt>
      <trkpt lat="46.6679" lon="-1.13719">
        <ele>80</ele>
        <time>2022-05-14T12:43:29Z</time>
      </trkpt>
      <trkpt lat="46.66816" lon="-1.13732">
        <ele>82</ele>
        <time>2022-05-14T12:43:34Z</time>
      </trkpt>
      <trkpt lat="46.66858" lon="-1.13762">
        <ele>85</ele>
        <time>2022-05-14T12:43:43Z</time>
      </trkpt>
      <trkpt lat="46.66894" lon="-1.13797">
        <ele>87</ele>
        <time>2022-05-14T12:43:50Z</time>
      </trkpt>
      <trkpt lat="46.66917" lon="-1.13825">
        <ele>89</ele>
        <time>2022-05-14T12:43:56Z</time>
      </trkpt>
      <trkpt lat="46.67021" lon="-1.13962">
        <ele>98</ele>
        <time>2022-05-14T12:44:21Z</time>
      </trkpt>
      <trkpt lat="46.67038" lon="-1.13978">
        <ele>99</ele>
        <time>2022-05-14T12:44:24Z</time>
      </trkpt>
      <trkpt lat="46.67064" lon="-1.13998">
        <ele>100</ele>
        <time>2022-05-14T12:44:29Z</time>
      </trkpt>
      <trkpt lat="46.67094" lon="-1.14012">
        <ele>101</ele>
        <time>2022-05-14T12:44:35Z</time>
      </trkpt>
      <trkpt lat="46.67113" lon="-1.14017">
        <ele>101</ele>
        <time>2022-05-14T12:44:38Z</time>
      </trkpt>
      <trkpt lat="46.67129" lon="-1.1402">
        <ele>102</ele>
        <time>2022-05-14T12:44:41Z</time>
      </trkpt>
      <trkpt lat="46.6716" lon="-1.1402">
        <ele>102</ele>
        <time>2022-05-14T12:44:47Z</time>
      </trkpt>
      <trkpt lat="46.67178" lon="-1.14018">
        <ele>103</ele>
        <time>2022-05-14T12:44:50Z</time>
      </trkpt>
      <trkpt lat="46.67207" lon="-1.1401">
        <ele>103</ele>
        <time>2022-05-14T12:44:55Z</time>
      </trkpt>
      <trkpt lat="46.67248" lon="-1.13987">
        <ele>104</ele>
        <time>2022-05-14T12:45:03Z</time>
      </trkpt>
      <trkpt lat="46.67294" lon="-1.13957">
        <ele>104</ele>
        <time>2022-05-14T12:45:12Z</time>
      </trkpt>
      <trkpt lat="46.67433" lon="-1.13887">
        <ele>102</ele>
        <time>2022-05-14T12:45:38Z</time>
      </trkpt>
      <trkpt lat="46.67834" lon="-1.13691">
        <ele>105</ele>
        <time>2022-05-14T12:46:54Z</time>
      </trkpt>
      <trkpt lat="46.6795" lon="-1.13631">
        <ele>105</ele>
        <time>2022-05-14T12:47:15Z</time>
      </trkpt>
      <trkpt lat="46.68025" lon="-1.13595">
        <ele>104</ele>
        <time>2022-05-14T12:47:29Z</time>
      </trkpt>
      <trkpt lat="46.68041" lon="-1.13585">
        <ele>104</ele>
        <time>2022-05-14T12:47:33Z</time>
      </trkpt>
      <trkpt lat="46.68057" lon="-1.13568">
        <ele>103</ele>
        <time>2022-05-14T12:47:36Z</time>
      </trkpt>
      <trkpt lat="46.6807" lon="-1.1355">
        <ele>102</ele>
        <time>2022-05-14T12:47:39Z</time>
      </trkpt>
      <trkpt lat="46.68237" lon="-1.1329">
        <ele>90</ele>
        <time>2022-05-14T12:48:23Z</time>
      </trkpt>
      <trkpt lat="46.68269" lon="-1.13234">
        <ele>88</ele>
        <time>2022-05-14T12:48:32Z</time>
      </trkpt>
      <trkpt lat="46.68354" lon="-1.1307">
        <ele>85</ele>
        <time>2022-05-14T12:48:57Z</time>
      </trkpt>
      <trkpt lat="46.68378" lon="-1.13033">
        <ele>84</ele>
        <time>2022-05-14T12:49:03Z</time>
      </trkpt>
      <trkpt lat="46.68392" lon="-1.13021">
        <ele>84</ele>
        <time>2022-05-14T12:49:06Z</time>
      </trkpt>
      <trkpt lat="46.68404" lon="-1.13014">
        <ele>85</ele>
        <time>2022-05-14T12:49:08Z</time>
      </trkpt>
      <trkpt lat="46.68506" lon="-1.12965">
        <ele>90</ele>
        <time>2022-05-14T12:49:27Z</time>
      </trkpt>
      <trkpt lat="46.68523" lon="-1.12963">
        <ele>90</ele>
        <time>2022-05-14T12:49:30Z</time>
      </trkpt>
      <trkpt lat="46.68532" lon="-1.12964">
        <ele>91</ele>
        <time>2022-05-14T12:49:32Z</time>
      </trkpt>
      <trkpt lat="46.68552" lon="-1.12975">
        <ele>92</ele>
        <time>2022-05-14T12:49:36Z</time>
      </trkpt>
      <trkpt lat="46.68565" lon="-1.12987">
        <ele>92</ele>
        <time>2022-05-14T12:49:38Z</time>
      </trkpt>
      <trkpt lat="46.68572" lon="-1.12999">
        <ele>92</ele>
        <time>2022-05-14T12:49:40Z</time>
      </trkpt>
      <trkpt lat="46.6861" lon="-1.13077">
        <ele>94</ele>
        <time>2022-05-14T12:49:52Z</time>
      </trkpt>
      <trkpt lat="46.68633" lon="-1.13122">
        <ele>95</ele>
        <time>2022-05-14T12:49:59Z</time>
      </trkpt>
      <trkpt lat="46.68679" lon="-1.13188">
        <ele>96</ele>
        <time>2022-05-14T12:50:10Z</time>
      </trkpt>
      <trkpt lat="46.68723" lon="-1.13034">
        <ele>100</ele>
        <time>2022-05-14T12:50:31Z</time>
      </trkpt>
      <trkpt lat="46.68729" lon="-1.13017">
        <ele>100</ele>
        <time>2022-05-14T12:50:33Z</time>
      </trkpt>
      <trkpt lat="46.68735" lon="-1.13006">
        <ele>101</ele>
        <time>2022-05-14T12:50:35Z</time>
      </trkpt>
      <trkpt lat="46.68752" lon="-1.12985">
        <ele>101</ele>
        <time>2022-05-14T12:50:39Z</time>
      </trkpt>
      <trkpt lat="46.68759" lon="-1.1298">
        <ele>101</ele>
        <time>2022-05-14T12:50:40Z</time>
      </trkpt>
      <trkpt lat="46.68832" lon="-1.12959">
        <ele>101</ele>
        <time>2022-05-14T12:50:53Z</time>
      </trkpt>
      <trkpt lat="46.68892" lon="-1.13047">
        <ele>101</ele>
        <time>2022-05-14T12:51:09Z</time>
      </trkpt>
      <trkpt lat="46.68899" lon="-1.13052">
        <ele>101</ele>
        <time>2022-05-14T12:51:10Z</time>
      </trkpt>
      <trkpt lat="46.69047" lon="-1.13069">
        <ele>99</ele>
        <time>2022-05-14T12:51:36Z</time>
      </trkpt>
      <trkpt lat="46.69064" lon="-1.13076">
        <ele>99</ele>
        <time>2022-05-14T12:51:39Z</time>
      </trkpt>
      <trkpt lat="46.69078" lon="-1.13088">
        <ele>99</ele>
        <time>2022-05-14T12:51:42Z</time>
      </trkpt>
      <trkpt lat="46.6909" lon="-1.13071">
        <ele>99</ele>
        <time>2022-05-14T12:51:45Z</time>
      </trkpt>
      <trkpt lat="46.69098" lon="-1.13065">
        <ele>99</ele>
        <time>2022-05-14T12:51:47Z</time>
      </trkpt>
      <trkpt lat="46.69534" lon="-1.1285">
        <ele>84</ele>
        <time>2022-05-14T12:53:09Z</time>
      </trkpt>
      <trkpt lat="46.69581" lon="-1.1284">
        <ele>83</ele>
        <time>2022-05-14T12:53:17Z</time>
      </trkpt>
      <trkpt lat="46.69628" lon="-1.12842">
        <ele>81</ele>
        <time>2022-05-14T12:53:26Z</time>
      </trkpt>
      <trkpt lat="46.69806" lon="-1.12898">
        <ele>69</ele>
        <time>2022-05-14T12:53:58Z</time>
      </trkpt>
      <trkpt lat="46.6984" lon="-1.12895">
        <ele>65</ele>
        <time>2022-05-14T12:54:04Z</time>
      </trkpt>
      <trkpt lat="46.69868" lon="-1.12881">
        <ele>62</ele>
        <time>2022-05-14T12:54:09Z</time>
      </trkpt>
      <trkpt lat="46.69889" lon="-1.12849">
        <ele>61</ele>
        <time>2022-05-14T12:54:15Z</time>
      </trkpt>
      <trkpt lat="46.6991" lon="-1.12775">
        <ele>62</ele>
        <time>2022-05-14T12:54:25Z</time>
      </trkpt>
      <trkpt lat="46.69921" lon="-1.12721">
        <ele>61</ele>
        <time>2022-05-14T12:54:31Z</time>
      </trkpt>
      <trkpt lat="46.69948" lon="-1.12655">
        <ele>57</ele>
        <time>2022-05-14T12:54:41Z</time>
      </trkpt>
      <trkpt lat="46.70071" lon="-1.12508">
        <ele>43</ele>
        <time>2022-05-14T12:55:09Z</time>
      </trkpt>
      <trkpt lat="46.70102" lon="-1.12468">
        <ele>42</ele>
        <time>2022-05-14T12:55:16Z</time>
      </trkpt>
      <trkpt lat="46.7017" lon="-1.1238">
        <ele>44</ele>
        <time>2022-05-14T12:55:33Z</time>
      </trkpt>
      <trkpt lat="46.70212" lon="-1.1233">
        <ele>45</ele>
        <time>2022-05-14T12:55:42Z</time>
      </trkpt>
      <trkpt lat="46.70239" lon="-1.12277">
        <ele>47</ele>
        <time>2022-05-14T12:55:50Z</time>
      </trkpt>
      <trkpt lat="46.7028" lon="-1.12153">
        <ele>52</ele>
        <time>2022-05-14T12:56:07Z</time>
      </trkpt>
      <trkpt lat="46.70309" lon="-1.12076">
        <ele>56</ele>
        <time>2022-05-14T12:56:18Z</time>
      </trkpt>
      <trkpt lat="46.70344" lon="-1.12029">
        <ele>57</ele>
        <time>2022-05-14T12:56:26Z</time>
      </trkpt>
      <trkpt lat="46.70422" lon="-1.11977">
        <ele>64</ele>
        <time>2022-05-14T12:56:42Z</time>
      </trkpt>
      <trkpt lat="46.70441" lon="-1.1195">
        <ele>66</ele>
        <time>2022-05-14T12:56:46Z</time>
      </trkpt>
      <trkpt lat="46.70452" lon="-1.11917">
        <ele>68</ele>
        <time>2022-05-14T12:56:51Z</time>
      </trkpt>
      <trkpt lat="46.70457" lon="-1.11887">
        <ele>68</ele>
        <time>2022-05-14T12:56:55Z</time>
      </trkpt>
      <trkpt lat="46.70458" lon="-1.11821">
        <ele>67</ele>
        <time>2022-05-14T12:57:03Z</time>
      </trkpt>
      <trkpt lat="46.70462" lon="-1.11798">
        <ele>68</ele>
        <time>2022-05-14T12:57:06Z</time>
      </trkpt>
      <trkpt lat="46.7047" lon="-1.11783">
        <ele>69</ele>
        <time>2022-05-14T12:57:08Z</time>
      </trkpt>
      <trkpt lat="46.70479" lon="-1.11773">
        <ele>71</ele>
        <time>2022-05-14T12:57:10Z</time>
      </trkpt>
      <trkpt lat="46.70488" lon="-1.1177">
        <ele>72</ele>
        <time>2022-05-14T12:57:12Z</time>
      </trkpt>
      <trkpt lat="46.70497" lon="-1.1177">
        <ele>74</ele>
        <time>2022-05-14T12:57:13Z</time>
      </trkpt>
      <trkpt lat="46.7072" lon="-1.11825">
        <ele>80</ele>
        <time>2022-05-14T12:57:53Z</time>
      </trkpt>
      <trkpt lat="46.70745" lon="-1.11825">
        <ele>81</ele>
        <time>2022-05-14T12:57:58Z</time>
      </trkpt>
      <trkpt lat="46.7077" lon="-1.11818">
        <ele>81</ele>
        <time>2022-05-14T12:58:02Z</time>
      </trkpt>
      <trkpt lat="46.71044" lon="-1.11661">
        <ele>81</ele>
        <time>2022-05-14T12:58:55Z</time>
      </trkpt>
      <trkpt lat="46.71083" lon="-1.11654">
        <ele>81</ele>
        <time>2022-05-14T12:59:02Z</time>
      </trkpt>
      <trkpt lat="46.71216" lon="-1.11655">
        <ele>81</ele>
        <time>2022-05-14T12:59:25Z</time>
      </trkpt>
      <trkpt lat="46.71311" lon="-1.11628">
        <ele>81</ele>
        <time>2022-05-14T12:59:43Z</time>
      </trkpt>
      <trkpt lat="46.71694" lon="-1.11435">
        <ele>77</ele>
        <time>2022-05-14T13:00:55Z</time>
      </trkpt>
      <trkpt lat="46.71897" lon="-1.1134">
        <ele>74</ele>
        <time>2022-05-14T13:01:33Z</time>
      </trkpt>
      <trkpt lat="46.72014" lon="-1.11279">
        <ele>70</ele>
        <time>2022-05-14T13:01:55Z</time>
      </trkpt>
      <trkpt lat="46.72058" lon="-1.11273">
        <ele>68</ele>
        <time>2022-05-14T13:02:03Z</time>
      </trkpt>
      <trkpt lat="46.72154" lon="-1.11298">
        <ele>65</ele>
        <time>2022-05-14T13:02:20Z</time>
      </trkpt>
      <trkpt lat="46.72294" lon="-1.11295">
        <ele>64</ele>
        <time>2022-05-14T13:02:45Z</time>
      </trkpt>
      <trkpt lat="46.72492" lon="-1.11305">
        <ele>66</ele>
        <time>2022-05-14T13:03:20Z</time>
      </trkpt>
      <trkpt lat="46.72593" lon="-1.11323">
        <ele>66</ele>
        <time>2022-05-14T13:03:38Z</time>
      </trkpt>
      <trkpt lat="46.72673" lon="-1.11325">
        <ele>65</ele>
        <time>2022-05-14T13:03:52Z</time>
      </trkpt>
      <trkpt lat="46.72758" lon="-1.11297">
        <ele>63</ele>
        <time>2022-05-14T13:04:08Z</time>
      </trkpt>
      <trkpt lat="46.72882" lon="-1.11225">
        <ele>66</ele>
        <time>2022-05-14T13:04:32Z</time>
      </trkpt>
      <trkpt lat="46.72978" lon="-1.11215">
        <ele>65</ele>
        <time>2022-05-14T13:04:49Z</time>
      </trkpt>
      <trkpt lat="46.73064" lon="-1.11193">
        <ele>65</ele>
        <time>2022-05-14T13:05:04Z</time>
      </trkpt>
      <trkpt lat="46.73203" lon="-1.11143">
        <ele>66</ele>
        <time>2022-05-14T13:05:30Z</time>
      </trkpt>
      <trkpt lat="46.73254" lon="-1.11153">
        <ele>64</ele>
        <time>2022-05-14T13:05:39Z</time>
      </trkpt>
      <trkpt lat="46.73329" lon="-1.11173">
        <ele>63</ele>
        <time>2022-05-14T13:05:53Z</time>
      </trkpt>
      <trkpt lat="46.73429" lon="-1.11181">
        <ele>66</ele>
        <time>2022-05-14T13:06:10Z</time>
      </trkpt>
      <trkpt lat="46.73542" lon="-1.11182">
        <ele>66</ele>
        <time>2022-05-14T13:06:30Z</time>
      </trkpt>
      <trkpt lat="46.7363" lon="-1.11204">
        <ele>62</ele>
        <time>2022-05-14T13:06:46Z</time>
      </trkpt>
      <trkpt lat="46.73657" lon="-1.11207">
        <ele>61</ele>
        <time>2022-05-14T13:06:51Z</time>
      </trkpt>
      <trkpt lat="46.73674" lon="-1.11208">
        <ele>60</ele>
        <time>2022-05-14T13:06:54Z</time>
      </trkpt>
      <trkpt lat="46.73687" lon="-1.11206">
        <ele>59</ele>
        <time>2022-05-14T13:06:57Z</time>
      </trkpt>
      <trkpt lat="46.73739" lon="-1.11187">
        <ele>57</ele>
        <time>2022-05-14T13:07:06Z</time>
      </trkpt>
      <trkpt lat="46.73777" lon="-1.11188">
        <ele>55</ele>
        <time>2022-05-14T13:07:13Z</time>
      </trkpt>
      <trkpt lat="46.73812" lon="-1.11198">
        <ele>54</ele>
        <time>2022-05-14T13:07:19Z</time>
      </trkpt>
      <trkpt lat="46.73979" lon="-1.11272">
        <ele>55</ele>
        <time>2022-05-14T13:07:50Z</time>
      </trkpt>
      <trkpt lat="46.7405" lon="-1.11311">
        <ele>55</ele>
        <time>2022-05-14T13:08:04Z</time>
      </trkpt>
      <trkpt lat="46.74122" lon="-1.11357">
        <ele>55</ele>
        <time>2022-05-14T13:08:18Z</time>
      </trkpt>
      <trkpt lat="46.74198" lon="-1.114">
        <ele>54</ele>
        <time>2022-05-14T13:08:32Z</time>
      </trkpt>
      <trkpt lat="46.74233" lon="-1.11418">
        <ele>54</ele>
        <time>2022-05-14T13:08:39Z</time>
      </trkpt>
      <trkpt lat="46.74267" lon="-1.11421">
        <ele>54</ele>
        <time>2022-05-14T13:08:45Z</time>
      </trkpt>
      <trkpt lat="46.74306" lon="-1.11416">
        <ele>53</ele>
        <time>2022-05-14T13:08:52Z</time>
      </trkpt>
      <trkpt lat="46.74319" lon="-1.11421">
        <ele>53</ele>
        <time>2022-05-14T13:08:54Z</time>
      </trkpt>
      <trkpt lat="46.74334" lon="-1.11422">
        <ele>53</ele>
        <time>2022-05-14T13:08:57Z</time>
      </trkpt>
      <trkpt lat="46.74339" lon="-1.11415">
        <ele>53</ele>
        <time>2022-05-14T13:08:58Z</time>
      </trkpt>
      <trkpt lat="46.74354" lon="-1.11383">
        <ele>53</ele>
        <time>2022-05-14T13:09:03Z</time>
      </trkpt>
      <trkpt lat="46.74375" lon="-1.1136">
        <ele>53</ele>
        <time>2022-05-14T13:09:08Z</time>
      </trkpt>
      <trkpt lat="46.74388" lon="-1.11358">
        <ele>53</ele>
        <time>2022-05-14T13:09:10Z</time>
      </trkpt>
      <trkpt lat="46.74398" lon="-1.11393">
        <ele>53</ele>
        <time>2022-05-14T13:09:14Z</time>
      </trkpt>
      <trkpt lat="46.74399" lon="-1.11404">
        <ele>53</ele>
        <time>2022-05-14T13:09:16Z</time>
      </trkpt>
      <trkpt lat="46.74396" lon="-1.11431">
        <ele>53</ele>
        <time>2022-05-14T13:09:19Z</time>
      </trkpt>
      <trkpt lat="46.74441" lon="-1.11438">
        <ele>53</ele>
        <time>2022-05-14T13:09:27Z</time>
      </trkpt>
      <trkpt lat="46.74473" lon="-1.11433">
        <ele>53</ele>
        <time>2022-05-14T13:09:33Z</time>
      </trkpt>
      <trkpt lat="46.74539" lon="-1.11419">
        <ele>52</ele>
        <time>2022-05-14T13:09:45Z</time>
      </trkpt>
      <trkpt lat="46.74567" lon="-1.11422">
        <ele>51</ele>
        <time>2022-05-14T13:09:50Z</time>
      </trkpt>
      <trkpt lat="46.74591" lon="-1.11424">
        <ele>50</ele>
        <time>2022-05-14T13:09:54Z</time>
      </trkpt>
      <trkpt lat="46.74837" lon="-1.11446">
        <ele>49</ele>
        <time>2022-05-14T13:10:38Z</time>
      </trkpt>
      <trkpt lat="46.74859" lon="-1.11442">
        <ele>49</ele>
        <time>2022-05-14T13:10:42Z</time>
      </trkpt>
      <trkpt lat="46.74885" lon="-1.11429">
        <ele>50</ele>
        <time>2022-05-14T13:10:47Z</time>
      </trkpt>
      <trkpt lat="46.7491" lon="-1.1141">
        <ele>50</ele>
        <time>2022-05-14T13:10:52Z</time>
      </trkpt>
      <trkpt lat="46.74931" lon="-1.11388">
        <ele>51</ele>
        <time>2022-05-14T13:10:56Z</time>
      </trkpt>
      <trkpt lat="46.7495" lon="-1.1136">
        <ele>52</ele>
        <time>2022-05-14T13:11:01Z</time>
      </trkpt>
      <trkpt lat="46.74982" lon="-1.113">
        <ele>56</ele>
        <time>2022-05-14T13:11:10Z</time>
      </trkpt>
      <trkpt lat="46.74999" lon="-1.11255">
        <ele>58</ele>
        <time>2022-05-14T13:11:17Z</time>
      </trkpt>
      <trkpt lat="46.75006" lon="-1.11232">
        <ele>58</ele>
        <time>2022-05-14T13:11:20Z</time>
      </trkpt>
      <trkpt lat="46.75011" lon="-1.1121">
        <ele>59</ele>
        <time>2022-05-14T13:11:23Z</time>
      </trkpt>
      <trkpt lat="46.75016" lon="-1.11158">
        <ele>59</ele>
        <time>2022-05-14T13:11:29Z</time>
      </trkpt>
      <trkpt lat="46.75018" lon="-1.10977">
        <ele>59</ele>
        <time>2022-05-14T13:11:51Z</time>
      </trkpt>
      <trkpt lat="46.75017" lon="-1.10898">
        <ele>58</ele>
        <time>2022-05-14T13:12:01Z</time>
      </trkpt>
      <trkpt lat="46.75015" lon="-1.10873">
        <ele>58</ele>
        <time>2022-05-14T13:12:04Z</time>
      </trkpt>
      <trkpt lat="46.75008" lon="-1.1083">
        <ele>58</ele>
        <time>2022-05-14T13:12:09Z</time>
      </trkpt>
      <trkpt lat="46.74993" lon="-1.10783">
        <ele>58</ele>
        <time>2022-05-14T13:12:16Z</time>
      </trkpt>
      <trkpt lat="46.74967" lon="-1.10713">
        <ele>57</ele>
        <time>2022-05-14T13:12:25Z</time>
      </trkpt>
      <trkpt lat="46.74958" lon="-1.10686">
        <ele>56</ele>
        <time>2022-05-14T13:12:29Z</time>
      </trkpt>
      <trkpt lat="46.74952" lon="-1.10655">
        <ele>56</ele>
        <time>2022-05-14T13:12:33Z</time>
      </trkpt>
      <trkpt lat="46.74951" lon="-1.10623">
        <ele>55</ele>
        <time>2022-05-14T13:12:37Z</time>
      </trkpt>
      <trkpt lat="46.74952" lon="-1.10601">
        <ele>55</ele>
        <time>2022-05-14T13:12:39Z</time>
      </trkpt>
      <trkpt lat="46.74964" lon="-1.1047">
        <ele>54</ele>
        <time>2022-05-14T13:12:56Z</time>
      </trkpt>
      <trkpt lat="46.75025" lon="-1.09806">
        <ele>56</ele>
        <time>2022-05-14T13:14:17Z</time>
      </trkpt>
      <trkpt lat="46.75032" lon="-1.09774">
        <ele>55</ele>
        <time>2022-05-14T13:14:21Z</time>
      </trkpt>
      <trkpt lat="46.75041" lon="-1.09749">
        <ele>55</ele>
        <time>2022-05-14T13:14:25Z</time>
      </trkpt>
      <trkpt lat="46.75055" lon="-1.09724">
        <ele>56</ele>
        <time>2022-05-14T13:14:29Z</time>
      </trkpt>
      <trkpt lat="46.75073" lon="-1.09699">
        <ele>57</ele>
        <time>2022-05-14T13:14:33Z</time>
      </trkpt>
      <trkpt lat="46.75135" lon="-1.09624">
        <ele>59</ele>
        <time>2022-05-14T13:14:47Z</time>
      </trkpt>
      <trkpt lat="46.75145" lon="-1.09617">
        <ele>60</ele>
        <time>2022-05-14T13:14:49Z</time>
      </trkpt>
      <trkpt lat="46.75163" lon="-1.09609">
        <ele>61</ele>
        <time>2022-05-14T13:14:53Z</time>
      </trkpt>
      <trkpt lat="46.75193" lon="-1.096">
        <ele>62</ele>
        <time>2022-05-14T13:14:58Z</time>
      </trkpt>
      <trkpt lat="46.75201" lon="-1.09591">
        <ele>62</ele>
        <time>2022-05-14T13:15:00Z</time>
      </trkpt>
      <trkpt lat="46.75202" lon="-1.09561">
        <ele>61</ele>
        <time>2022-05-14T13:15:04Z</time>
      </trkpt>
      <trkpt lat="46.75216" lon="-1.09545">
        <ele>61</ele>
        <time>2022-05-14T13:15:07Z</time>
      </trkpt>
      <trkpt lat="46.75585" lon="-1.09454">
        <ele>68</ele>
        <time>2022-05-14T13:16:13Z</time>
      </trkpt>
      <trkpt lat="46.75623" lon="-1.09442">
        <ele>68</ele>
        <time>2022-05-14T13:16:20Z</time>
      </trkpt>
      <trkpt lat="46.75642" lon="-1.09432">
        <ele>68</ele>
        <time>2022-05-14T13:16:24Z</time>
      </trkpt>
      <trkpt lat="46.75667" lon="-1.09409">
        <ele>68</ele>
        <time>2022-05-14T13:16:29Z</time>
      </trkpt>
      <trkpt lat="46.7569" lon="-1.09384">
        <ele>68</ele>
        <time>2022-05-14T13:16:34Z</time>
      </trkpt>
      <trkpt lat="46.76075" lon="-1.08843">
        <ele>80</ele>
        <time>2022-05-14T13:18:09Z</time>
      </trkpt>
      <trkpt lat="46.76105" lon="-1.08809">
        <ele>79</ele>
        <time>2022-05-14T13:18:16Z</time>
      </trkpt>
      <trkpt lat="46.76367" lon="-1.08583">
        <ele>77</ele>
        <time>2022-05-14T13:19:10Z</time>
      </trkpt>
      <trkpt lat="46.7638" lon="-1.08569">
        <ele>78</ele>
        <time>2022-05-14T13:19:13Z</time>
      </trkpt>
      <trkpt lat="46.76402" lon="-1.08539">
        <ele>79</ele>
        <time>2022-05-14T13:19:18Z</time>
      </trkpt>
      <trkpt lat="46.767" lon="-1.08019">
        <ele>68</ele>
        <time>2022-05-14T13:20:41Z</time>
      </trkpt>
      <trkpt lat="46.76726" lon="-1.07979">
        <ele>67</ele>
        <time>2022-05-14T13:20:48Z</time>
      </trkpt>
      <trkpt lat="46.7675" lon="-1.07947">
        <ele>65</ele>
        <time>2022-05-14T13:20:54Z</time>
      </trkpt>
      <trkpt lat="46.76778" lon="-1.07917">
        <ele>64</ele>
        <time>2022-05-14T13:21:00Z</time>
      </trkpt>
      <trkpt lat="46.76791" lon="-1.07904">
        <ele>63</ele>
        <time>2022-05-14T13:21:03Z</time>
      </trkpt>
      <trkpt lat="46.76991" lon="-1.07711">
        <ele>69</ele>
        <time>2022-05-14T13:21:45Z</time>
      </trkpt>
      <trkpt lat="46.77062" lon="-1.07642">
        <ele>70</ele>
        <time>2022-05-14T13:22:00Z</time>
      </trkpt>
      <trkpt lat="46.77091" lon="-1.07611">
        <ele>70</ele>
        <time>2022-05-14T13:22:07Z</time>
      </trkpt>
      <trkpt lat="46.77112" lon="-1.07579">
        <ele>70</ele>
        <time>2022-05-14T13:22:12Z</time>
      </trkpt>
      <trkpt lat="46.77122" lon="-1.07559">
        <ele>70</ele>
        <time>2022-05-14T13:22:15Z</time>
      </trkpt>
      <trkpt lat="46.77132" lon="-1.07541">
        <ele>70</ele>
        <time>2022-05-14T13:22:18Z</time>
      </trkpt>
      <trkpt lat="46.77156" lon="-1.07484">
        <ele>70</ele>
        <time>2022-05-14T13:22:26Z</time>
      </trkpt>
      <trkpt lat="46.77208" lon="-1.07409">
        <ele>73</ele>
        <time>2022-05-14T13:22:39Z</time>
      </trkpt>
      <trkpt lat="46.77279" lon="-1.07335">
        <ele>75</ele>
        <time>2022-05-14T13:22:55Z</time>
      </trkpt>
      <trkpt lat="46.77346" lon="-1.07293">
        <ele>77</ele>
        <time>2022-05-14T13:23:08Z</time>
      </trkpt>
      <trkpt lat="46.77413" lon="-1.07268">
        <ele>76</ele>
        <time>2022-05-14T13:23:20Z</time>
      </trkpt>
      <trkpt lat="46.77579" lon="-1.07253">
        <ele>85</ele>
        <time>2022-05-14T13:23:50Z</time>
      </trkpt>
      <trkpt lat="46.77661" lon="-1.07248">
        <ele>90</ele>
        <time>2022-05-14T13:24:04Z</time>
      </trkpt>
      <trkpt lat="46.7773" lon="-1.07233">
        <ele>92</ele>
        <time>2022-05-14T13:24:17Z</time>
      </trkpt>
      <trkpt lat="46.77993" lon="-1.07156">
        <ele>99</ele>
        <time>2022-05-14T13:25:04Z</time>
      </trkpt>
      <trkpt lat="46.78049" lon="-1.07136">
        <ele>101</ele>
        <time>2022-05-14T13:25:15Z</time>
      </trkpt>
      <trkpt lat="46.78136" lon="-1.07114">
        <ele>102</ele>
        <time>2022-05-14T13:25:30Z</time>
      </trkpt>
      <trkpt lat="46.78208" lon="-1.07091">
        <ele>101</ele>
        <time>2022-05-14T13:25:43Z</time>
      </trkpt>
      <trkpt lat="46.78206" lon="-1.07081">
        <ele>102</ele>
        <time>2022-05-14T13:25:45Z</time>
      </trkpt>
      <trkpt lat="46.78207" lon="-1.07071">
        <ele>102</ele>
        <time>2022-05-14T13:25:46Z</time>
      </trkpt>
      <trkpt lat="46.78211" lon="-1.07062">
        <ele>101</ele>
        <time>2022-05-14T13:25:47Z</time>
      </trkpt>
      <trkpt lat="46.78217" lon="-1.07055">
        <ele>101</ele>
        <time>2022-05-14T13:25:49Z</time>
      </trkpt>
      <trkpt lat="46.78225" lon="-1.07053">
        <ele>101</ele>
        <time>2022-05-14T13:25:50Z</time>
      </trkpt>
      <trkpt lat="46.78232" lon="-1.07055">
        <ele>101</ele>
        <time>2022-05-14T13:25:51Z</time>
      </trkpt>
      <trkpt lat="46.78239" lon="-1.07062">
        <ele>101</ele>
        <time>2022-05-14T13:25:53Z</time>
      </trkpt>
      <trkpt lat="46.78243" lon="-1.07071">
        <ele>101</ele>
        <time>2022-05-14T13:25:54Z</time>
      </trkpt>
      <trkpt lat="46.78339" lon="-1.07035">
        <ele>99</ele>
        <time>2022-05-14T13:26:12Z</time>
      </trkpt>
      <trkpt lat="46.78395" lon="-1.07004">
        <ele>95</ele>
        <time>2022-05-14T13:26:22Z</time>
      </trkpt>
      <trkpt lat="46.78439" lon="-1.06975">
        <ele>93</ele>
        <time>2022-05-14T13:26:31Z</time>
      </trkpt>
      <trkpt lat="46.78486" lon="-1.06924">
        <ele>93</ele>
        <time>2022-05-14T13:26:41Z</time>
      </trkpt>
      <trkpt lat="46.78522" lon="-1.06877">
        <ele>94</ele>
        <time>2022-05-14T13:26:50Z</time>
      </trkpt>
      <trkpt lat="46.78566" lon="-1.06778">
        <ele>98</ele>
        <time>2022-05-14T13:27:04Z</time>
      </trkpt>
      <trkpt lat="46.78644" lon="-1.06522">
        <ele>107</ele>
        <time>2022-05-14T13:27:39Z</time>
      </trkpt>
      <trkpt lat="46.7868" lon="-1.06311">
        <ele>108</ele>
        <time>2022-05-14T13:28:05Z</time>
      </trkpt>
      <trkpt lat="46.78689" lon="-1.06237">
        <ele>108</ele>
        <time>2022-05-14T13:28:14Z</time>
      </trkpt>
      <trkpt lat="46.78695" lon="-1.06163">
        <ele>109</ele>
        <time>2022-05-14T13:28:23Z</time>
      </trkpt>
      <trkpt lat="46.78704" lon="-1.05988">
        <ele>109</ele>
        <time>2022-05-14T13:28:45Z</time>
      </trkpt>
      <trkpt lat="46.78739" lon="-1.05812">
        <ele>109</ele>
        <time>2022-05-14T13:29:07Z</time>
      </trkpt>
      <trkpt lat="46.78748" lon="-1.05736">
        <ele>111</ele>
        <time>2022-05-14T13:29:16Z</time>
      </trkpt>
      <trkpt lat="46.7874" lon="-1.05732">
        <ele>111</ele>
        <time>2022-05-14T13:29:18Z</time>
      </trkpt>
      <trkpt lat="46.78735" lon="-1.05724">
        <ele>111</ele>
        <time>2022-05-14T13:29:19Z</time>
      </trkpt>
      <trkpt lat="46.78732" lon="-1.05713">
        <ele>111</ele>
        <time>2022-05-14T13:29:21Z</time>
      </trkpt>
      <trkpt lat="46.78733" lon="-1.05702">
        <ele>111</ele>
        <time>2022-05-14T13:29:22Z</time>
      </trkpt>
      <trkpt lat="46.78737" lon="-1.05692">
        <ele>111</ele>
        <time>2022-05-14T13:29:23Z</time>
      </trkpt>
      <trkpt lat="46.78743" lon="-1.05685">
        <ele>111</ele>
        <time>2022-05-14T13:29:25Z</time>
      </trkpt>
      <trkpt lat="46.78751" lon="-1.05683">
        <ele>111</ele>
        <time>2022-05-14T13:29:26Z</time>
      </trkpt>
      <trkpt lat="46.78759" lon="-1.05685">
        <ele>111</ele>
        <time>2022-05-14T13:29:28Z</time>
      </trkpt>
      <trkpt lat="46.78765" lon="-1.05692">
        <ele>110</ele>
        <time>2022-05-14T13:29:29Z</time>
      </trkpt>
      <trkpt lat="46.78768" lon="-1.05703">
        <ele>110</ele>
        <time>2022-05-14T13:29:30Z</time>
      </trkpt>
      <trkpt lat="46.78852" lon="-1.0567">
        <ele>106</ele>
        <time>2022-05-14T13:29:46Z</time>
      </trkpt>
      <trkpt lat="46.78878" lon="-1.05654">
        <ele>105</ele>
        <time>2022-05-14T13:29:51Z</time>
      </trkpt>
      <trkpt lat="46.7891" lon="-1.05624">
        <ele>104</ele>
        <time>2022-05-14T13:29:58Z</time>
      </trkpt>
      <trkpt lat="46.78929" lon="-1.05601">
        <ele>103</ele>
        <time>2022-05-14T13:30:02Z</time>
      </trkpt>
      <trkpt lat="46.78945" lon="-1.05576">
        <ele>103</ele>
        <time>2022-05-14T13:30:06Z</time>
      </trkpt>
      <trkpt lat="46.79064" lon="-1.05332">
        <ele>99</ele>
        <time>2022-05-14T13:30:43Z</time>
      </trkpt>
      <trkpt lat="46.79086" lon="-1.05295">
        <ele>100</ele>
        <time>2022-05-14T13:30:49Z</time>
      </trkpt>
      <trkpt lat="46.7918" lon="-1.05188">
        <ele>102</ele>
        <time>2022-05-14T13:31:10Z</time>
      </trkpt>
      <trkpt lat="46.79346" lon="-1.04991">
        <ele>102</ele>
        <time>2022-05-14T13:31:48Z</time>
      </trkpt>
      <trkpt lat="46.79399" lon="-1.04937">
        <ele>101</ele>
        <time>2022-05-14T13:32:00Z</time>
      </trkpt>
      <trkpt lat="46.79486" lon="-1.04864">
        <ele>101</ele>
        <time>2022-05-14T13:32:17Z</time>
      </trkpt>
      <trkpt lat="46.79711" lon="-1.04718">
        <ele>102</ele>
        <time>2022-05-14T13:33:01Z</time>
      </trkpt>
      <trkpt lat="46.79754" lon="-1.04692">
        <ele>102</ele>
        <time>2022-05-14T13:33:09Z</time>
      </trkpt>
      <trkpt lat="46.79783" lon="-1.04679">
        <ele>102</ele>
        <time>2022-05-14T13:33:15Z</time>
      </trkpt>
      <trkpt lat="46.7995" lon="-1.04622">
        <ele>104</ele>
        <time>2022-05-14T13:33:45Z</time>
      </trkpt>
      <trkpt lat="46.79971" lon="-1.04612">
        <ele>104</ele>
        <time>2022-05-14T13:33:49Z</time>
      </trkpt>
      <trkpt lat="46.80001" lon="-1.0459">
        <ele>104</ele>
        <time>2022-05-14T13:33:55Z</time>
      </trkpt>
      <trkpt lat="46.80029" lon="-1.04557">
        <ele>105</ele>
        <time>2022-05-14T13:34:02Z</time>
      </trkpt>
      <trkpt lat="46.80051" lon="-1.04519">
        <ele>106</ele>
        <time>2022-05-14T13:34:08Z</time>
      </trkpt>
      <trkpt lat="46.80155" lon="-1.04316">
        <ele>105</ele>
        <time>2022-05-14T13:34:39Z</time>
      </trkpt>
      <trkpt lat="46.80183" lon="-1.04252">
        <ele>105</ele>
        <time>2022-05-14T13:34:48Z</time>
      </trkpt>
      <trkpt lat="46.80228" lon="-1.04115">
        <ele>107</ele>
        <time>2022-05-14T13:35:06Z</time>
      </trkpt>
      <trkpt lat="46.80406" lon="-1.03538">
        <ele>109</ele>
        <time>2022-05-14T13:36:23Z</time>
      </trkpt>
      <trkpt lat="46.80432" lon="-1.03468">
        <ele>110</ele>
        <time>2022-05-14T13:36:33Z</time>
      </trkpt>
      <trkpt lat="46.80675" lon="-1.02966">
        <ele>111</ele>
        <time>2022-05-14T13:37:48Z</time>
      </trkpt>
      <trkpt lat="46.80834" lon="-1.02659">
        <ele>115</ele>
        <time>2022-05-14T13:38:35Z</time>
      </trkpt>
      <trkpt lat="46.80849" lon="-1.02626">
        <ele>115</ele>
        <time>2022-05-14T13:38:40Z</time>
      </trkpt>
      <trkpt lat="46.80882" lon="-1.02535">
        <ele>114</ele>
        <time>2022-05-14T13:38:52Z</time>
      </trkpt>
      <trkpt lat="46.80946" lon="-1.0235">
        <ele>115</ele>
        <time>2022-05-14T13:39:18Z</time>
      </trkpt>
      <trkpt lat="46.8097" lon="-1.02286">
        <ele>115</ele>
        <time>2022-05-14T13:39:26Z</time>
      </trkpt>
      <trkpt lat="46.81054" lon="-1.02117">
        <ele>117</ele>
        <time>2022-05-14T13:39:52Z</time>
      </trkpt>
      <trkpt lat="46.81093" lon="-1.02041">
        <ele>119</ele>
        <time>2022-05-14T13:40:03Z</time>
      </trkpt>
      <trkpt lat="46.81106" lon="-1.02018">
        <ele>119</ele>
        <time>2022-05-14T13:40:07Z</time>
      </trkpt>
      <trkpt lat="46.81117" lon="-1.02005">
        <ele>119</ele>
        <time>2022-05-14T13:40:10Z</time>
      </trkpt>
      <trkpt lat="46.81142" lon="-1.01982">
        <ele>119</ele>
        <time>2022-05-14T13:40:15Z</time>
      </trkpt>
      <trkpt lat="46.81164" lon="-1.0197">
        <ele>120</ele>
        <time>2022-05-14T13:40:19Z</time>
      </trkpt>
      <trkpt lat="46.81176" lon="-1.01966">
        <ele>120</ele>
        <time>2022-05-14T13:40:21Z</time>
      </trkpt>
      <trkpt lat="46.81316" lon="-1.01944">
        <ele>118</ele>
        <time>2022-05-14T13:40:46Z</time>
      </trkpt>
      <trkpt lat="46.81348" lon="-1.01942">
        <ele>117</ele>
        <time>2022-05-14T13:40:52Z</time>
      </trkpt>
      <trkpt lat="46.81365" lon="-1.01945">
        <ele>117</ele>
        <time>2022-05-14T13:40:55Z</time>
      </trkpt>
      <trkpt lat="46.81453" lon="-1.01978">
        <ele>117</ele>
        <time>2022-05-14T13:41:11Z</time>
      </trkpt>
      <trkpt lat="46.81469" lon="-1.01979">
        <ele>117</ele>
        <time>2022-05-14T13:41:14Z</time>
      </trkpt>
      <trkpt lat="46.81483" lon="-1.01977">
        <ele>117</ele>
        <time>2022-05-14T13:41:17Z</time>
      </trkpt>
      <trkpt lat="46.81506" lon="-1.01967">
        <ele>117</ele>
        <time>2022-05-14T13:41:21Z</time>
      </trkpt>
      <trkpt lat="46.81539" lon="-1.01936">
        <ele>116</ele>
        <time>2022-05-14T13:41:28Z</time>
      </trkpt>
      <trkpt lat="46.81719" lon="-1.0174">
        <ele>114</ele>
        <time>2022-05-14T13:42:08Z</time>
      </trkpt>
      <trkpt lat="46.81783" lon="-1.01678">
        <ele>114</ele>
        <time>2022-05-14T13:42:21Z</time>
      </trkpt>
      <trkpt lat="46.82172" lon="-1.01403">
        <ele>119</ele>
        <time>2022-05-14T13:43:38Z</time>
      </trkpt>
      <trkpt lat="46.82206" lon="-1.01384">
        <ele>121</ele>
        <time>2022-05-14T13:43:45Z</time>
      </trkpt>
      <trkpt lat="46.826" lon="-1.01214">
        <ele>119</ele>
        <time>2022-05-14T13:44:58Z</time>
      </trkpt>
      <trkpt lat="46.82631" lon="-1.01197">
        <ele>119</ele>
        <time>2022-05-14T13:45:04Z</time>
      </trkpt>
      <trkpt lat="46.82659" lon="-1.0117">
        <ele>118</ele>
        <time>2022-05-14T13:45:10Z</time>
      </trkpt>
      <trkpt lat="46.82859" lon="-1.00936">
        <ele>120</ele>
        <time>2022-05-14T13:45:55Z</time>
      </trkpt>
      <trkpt lat="46.82873" lon="-1.00913">
        <ele>121</ele>
        <time>2022-05-14T13:45:59Z</time>
      </trkpt>
      <trkpt lat="46.82898" lon="-1.00868">
        <ele>121</ele>
        <time>2022-05-14T13:46:06Z</time>
      </trkpt>
      <trkpt lat="46.82972" lon="-1.00722">
        <ele>121</ele>
        <time>2022-05-14T13:46:28Z</time>
      </trkpt>
      <trkpt lat="46.82987" lon="-1.00695">
        <ele>121</ele>
        <time>2022-05-14T13:46:32Z</time>
      </trkpt>
      <trkpt lat="46.83004" lon="-1.00668">
        <ele>121</ele>
        <time>2022-05-14T13:46:37Z</time>
      </trkpt>
      <trkpt lat="46.83025" lon="-1.00646">
        <ele>120</ele>
        <time>2022-05-14T13:46:42Z</time>
      </trkpt>
      <trkpt lat="46.83104" lon="-1.00575">
        <ele>120</ele>
        <time>2022-05-14T13:46:58Z</time>
      </trkpt>
      <trkpt lat="46.83142" lon="-1.00545">
        <ele>121</ele>
        <time>2022-05-14T13:47:06Z</time>
      </trkpt>
      <trkpt lat="46.83178" lon="-1.00524">
        <ele>122</ele>
        <time>2022-05-14T13:47:13Z</time>
      </trkpt>
      <trkpt lat="46.83255" lon="-1.00491">
        <ele>124</ele>
        <time>2022-05-14T13:47:27Z</time>
      </trkpt>
      <trkpt lat="46.83289" lon="-1.00467">
        <ele>125</ele>
        <time>2022-05-14T13:47:34Z</time>
      </trkpt>
      <trkpt lat="46.83304" lon="-1.00453">
        <ele>126</ele>
        <time>2022-05-14T13:47:37Z</time>
      </trkpt>
      <trkpt lat="46.83312" lon="-1.00429">
        <ele>126</ele>
        <time>2022-05-14T13:47:40Z</time>
      </trkpt>
      <trkpt lat="46.83315" lon="-1.00398">
        <ele>126</ele>
        <time>2022-05-14T13:47:44Z</time>
      </trkpt>
      <trkpt lat="46.83313" lon="-1.00376">
        <ele>126</ele>
        <time>2022-05-14T13:47:47Z</time>
      </trkpt>
      <trkpt lat="46.83326" lon="-1.00377">
        <ele>126</ele>
        <time>2022-05-14T13:47:49Z</time>
      </trkpt>
      <trkpt lat="46.83506" lon="-1.00398">
        <ele>127</ele>
        <time>2022-05-14T13:48:21Z</time>
      </trkpt>
      <trkpt lat="46.83613" lon="-1.00403">
        <ele>129</ele>
        <time>2022-05-14T13:48:40Z</time>
      </trkpt>
      <trkpt lat="46.83871" lon="-1.00422">
        <ele>126</ele>
        <time>2022-05-14T13:49:26Z</time>
      </trkpt>
      <trkpt lat="46.83875" lon="-1.00435">
        <ele>125</ele>
        <time>2022-05-14T13:49:28Z</time>
      </trkpt>
      <trkpt lat="46.84435" lon="-1.0048">
        <ele>113</ele>
        <time>2022-05-14T13:51:07Z</time>
      </trkpt>
      <trkpt lat="46.84453" lon="-1.00495">
        <ele>112</ele>
        <time>2022-05-14T13:51:11Z</time>
      </trkpt>
      <trkpt lat="46.84479" lon="-1.00513">
        <ele>112</ele>
        <time>2022-05-14T13:51:16Z</time>
      </trkpt>
      <trkpt lat="46.84486" lon="-1.00515">
        <ele>111</ele>
        <time>2022-05-14T13:51:18Z</time>
      </trkpt>
      <trkpt lat="46.84496" lon="-1.00512">
        <ele>111</ele>
        <time>2022-05-14T13:51:19Z</time>
      </trkpt>
      <trkpt lat="46.84505" lon="-1.005">
        <ele>111</ele>
        <time>2022-05-14T13:51:22Z</time>
      </trkpt>
      <trkpt lat="46.84522" lon="-1.00487">
        <ele>111</ele>
        <time>2022-05-14T13:51:25Z</time>
      </trkpt>
      <trkpt lat="46.84531" lon="-1.00484">
        <ele>111</ele>
        <time>2022-05-14T13:51:27Z</time>
      </trkpt>
      <trkpt lat="46.8455" lon="-1.00485">
        <ele>111</ele>
        <time>2022-05-14T13:51:30Z</time>
      </trkpt>
      <trkpt lat="46.84623" lon="-1.00474">
        <ele>112</ele>
        <time>2022-05-14T13:51:43Z</time>
      </trkpt>
      <trkpt lat="46.84695" lon="-1.00451">
        <ele>114</ele>
        <time>2022-05-14T13:51:56Z</time>
      </trkpt>
      <trkpt lat="46.8475" lon="-1.0043">
        <ele>116</ele>
        <time>2022-05-14T13:52:06Z</time>
      </trkpt>
      <trkpt lat="46.84765" lon="-1.00426">
        <ele>116</ele>
        <time>2022-05-14T13:52:09Z</time>
      </trkpt>
      <trkpt lat="46.8478" lon="-1.00418">
        <ele>116</ele>
        <time>2022-05-14T13:52:12Z</time>
      </trkpt>
      <trkpt lat="46.84782" lon="-1.00414">
        <ele>116</ele>
        <time>2022-05-14T13:52:12Z</time>
      </trkpt>
      <trkpt lat="46.84793" lon="-1.00407">
        <ele>115</ele>
        <time>2022-05-14T13:52:15Z</time>
      </trkpt>
      <trkpt lat="46.84792" lon="-1.004">
        <ele>115</ele>
        <time>2022-05-14T13:52:15Z</time>
      </trkpt>
      <trkpt lat="46.84828" lon="-1.0039">
        <ele>115</ele>
        <time>2022-05-14T13:52:22Z</time>
      </trkpt>
      <trkpt lat="46.84873" lon="-1.0038">
        <ele>114</ele>
        <time>2022-05-14T13:52:30Z</time>
      </trkpt>
      <trkpt lat="46.84918" lon="-1.00379">
        <ele>114</ele>
        <time>2022-05-14T13:52:38Z</time>
      </trkpt>
      <trkpt lat="46.84956" lon="-1.00381">
        <ele>113</ele>
        <time>2022-05-14T13:52:45Z</time>
      </trkpt>
      <trkpt lat="46.84987" lon="-1.00387">
        <ele>113</ele>
        <time>2022-05-14T13:52:50Z</time>
      </trkpt>
      <trkpt lat="46.85042" lon="-1.00404">
        <ele>112</ele>
        <time>2022-05-14T13:53:00Z</time>
      </trkpt>
      <trkpt lat="46.85102" lon="-1.0044">
        <ele>110</ele>
        <time>2022-05-14T13:53:12Z</time>
      </trkpt>
      <trkpt lat="46.85261" lon="-1.00556">
        <ele>110</ele>
        <time>2022-05-14T13:53:44Z</time>
      </trkpt>
      <trkpt lat="46.85285" lon="-1.00572">
        <ele>110</ele>
        <time>2022-05-14T13:53:48Z</time>
      </trkpt>
      <trkpt lat="46.8534" lon="-1.00587">
        <ele>109</ele>
        <time>2022-05-14T13:53:58Z</time>
      </trkpt>
      <trkpt lat="46.85442" lon="-1.00633">
        <ele>108</ele>
        <time>2022-05-14T13:54:17Z</time>
      </trkpt>
      <trkpt lat="46.85483" lon="-1.00655">
        <ele>108</ele>
        <time>2022-05-14T13:54:25Z</time>
      </trkpt>
      <trkpt lat="46.85539" lon="-1.00693">
        <ele>108</ele>
        <time>2022-05-14T13:54:36Z</time>
      </trkpt>
      <trkpt lat="46.85562" lon="-1.00711">
        <ele>108</ele>
        <time>2022-05-14T13:54:41Z</time>
      </trkpt>
      <trkpt lat="46.85689" lon="-1.0083">
        <ele>112</ele>
        <time>2022-05-14T13:55:07Z</time>
      </trkpt>
      <trkpt lat="46.85838" lon="-1.00917">
        <ele>113</ele>
        <time>2022-05-14T13:55:36Z</time>
      </trkpt>
      <trkpt lat="46.8584" lon="-1.00911">
        <ele>113</ele>
        <time>2022-05-14T13:55:37Z</time>
      </trkpt>
      <trkpt lat="46.85848" lon="-1.00905">
        <ele>113</ele>
        <time>2022-05-14T13:55:38Z</time>
      </trkpt>
      <trkpt lat="46.85852" lon="-1.00904">
        <ele>113</ele>
        <time>2022-05-14T13:55:39Z</time>
      </trkpt>
      <trkpt lat="46.85859" lon="-1.00908">
        <ele>113</ele>
        <time>2022-05-14T13:55:40Z</time>
      </trkpt>
      <trkpt lat="46.85864" lon="-1.00916">
        <ele>113</ele>
        <time>2022-05-14T13:55:42Z</time>
      </trkpt>
      <trkpt lat="46.85864" lon="-1.00927">
        <ele>113</ele>
        <time>2022-05-14T13:55:43Z</time>
      </trkpt>
      <trkpt lat="46.85863" lon="-1.00932">
        <ele>113</ele>
        <time>2022-05-14T13:55:44Z</time>
      </trkpt>
      <trkpt lat="46.8585" lon="-1.0095">
        <ele>113</ele>
        <time>2022-05-14T13:55:47Z</time>
      </trkpt>
      <trkpt lat="46.85841" lon="-1.00968">
        <ele>112</ele>
        <time>2022-05-14T13:55:50Z</time>
      </trkpt>
      <trkpt lat="46.85837" lon="-1.00974">
        <ele>112</ele>
        <time>2022-05-14T13:55:51Z</time>
      </trkpt>
      <trkpt lat="46.85823" lon="-1.01027">
        <ele>112</ele>
        <time>2022-05-14T13:55:58Z</time>
      </trkpt>
      <trkpt lat="46.85811" lon="-1.01083">
        <ele>111</ele>
        <time>2022-05-14T13:56:05Z</time>
      </trkpt>
      <trkpt lat="46.85806" lon="-1.01119">
        <ele>110</ele>
        <time>2022-05-14T13:56:09Z</time>
      </trkpt>
      <trkpt lat="46.858" lon="-1.0114">
        <ele>110</ele>
        <time>2022-05-14T13:56:12Z</time>
      </trkpt>
      <trkpt lat="46.85804" lon="-1.01149">
        <ele>110</ele>
        <time>2022-05-14T13:56:13Z</time>
      </trkpt>
      <trkpt lat="46.85804" lon="-1.01154">
        <ele>110</ele>
        <time>2022-05-14T13:56:14Z</time>
      </trkpt>
      <trkpt lat="46.85801" lon="-1.01164">
        <ele>110</ele>
        <time>2022-05-14T13:56:15Z</time>
      </trkpt>
      <trkpt lat="46.85798" lon="-1.01168">
        <ele>110</ele>
        <time>2022-05-14T13:56:16Z</time>
      </trkpt>
      <trkpt lat="46.85791" lon="-1.01169">
        <ele>110</ele>
        <time>2022-05-14T13:56:17Z</time>
      </trkpt>
      <trkpt lat="46.85785" lon="-1.01163">
        <ele>109</ele>
        <time>2022-05-14T13:56:18Z</time>
      </trkpt>
      <trkpt lat="46.85775" lon="-1.01169">
        <ele>109</ele>
        <time>2022-05-14T13:56:20Z</time>
      </trkpt>
      <trkpt lat="46.85773" lon="-1.01163">
        <ele>109</ele>
        <time>2022-05-14T13:56:21Z</time>
      </trkpt>
      <trkpt lat="46.85773" lon="-1.01149">
        <ele>109</ele>
        <time>2022-05-14T13:56:23Z</time>
      </trkpt>
      <trkpt lat="46.85777" lon="-1.01137">
        <ele>110</ele>
        <time>2022-05-14T13:56:25Z</time>
      </trkpt>
      <trkpt lat="46.8578" lon="-1.01133">
        <ele>110</ele>
        <time>2022-05-14T13:56:25Z</time>
      </trkpt>
      <trkpt lat="46.85792" lon="-1.01128">
        <ele>110</ele>
        <time>2022-05-14T13:56:27Z</time>
      </trkpt>
      <trkpt lat="46.85796" lon="-1.01124">
        <ele>110</ele>
        <time>2022-05-14T13:56:28Z</time>
      </trkpt>
      <trkpt lat="46.85801" lon="-1.01113">
        <ele>110</ele>
        <time>2022-05-14T13:56:30Z</time>
      </trkpt>
      <trkpt lat="46.85809" lon="-1.01063">
        <ele>111</ele>
        <time>2022-05-14T13:56:36Z</time>
      </trkpt>
      <trkpt lat="46.85819" lon="-1.0102">
        <ele>112</ele>
        <time>2022-05-14T13:56:42Z</time>
      </trkpt>
      <trkpt lat="46.85832" lon="-1.00976">
        <ele>112</ele>
        <time>2022-05-14T13:56:48Z</time>
      </trkpt>
      <trkpt lat="46.85837" lon="-1.00974">
        <ele>112</ele>
        <time>2022-05-14T13:56:48Z</time>
      </trkpt>
      <trkpt lat="46.85839" lon="-1.00934">
        <ele>113</ele>
        <time>2022-05-14T13:56:53Z</time>
      </trkpt>
      <trkpt lat="46.85837" lon="-1.00923">
        <ele>113</ele>
        <time>2022-05-14T13:56:55Z</time>
      </trkpt>
      <trkpt lat="46.85838" lon="-1.00917">
        <ele>113</ele>
        <time>2022-05-14T13:56:55Z</time>
      </trkpt>
      <trkpt lat="46.8584" lon="-1.00911">
        <ele>113</ele>
        <time>2022-05-14T13:56:56Z</time>
      </trkpt>
      <trkpt lat="46.85848" lon="-1.00905">
        <ele>113</ele>
        <time>2022-05-14T13:56:58Z</time>
      </trkpt>
      <trkpt lat="46.85852" lon="-1.00904">
        <ele>113</ele>
        <time>2022-05-14T13:56:59Z</time>
      </trkpt>
      <trkpt lat="46.85873" lon="-1.00879">
        <ele>113</ele>
        <time>2022-05-14T13:57:03Z</time>
      </trkpt>
      <trkpt lat="46.85992" lon="-1.00579">
        <ele>113</ele>
        <time>2022-05-14T13:57:46Z</time>
      </trkpt>
      <trkpt lat="46.86004" lon="-1.00541">
        <ele>114</ele>
        <time>2022-05-14T13:57:51Z</time>
      </trkpt>
      <trkpt lat="46.86041" lon="-1.00409">
        <ele>115</ele>
        <time>2022-05-14T13:58:08Z</time>
      </trkpt>
      <trkpt lat="46.8614" lon="-1.00467">
        <ele>116</ele>
        <time>2022-05-14T13:58:27Z</time>
      </trkpt>
      <trkpt lat="46.8617" lon="-1.00489">
        <ele>115</ele>
        <time>2022-05-14T13:58:33Z</time>
      </trkpt>
      <trkpt lat="46.86189" lon="-1.00512">
        <ele>115</ele>
        <time>2022-05-14T13:58:37Z</time>
      </trkpt>
      <trkpt lat="46.86228" lon="-1.00664">
        <ele>117</ele>
        <time>2022-05-14T13:58:57Z</time>
      </trkpt>
      <trkpt lat="46.86234" lon="-1.00681">
        <ele>117</ele>
        <time>2022-05-14T13:58:59Z</time>
      </trkpt>
      <trkpt lat="46.8627" lon="-1.00662">
        <ele>118</ele>
        <time>2022-05-14T13:59:06Z</time>
      </trkpt>
      <trkpt lat="46.86315" lon="-1.00632">
        <ele>119</ele>
        <time>2022-05-14T13:59:15Z</time>
      </trkpt>
      <trkpt lat="46.86335" lon="-1.00614">
        <ele>119</ele>
        <time>2022-05-14T13:59:19Z</time>
      </trkpt>
      <trkpt lat="46.86367" lon="-1.00578">
        <ele>120</ele>
        <time>2022-05-14T13:59:26Z</time>
      </trkpt>
    </trkseg>
  </trk>
</gpx>